GFSCGP_prec_precacc_027.txt.gz
Total_Precipitation_Accumulation
0.00 0.00 0.00 0.00 0.00 0.00 0.00 0.00 0.00 0.00 0.00 0.00 0.00 0.00 0.00 0.00 0.00 0.00 0.02 0.01 0.00 0.00 0.01 0.04 0.07 0.08 0.05 0.06 0.26 0.38 0.55 0.58 0.26 0.13 0.14 0.12 0.06 0.03 0.01 0.00 0.00 0.00 0.00 0.00
0.00 0.00 0.00 0.00 0.00 0.00 0.00 0.00 0.00 0.00 0.00 0.00 0.00 0.00 0.00 0.00 0.00 0.00 0.00 0.00 0.00 0.00 0.00 0.01 0.03 0.05 0.07 0.14 0.35 0.44 0.26 0.15 0.04 0.07 0.06 0.04 0.02 0.01 0.00 0.00 0.00 0.00 0.00 0.00
0.00 0.00 0.00 0.00 0.00 0.00 0.00 0.00 0.00 0.00 0.00 0.00 0.00 0.00 0.00 0.00 0.00 0.00 0.00 0.00 0.00 0.00 0.02 0.02 0.04 0.03 0.05 0.07 0.11 0.22 0.04 0.02 0.01 0.02 0.01 0.00 0.00 0.00 0.00 0.00 0.00 0.00 0.00 0.00
0.00 0.00 0.00 0.00 0.00 0.00 0.00 0.00 0.00 0.00 0.00 0.00 0.00 0.00 0.02 0.01 0.00 0.00 0.00 0.00 0.00 0.00 0.00 0.00 0.00 0.00 0.03 0.02 0.03 0.10 0.04 0.00 0.00 0.00 0.00 0.00 0.00 0.00 0.00 0.00 0.00 0.00 0.00 0.00
0.02 0.00 0.00 0.00 0.00 0.00 0.01 0.00 0.00 0.00 0.00 0.05 0.02 0.01 0.03 0.02 0.00 0.00 0.00 0.00 0.00 0.00 0.00 0.00 0.00 0.00 0.00 0.02 0.02 0.02 0.01 0.00 0.00 0.00 0.00 0.00 0.00 0.00 0.00 0.00 0.00 0.00 0.00 0.00
0.00 0.00 0.01 0.01 0.00 0.00 0.00 0.00 0.00 0.00 0.00 0.01 0.01 0.02 0.03 0.02 0.01 0.04 0.02 0.00 0.00 0.00 0.00 0.00 0.00 0.00 0.00 0.00 0.01 0.00 0.00 0.00 0.00 0.00 0.00 0.00 0.00 0.00 0.00 0.00 0.00 0.00 0.00 0.00
0.00 0.00 0.00 0.00 0.00 0.00 0.00 0.00 0.00 0.04 0.02 0.01 0.03 0.03 0.04 0.01 0.06 0.16 0.09 0.00 0.00 0.00 0.00 0.00 0.00 0.00 0.00 0.00 0.00 0.00 0.00 0.00 0.00 0.00 0.00 0.00 0.00 0.00 0.00 0.00 0.00 0.00 0.00 0.00
0.00 0.01 0.00 0.00 0.00 0.01 0.00 0.00 0.00 0.07 0.03 0.01 0.02 0.02 0.00 0.00 0.00 0.00 0.00 0.00 0.00 0.00 0.00 0.00 0.00 0.00 0.01 0.00 0.00 0.00 0.00 0.00 0.00 0.00 0.00 0.00 0.00 0.00 0.00 0.00 0.00 0.00 0.00 0.00
0.04 0.01 0.01 0.00 0.00 0.00 0.00 0.00 0.00 0.00 0.00 0.00 0.00 0.01 0.00 0.00 0.00 0.00 0.00 0.00 0.00 0.00 0.00 0.00 0.00 0.00 0.00 0.00 0.00 0.00 0.00 0.00 0.00 0.00 0.00 0.00 0.00 0.00 0.00 0.00 0.00 0.00 0.00 0.00
0.06 0.16 0.03 0.00 0.00 0.00 0.00 0.00 0.00 0.00 0.00 0.00 0.00 0.00 0.01 0.00 0.01 0.00 0.00 0.00 0.00 0.00 0.00 0.00 0.00 0.00 0.00 0.00 0.00 0.00 0.00 0.00 0.00 0.00 0.00 0.00 0.00 0.00 0.00 0.00 0.00 0.00 0.00 0.00
0.00 0.02 0.03 0.00 0.00 0.00 0.00 0.00 0.00 0.00 0.00 0.00 0.00 0.00 0.00 0.00 0.00 0.00 0.00 0.00 0.00 0.00 0.00 0.00 0.00 0.00 0.00 0.00 0.00 0.00 0.00 0.00 0.00 0.00 0.00 0.00 0.00 0.00 0.00 0.00 0.00 0.00 0.00 0.00
0.00 0.00 0.00 0.00 0.00 0.00 0.00 0.01 0.01 0.00 0.00 0.00 0.00 0.00 0.00 0.00 0.00 0.00 0.00 0.00 0.00 0.00 0.00 0.00 0.00 0.00 0.00 0.00 0.00 0.00 0.00 0.00 0.00 0.00 0.00 0.00 0.00 0.00 0.00 0.00 0.00 0.00 0.00 0.00
0.00 0.00 0.00 0.00 0.00 0.00 0.00 0.00 0.00 0.00 0.00 0.00 0.00 0.00 0.00 0.00 0.00 0.00 0.00 0.00 0.00 0.00 0.00 0.00 0.00 0.00 0.00 0.00 0.00 0.00 0.00 0.00 0.00 0.00 0.00 0.00 0.00 0.00 0.00 0.00 0.00 0.00 0.00 0.01
0.00 0.00 0.00 0.00 0.00 0.00 0.00 0.00 0.00 0.00 0.00 0.00 0.00 0.00 0.00 0.00 0.00 0.00 0.00 0.00 0.00 0.00 0.00 0.00 0.00 0.00 0.00 0.00 0.00 0.00 0.00 0.00 0.00 0.00 0.00 0.01 0.01 0.01 0.00 0.00 0.01 0.01 0.02 0.03
0.00 0.00 0.00 0.00 0.00 0.00 0.00 0.00 0.00 0.00 0.00 0.00 0.00 0.00 0.00 0.00 0.00 0.00 0.00 0.00 0.00 0.00 0.00 0.00 0.00 0.00 0.00 0.00 0.01 0.00 0.00 0.00 0.00 0.00 0.00 0.00 0.01 0.01 0.02 0.04 0.02 0.03 0.02 0.00
0.00 0.00 0.00 0.00 0.00 0.00 0.00 0.00 0.00 0.00 0.00 0.00 0.00 0.00 0.00 0.00 0.00 0.00 0.00 0.00 0.00 0.00 0.00 0.00 0.00 0.01 0.01 0.00 0.00 0.00 0.00 0.00 0.00 0.00 0.00 0.01 0.01 0.03 0.04 0.02 0.04 0.02 0.01 0.00
0.00 0.00 0.00 0.00 0.00 0.00 0.00 0.00 0.00 0.00 0.00 0.00 0.00 0.00 0.00 0.00 0.00 0.00 0.00 0.00 0.00 0.00 0.00 0.00 0.00 0.00 0.01 0.01 0.00 0.00 0.00 0.00 0.00 0.00 0.00 0.01 0.01 0.02 0.02 0.04 0.02 0.00 0.01 0.00
0.01 0.00 0.00 0.00 0.00 0.00 0.00 0.00 0.00 0.00 0.00 0.00 0.00 0.00 0.00 0.00 0.00 0.00 0.00 0.00 0.00 0.00 0.00 0.00 0.00 0.00 0.00 0.00 0.00 0.00 0.00 0.00 0.00 0.00 0.00 0.00 0.01 0.01 0.04 0.03 0.01 0.01 0.00 0.00
0.01 0.00 0.00 0.00 0.00 0.00 0.00 0.00 0.00 0.00 0.00 0.00 0.00 0.00 0.00 0.00 0.00 0.00 0.00 0.00 0.00 0.00 0.00 0.00 0.00 0.00 0.00 0.00 0.00 0.00 0.00 0.00 0.00 0.00 0.00 0.01 0.01 0.01 0.01 0.01 0.02 0.01 0.00 0.00
0.00 0.00 0.00 0.00 0.00 0.00 0.00 0.00 0.00 0.00 0.00 0.00 0.00 0.00 0.00 0.00 0.00 0.00 0.00 0.00 0.00 0.00 0.00 0.00 0.00 0.00 0.00 0.00 0.00 0.00 0.00 0.00 0.00 0.00 0.00 0.00 0.01 0.01 0.02 0.02 0.00 0.00 0.00 0.00
0.00 0.00 0.00 0.00 0.00 0.00 0.00 0.00 0.00 0.00 0.00 0.00 0.00 0.00 0.00 0.00 0.00 0.00 0.00 0.00 0.00 0.00 0.00 0.00 0.00 0.00 0.00 0.00 0.00 0.00 0.00 0.00 0.01 0.02 0.04 0.04 0.01 0.01 0.00 0.00 0.00 0.00 0.00 0.00
0.00 0.00 0.00 0.00 0.00 0.00 0.00 0.00 0.00 0.00 0.00 0.00 0.00 0.00 0.00 0.00 0.00 0.00 0.00 0.00 0.00 0.00 0.00 0.00 0.00 0.00 0.00 0.00 0.01 0.03 0.04 0.03 0.05 0.05 0.03 0.01 0.00 0.00 0.00 0.00 0.00 0.00 0.00 0.00
0.00 0.00 0.00 0.00 0.00 0.00 0.00 0.00 0.00 0.00 0.00 0.00 0.00 0.00 0.00 0.00 0.00 0.00 0.00 0.00 0.00 0.00 0.00 0.00 0.00 0.00 0.01 0.04 0.06 0.04 0.01 0.02 0.02 0.01 0.01 0.00 0.00 0.00 0.00 0.00 0.00 0.00 0.00 0.00
0.00 0.00 0.00 0.00 0.00 0.00 0.00 0.00 0.00 0.00 0.00 0.00 0.00 0.00 0.00 0.00 0.00 0.00 0.00 0.00 0.00 0.00 0.00 0.00 0.04 0.08 0.09 0.04 0.01 0.01 0.01 0.01 0.01 0.00 0.00 0.00 0.00 0.00 0.00 0.00 0.00 0.00 0.00 0.00
0.00 0.00 0.00 0.00 0.00 0.00 0.00 0.00 0.00 0.00 0.00 0.00 0.00 0.00 0.00 0.00 0.00 0.00 0.00 0.00 0.00 0.01 0.03 0.08 0.07 0.04 0.02 0.01 0.01 0.01 0.00 0.00 0.00 0.00 0.00 0.00 0.00 0.00 0.00 0.00 0.00 0.00 0.00 0.00
0.00 0.00 0.00 0.00 0.00 0.00 0.00 0.00 0.00 0.00 0.00 0.00 0.00 0.00 0.00 0.00 0.00 0.00 0.00 0.01 0.04 0.11 0.12 0.05 0.02 0.02 0.02 0.01 0.00 0.00 0.00 0.00 0.00 0.00 0.00 0.02 0.03 0.02 0.01 0.00 0.00 0.00 0.00 0.00

GFSCGP_prec_precacc_030.txt.gz
Total_Precipitation_Accumulation
0.00 0.00 0.00 0.00 0.00 0.00 0.00 0.00 0.00 0.00 0.00 0.00 0.00 0.00 0.00 0.00 0.00 0.00 0.03 0.01 0.00 0.00 0.01 0.04 0.07 0.08 0.05 0.06 0.26 0.38 0.56 0.58 0.26 0.13 0.14 0.12 0.06 0.03 0.01 0.00 0.00 0.00 0.00 0.00
0.00 0.00 0.00 0.00 0.00 0.00 0.00 0.00 0.00 0.00 0.00 0.00 0.00 0.00 0.00 0.00 0.00 0.00 0.00 0.00 0.00 0.00 0.00 0.01 0.03 0.05 0.07 0.14 0.36 0.45 0.30 0.16 0.04 0.07 0.07 0.04 0.02 0.01 0.00 0.00 0.00 0.00 0.00 0.00
0.00 0.00 0.00 0.00 0.00 0.00 0.00 0.00 0.00 0.00 0.00 0.00 0.00 0.00 0.00 0.00 0.00 0.00 0.00 0.00 0.00 0.00 0.02 0.02 0.04 0.03 0.05 0.07 0.11 0.23 0.10 0.05 0.01 0.02 0.01 0.00 0.00 0.00 0.00 0.00 0.00 0.00 0.00 0.00
0.00 0.00 0.00 0.00 0.00 0.00 0.00 0.00 0.00 0.00 0.00 0.00 0.00 0.00 0.02 0.01 0.00 0.00 0.00 0.00 0.00 0.00 0.00 0.00 0.00 0.00 0.03 0.03 0.05 0.22 0.09 0.02 0.02 0.02 0.00 0.00 0.00 0.00 0.00 0.00 0.00 0.00 0.00 0.00
0.02 0.00 0.00 0.00 0.00 0.00 0.01 0.00 0.00 0.00 0.00 0.05 0.02 0.01 0.03 0.02 0.00 0.00 0.00 0.00 0.00 0.00 0.00 0.00 0.00 0.00 0.00 0.06 0.06 0.15 0.04 0.00 0.00 0.01 0.00 0.00 0.00 0.00 0.00 0.00 0.00 0.00 0.00 0.00
0.00 0.00 0.01 0.01 0.00 0.00 0.00 0.00 0.00 0.00 0.00 0.01 0.01 0.02 0.03 0.02 0.01 0.04 0.02 0.00 0.00 0.00 0.01 0.00 0.00 0.00 0.01 0.02 0.02 0.06 0.02 0.00 0.00 0.00 0.00 0.00 0.00 0.00 0.00 0.00 0.00 0.00 0.00 0.00
0.00 0.00 0.00 0.00 0.00 0.00 0.00 0.00 0.00 0.04 0.02 0.01 0.03 0.03 0.05 0.01 0.06 0.16 0.09 0.00 0.00 0.00 0.00 0.00 0.00 0.00 0.00 0.00 0.05 0.04 0.01 0.00 0.00 0.00 0.00 0.00 0.00 0.00 0.00 0.00 0.00 0.00 0.00 0.00
0.00 0.01 0.00 0.00 0.00 0.01 0.00 0.00 0.00 0.07 0.03 0.01 0.02 0.02 0.01 0.00 0.00 0.00 0.00 0.00 0.00 0.00 0.00 0.00 0.00 0.00 0.05 0.04 0.02 0.04 0.00 0.00 0.00 0.00 0.00 0.00 0.00 0.00 0.00 0.00 0.00 0.00 0.00 0.00
0.04 0.01 0.01 0.00 0.00 0.00 0.00 0.00 0.00 0.00 0.00 0.00 0.00 0.01 0.00 0.00 0.00 0.00 0.00 0.00 0.00 0.00 0.00 0.00 0.00 0.01 0.05 0.05 0.01 0.00 0.00 0.00 0.00 0.01 0.00 0.00 0.00 0.00 0.00 0.00 0.00 0.00 0.00 0.00
0.06 0.16 0.03 0.00 0.00 0.00 0.00 0.00 0.00 0.00 0.00 0.00 0.00 0.00 0.01 0.00 0.01 0.00 0.00 0.00 0.00 0.00 0.00 0.00 0.00 0.00 0.00 0.01 0.00 0.00 0.00 0.00 0.00 0.01 0.00 0.00 0.00 0.00 0.00 0.00 0.00 0.00 0.00 0.00
0.00 0.02 0.03 0.00 0.00 0.00 0.00 0.00 0.00 0.00 0.00 0.00 0.00 0.00 0.00 0.00 0.00 0.00 0.00 0.00 0.00 0.00 0.00 0.00 0.00 0.00 0.00 0.00 0.00 0.00 0.00 0.00 0.00 0.00 0.00 0.00 0.00 0.00 0.00 0.00 0.00 0.00 0.00 0.00
0.00 0.00 0.00 0.00 0.00 0.00 0.00 0.01 0.03 0.00 0.00 0.00 0.00 0.00 0.00 0.00 0.00 0.00 0.00 0.00 0.00 0.00 0.00 0.00 0.00 0.00 0.00 0.00 0.00 0.00 0.00 0.00 0.00 0.00 0.00 0.00 0.00 0.00 0.00 0.00 0.00 0.00 0.00 0.00
0.00 0.00 0.00 0.00 0.00 0.00 0.00 0.00 0.00 0.00 0.00 0.00 0.00 0.00 0.00 0.00 0.00 0.00 0.00 0.00 0.00 0.00 0.00 0.00 0.00 0.00 0.00 0.00 0.00 0.00 0.00 0.00 0.00 0.00 0.00 0.00 0.00 0.00 0.00 0.00 0.00 0.00 0.00 0.01
0.00 0.00 0.00 0.00 0.00 0.00 0.00 0.00 0.00 0.00 0.00 0.00 0.00 0.00 0.00 0.00 0.00 0.00 0.00 0.00 0.00 0.00 0.00 0.00 0.00 0.00 0.00 0.00 0.00 0.00 0.00 0.00 0.00 0.00 0.00 0.01 0.01 0.01 0.00 0.00 0.01 0.01 0.02 0.03
0.00 0.00 0.00 0.00 0.00 0.00 0.00 0.00 0.00 0.00 0.00 0.00 0.00 0.00 0.00 0.00 0.00 0.00 0.00 0.00 0.00 0.00 0.00 0.00 0.00 0.00 0.00 0.00 0.01 0.01 0.01 0.00 0.00 0.00 0.00 0.00 0.01 0.01 0.02 0.04 0.02 0.03 0.02 0.00
0.00 0.00 0.00 0.00 0.00 0.00 0.00 0.00 0.00 0.00 0.00 0.00 0.00 0.00 0.00 0.00 0.00 0.00 0.00 0.00 0.00 0.00 0.00 0.00 0.00 0.02 0.01 0.01 0.01 0.01 0.00 0.00 0.00 0.00 0.00 0.01 0.01 0.03 0.04 0.02 0.04 0.02 0.01 0.00
0.00 0.00 0.00 0.00 0.00 0.00 0.00 0.00 0.00 0.00 0.00 0.00 0.00 0.00 0.00 0.00 0.00 0.00 0.00 0.00 0.00 0.00 0.00 0.00 0.00 0.00 0.01 0.01 0.00 0.00 0.00 0.00 0.00 0.00 0.00 0.01 0.01 0.02 0.02 0.04 0.02 0.00 0.01 0.00
0.01 0.00 0.00 0.00 0.00 0.00 0.00 0.00 0.00 0.00 0.00 0.00 0.00 0.00 0.00 0.00 0.00 0.00 0.00 0.00 0.00 0.00 0.00 0.00 0.00 0.00 0.00 0.00 0.00 0.00 0.01 0.00 0.00 0.00 0.00 0.00 0.01 0.01 0.04 0.03 0.02 0.03 0.01 0.00
0.02 0.01 0.00 0.00 0.00 0.00 0.00 0.00 0.00 0.00 0.00 0.00 0.00 0.00 0.00 0.00 0.00 0.00 0.00 0.00 0.00 0.00 0.00 0.00 0.00 0.00 0.00 0.00 0.00 0.00 0.00 0.00 0.00 0.00 0.00 0.01 0.01 0.01 0.04 0.07 0.07 0.02 0.00 0.00
0.00 0.00 0.00 0.00 0.00 0.00 0.00 0.00 0.00 0.00 0.00 0.00 0.00 0.00 0.00 0.00 0.00 0.00 0.00 0.00 0.00 0.00 0.00 0.00 0.00 0.00 0.00 0.00 0.00 0.00 0.00 0.00 0.00 0.00 0.00 0.02 0.05 0.10 0.11 0.06 0.01 0.00 0.00 0.00
0.00 0.00 0.00 0.00 0.00 0.00 0.00 0.00 0.00 0.00 0.00 0.00 0.00 0.00 0.00 0.00 0.00 0.00 0.00 0.00 0.00 0.00 0.00 0.00 0.00 0.00 0.00 0.00 0.00 0.00 0.00 0.01 0.03 0.05 0.10 0.15 0.14 0.08 0.02 0.00 0.00 0.00 0.00 0.00
0.00 0.00 0.00 0.00 0.00 0.00 0.00 0.00 0.00 0.00 0.00 0.00 0.00 0.00 0.00 0.00 0.00 0.00 0.00 0.00 0.00 0.00 0.00 0.00 0.00 0.00 0.00 0.00 0.01 0.03 0.04 0.05 0.09 0.13 0.12 0.06 0.01 0.00 0.00 0.00 0.00 0.00 0.00 0.00
0.00 0.00 0.00 0.00 0.00 0.00 0.00 0.00 0.00 0.00 0.00 0.00 0.00 0.00 0.00 0.00 0.00 0.00 0.00 0.00 0.00 0.00 0.00 0.00 0.00 0.00 0.01 0.04 0.06 0.04 0.02 0.03 0.04 0.02 0.01 0.00 0.00 0.00 0.00 0.00 0.00 0.00 0.00 0.00
0.00 0.00 0.00 0.00 0.00 0.00 0.00 0.00 0.00 0.00 0.00 0.00 0.00 0.00 0.00 0.00 0.00 0.00 0.00 0.00 0.00 0.00 0.00 0.00 0.04 0.08 0.09 0.04 0.01 0.01 0.01 0.01 0.01 0.00 0.00 0.00 0.00 0.00 0.00 0.00 0.00 0.00 0.00 0.00
0.00 0.00 0.00 0.00 0.00 0.00 0.00 0.00 0.00 0.00 0.00 0.00 0.00 0.00 0.00 0.00 0.00 0.00 0.00 0.00 0.00 0.01 0.03 0.08 0.07 0.04 0.02 0.01 0.01 0.01 0.00 0.00 0.00 0.00 0.00 0.00 0.00 0.00 0.00 0.00 0.00 0.00 0.00 0.00
0.00 0.00 0.00 0.00 0.00 0.00 0.00 0.00 0.00 0.00 0.00 0.00 0.00 0.00 0.00 0.00 0.00 0.00 0.00 0.01 0.04 0.11 0.12 0.05 0.02 0.02 0.02 0.01 0.00 0.00 0.00 0.00 0.00 0.00 0.00 0.02 0.03 0.02 0.01 0.00 0.00 0.00 0.00 0.00

GFSCGP_prec_precacc_033.txt.gz
Total_Precipitation_Accumulation
0.00 0.00 0.00 0.00 0.00 0.00 0.00 0.00 0.00 0.00 0.00 0.00 0.00 0.00 0.00 0.00 0.01 0.01 0.03 0.01 0.01 0.00 0.01 0.04 0.07 0.08 0.05 0.06 0.26 0.38 0.56 0.58 0.26 0.13 0.14 0.12 0.06 0.03 0.01 0.00 0.00 0.00 0.00 0.00
0.00 0.00 0.00 0.00 0.00 0.00 0.00 0.00 0.00 0.00 0.00 0.00 0.00 0.00 0.00 0.00 0.00 0.00 0.00 0.00 0.00 0.00 0.00 0.01 0.03 0.05 0.07 0.14 0.36 0.46 0.31 0.16 0.04 0.07 0.07 0.04 0.02 0.01 0.00 0.00 0.00 0.00 0.00 0.00
0.00 0.00 0.00 0.00 0.00 0.00 0.00 0.00 0.00 0.00 0.00 0.00 0.00 0.00 0.00 0.00 0.00 0.00 0.00 0.00 0.00 0.00 0.02 0.02 0.04 0.03 0.05 0.07 0.11 0.23 0.13 0.06 0.01 0.02 0.01 0.01 0.00 0.00 0.00 0.00 0.00 0.00 0.00 0.00
0.00 0.00 0.00 0.00 0.00 0.00 0.00 0.00 0.00 0.00 0.00 0.00 0.00 0.00 0.02 0.01 0.00 0.00 0.00 0.01 0.00 0.00 0.00 0.00 0.00 0.00 0.03 0.03 0.05 0.22 0.13 0.05 0.03 0.02 0.00 0.02 0.04 0.01 0.00 0.00 0.00 0.00 0.00 0.00
0.02 0.00 0.00 0.00 0.00 0.00 0.01 0.00 0.00 0.00 0.00 0.05 0.02 0.01 0.03 0.02 0.00 0.00 0.00 0.00 0.00 0.00 0.01 0.01 0.01 0.00 0.00 0.06 0.07 0.19 0.15 0.15 0.07 0.05 0.05 0.11 0.04 0.00 0.00 0.00 0.00 0.00 0.00 0.00
0.00 0.00 0.01 0.01 0.00 0.00 0.00 0.00 0.00 0.00 0.00 0.01 0.01 0.02 0.03 0.02 0.01 0.04 0.02 0.00 0.00 0.00 0.02 0.02 0.01 0.01 0.01 0.02 0.10 0.16 0.11 0.15 0.08 0.06 0.07 0.05 0.02 0.00 0.00 0.00 0.00 0.00 0.00 0.00
0.00 0.00 0.00 0.00 0.00 0.00 0.00 0.00 0.00 0.04 0.02 0.01 0.03 0.03 0.05 0.01 0.06 0.16 0.09 0.00 0.00 0.00 0.00 0.01 0.00 0.00 0.01 0.02 0.15 0.13 0.04 0.07 0.04 0.01 0.01 0.00 0.00 0.00 0.00 0.00 0.00 0.00 0.00 0.00
0.00 0.01 0.00 0.00 0.00 0.01 0.00 0.00 0.00 0.07 0.03 0.01 0.02 0.02 0.01 0.00 0.00 0.00 0.00 0.00 0.00 0.00 0.00 0.00 0.00 0.00 0.06 0.06 0.11 0.20 0.06 0.03 0.00 0.00 0.01 0.02 0.04 0.04 0.05 0.03 0.00 0.00 0.00 0.00
0.04 0.01 0.01 0.00 0.00 0.00 0.00 0.00 0.00 0.00 0.00 0.00 0.00 0.01 0.00 0.00 0.00 0.00 0.00 0.00 0.00 0.00 0.00 0.00 0.00 0.01 0.05 0.08 0.10 0.06 0.02 0.01 0.01 0.01 0.00 0.01 0.02 0.02 0.02 0.01 0.00 0.00 0.00 0.00
0.06 0.16 0.03 0.00 0.00 0.00 0.00 0.00 0.00 0.00 0.00 0.00 0.00 0.00 0.01 0.00 0.01 0.00 0.00 0.00 0.00 0.00 0.00 0.00 0.00 0.00 0.01 0.02 0.04 0.02 0.00 0.00 0.00 0.01 0.01 0.00 0.01 0.01 0.00 0.00 0.00 0.00 0.00 0.00
0.00 0.02 0.03 0.00 0.00 0.00 0.00 0.00 0.00 0.00 0.00 0.00 0.00 0.00 0.00 0.00 0.00 0.00 0.00 0.00 0.00 0.00 0.00 0.00 0.00 0.00 0.00 0.00 0.00 0.00 0.00 0.00 0.00 0.01 0.01 0.01 0.00 0.00 0.00 0.00 0.00 0.00 0.00 0.00
0.00 0.00 0.00 0.00 0.00 0.00 0.00 0.01 0.03 0.00 0.00 0.00 0.00 0.00 0.00 0.00 0.00 0.00 0.00 0.00 0.00 0.00 0.00 0.00 0.00 0.00 0.00 0.00 0.00 0.00 0.00 0.00 0.00 0.01 0.01 0.01 0.00 0.00 0.00 0.00 0.00 0.00 0.00 0.00
0.00 0.00 0.00 0.00 0.00 0.00 0.00 0.00 0.00 0.00 0.00 0.00 0.00 0.00 0.00 0.00 0.00 0.00 0.00 0.00 0.00 0.00 0.00 0.00 0.00 0.00 0.00 0.00 0.00 0.01 0.01 0.01 0.01 0.01 0.01 0.00 0.00 0.00 0.00 0.00 0.00 0.00 0.00 0.01
0.00 0.00 0.00 0.00 0.00 0.00 0.00 0.00 0.00 0.00 0.00 0.00 0.00 0.00 0.00 0.00 0.00 0.00 0.00 0.00 0.00 0.00 0.00 0.00 0.00 0.00 0.00 0.01 0.01 0.01 0.02 0.02 0.02 0.01 0.01 0.01 0.01 0.01 0.00 0.00 0.01 0.01 0.02 0.03
0.00 0.00 0.00 0.00 0.00 0.00 0.00 0.00 0.00 0.00 0.00 0.00 0.00 0.00 0.00 0.00 0.00 0.00 0.00 0.00 0.00 0.00 0.00 0.01 0.01 0.01 0.00 0.02 0.02 0.03 0.02 0.02 0.01 0.00 0.00 0.00 0.01 0.01 0.02 0.04 0.02 0.03 0.02 0.00
0.00 0.00 0.00 0.00 0.00 0.00 0.00 0.00 0.00 0.00 0.00 0.00 0.00 0.00 0.00 0.00 0.00 0.00 0.00 0.00 0.00 0.00 0.00 0.00 0.00 0.02 0.01 0.01 0.01 0.03 0.02 0.01 0.01 0.00 0.00 0.01 0.01 0.03 0.04 0.02 0.04 0.02 0.01 0.00
0.00 0.00 0.00 0.00 0.00 0.00 0.00 0.00 0.00 0.00 0.00 0.00 0.00 0.00 0.00 0.00 0.00 0.00 0.00 0.00 0.00 0.00 0.00 0.00 0.00 0.00 0.01 0.01 0.00 0.00 0.00 0.00 0.00 0.00 0.00 0.01 0.01 0.02 0.02 0.04 0.02 0.00 0.02 0.02
0.01 0.00 0.00 0.00 0.00 0.00 0.00 0.00 0.00 0.00 0.00 0.00 0.00 0.00 0.00 0.00 0.00 0.00 0.00 0.00 0.00 0.00 0.00 0.00 0.00 0.00 0.00 0.00 0.00 0.00 0.01 0.01 0.00 0.00 0.00 0.00 0.01 0.01 0.04 0.03 0.03 0.06 0.06 0.03
0.03 0.01 0.00 0.00 0.00 0.00 0.00 0.00 0.00 0.00 0.00 0.00 0.00 0.00 0.00 0.00 0.00 0.00 0.00 0.00 0.00 0.00 0.00 0.00 0.00 0.00 0.00 0.00 0.00 0.00 0.00 0.00 0.00 0.00 0.00 0.01 0.01 0.02 0.06 0.12 0.14 0.09 0.03 0.01
0.00 0.00 0.00 0.00 0.00 0.00 0.00 0.00 0.00 0.00 0.00 0.00 0.00 0.00 0.00 0.00 0.00 0.00 0.00 0.00 0.00 0.00 0.00 0.00 0.00 0.00 0.00 0.00 0.00 0.00 0.00 0.00 0.00 0.00 0.00 0.02 0.10 0.21 0.24 0.17 0.07 0.01 0.00 0.00
0.00 0.00 0.00 0.00 0.00 0.00 0.00 0.00 0.00 0.00 0.00 0.00 0.00 0.00 0.00 0.00 0.00 0.00 0.00 0.00 0.00 0.00 0.00 0.00 0.00 0.00 0.00 0.00 0.00 0.00 0.00 0.01 0.04 0.08 0.15 0.23 0.26 0.18 0.09 0.03 0.00 0.00 0.00 0.00
0.00 0.00 0.00 0.00 0.00 0.00 0.00 0.00 0.00 0.00 0.00 0.00 0.00 0.00 0.00 0.00 0.00 0.00 0.00 0.00 0.00 0.00 0.00 0.00 0.00 0.00 0.00 0.00 0.01 0.03 0.04 0.05 0.09 0.13 0.15 0.10 0.03 0.00 0.00 0.00 0.00 0.00 0.00 0.00
0.00 0.00 0.00 0.00 0.00 0.00 0.00 0.00 0.00 0.00 0.00 0.00 0.00 0.00 0.00 0.00 0.00 0.00 0.00 0.00 0.00 0.00 0.00 0.00 0.00 0.00 0.01 0.04 0.06 0.04 0.02 0.03 0.04 0.02 0.01 0.00 0.00 0.00 0.00 0.00 0.00 0.00 0.00 0.00
0.00 0.00 0.00 0.00 0.00 0.00 0.00 0.00 0.00 0.00 0.00 0.00 0.00 0.00 0.00 0.00 0.00 0.00 0.00 0.00 0.00 0.00 0.00 0.00 0.04 0.08 0.09 0.04 0.01 0.01 0.01 0.01 0.01 0.00 0.00 0.00 0.00 0.00 0.00 0.00 0.00 0.00 0.00 0.00
0.00 0.00 0.00 0.00 0.00 0.00 0.00 0.00 0.00 0.00 0.00 0.00 0.00 0.00 0.00 0.00 0.00 0.00 0.00 0.00 0.00 0.01 0.03 0.08 0.07 0.04 0.02 0.01 0.01 0.01 0.00 0.00 0.00 0.00 0.00 0.00 0.00 0.00 0.00 0.00 0.00 0.00 0.00 0.00
0.00 0.00 0.00 0.00 0.00 0.00 0.00 0.00 0.00 0.00 0.00 0.00 0.00 0.00 0.00 0.00 0.00 0.00 0.00 0.01 0.04 0.11 0.12 0.05 0.02 0.02 0.02 0.01 0.00 0.00 0.00 0.00 0.00 0.00 0.00 0.02 0.03 0.02 0.01 0.00 0.00 0.00 0.00 0.00

GFSCGP_prec_precacc_036.txt.gz
Total_Precipitation_Accumulation
0.00 0.00 0.00 0.00 0.00 0.00 0.00 0.00 0.00 0.00 0.00 0.00 0.00 0.00 0.00 0.00 0.01 0.01 0.03 0.01 0.01 0.00 0.01 0.04 0.07 0.08 0.05 0.06 0.26 0.38 0.56 0.58 0.26 0.13 0.14 0.12 0.08 0.07 0.02 0.01 0.00 0.00 0.00 0.00
0.00 0.00 0.00 0.00 0.00 0.00 0.00 0.00 0.00 0.00 0.00 0.00 0.00 0.00 0.00 0.00 0.00 0.00 0.00 0.00 0.00 0.00 0.00 0.01 0.03 0.05 0.07 0.14 0.36 0.46 0.31 0.16 0.04 0.07 0.07 0.04 0.02 0.01 0.00 0.00 0.00 0.00 0.00 0.00
0.00 0.00 0.00 0.00 0.00 0.00 0.00 0.00 0.00 0.00 0.00 0.00 0.00 0.00 0.00 0.00 0.00 0.00 0.00 0.00 0.00 0.00 0.02 0.02 0.04 0.03 0.05 0.07 0.11 0.23 0.13 0.06 0.01 0.02 0.01 0.01 0.01 0.00 0.00 0.00 0.00 0.00 0.00 0.00
0.00 0.00 0.00 0.00 0.00 0.00 0.00 0.00 0.00 0.00 0.00 0.00 0.00 0.00 0.02 0.01 0.00 0.00 0.00 0.01 0.00 0.00 0.00 0.00 0.00 0.00 0.03 0.03 0.05 0.22 0.13 0.05 0.03 0.03 0.00 0.02 0.06 0.02 0.00 0.00 0.00 0.00 0.00 0.00
0.02 0.00 0.00 0.00 0.00 0.00 0.01 0.00 0.00 0.00 0.00 0.05 0.02 0.01 0.03 0.02 0.00 0.00 0.00 0.00 0.00 0.00 0.01 0.01 0.01 0.00 0.00 0.06 0.08 0.19 0.15 0.15 0.07 0.06 0.07 0.15 0.11 0.08 0.03 0.00 0.00 0.00 0.00 0.00
0.00 0.00 0.01 0.01 0.00 0.00 0.00 0.00 0.00 0.00 0.00 0.01 0.01 0.02 0.03 0.02 0.01 0.04 0.02 0.00 0.00 0.00 0.02 0.02 0.01 0.01 0.01 0.02 0.11 0.18 0.13 0.18 0.10 0.08 0.13 0.11 0.08 0.06 0.03 0.01 0.00 0.00 0.00 0.00
0.00 0.00 0.00 0.00 0.00 0.00 0.00 0.00 0.00 0.04 0.02 0.01 0.03 0.03 0.05 0.01 0.06 0.16 0.09 0.00 0.00 0.00 0.00 0.01 0.00 0.00 0.02 0.02 0.15 0.18 0.15 0.16 0.10 0.10 0.04 0.06 0.08 0.05 0.03 0.01 0.01 0.00 0.01 0.01
0.00 0.01 0.00 0.00 0.00 0.01 0.00 0.00 0.00 0.07 0.03 0.01 0.02 0.02 0.01 0.00 0.00 0.00 0.00 0.00 0.00 0.00 0.00 0.00 0.00 0.01 0.08 0.07 0.12 0.26 0.23 0.24 0.15 0.09 0.08 0.07 0.11 0.10 0.11 0.07 0.03 0.02 0.01 0.00
0.04 0.01 0.01 0.00 0.00 0.00 0.00 0.00 0.00 0.00 0.00 0.00 0.00 0.01 0.00 0.00 0.00 0.00 0.00 0.00 0.00 0.00 0.00 0.00 0.00 0.01 0.06 0.09 0.11 0.16 0.12 0.15 0.09 0.06 0.04 0.04 0.05 0.10 0.09 0.09 0.04 0.01 0.00 0.00
0.06 0.16 0.03 0.00 0.00 0.00 0.00 0.00 0.00 0.00 0.00 0.00 0.00 0.00 0.01 0.00 0.01 0.00 0.00 0.00 0.00 0.00 0.00 0.00 0.00 0.00 0.01 0.03 0.05 0.10 0.04 0.01 0.03 0.03 0.02 0.02 0.05 0.07 0.06 0.03 0.01 0.00 0.00 0.00
0.00 0.02 0.03 0.00 0.00 0.00 0.00 0.00 0.00 0.00 0.00 0.00 0.00 0.00 0.00 0.00 0.00 0.00 0.00 0.00 0.00 0.00 0.00 0.00 0.00 0.00 0.00 0.00 0.00 0.00 0.00 0.00 0.01 0.01 0.01 0.02 0.04 0.07 0.05 0.03 0.01 0.00 0.00 0.00
0.00 0.00 0.00 0.00 0.00 0.00 0.00 0.01 0.03 0.00 0.00 0.00 0.00 0.00 0.00 0.00 0.00 0.00 0.00 0.00 0.00 0.00 0.00 0.00 0.00 0.00 0.00 0.00 0.00 0.01 0.02 0.02 0.04 0.04 0.05 0.05 0.04 0.03 0.01 0.00 0.00 0.00 0.00 0.00
0.00 0.00 0.00 0.00 0.00 0.00 0.00 0.00 0.00 0.00 0.00 0.00 0.00 0.00 0.00 0.00 0.00 0.00 0.00 0.00 0.00 0.00 0.00 0.00 0.00 0.00 0.00 0.01 0.05 0.06 0.05 0.04 0.05 0.06 0.06 0.03 0.01 0.01 0.01 0.00 0.00 0.00 0.00 0.01
0.00 0.00 0.00 0.00 0.00 0.00 0.00 0.00 0.00 0.00 0.00 0.00 0.00 0.00 0.00 0.00 0.00 0.00 0.00 0.00 0.00 0.00 0.00 0.00 0.00 0.00 0.01 0.08 0.07 0.04 0.05 0.05 0.06 0.04 0.02 0.02 0.01 0.01 0.00 0.00 0.01 0.01 0.02 0.03
0.00 0.00 0.00 0.00 0.00 0.00 0.00 0.00 0.00 0.00 0.00 0.00 0.00 0.00 0.00 0.00 0.00 0.00 0.00 0.00 0.00 0.00 0.00 0.01 0.01 0.01 0.02 0.06 0.04 0.05 0.04 0.04 0.03 0.01 0.01 0.01 0.01 0.01 0.02 0.04 0.02 0.03 0.02 0.00
0.00 0.00 0.00 0.00 0.00 0.00 0.00 0.00 0.00 0.00 0.00 0.00 0.00 0.00 0.00 0.00 0.00 0.00 0.00 0.00 0.00 0.00 0.00 0.00 0.00 0.02 0.02 0.02 0.02 0.04 0.02 0.01 0.01 0.01 0.00 0.01 0.02 0.04 0.04 0.02 0.04 0.02 0.01 0.00
0.00 0.00 0.00 0.00 0.00 0.00 0.00 0.00 0.00 0.00 0.00 0.00 0.00 0.00 0.00 0.00 0.00 0.00 0.00 0.00 0.00 0.00 0.00 0.00 0.00 0.00 0.01 0.01 0.00 0.00 0.00 0.00 0.00 0.00 0.00 0.01 0.02 0.02 0.02 0.04 0.02 0.00 0.02 0.04
0.01 0.00 0.00 0.00 0.00 0.00 0.00 0.00 0.00 0.00 0.00 0.00 0.00 0.00 0.00 0.00 0.00 0.00 0.00 0.00 0.00 0.00 0.00 0.00 0.00 0.00 0.00 0.00 0.00 0.00 0.01 0.01 0.00 0.00 0.00 0.01 0.01 0.02 0.04 0.04 0.03 0.08 0.11 0.14
0.03 0.01 0.00 0.00 0.00 0.00 0.00 0.00 0.00 0.00 0.00 0.00 0.00 0.00 0.00 0.00 0.00 0.00 0.00 0.00 0.00 0.00 0.00 0.00 0.00 0.00 0.00 0.00 0.00 0.00 0.00 0.00 0.00 0.00 0.00 0.01 0.01 0.02 0.07 0.15 0.22 0.20 0.14 0.05
0.00 0.00 0.00 0.00 0.00 0.00 0.00 0.00 0.00 0.00 0.00 0.00 0.00 0.00 0.00 0.00 0.00 0.00 0.00 0.00 0.00 0.00 0.00 0.00 0.00 0.00 0.00 0.00 0.00 0.00 0.00 0.00 0.00 0.00 0.00 0.03 0.11 0.22 0.29 0.24 0.13 0.05 0.02 0.00
0.00 0.00 0.00 0.00 0.00 0.00 0.00 0.00 0.00 0.00 0.00 0.00 0.00 0.00 0.00 0.00 0.00 0.00 0.00 0.00 0.00 0.00 0.00 0.00 0.00 0.00 0.00 0.00 0.00 0.00 0.00 0.01 0.04 0.08 0.15 0.24 0.29 0.23 0.14 0.06 0.01 0.00 0.00 0.00
0.00 0.00 0.00 0.00 0.00 0.00 0.00 0.00 0.00 0.00 0.00 0.00 0.00 0.00 0.00 0.00 0.00 0.00 0.00 0.00 0.00 0.00 0.00 0.00 0.00 0.00 0.00 0.00 0.01 0.03 0.04 0.05 0.09 0.14 0.16 0.12 0.04 0.00 0.00 0.00 0.00 0.00 0.00 0.00
0.00 0.00 0.00 0.00 0.00 0.00 0.00 0.00 0.00 0.00 0.00 0.00 0.00 0.00 0.00 0.00 0.00 0.00 0.00 0.00 0.00 0.00 0.00 0.00 0.00 0.00 0.01 0.04 0.06 0.04 0.02 0.03 0.04 0.02 0.01 0.00 0.00 0.00 0.00 0.00 0.00 0.00 0.00 0.00
0.00 0.00 0.00 0.00 0.00 0.00 0.00 0.00 0.00 0.00 0.00 0.00 0.00 0.00 0.00 0.00 0.00 0.00 0.00 0.00 0.00 0.00 0.00 0.00 0.04 0.08 0.09 0.04 0.01 0.01 0.01 0.01 0.01 0.00 0.00 0.00 0.00 0.00 0.00 0.00 0.00 0.00 0.00 0.00
0.00 0.00 0.00 0.00 0.00 0.00 0.00 0.00 0.00 0.00 0.00 0.00 0.00 0.00 0.00 0.00 0.00 0.00 0.00 0.00 0.00 0.01 0.03 0.08 0.07 0.04 0.02 0.01 0.01 0.01 0.00 0.00 0.00 0.00 0.00 0.00 0.00 0.00 0.00 0.00 0.00 0.00 0.00 0.00
0.00 0.00 0.00 0.00 0.00 0.00 0.00 0.00 0.00 0.00 0.00 0.00 0.00 0.00 0.00 0.00 0.00 0.00 0.00 0.01 0.04 0.11 0.12 0.05 0.02 0.02 0.02 0.01 0.00 0.00 0.00 0.00 0.00 0.00 0.00 0.02 0.03 0.02 0.01 0.00 0.00 0.00 0.00 0.00

GFSCGP_prec_precacc_042.txt.gz
Total_Precipitation_Accumulation
0.00 0.00 0.00 0.00 0.00 0.00 0.00 0.00 0.00 0.00 0.00 0.00 0.00 0.00 0.00 0.00 0.01 0.01 0.03 0.01 0.01 0.00 0.01 0.04 0.07 0.08 0.05 0.06 0.26 0.38 0.56 0.58 0.27 0.14 0.14 0.12 0.08 0.08 0.09 0.09 0.06 0.03 0.01 0.00
0.00 0.00 0.00 0.00 0.00 0.00 0.00 0.00 0.00 0.00 0.00 0.00 0.00 0.00 0.00 0.00 0.00 0.00 0.00 0.00 0.00 0.00 0.00 0.01 0.03 0.05 0.07 0.14 0.36 0.46 0.31 0.16 0.04 0.07 0.07 0.04 0.02 0.03 0.04 0.07 0.02 0.01 0.01 0.00
0.00 0.00 0.00 0.00 0.00 0.00 0.00 0.00 0.00 0.00 0.00 0.00 0.00 0.00 0.00 0.00 0.00 0.00 0.00 0.00 0.00 0.00 0.02 0.02 0.04 0.03 0.05 0.07 0.11 0.23 0.13 0.06 0.01 0.02 0.01 0.01 0.01 0.01 0.06 0.07 0.08 0.04 0.02 0.00
0.00 0.00 0.00 0.00 0.00 0.00 0.00 0.00 0.00 0.00 0.00 0.00 0.00 0.00 0.02 0.01 0.00 0.00 0.00 0.01 0.00 0.00 0.00 0.00 0.00 0.00 0.03 0.03 0.05 0.22 0.13 0.05 0.03 0.03 0.00 0.02 0.06 0.03 0.04 0.04 0.03 0.02 0.01 0.00
0.02 0.00 0.00 0.00 0.00 0.00 0.01 0.00 0.00 0.00 0.00 0.05 0.02 0.01 0.03 0.02 0.00 0.00 0.00 0.00 0.00 0.00 0.01 0.01 0.01 0.00 0.00 0.06 0.08 0.19 0.15 0.15 0.08 0.08 0.11 0.19 0.14 0.12 0.11 0.03 0.01 0.02 0.02 0.02
0.00 0.00 0.01 0.01 0.00 0.00 0.00 0.00 0.00 0.00 0.00 0.01 0.01 0.02 0.03 0.02 0.01 0.04 0.02 0.00 0.00 0.00 0.02 0.02 0.01 0.01 0.01 0.02 0.11 0.18 0.13 0.20 0.22 0.26 0.19 0.16 0.13 0.08 0.08 0.03 0.02 0.01 0.01 0.02
0.00 0.00 0.00 0.00 0.00 0.00 0.00 0.00 0.00 0.04 0.02 0.01 0.03 0.03 0.05 0.01 0.06 0.16 0.09 0.00 0.00 0.00 0.00 0.01 0.00 0.00 0.02 0.02 0.15 0.18 0.15 0.20 0.22 0.28 0.14 0.16 0.17 0.12 0.12 0.08 0.06 0.05 0.07 0.06
0.00 0.01 0.00 0.00 0.00 0.01 0.00 0.00 0.00 0.07 0.03 0.01 0.02 0.02 0.01 0.00 0.00 0.00 0.00 0.00 0.00 0.00 0.00 0.00 0.00 0.01 0.08 0.07 0.12 0.26 0.23 0.30 0.22 0.14 0.14 0.16 0.24 0.29 0.30 0.20 0.14 0.09 0.06 0.03
0.04 0.01 0.01 0.00 0.00 0.00 0.00 0.00 0.00 0.00 0.00 0.00 0.00 0.01 0.00 0.00 0.00 0.00 0.00 0.00 0.00 0.00 0.00 0.00 0.00 0.01 0.06 0.10 0.12 0.16 0.12 0.24 0.23 0.24 0.21 0.11 0.12 0.17 0.16 0.15 0.08 0.05 0.03 0.01
0.06 0.16 0.03 0.00 0.00 0.00 0.00 0.00 0.00 0.00 0.00 0.00 0.00 0.00 0.01 0.00 0.01 0.00 0.00 0.00 0.00 0.00 0.00 0.00 0.00 0.00 0.01 0.03 0.05 0.15 0.06 0.02 0.10 0.19 0.20 0.11 0.09 0.12 0.11 0.09 0.09 0.07 0.04 0.02
0.00 0.02 0.03 0.00 0.00 0.00 0.00 0.00 0.00 0.00 0.00 0.00 0.00 0.00 0.00 0.00 0.00 0.00 0.00 0.00 0.00 0.00 0.00 0.00 0.00 0.00 0.00 0.00 0.00 0.00 0.01 0.01 0.02 0.04 0.05 0.05 0.10 0.15 0.17 0.19 0.12 0.07 0.04 0.02
0.00 0.00 0.00 0.00 0.00 0.00 0.00 0.01 0.03 0.00 0.00 0.00 0.00 0.00 0.00 0.00 0.00 0.00 0.00 0.00 0.00 0.00 0.00 0.00 0.00 0.00 0.00 0.00 0.00 0.01 0.02 0.03 0.06 0.08 0.10 0.11 0.13 0.13 0.13 0.12 0.09 0.05 0.02 0.01
0.00 0.00 0.00 0.00 0.00 0.00 0.00 0.00 0.00 0.00 0.00 0.00 0.00 0.00 0.00 0.00 0.00 0.00 0.00 0.00 0.00 0.00 0.00 0.00 0.00 0.00 0.00 0.01 0.05 0.08 0.08 0.10 0.09 0.11 0.10 0.08 0.07 0.09 0.12 0.10 0.07 0.04 0.01 0.01
0.00 0.00 0.00 0.00 0.00 0.00 0.00 0.00 0.00 0.00 0.00 0.00 0.00 0.00 0.00 0.00 0.00 0.00 0.00 0.00 0.00 0.00 0.00 0.00 0.00 0.00 0.01 0.08 0.09 0.09 0.09 0.11 0.12 0.09 0.05 0.05 0.05 0.04 0.03 0.02 0.02 0.02 0.03 0.03
0.00 0.00 0.00 0.00 0.00 0.00 0.00 0.00 0.00 0.00 0.00 0.00 0.00 0.00 0.00 0.00 0.00 0.00 0.00 0.00 0.00 0.00 0.00 0.01 0.01 0.01 0.02 0.06 0.05 0.07 0.06 0.06 0.05 0.03 0.02 0.02 0.03 0.03 0.02 0.04 0.02 0.03 0.02 0.00
0.00 0.00 0.00 0.00 0.00 0.00 0.00 0.00 0.00 0.00 0.00 0.00 0.00 0.00 0.00 0.00 0.00 0.00 0.00 0.00 0.00 0.00 0.00 0.00 0.00 0.02 0.02 0.02 0.02 0.05 0.03 0.02 0.02 0.01 0.00 0.01 0.02 0.04 0.04 0.02 0.04 0.02 0.01 0.01
0.00 0.00 0.00 0.00 0.00 0.00 0.00 0.00 0.00 0.00 0.00 0.00 0.00 0.00 0.00 0.00 0.00 0.00 0.00 0.00 0.00 0.00 0.00 0.00 0.00 0.00 0.01 0.01 0.00 0.00 0.00 0.00 0.00 0.00 0.00 0.01 0.02 0.02 0.02 0.04 0.02 0.01 0.04 0.07
0.01 0.00 0.00 0.00 0.00 0.00 0.00 0.00 0.00 0.00 0.00 0.00 0.00 0.00 0.00 0.00 0.00 0.00 0.00 0.00 0.00 0.00 0.00 0.00 0.00 0.00 0.00 0.00 0.00 0.00 0.01 0.01 0.00 0.00 0.00 0.01 0.01 0.02 0.04 0.04 0.04 0.11 0.18 0.23
0.03 0.01 0.00 0.00 0.00 0.00 0.00 0.00 0.00 0.00 0.00 0.00 0.00 0.00 0.00 0.00 0.00 0.00 0.00 0.00 0.00 0.00 0.00 0.00 0.00 0.00 0.00 0.00 0.00 0.00 0.00 0.00 0.00 0.00 0.00 0.01 0.01 0.03 0.08 0.17 0.27 0.25 0.16 0.06
0.00 0.00 0.00 0.00 0.00 0.00 0.00 0.00 0.00 0.00 0.00 0.00 0.00 0.00 0.00 0.00 0.00 0.00 0.00 0.00 0.00 0.00 0.00 0.00 0.00 0.00 0.00 0.00 0.00 0.00 0.00 0.00 0.00 0.00 0.00 0.03 0.11 0.23 0.30 0.24 0.13 0.05 0.02 0.01
0.00 0.00 0.00 0.00 0.00 0.00 0.00 0.00 0.00 0.00 0.00 0.00 0.00 0.00 0.00 0.00 0.00 0.00 0.00 0.00 0.00 0.00 0.00 0.00 0.00 0.00 0.00 0.00 0.00 0.00 0.00 0.01 0.04 0.08 0.15 0.24 0.29 0.24 0.14 0.06 0.01 0.00 0.00 0.00
0.00 0.00 0.00 0.00 0.00 0.00 0.00 0.00 0.00 0.00 0.00 0.00 0.00 0.00 0.00 0.00 0.00 0.00 0.00 0.00 0.00 0.00 0.00 0.00 0.00 0.00 0.00 0.00 0.01 0.03 0.04 0.05 0.09 0.14 0.16 0.12 0.04 0.00 0.00 0.00 0.00 0.00 0.00 0.00
0.00 0.00 0.00 0.00 0.00 0.00 0.00 0.00 0.00 0.00 0.00 0.00 0.00 0.00 0.00 0.00 0.00 0.00 0.00 0.00 0.00 0.00 0.00 0.00 0.00 0.00 0.01 0.04 0.06 0.04 0.02 0.03 0.04 0.02 0.01 0.00 0.00 0.00 0.00 0.00 0.00 0.00 0.00 0.00
0.00 0.01 0.00 0.00 0.00 0.00 0.00 0.00 0.00 0.00 0.00 0.00 0.00 0.00 0.00 0.00 0.00 0.00 0.00 0.00 0.00 0.00 0.00 0.00 0.04 0.08 0.09 0.04 0.01 0.01 0.01 0.01 0.01 0.00 0.00 0.00 0.00 0.00 0.00 0.00 0.00 0.00 0.00 0.00
0.00 0.00 0.00 0.00 0.00 0.00 0.00 0.00 0.00 0.00 0.00 0.00 0.00 0.00 0.00 0.00 0.00 0.00 0.00 0.00 0.00 0.01 0.03 0.08 0.07 0.04 0.02 0.01 0.01 0.01 0.00 0.00 0.00 0.00 0.00 0.00 0.00 0.00 0.00 0.00 0.00 0.00 0.00 0.00
0.00 0.00 0.00 0.00 0.00 0.00 0.00 0.00 0.00 0.00 0.00 0.00 0.00 0.00 0.00 0.00 0.00 0.00 0.00 0.01 0.04 0.11 0.12 0.05 0.02 0.02 0.02 0.01 0.00 0.00 0.00 0.00 0.00 0.00 0.00 0.02 0.03 0.02 0.01 0.00 0.00 0.00 0.00 0.00

GFSCGP_prec_precacc_045.txt.gz
Total_Precipitation_Accumulation
0.00 0.00 0.00 0.00 0.00 0.00 0.00 0.00 0.00 0.00 0.00 0.00 0.00 0.00 0.01 0.00 0.01 0.01 0.03 0.01 0.01 0.00 0.01 0.04 0.07 0.08 0.05 0.06 0.26 0.38 0.56 0.59 0.33 0.18 0.15 0.12 0.08 0.08 0.09 0.11 0.08 0.04 0.02 0.00
0.00 0.00 0.00 0.00 0.00 0.00 0.00 0.00 0.00 0.00 0.00 0.00 0.00 0.00 0.00 0.00 0.00 0.00 0.00 0.00 0.00 0.00 0.00 0.01 0.03 0.05 0.07 0.14 0.36 0.46 0.31 0.17 0.07 0.11 0.07 0.04 0.02 0.03 0.04 0.07 0.03 0.02 0.01 0.00
0.00 0.00 0.00 0.00 0.00 0.00 0.00 0.00 0.00 0.00 0.00 0.00 0.00 0.00 0.00 0.00 0.00 0.00 0.00 0.00 0.00 0.00 0.02 0.02 0.04 0.03 0.05 0.07 0.11 0.23 0.13 0.06 0.01 0.02 0.01 0.01 0.01 0.01 0.06 0.07 0.08 0.04 0.02 0.01
0.00 0.00 0.00 0.00 0.00 0.00 0.00 0.00 0.00 0.00 0.00 0.00 0.00 0.01 0.02 0.01 0.00 0.00 0.00 0.01 0.00 0.00 0.00 0.00 0.00 0.00 0.03 0.03 0.05 0.22 0.13 0.05 0.03 0.03 0.00 0.02 0.06 0.03 0.04 0.04 0.04 0.02 0.01 0.00
0.02 0.00 0.00 0.00 0.00 0.00 0.01 0.00 0.00 0.00 0.00 0.05 0.02 0.01 0.03 0.02 0.00 0.00 0.00 0.00 0.00 0.00 0.01 0.01 0.01 0.00 0.00 0.06 0.08 0.19 0.15 0.15 0.08 0.08 0.11 0.19 0.14 0.12 0.11 0.03 0.03 0.02 0.03 0.04
0.00 0.00 0.01 0.01 0.00 0.00 0.00 0.00 0.00 0.00 0.00 0.01 0.01 0.02 0.03 0.02 0.01 0.04 0.02 0.00 0.00 0.00 0.02 0.02 0.01 0.01 0.01 0.02 0.11 0.18 0.13 0.20 0.22 0.26 0.19 0.16 0.13 0.11 0.14 0.11 0.04 0.02 0.03 0.04
0.00 0.00 0.00 0.00 0.00 0.00 0.00 0.00 0.01 0.05 0.02 0.01 0.03 0.03 0.05 0.01 0.06 0.16 0.09 0.00 0.00 0.00 0.00 0.01 0.00 0.00 0.02 0.02 0.15 0.18 0.15 0.20 0.22 0.28 0.14 0.17 0.21 0.23 0.31 0.26 0.14 0.08 0.10 0.10
0.00 0.01 0.00 0.00 0.00 0.01 0.00 0.00 0.01 0.11 0.03 0.02 0.02 0.02 0.01 0.00 0.00 0.00 0.00 0.00 0.00 0.00 0.00 0.00 0.00 0.01 0.08 0.07 0.12 0.26 0.23 0.30 0.22 0.15 0.16 0.19 0.27 0.31 0.36 0.35 0.31 0.19 0.15 0.11
0.04 0.01 0.01 0.00 0.00 0.00 0.00 0.00 0.00 0.00 0.00 0.00 0.00 0.01 0.00 0.00 0.00 0.00 0.00 0.00 0.00 0.00 0.00 0.00 0.00 0.01 0.06 0.10 0.12 0.16 0.12 0.24 0.23 0.25 0.28 0.18 0.12 0.17 0.19 0.21 0.16 0.13 0.08 0.04
0.06 0.16 0.03 0.00 0.00 0.00 0.00 0.00 0.00 0.00 0.00 0.00 0.00 0.00 0.01 0.00 0.01 0.00 0.00 0.00 0.00 0.00 0.00 0.00 0.00 0.00 0.01 0.03 0.05 0.15 0.06 0.02 0.10 0.19 0.20 0.12 0.09 0.12 0.12 0.11 0.10 0.07 0.04 0.02
0.00 0.02 0.03 0.00 0.00 0.00 0.00 0.00 0.00 0.00 0.00 0.00 0.00 0.00 0.00 0.00 0.00 0.00 0.00 0.00 0.00 0.00 0.00 0.00 0.00 0.00 0.00 0.00 0.00 0.00 0.01 0.01 0.02 0.04 0.05 0.06 0.11 0.16 0.18 0.23 0.15 0.07 0.04 0.02
0.00 0.00 0.00 0.00 0.00 0.00 0.00 0.01 0.03 0.00 0.00 0.00 0.00 0.00 0.00 0.00 0.00 0.00 0.00 0.00 0.00 0.00 0.00 0.00 0.00 0.00 0.00 0.00 0.00 0.01 0.02 0.03 0.06 0.08 0.11 0.12 0.14 0.13 0.14 0.13 0.09 0.05 0.02 0.01
0.00 0.00 0.00 0.00 0.00 0.00 0.00 0.00 0.00 0.00 0.00 0.00 0.01 0.00 0.00 0.00 0.00 0.00 0.00 0.00 0.00 0.00 0.00 0.00 0.00 0.00 0.00 0.01 0.05 0.08 0.08 0.10 0.09 0.11 0.11 0.09 0.09 0.10 0.12 0.10 0.07 0.04 0.02 0.02
0.00 0.00 0.00 0.00 0.00 0.00 0.00 0.00 0.00 0.00 0.00 0.00 0.00 0.00 0.00 0.00 0.00 0.00 0.00 0.00 0.00 0.00 0.00 0.00 0.00 0.00 0.01 0.08 0.09 0.09 0.09 0.11 0.12 0.09 0.06 0.05 0.06 0.05 0.03 0.03 0.03 0.02 0.03 0.03
0.00 0.00 0.00 0.00 0.00 0.00 0.00 0.00 0.00 0.00 0.00 0.00 0.00 0.00 0.00 0.00 0.00 0.00 0.00 0.00 0.00 0.00 0.00 0.01 0.01 0.01 0.02 0.06 0.05 0.07 0.07 0.08 0.08 0.06 0.05 0.05 0.04 0.04 0.03 0.05 0.02 0.03 0.02 0.00
0.00 0.00 0.00 0.00 0.00 0.00 0.00 0.00 0.00 0.00 0.00 0.00 0.00 0.00 0.00 0.00 0.00 0.00 0.00 0.00 0.00 0.00 0.00 0.00 0.00 0.02 0.02 0.02 0.02 0.06 0.05 0.06 0.05 0.02 0.02 0.02 0.02 0.04 0.04 0.02 0.04 0.02 0.01 0.01
0.00 0.00 0.00 0.00 0.00 0.00 0.00 0.00 0.00 0.00 0.00 0.00 0.00 0.00 0.00 0.00 0.00 0.00 0.00 0.00 0.00 0.00 0.00 0.00 0.00 0.00 0.01 0.01 0.01 0.02 0.02 0.02 0.01 0.00 0.00 0.01 0.02 0.02 0.02 0.04 0.02 0.01 0.04 0.07
0.01 0.00 0.00 0.00 0.00 0.00 0.00 0.00 0.00 0.00 0.00 0.00 0.00 0.00 0.00 0.00 0.00 0.00 0.00 0.00 0.00 0.00 0.00 0.00 0.00 0.00 0.00 0.00 0.00 0.00 0.01 0.01 0.00 0.00 0.00 0.01 0.01 0.02 0.04 0.04 0.04 0.11 0.18 0.23
0.03 0.01 0.00 0.00 0.00 0.00 0.00 0.00 0.00 0.00 0.00 0.00 0.00 0.00 0.00 0.00 0.00 0.00 0.00 0.00 0.00 0.00 0.00 0.00 0.00 0.00 0.00 0.00 0.00 0.00 0.00 0.00 0.00 0.00 0.00 0.01 0.01 0.03 0.08 0.17 0.27 0.25 0.16 0.06
0.00 0.00 0.01 0.00 0.00 0.00 0.00 0.00 0.00 0.00 0.00 0.00 0.00 0.00 0.00 0.00 0.00 0.00 0.00 0.00 0.00 0.00 0.00 0.00 0.00 0.00 0.00 0.00 0.00 0.00 0.00 0.00 0.00 0.00 0.00 0.03 0.11 0.23 0.30 0.24 0.13 0.05 0.02 0.01
0.00 0.00 0.00 0.01 0.00 0.00 0.00 0.00 0.00 0.00 0.00 0.00 0.00 0.00 0.00 0.00 0.00 0.00 0.00 0.00 0.00 0.00 0.00 0.00 0.00 0.00 0.00 0.00 0.00 0.00 0.00 0.01 0.04 0.08 0.15 0.24 0.29 0.24 0.14 0.06 0.01 0.00 0.00 0.00
0.00 0.01 0.01 0.01 0.01 0.00 0.00 0.00 0.00 0.00 0.00 0.00 0.00 0.00 0.00 0.00 0.00 0.00 0.00 0.00 0.00 0.00 0.00 0.00 0.00 0.00 0.00 0.00 0.01 0.03 0.04 0.05 0.09 0.14 0.16 0.12 0.04 0.00 0.00 0.00 0.00 0.00 0.00 0.00
0.01 0.01 0.02 0.00 0.00 0.00 0.00 0.00 0.00 0.00 0.00 0.00 0.00 0.00 0.00 0.00 0.00 0.00 0.00 0.00 0.00 0.00 0.00 0.00 0.00 0.00 0.01 0.04 0.06 0.04 0.02 0.03 0.04 0.02 0.01 0.00 0.00 0.00 0.00 0.00 0.00 0.00 0.00 0.00
0.00 0.01 0.01 0.00 0.00 0.00 0.00 0.00 0.00 0.00 0.00 0.00 0.00 0.00 0.00 0.00 0.00 0.00 0.00 0.00 0.00 0.00 0.00 0.00 0.04 0.08 0.09 0.04 0.01 0.01 0.01 0.01 0.01 0.00 0.00 0.00 0.00 0.00 0.00 0.00 0.00 0.00 0.00 0.00
0.00 0.00 0.00 0.00 0.00 0.00 0.00 0.00 0.00 0.00 0.00 0.00 0.00 0.00 0.00 0.00 0.00 0.00 0.00 0.00 0.00 0.01 0.03 0.08 0.07 0.04 0.02 0.01 0.01 0.01 0.00 0.00 0.00 0.00 0.00 0.00 0.00 0.00 0.00 0.00 0.00 0.00 0.00 0.00
0.00 0.00 0.00 0.00 0.00 0.00 0.00 0.00 0.00 0.00 0.00 0.00 0.00 0.00 0.00 0.00 0.00 0.00 0.00 0.01 0.04 0.11 0.12 0.05 0.02 0.02 0.02 0.01 0.00 0.00 0.00 0.00 0.00 0.00 0.00 0.02 0.03 0.02 0.01 0.00 0.00 0.00 0.00 0.00

GFSCGP_prec_precacc_048.txt.gz
Total_Precipitation_Accumulation
0.00 0.00 0.00 0.00 0.00 0.00 0.00 0.00 0.00 0.00 0.00 0.00 0.00 0.00 0.02 0.13 0.02 0.01 0.03 0.01 0.01 0.00 0.01 0.04 0.07 0.08 0.05 0.06 0.26 0.38 0.56 0.59 0.36 0.22 0.16 0.12 0.08 0.08 0.09 0.11 0.08 0.05 0.02 0.01
0.00 0.00 0.00 0.00 0.00 0.00 0.00 0.00 0.00 0.00 0.00 0.00 0.00 0.00 0.00 0.01 0.00 0.00 0.00 0.00 0.00 0.00 0.00 0.01 0.03 0.05 0.07 0.14 0.36 0.46 0.31 0.17 0.09 0.15 0.08 0.04 0.02 0.03 0.04 0.07 0.03 0.03 0.05 0.01
0.00 0.00 0.00 0.00 0.00 0.00 0.00 0.00 0.00 0.00 0.00 0.00 0.00 0.00 0.00 0.00 0.00 0.00 0.00 0.00 0.00 0.00 0.02 0.02 0.04 0.03 0.05 0.07 0.11 0.23 0.13 0.06 0.01 0.03 0.02 0.02 0.01 0.01 0.06 0.07 0.08 0.04 0.04 0.03
0.00 0.00 0.00 0.00 0.00 0.00 0.00 0.00 0.00 0.00 0.00 0.00 0.00 0.01 0.02 0.01 0.00 0.00 0.00 0.01 0.00 0.00 0.00 0.00 0.00 0.00 0.03 0.03 0.05 0.22 0.13 0.05 0.03 0.03 0.01 0.02 0.06 0.03 0.04 0.04 0.04 0.02 0.02 0.02
0.02 0.00 0.00 0.00 0.00 0.00 0.01 0.00 0.00 0.00 0.00 0.05 0.02 0.01 0.03 0.02 0.00 0.00 0.00 0.00 0.00 0.00 0.01 0.01 0.01 0.00 0.00 0.06 0.08 0.19 0.15 0.15 0.08 0.08 0.11 0.20 0.14 0.12 0.11 0.04 0.06 0.03 0.05 0.05
0.00 0.00 0.01 0.01 0.00 0.00 0.00 0.00 0.00 0.00 0.00 0.01 0.01 0.02 0.04 0.03 0.01 0.04 0.02 0.00 0.00 0.00 0.02 0.02 0.01 0.01 0.01 0.02 0.11 0.18 0.13 0.20 0.22 0.26 0.19 0.19 0.18 0.11 0.14 0.13 0.16 0.12 0.06 0.04
0.00 0.00 0.00 0.00 0.00 0.00 0.00 0.00 0.01 0.06 0.02 0.01 0.03 0.03 0.05 0.01 0.06 0.16 0.09 0.00 0.00 0.00 0.00 0.01 0.00 0.00 0.02 0.02 0.15 0.18 0.15 0.20 0.22 0.28 0.15 0.17 0.26 0.26 0.33 0.35 0.37 0.42 0.62 0.47
0.00 0.01 0.00 0.00 0.00 0.01 0.00 0.00 0.02 0.16 0.05 0.02 0.03 0.02 0.01 0.00 0.00 0.00 0.00 0.00 0.00 0.00 0.00 0.00 0.00 0.01 0.08 0.07 0.12 0.26 0.23 0.30 0.22 0.15 0.18 0.23 0.29 0.36 0.47 0.40 0.45 0.57 0.37 0.22
0.04 0.01 0.01 0.00 0.00 0.00 0.00 0.00 0.00 0.01 0.02 0.02 0.01 0.01 0.00 0.00 0.00 0.00 0.00 0.00 0.00 0.00 0.00 0.00 0.00 0.01 0.06 0.10 0.12 0.16 0.12 0.24 0.23 0.25 0.32 0.23 0.16 0.17 0.23 0.23 0.16 0.15 0.15 0.11
0.06 0.16 0.03 0.00 0.00 0.00 0.00 0.00 0.00 0.00 0.02 0.02 0.00 0.00 0.01 0.01 0.01 0.00 0.00 0.00 0.00 0.00 0.00 0.00 0.00 0.00 0.01 0.03 0.05 0.15 0.06 0.03 0.10 0.20 0.20 0.13 0.12 0.14 0.13 0.12 0.10 0.11 0.10 0.05
0.00 0.02 0.03 0.00 0.00 0.00 0.00 0.00 0.00 0.00 0.00 0.00 0.01 0.00 0.01 0.00 0.00 0.00 0.00 0.00 0.00 0.00 0.00 0.00 0.00 0.00 0.00 0.00 0.00 0.00 0.01 0.02 0.06 0.05 0.05 0.06 0.14 0.18 0.19 0.24 0.17 0.12 0.07 0.03
0.00 0.00 0.00 0.00 0.00 0.00 0.00 0.01 0.03 0.00 0.00 0.00 0.00 0.00 0.00 0.00 0.00 0.00 0.00 0.00 0.00 0.00 0.00 0.00 0.00 0.00 0.00 0.00 0.00 0.01 0.02 0.04 0.23 0.12 0.15 0.16 0.19 0.15 0.19 0.17 0.15 0.11 0.03 0.01
0.00 0.00 0.00 0.00 0.00 0.00 0.00 0.00 0.00 0.00 0.00 0.00 0.03 0.00 0.00 0.00 0.00 0.00 0.00 0.00 0.00 0.00 0.00 0.00 0.00 0.00 0.00 0.01 0.05 0.08 0.08 0.10 0.20 0.19 0.24 0.13 0.16 0.17 0.15 0.18 0.11 0.06 0.02 0.02
0.00 0.00 0.00 0.00 0.00 0.00 0.00 0.00 0.00 0.00 0.00 0.00 0.00 0.00 0.00 0.00 0.00 0.00 0.00 0.00 0.00 0.00 0.00 0.00 0.00 0.00 0.01 0.08 0.09 0.09 0.09 0.11 0.13 0.16 0.12 0.07 0.15 0.13 0.06 0.05 0.04 0.03 0.04 0.04
0.00 0.00 0.00 0.00 0.00 0.00 0.00 0.00 0.00 0.00 0.00 0.00 0.00 0.00 0.00 0.00 0.00 0.00 0.00 0.00 0.00 0.00 0.00 0.01 0.01 0.01 0.02 0.06 0.05 0.07 0.07 0.11 0.13 0.13 0.07 0.08 0.09 0.05 0.06 0.07 0.04 0.04 0.03 0.00
0.00 0.00 0.00 0.00 0.00 0.00 0.00 0.00 0.00 0.00 0.00 0.00 0.00 0.00 0.00 0.00 0.00 0.00 0.00 0.00 0.00 0.00 0.00 0.00 0.00 0.02 0.02 0.02 0.02 0.06 0.06 0.06 0.07 0.03 0.03 0.03 0.03 0.04 0.05 0.02 0.04 0.02 0.01 0.01
0.00 0.00 0.00 0.00 0.00 0.00 0.00 0.00 0.00 0.00 0.00 0.00 0.00 0.00 0.00 0.00 0.00 0.00 0.00 0.00 0.00 0.00 0.00 0.00 0.00 0.00 0.01 0.02 0.01 0.02 0.03 0.03 0.02 0.02 0.01 0.02 0.02 0.02 0.02 0.04 0.02 0.01 0.04 0.07
0.01 0.00 0.00 0.00 0.00 0.00 0.00 0.00 0.00 0.00 0.00 0.00 0.00 0.00 0.00 0.00 0.00 0.00 0.00 0.00 0.00 0.00 0.00 0.00 0.00 0.01 0.01 0.01 0.00 0.00 0.01 0.02 0.01 0.00 0.00 0.01 0.01 0.02 0.04 0.04 0.04 0.11 0.18 0.23
0.03 0.02 0.02 0.00 0.00 0.00 0.00 0.00 0.00 0.00 0.00 0.00 0.00 0.00 0.00 0.00 0.00 0.00 0.00 0.00 0.00 0.00 0.00 0.00 0.00 0.00 0.00 0.00 0.00 0.00 0.00 0.00 0.00 0.00 0.00 0.01 0.01 0.03 0.08 0.17 0.27 0.25 0.16 0.06
0.00 0.01 0.05 0.01 0.00 0.00 0.00 0.00 0.00 0.00 0.00 0.00 0.00 0.00 0.00 0.00 0.00 0.00 0.00 0.00 0.00 0.00 0.00 0.00 0.00 0.00 0.00 0.00 0.00 0.00 0.00 0.00 0.00 0.00 0.00 0.03 0.11 0.23 0.30 0.24 0.13 0.05 0.02 0.01
0.01 0.01 0.02 0.04 0.02 0.00 0.00 0.00 0.00 0.00 0.00 0.00 0.00 0.00 0.00 0.00 0.00 0.00 0.00 0.00 0.00 0.00 0.00 0.00 0.00 0.00 0.00 0.00 0.00 0.00 0.00 0.01 0.04 0.08 0.15 0.24 0.29 0.24 0.14 0.06 0.01 0.00 0.00 0.00
0.06 0.05 0.03 0.03 0.04 0.00 0.00 0.00 0.00 0.00 0.00 0.00 0.00 0.00 0.00 0.00 0.00 0.00 0.00 0.00 0.00 0.00 0.00 0.00 0.00 0.00 0.00 0.00 0.01 0.03 0.04 0.05 0.09 0.14 0.16 0.12 0.04 0.00 0.00 0.00 0.00 0.00 0.00 0.00
0.01 0.05 0.06 0.01 0.00 0.00 0.00 0.00 0.00 0.00 0.00 0.00 0.00 0.00 0.00 0.00 0.00 0.00 0.00 0.00 0.00 0.00 0.00 0.00 0.00 0.00 0.01 0.04 0.06 0.04 0.02 0.03 0.04 0.02 0.01 0.00 0.00 0.00 0.00 0.00 0.00 0.00 0.00 0.00
0.00 0.01 0.01 0.01 0.01 0.00 0.00 0.00 0.00 0.00 0.00 0.00 0.00 0.00 0.00 0.00 0.00 0.00 0.00 0.00 0.00 0.00 0.00 0.00 0.04 0.08 0.09 0.04 0.01 0.01 0.01 0.01 0.01 0.00 0.00 0.00 0.00 0.00 0.00 0.00 0.00 0.00 0.00 0.00
0.00 0.00 0.00 0.00 0.00 0.00 0.01 0.01 0.00 0.00 0.00 0.00 0.00 0.00 0.00 0.00 0.00 0.00 0.00 0.00 0.00 0.01 0.03 0.08 0.07 0.04 0.02 0.01 0.01 0.01 0.00 0.00 0.00 0.00 0.00 0.00 0.00 0.00 0.00 0.00 0.00 0.00 0.00 0.00
0.00 0.00 0.01 0.00 0.00 0.00 0.00 0.00 0.00 0.00 0.00 0.00 0.00 0.00 0.00 0.00 0.00 0.00 0.00 0.01 0.04 0.11 0.12 0.05 0.02 0.02 0.02 0.01 0.00 0.00 0.00 0.00 0.00 0.00 0.00 0.02 0.03 0.02 0.01 0.00 0.00 0.00 0.00 0.00

GFSCGP_prec_precacc_051.txt.gz
Total_Precipitation_Accumulation
0.00 0.00 0.00 0.00 0.00 0.00 0.00 0.00 0.00 0.00 0.00 0.00 0.00 0.00 0.02 0.14 0.04 0.02 0.03 0.01 0.01 0.00 0.01 0.04 0.07 0.08 0.05 0.06 0.26 0.38 0.56 0.59 0.36 0.22 0.16 0.12 0.08 0.08 0.09 0.11 0.08 0.06 0.04 0.02
0.00 0.00 0.00 0.00 0.00 0.00 0.00 0.00 0.00 0.00 0.00 0.00 0.00 0.00 0.00 0.02 0.00 0.00 0.00 0.00 0.00 0.00 0.00 0.01 0.03 0.05 0.07 0.14 0.36 0.46 0.31 0.17 0.09 0.15 0.08 0.04 0.02 0.03 0.04 0.07 0.03 0.03 0.08 0.05
0.00 0.00 0.00 0.00 0.00 0.00 0.00 0.00 0.00 0.00 0.00 0.00 0.00 0.00 0.00 0.00 0.02 0.07 0.01 0.00 0.00 0.00 0.02 0.02 0.04 0.03 0.05 0.07 0.11 0.23 0.13 0.06 0.01 0.03 0.02 0.03 0.01 0.01 0.06 0.07 0.08 0.05 0.05 0.06
0.00 0.00 0.00 0.00 0.00 0.00 0.00 0.00 0.00 0.00 0.00 0.00 0.00 0.01 0.02 0.01 0.02 0.06 0.01 0.01 0.00 0.00 0.00 0.00 0.00 0.00 0.03 0.03 0.05 0.22 0.13 0.05 0.03 0.03 0.01 0.03 0.06 0.03 0.04 0.04 0.04 0.02 0.04 0.06
0.02 0.00 0.00 0.00 0.00 0.00 0.01 0.00 0.00 0.00 0.00 0.05 0.02 0.01 0.03 0.02 0.00 0.02 0.01 0.00 0.00 0.00 0.01 0.01 0.01 0.00 0.00 0.06 0.08 0.19 0.15 0.15 0.08 0.08 0.12 0.24 0.17 0.12 0.11 0.04 0.06 0.04 0.11 0.14
0.00 0.00 0.01 0.01 0.00 0.00 0.00 0.00 0.00 0.00 0.00 0.01 0.01 0.02 0.04 0.03 0.02 0.05 0.03 0.00 0.00 0.00 0.02 0.02 0.01 0.01 0.01 0.02 0.11 0.18 0.13 0.20 0.22 0.26 0.19 0.20 0.28 0.17 0.15 0.14 0.23 0.24 0.29 0.26
0.00 0.00 0.00 0.00 0.00 0.00 0.00 0.00 0.01 0.06 0.02 0.01 0.03 0.03 0.05 0.01 0.06 0.16 0.09 0.00 0.00 0.00 0.00 0.01 0.00 0.00 0.02 0.02 0.15 0.18 0.15 0.20 0.22 0.28 0.15 0.18 0.29 0.35 0.39 0.36 0.43 0.55 0.74 0.72
0.00 0.01 0.00 0.00 0.00 0.01 0.00 0.00 0.02 0.16 0.05 0.03 0.03 0.02 0.01 0.00 0.00 0.00 0.00 0.00 0.00 0.00 0.00 0.00 0.00 0.01 0.08 0.07 0.12 0.26 0.23 0.30 0.22 0.15 0.19 0.24 0.30 0.37 0.49 0.41 0.46 0.61 0.40 0.28
0.04 0.01 0.01 0.00 0.00 0.00 0.00 0.00 0.00 0.01 0.02 0.03 0.01 0.01 0.00 0.00 0.00 0.00 0.00 0.00 0.00 0.00 0.00 0.01 0.00 0.01 0.06 0.10 0.12 0.16 0.12 0.24 0.23 0.25 0.32 0.24 0.17 0.17 0.24 0.26 0.23 0.19 0.16 0.14
0.06 0.16 0.03 0.00 0.00 0.00 0.00 0.00 0.00 0.00 0.04 0.04 0.00 0.00 0.02 0.01 0.01 0.00 0.00 0.00 0.00 0.00 0.00 0.00 0.00 0.00 0.01 0.03 0.05 0.15 0.07 0.04 0.11 0.20 0.20 0.13 0.13 0.18 0.13 0.12 0.11 0.12 0.11 0.07
0.00 0.02 0.03 0.00 0.00 0.00 0.00 0.00 0.00 0.00 0.00 0.00 0.01 0.00 0.01 0.00 0.00 0.00 0.00 0.00 0.00 0.00 0.00 0.00 0.00 0.01 0.00 0.00 0.02 0.04 0.08 0.15 0.13 0.10 0.05 0.07 0.17 0.36 0.25 0.24 0.17 0.12 0.09 0.05
0.00 0.00 0.00 0.00 0.00 0.00 0.00 0.01 0.03 0.00 0.00 0.00 0.01 0.00 0.00 0.00 0.00 0.00 0.00 0.00 0.00 0.00 0.00 0.00 0.00 0.00 0.00 0.02 0.07 0.15 0.21 0.29 0.31 0.20 0.23 0.42 0.46 0.52 0.41 0.25 0.17 0.16 0.09 0.03
0.00 0.00 0.00 0.00 0.00 0.00 0.00 0.00 0.00 0.00 0.00 0.00 0.03 0.00 0.00 0.00 0.00 0.00 0.00 0.00 0.00 0.00 0.00 0.00 0.00 0.00 0.00 0.01 0.07 0.15 0.16 0.22 0.40 0.42 0.48 0.45 0.31 0.25 0.24 0.33 0.21 0.12 0.07 0.04
0.00 0.00 0.00 0.00 0.00 0.00 0.00 0.00 0.00 0.00 0.00 0.00 0.00 0.00 0.00 0.00 0.00 0.00 0.00 0.00 0.00 0.00 0.00 0.00 0.00 0.00 0.01 0.08 0.09 0.12 0.21 0.24 0.30 0.27 0.18 0.14 0.23 0.16 0.07 0.09 0.11 0.06 0.06 0.05
0.00 0.00 0.00 0.00 0.00 0.00 0.00 0.00 0.00 0.00 0.00 0.00 0.00 0.00 0.00 0.00 0.00 0.00 0.00 0.00 0.00 0.00 0.00 0.01 0.01 0.01 0.02 0.06 0.05 0.07 0.08 0.14 0.18 0.14 0.07 0.09 0.11 0.07 0.09 0.09 0.07 0.06 0.05 0.02
0.00 0.00 0.00 0.00 0.00 0.00 0.00 0.00 0.00 0.00 0.00 0.00 0.00 0.00 0.00 0.00 0.00 0.00 0.00 0.00 0.00 0.00 0.00 0.00 0.00 0.02 0.02 0.02 0.02 0.06 0.08 0.11 0.08 0.03 0.04 0.05 0.04 0.05 0.07 0.06 0.07 0.03 0.01 0.01
0.00 0.00 0.00 0.00 0.00 0.00 0.00 0.00 0.00 0.00 0.00 0.00 0.00 0.00 0.00 0.00 0.00 0.00 0.00 0.00 0.00 0.00 0.00 0.00 0.00 0.00 0.02 0.03 0.02 0.04 0.07 0.04 0.03 0.02 0.02 0.02 0.02 0.05 0.03 0.05 0.02 0.01 0.04 0.07
0.02 0.00 0.00 0.00 0.00 0.00 0.00 0.00 0.00 0.00 0.00 0.00 0.00 0.00 0.00 0.00 0.00 0.00 0.00 0.00 0.00 0.00 0.00 0.00 0.00 0.01 0.02 0.03 0.00 0.01 0.02 0.02 0.02 0.01 0.02 0.02 0.02 0.02 0.05 0.04 0.04 0.11 0.18 0.23
0.06 0.03 0.02 0.00 0.00 0.00 0.00 0.00 0.00 0.00 0.00 0.00 0.00 0.00 0.00 0.00 0.00 0.00 0.00 0.00 0.00 0.00 0.00 0.00 0.00 0.00 0.00 0.00 0.00 0.01 0.01 0.00 0.01 0.02 0.03 0.03 0.01 0.03 0.08 0.17 0.27 0.25 0.16 0.06
0.02 0.01 0.06 0.02 0.00 0.00 0.00 0.00 0.00 0.00 0.00 0.00 0.00 0.00 0.00 0.00 0.00 0.00 0.00 0.00 0.00 0.00 0.00 0.00 0.00 0.00 0.00 0.00 0.00 0.00 0.00 0.00 0.01 0.00 0.00 0.03 0.11 0.23 0.30 0.24 0.13 0.05 0.02 0.01
0.03 0.03 0.03 0.05 0.02 0.00 0.00 0.00 0.00 0.00 0.00 0.00 0.00 0.00 0.00 0.00 0.00 0.00 0.00 0.00 0.00 0.00 0.00 0.00 0.00 0.00 0.00 0.00 0.00 0.00 0.00 0.01 0.04 0.08 0.15 0.24 0.29 0.24 0.14 0.06 0.01 0.00 0.00 0.00
0.11 0.05 0.04 0.05 0.06 0.00 0.00 0.00 0.00 0.00 0.00 0.00 0.00 0.00 0.00 0.00 0.00 0.00 0.00 0.00 0.00 0.00 0.00 0.00 0.00 0.00 0.00 0.00 0.01 0.03 0.04 0.05 0.09 0.14 0.16 0.12 0.04 0.00 0.00 0.00 0.00 0.00 0.00 0.00
0.05 0.05 0.06 0.01 0.00 0.00 0.00 0.00 0.00 0.00 0.00 0.00 0.00 0.00 0.00 0.00 0.00 0.00 0.00 0.00 0.00 0.00 0.00 0.00 0.00 0.00 0.01 0.04 0.06 0.04 0.02 0.03 0.04 0.02 0.01 0.00 0.00 0.00 0.00 0.00 0.00 0.00 0.00 0.00
0.00 0.01 0.01 0.01 0.01 0.00 0.02 0.03 0.01 0.00 0.00 0.00 0.00 0.00 0.01 0.01 0.00 0.00 0.00 0.00 0.00 0.00 0.00 0.00 0.04 0.08 0.09 0.04 0.01 0.01 0.01 0.01 0.01 0.00 0.00 0.00 0.00 0.00 0.00 0.00 0.00 0.00 0.00 0.00
0.00 0.00 0.00 0.00 0.00 0.00 0.02 0.02 0.02 0.01 0.00 0.00 0.00 0.00 0.01 0.00 0.00 0.00 0.00 0.00 0.00 0.01 0.03 0.08 0.07 0.04 0.02 0.01 0.01 0.01 0.00 0.00 0.00 0.00 0.00 0.00 0.00 0.00 0.00 0.00 0.00 0.00 0.00 0.00
0.00 0.00 0.01 0.00 0.00 0.00 0.00 0.00 0.03 0.01 0.00 0.00 0.00 0.00 0.00 0.00 0.00 0.00 0.00 0.01 0.04 0.11 0.12 0.05 0.02 0.02 0.02 0.01 0.00 0.00 0.00 0.00 0.00 0.00 0.00 0.02 0.03 0.02 0.01 0.00 0.00 0.00 0.00 0.00

GFSCGP_prec_precacc_054.txt.gz
Total_Precipitation_Accumulation
0.00 0.00 0.00 0.00 0.00 0.00 0.00 0.00 0.00 0.00 0.00 0.00 0.00 0.00 0.02 0.14 0.04 0.02 0.03 0.01 0.01 0.00 0.01 0.04 0.07 0.08 0.05 0.06 0.26 0.38 0.56 0.59 0.36 0.22 0.16 0.12 0.08 0.08 0.09 0.11 0.08 0.06 0.04 0.02
0.00 0.00 0.00 0.00 0.00 0.00 0.00 0.00 0.00 0.00 0.00 0.00 0.00 0.00 0.00 0.02 0.00 0.00 0.00 0.00 0.00 0.00 0.00 0.01 0.03 0.05 0.07 0.14 0.36 0.46 0.31 0.17 0.09 0.15 0.08 0.04 0.02 0.03 0.04 0.07 0.03 0.03 0.08 0.05
0.00 0.00 0.00 0.00 0.00 0.00 0.00 0.00 0.00 0.00 0.00 0.00 0.00 0.00 0.00 0.00 0.02 0.07 0.01 0.00 0.00 0.00 0.02 0.02 0.04 0.03 0.05 0.07 0.11 0.23 0.13 0.06 0.01 0.03 0.02 0.03 0.01 0.01 0.06 0.07 0.08 0.05 0.05 0.06
0.00 0.00 0.00 0.00 0.00 0.00 0.00 0.00 0.00 0.00 0.00 0.00 0.00 0.01 0.02 0.01 0.02 0.06 0.01 0.01 0.00 0.00 0.00 0.00 0.00 0.00 0.03 0.03 0.05 0.22 0.13 0.05 0.03 0.03 0.01 0.03 0.06 0.03 0.04 0.04 0.04 0.02 0.04 0.07
0.02 0.00 0.00 0.00 0.00 0.00 0.01 0.00 0.00 0.00 0.00 0.05 0.02 0.01 0.03 0.02 0.00 0.02 0.01 0.00 0.00 0.00 0.01 0.01 0.01 0.00 0.00 0.06 0.08 0.19 0.15 0.15 0.08 0.08 0.12 0.24 0.17 0.12 0.11 0.04 0.06 0.04 0.11 0.15
0.00 0.00 0.01 0.01 0.00 0.00 0.00 0.00 0.00 0.00 0.00 0.01 0.01 0.02 0.04 0.03 0.02 0.05 0.03 0.00 0.00 0.00 0.02 0.02 0.01 0.01 0.01 0.02 0.11 0.18 0.13 0.20 0.22 0.26 0.19 0.20 0.28 0.17 0.15 0.14 0.23 0.24 0.30 0.29
0.00 0.00 0.00 0.00 0.00 0.00 0.00 0.00 0.01 0.06 0.02 0.01 0.03 0.03 0.05 0.01 0.06 0.16 0.09 0.00 0.00 0.00 0.00 0.01 0.00 0.00 0.02 0.02 0.15 0.18 0.15 0.20 0.22 0.28 0.15 0.18 0.29 0.35 0.39 0.36 0.43 0.56 0.74 0.73
0.00 0.01 0.00 0.00 0.00 0.01 0.00 0.00 0.02 0.16 0.05 0.03 0.03 0.02 0.01 0.00 0.00 0.00 0.00 0.00 0.00 0.00 0.00 0.00 0.00 0.02 0.08 0.07 0.12 0.26 0.23 0.30 0.22 0.15 0.19 0.24 0.30 0.37 0.49 0.41 0.46 0.61 0.41 0.29
0.04 0.01 0.01 0.00 0.00 0.00 0.00 0.00 0.00 0.01 0.02 0.03 0.01 0.01 0.00 0.00 0.00 0.00 0.00 0.00 0.00 0.00 0.00 0.01 0.00 0.01 0.06 0.10 0.12 0.16 0.12 0.24 0.23 0.25 0.33 0.24 0.18 0.18 0.24 0.27 0.25 0.20 0.16 0.19
0.06 0.16 0.03 0.00 0.00 0.00 0.00 0.00 0.00 0.00 0.04 0.04 0.00 0.00 0.02 0.01 0.01 0.00 0.00 0.00 0.00 0.00 0.00 0.00 0.00 0.01 0.01 0.03 0.07 0.16 0.08 0.04 0.12 0.21 0.22 0.14 0.17 0.22 0.13 0.15 0.15 0.20 0.19 0.14
0.00 0.02 0.03 0.00 0.00 0.00 0.00 0.00 0.00 0.00 0.00 0.00 0.01 0.00 0.01 0.00 0.00 0.00 0.00 0.00 0.00 0.00 0.00 0.00 0.00 0.01 0.00 0.01 0.04 0.06 0.15 0.25 0.25 0.18 0.09 0.10 0.25 0.50 0.41 0.29 0.25 0.26 0.29 0.29
0.00 0.00 0.00 0.00 0.00 0.00 0.00 0.01 0.03 0.00 0.00 0.00 0.01 0.00 0.00 0.00 0.00 0.00 0.00 0.00 0.00 0.00 0.00 0.00 0.00 0.00 0.00 0.02 0.08 0.16 0.22 0.30 0.38 0.25 0.27 0.47 0.69 0.88 0.77 0.58 0.52 0.30 0.19 0.11
0.00 0.00 0.00 0.00 0.00 0.00 0.00 0.00 0.00 0.00 0.00 0.01 0.03 0.00 0.00 0.00 0.00 0.00 0.00 0.00 0.00 0.00 0.00 0.00 0.00 0.00 0.00 0.01 0.07 0.15 0.16 0.23 0.42 0.46 0.52 0.50 0.43 0.65 0.77 0.53 0.33 0.21 0.15 0.13
0.00 0.00 0.00 0.00 0.00 0.00 0.00 0.00 0.00 0.00 0.00 0.00 0.00 0.00 0.00 0.00 0.00 0.00 0.00 0.00 0.00 0.00 0.00 0.00 0.00 0.00 0.01 0.08 0.09 0.12 0.21 0.25 0.31 0.30 0.22 0.18 0.29 0.25 0.27 0.19 0.15 0.10 0.10 0.10
0.00 0.00 0.00 0.00 0.00 0.00 0.00 0.00 0.00 0.00 0.00 0.00 0.00 0.00 0.00 0.00 0.00 0.00 0.00 0.00 0.00 0.00 0.00 0.01 0.01 0.01 0.02 0.06 0.05 0.08 0.09 0.15 0.21 0.18 0.11 0.16 0.15 0.14 0.18 0.17 0.12 0.09 0.08 0.04
0.00 0.00 0.00 0.00 0.00 0.00 0.00 0.00 0.00 0.00 0.00 0.00 0.00 0.00 0.00 0.00 0.00 0.00 0.00 0.00 0.00 0.00 0.00 0.00 0.00 0.02 0.02 0.02 0.02 0.06 0.09 0.14 0.12 0.10 0.08 0.12 0.11 0.14 0.18 0.13 0.11 0.05 0.04 0.04
0.01 0.00 0.00 0.00 0.00 0.00 0.00 0.00 0.00 0.00 0.00 0.00 0.00 0.00 0.00 0.00 0.00 0.00 0.00 0.00 0.00 0.00 0.00 0.00 0.00 0.00 0.02 0.03 0.02 0.04 0.07 0.05 0.05 0.05 0.05 0.07 0.08 0.10 0.10 0.11 0.05 0.04 0.06 0.08
0.10 0.00 0.00 0.00 0.00 0.01 0.00 0.00 0.00 0.00 0.00 0.00 0.00 0.00 0.00 0.00 0.00 0.00 0.00 0.00 0.00 0.00 0.00 0.00 0.00 0.01 0.02 0.03 0.00 0.01 0.02 0.03 0.03 0.02 0.04 0.05 0.06 0.07 0.08 0.07 0.07 0.13 0.18 0.23
0.16 0.14 0.09 0.01 0.00 0.00 0.00 0.00 0.00 0.00 0.00 0.00 0.00 0.00 0.00 0.00 0.00 0.00 0.00 0.00 0.00 0.00 0.00 0.00 0.00 0.00 0.00 0.00 0.00 0.01 0.01 0.01 0.02 0.04 0.06 0.05 0.03 0.04 0.10 0.20 0.28 0.25 0.16 0.06
0.05 0.17 0.29 0.14 0.02 0.00 0.00 0.00 0.00 0.00 0.00 0.00 0.00 0.00 0.00 0.00 0.00 0.00 0.00 0.00 0.00 0.00 0.00 0.00 0.00 0.00 0.00 0.00 0.00 0.00 0.00 0.00 0.01 0.01 0.02 0.04 0.12 0.24 0.30 0.25 0.13 0.05 0.02 0.01
0.05 0.15 0.22 0.25 0.13 0.00 0.00 0.00 0.00 0.00 0.00 0.00 0.00 0.00 0.00 0.00 0.00 0.00 0.00 0.00 0.00 0.00 0.00 0.00 0.00 0.00 0.00 0.00 0.00 0.00 0.00 0.01 0.04 0.08 0.15 0.24 0.29 0.24 0.14 0.06 0.01 0.00 0.00 0.00
0.19 0.17 0.20 0.22 0.16 0.01 0.00 0.00 0.00 0.00 0.00 0.00 0.00 0.00 0.00 0.00 0.00 0.00 0.00 0.00 0.00 0.00 0.00 0.00 0.00 0.00 0.00 0.00 0.01 0.03 0.04 0.05 0.09 0.14 0.16 0.12 0.04 0.00 0.00 0.00 0.00 0.00 0.00 0.00
0.08 0.13 0.16 0.14 0.08 0.00 0.01 0.01 0.02 0.00 0.00 0.00 0.00 0.00 0.00 0.00 0.00 0.00 0.00 0.00 0.00 0.00 0.00 0.00 0.00 0.00 0.01 0.04 0.06 0.04 0.02 0.03 0.04 0.02 0.01 0.00 0.00 0.00 0.00 0.00 0.00 0.00 0.00 0.00
0.00 0.01 0.02 0.02 0.01 0.00 0.02 0.04 0.02 0.00 0.00 0.00 0.00 0.00 0.01 0.01 0.00 0.00 0.00 0.00 0.00 0.00 0.00 0.00 0.04 0.08 0.09 0.04 0.01 0.01 0.01 0.01 0.01 0.00 0.00 0.00 0.00 0.00 0.00 0.00 0.00 0.00 0.00 0.00
0.00 0.02 0.01 0.00 0.00 0.00 0.02 0.02 0.02 0.01 0.00 0.00 0.00 0.00 0.01 0.00 0.00 0.00 0.00 0.00 0.00 0.01 0.03 0.08 0.07 0.04 0.02 0.01 0.01 0.01 0.00 0.00 0.00 0.00 0.00 0.00 0.00 0.00 0.00 0.00 0.00 0.00 0.00 0.00
0.01 0.01 0.02 0.00 0.00 0.00 0.00 0.00 0.03 0.01 0.00 0.00 0.00 0.00 0.00 0.00 0.00 0.00 0.00 0.01 0.04 0.11 0.12 0.05 0.02 0.02 0.02 0.01 0.00 0.00 0.00 0.00 0.00 0.00 0.00 0.02 0.03 0.02 0.01 0.00 0.00 0.00 0.00 0.00

GFSCGP_prec_precacc_057.txt.gz
Total_Precipitation_Accumulation
0.00 0.00 0.00 0.00 0.00 0.00 0.00 0.00 0.00 0.00 0.00 0.00 0.00 0.00 0.02 0.14 0.04 0.02 0.03 0.01 0.01 0.00 0.01 0.04 0.07 0.08 0.05 0.06 0.26 0.39 0.59 0.64 0.40 0.23 0.17 0.13 0.08 0.08 0.09 0.11 0.08 0.06 0.05 0.03
0.00 0.00 0.00 0.00 0.00 0.00 0.00 0.00 0.00 0.00 0.00 0.00 0.00 0.00 0.00 0.02 0.00 0.00 0.00 0.00 0.00 0.00 0.00 0.01 0.03 0.05 0.07 0.14 0.36 0.46 0.31 0.18 0.10 0.16 0.08 0.04 0.02 0.03 0.04 0.07 0.03 0.03 0.08 0.05
0.00 0.00 0.00 0.00 0.00 0.00 0.00 0.00 0.00 0.00 0.00 0.00 0.00 0.00 0.00 0.00 0.02 0.07 0.01 0.00 0.00 0.00 0.02 0.02 0.04 0.03 0.05 0.07 0.11 0.23 0.13 0.06 0.01 0.03 0.02 0.03 0.01 0.01 0.06 0.07 0.08 0.05 0.05 0.06
0.00 0.00 0.00 0.00 0.00 0.00 0.00 0.00 0.00 0.00 0.00 0.00 0.00 0.01 0.02 0.01 0.02 0.06 0.01 0.01 0.00 0.00 0.00 0.00 0.00 0.00 0.03 0.03 0.05 0.22 0.13 0.05 0.03 0.03 0.01 0.03 0.06 0.03 0.04 0.04 0.04 0.02 0.04 0.07
0.02 0.00 0.00 0.00 0.00 0.00 0.01 0.00 0.00 0.00 0.00 0.05 0.02 0.01 0.03 0.02 0.00 0.02 0.01 0.00 0.00 0.00 0.01 0.01 0.01 0.00 0.00 0.06 0.08 0.19 0.15 0.15 0.08 0.08 0.12 0.24 0.17 0.12 0.11 0.04 0.06 0.04 0.11 0.15
0.00 0.00 0.01 0.01 0.00 0.00 0.00 0.00 0.00 0.00 0.00 0.01 0.01 0.02 0.04 0.03 0.02 0.05 0.03 0.00 0.00 0.00 0.02 0.02 0.01 0.01 0.01 0.02 0.11 0.18 0.13 0.20 0.22 0.26 0.19 0.20 0.28 0.17 0.15 0.14 0.23 0.24 0.30 0.29
0.00 0.00 0.00 0.00 0.00 0.00 0.00 0.00 0.01 0.06 0.02 0.01 0.03 0.03 0.05 0.01 0.06 0.16 0.09 0.00 0.00 0.00 0.00 0.01 0.00 0.00 0.02 0.02 0.15 0.18 0.15 0.20 0.22 0.28 0.15 0.18 0.29 0.35 0.39 0.36 0.43 0.56 0.74 0.73
0.00 0.01 0.00 0.00 0.00 0.01 0.00 0.00 0.02 0.16 0.05 0.03 0.03 0.02 0.01 0.00 0.00 0.00 0.00 0.00 0.00 0.00 0.00 0.00 0.00 0.02 0.08 0.07 0.12 0.26 0.23 0.30 0.22 0.15 0.19 0.24 0.30 0.37 0.49 0.41 0.46 0.61 0.41 0.29
0.04 0.01 0.01 0.00 0.00 0.00 0.00 0.00 0.00 0.01 0.02 0.03 0.01 0.01 0.00 0.00 0.00 0.00 0.00 0.00 0.00 0.00 0.00 0.01 0.00 0.01 0.07 0.10 0.12 0.16 0.12 0.24 0.23 0.25 0.33 0.24 0.18 0.18 0.25 0.30 0.25 0.22 0.20 0.20
0.06 0.16 0.03 0.00 0.00 0.00 0.00 0.00 0.00 0.00 0.04 0.04 0.00 0.00 0.02 0.01 0.01 0.00 0.00 0.00 0.00 0.00 0.00 0.00 0.00 0.01 0.03 0.04 0.08 0.17 0.08 0.04 0.12 0.21 0.22 0.14 0.17 0.22 0.14 0.15 0.18 0.26 0.33 0.27
0.00 0.02 0.03 0.00 0.00 0.00 0.00 0.00 0.00 0.00 0.00 0.00 0.01 0.00 0.01 0.00 0.00 0.00 0.00 0.00 0.00 0.00 0.00 0.00 0.00 0.01 0.01 0.01 0.05 0.10 0.20 0.30 0.26 0.18 0.09 0.10 0.25 0.51 0.42 0.32 0.28 0.31 0.42 0.46
0.00 0.00 0.00 0.00 0.00 0.00 0.00 0.01 0.03 0.00 0.00 0.00 0.01 0.00 0.00 0.00 0.00 0.00 0.00 0.00 0.00 0.00 0.00 0.00 0.00 0.00 0.00 0.02 0.08 0.16 0.26 0.37 0.46 0.29 0.28 0.49 0.69 0.89 0.80 0.63 0.75 0.53 0.29 0.16
0.00 0.00 0.00 0.00 0.00 0.00 0.00 0.00 0.00 0.00 0.00 0.01 0.03 0.00 0.00 0.00 0.00 0.00 0.00 0.00 0.00 0.00 0.00 0.00 0.00 0.00 0.00 0.01 0.07 0.15 0.16 0.23 0.44 0.51 0.58 0.55 0.47 0.67 0.82 0.66 0.48 0.32 0.19 0.17
0.00 0.00 0.00 0.00 0.00 0.00 0.00 0.00 0.00 0.00 0.00 0.00 0.00 0.00 0.00 0.00 0.00 0.00 0.00 0.00 0.00 0.00 0.00 0.00 0.00 0.00 0.01 0.08 0.09 0.12 0.21 0.25 0.31 0.30 0.23 0.20 0.31 0.27 0.31 0.31 0.29 0.16 0.12 0.11
0.00 0.00 0.00 0.00 0.00 0.00 0.00 0.00 0.00 0.00 0.00 0.00 0.00 0.00 0.00 0.00 0.00 0.00 0.00 0.00 0.00 0.00 0.00 0.01 0.01 0.01 0.02 0.06 0.05 0.08 0.09 0.15 0.21 0.18 0.11 0.17 0.18 0.17 0.20 0.22 0.17 0.16 0.13 0.07
0.00 0.00 0.00 0.00 0.00 0.00 0.00 0.00 0.00 0.00 0.00 0.00 0.00 0.00 0.00 0.00 0.00 0.00 0.00 0.00 0.00 0.00 0.00 0.00 0.00 0.02 0.02 0.02 0.02 0.06 0.09 0.14 0.12 0.10 0.08 0.13 0.13 0.17 0.22 0.15 0.12 0.08 0.10 0.09
0.02 0.00 0.00 0.00 0.00 0.00 0.00 0.00 0.00 0.00 0.00 0.00 0.00 0.00 0.00 0.00 0.00 0.00 0.00 0.00 0.00 0.00 0.00 0.00 0.00 0.00 0.02 0.03 0.02 0.04 0.07 0.05 0.05 0.05 0.05 0.08 0.09 0.14 0.14 0.15 0.09 0.08 0.14 0.15
0.10 0.02 0.04 0.03 0.00 0.02 0.01 0.00 0.00 0.00 0.00 0.00 0.00 0.00 0.00 0.00 0.00 0.00 0.00 0.00 0.00 0.00 0.00 0.00 0.00 0.01 0.02 0.03 0.00 0.01 0.02 0.03 0.03 0.02 0.04 0.05 0.07 0.10 0.12 0.12 0.10 0.17 0.22 0.27
0.16 0.15 0.14 0.08 0.04 0.01 0.00 0.00 0.00 0.00 0.00 0.00 0.00 0.00 0.00 0.00 0.00 0.00 0.00 0.00 0.00 0.00 0.00 0.00 0.00 0.00 0.00 0.00 0.00 0.01 0.01 0.01 0.02 0.04 0.06 0.06 0.05 0.08 0.15 0.28 0.35 0.32 0.21 0.10
0.05 0.17 0.29 0.18 0.12 0.04 0.00 0.00 0.00 0.00 0.00 0.00 0.00 0.00 0.00 0.00 0.00 0.00 0.00 0.00 0.00 0.00 0.00 0.00 0.00 0.00 0.00 0.00 0.00 0.00 0.00 0.00 0.01 0.02 0.03 0.06 0.14 0.27 0.33 0.28 0.17 0.07 0.03 0.02
0.05 0.15 0.23 0.27 0.20 0.05 0.00 0.00 0.00 0.01 0.00 0.00 0.00 0.00 0.00 0.00 0.00 0.00 0.00 0.00 0.00 0.00 0.00 0.00 0.00 0.00 0.00 0.00 0.00 0.00 0.00 0.01 0.04 0.09 0.16 0.25 0.29 0.24 0.14 0.06 0.02 0.01 0.01 0.00
0.19 0.18 0.20 0.25 0.25 0.09 0.01 0.03 0.04 0.01 0.00 0.00 0.00 0.00 0.00 0.00 0.00 0.00 0.00 0.00 0.00 0.00 0.00 0.00 0.00 0.00 0.00 0.00 0.01 0.03 0.04 0.05 0.09 0.14 0.16 0.12 0.04 0.00 0.00 0.00 0.00 0.00 0.00 0.00
0.08 0.13 0.16 0.15 0.16 0.06 0.04 0.06 0.09 0.06 0.01 0.00 0.00 0.00 0.00 0.00 0.00 0.00 0.00 0.00 0.00 0.00 0.00 0.00 0.00 0.00 0.01 0.04 0.06 0.04 0.02 0.03 0.04 0.02 0.01 0.00 0.00 0.00 0.00 0.00 0.00 0.00 0.00 0.00
0.00 0.01 0.02 0.03 0.01 0.00 0.03 0.04 0.02 0.01 0.00 0.01 0.01 0.01 0.01 0.01 0.00 0.00 0.00 0.00 0.00 0.00 0.00 0.00 0.04 0.08 0.09 0.04 0.01 0.01 0.01 0.01 0.01 0.00 0.00 0.00 0.00 0.00 0.00 0.00 0.00 0.00 0.00 0.00
0.00 0.03 0.03 0.01 0.00 0.00 0.02 0.02 0.02 0.01 0.00 0.00 0.00 0.00 0.01 0.00 0.00 0.00 0.00 0.00 0.00 0.01 0.03 0.08 0.07 0.04 0.02 0.01 0.01 0.01 0.00 0.00 0.00 0.00 0.00 0.00 0.00 0.00 0.00 0.00 0.00 0.00 0.00 0.00
0.02 0.04 0.05 0.01 0.03 0.03 0.00 0.01 0.03 0.01 0.00 0.00 0.00 0.00 0.00 0.01 0.00 0.00 0.00 0.01 0.04 0.11 0.12 0.05 0.02 0.02 0.02 0.01 0.00 0.00 0.00 0.00 0.00 0.00 0.00 0.02 0.03 0.02 0.01 0.00 0.00 0.00 0.00 0.00

GFSCGP_prec_precacc_060.txt.gz
Total_Precipitation_Accumulation
0.00 0.00 0.00 0.00 0.00 0.00 0.00 0.00 0.00 0.00 0.00 0.00 0.00 0.00 0.02 0.14 0.04 0.02 0.03 0.01 0.01 0.00 0.01 0.04 0.07 0.08 0.05 0.07 0.27 0.41 0.63 0.74 0.49 0.24 0.18 0.15 0.10 0.08 0.09 0.11 0.09 0.07 0.07 0.07
0.00 0.00 0.00 0.00 0.00 0.00 0.00 0.00 0.00 0.00 0.00 0.00 0.00 0.00 0.00 0.02 0.00 0.00 0.00 0.00 0.00 0.00 0.00 0.01 0.03 0.05 0.07 0.15 0.36 0.46 0.31 0.24 0.22 0.21 0.10 0.05 0.03 0.03 0.04 0.07 0.03 0.04 0.10 0.08
0.00 0.00 0.00 0.00 0.00 0.00 0.00 0.00 0.00 0.00 0.00 0.00 0.00 0.00 0.00 0.00 0.02 0.07 0.01 0.00 0.00 0.00 0.02 0.02 0.04 0.03 0.05 0.07 0.11 0.23 0.13 0.06 0.03 0.06 0.05 0.03 0.01 0.02 0.06 0.07 0.08 0.05 0.05 0.07
0.00 0.00 0.00 0.00 0.00 0.00 0.00 0.00 0.00 0.00 0.00 0.00 0.00 0.01 0.02 0.01 0.02 0.06 0.01 0.01 0.00 0.00 0.00 0.00 0.00 0.00 0.03 0.03 0.05 0.22 0.13 0.05 0.03 0.03 0.02 0.03 0.06 0.05 0.04 0.04 0.04 0.02 0.04 0.07
0.02 0.00 0.00 0.00 0.00 0.00 0.01 0.00 0.00 0.00 0.00 0.05 0.02 0.01 0.03 0.02 0.00 0.02 0.01 0.00 0.00 0.00 0.01 0.01 0.01 0.00 0.00 0.06 0.08 0.19 0.15 0.15 0.08 0.08 0.12 0.24 0.17 0.12 0.11 0.04 0.06 0.04 0.11 0.15
0.00 0.00 0.01 0.01 0.00 0.00 0.00 0.00 0.00 0.00 0.00 0.01 0.01 0.02 0.04 0.03 0.02 0.05 0.03 0.00 0.00 0.00 0.02 0.02 0.01 0.01 0.01 0.02 0.11 0.18 0.13 0.20 0.22 0.26 0.19 0.20 0.28 0.17 0.15 0.14 0.23 0.24 0.30 0.29
0.00 0.00 0.00 0.00 0.00 0.00 0.00 0.00 0.01 0.06 0.02 0.01 0.03 0.03 0.05 0.01 0.06 0.16 0.09 0.00 0.00 0.00 0.00 0.01 0.00 0.00 0.02 0.02 0.15 0.18 0.15 0.20 0.22 0.28 0.15 0.18 0.29 0.35 0.39 0.36 0.43 0.56 0.74 0.73
0.00 0.01 0.00 0.00 0.00 0.01 0.00 0.00 0.02 0.16 0.05 0.03 0.03 0.02 0.01 0.00 0.00 0.00 0.00 0.00 0.00 0.00 0.00 0.00 0.00 0.02 0.08 0.07 0.12 0.26 0.23 0.30 0.22 0.15 0.19 0.24 0.30 0.37 0.49 0.41 0.46 0.61 0.41 0.29
0.04 0.01 0.01 0.00 0.00 0.00 0.00 0.00 0.00 0.01 0.02 0.03 0.01 0.01 0.00 0.00 0.00 0.00 0.00 0.00 0.00 0.00 0.00 0.01 0.00 0.01 0.07 0.10 0.12 0.16 0.12 0.24 0.23 0.25 0.33 0.24 0.18 0.18 0.25 0.30 0.25 0.22 0.20 0.20
0.06 0.16 0.03 0.00 0.00 0.00 0.00 0.00 0.00 0.00 0.04 0.04 0.00 0.00 0.02 0.01 0.01 0.00 0.00 0.00 0.00 0.00 0.00 0.00 0.00 0.01 0.03 0.04 0.08 0.17 0.08 0.04 0.12 0.21 0.22 0.14 0.17 0.22 0.14 0.15 0.18 0.26 0.33 0.29
0.00 0.02 0.03 0.00 0.00 0.00 0.00 0.00 0.00 0.00 0.00 0.00 0.01 0.00 0.01 0.00 0.00 0.00 0.00 0.00 0.00 0.00 0.00 0.00 0.00 0.01 0.01 0.02 0.06 0.11 0.20 0.30 0.26 0.18 0.09 0.10 0.25 0.51 0.42 0.32 0.28 0.31 0.43 0.47
0.00 0.00 0.00 0.00 0.00 0.00 0.00 0.01 0.03 0.00 0.00 0.00 0.01 0.00 0.00 0.00 0.00 0.00 0.00 0.00 0.00 0.00 0.00 0.00 0.00 0.00 0.00 0.02 0.08 0.17 0.28 0.38 0.47 0.30 0.28 0.49 0.69 0.89 0.80 0.63 0.75 0.53 0.29 0.16
0.00 0.00 0.00 0.00 0.00 0.00 0.00 0.00 0.00 0.00 0.00 0.01 0.03 0.00 0.00 0.00 0.00 0.00 0.00 0.00 0.00 0.00 0.00 0.00 0.00 0.00 0.00 0.01 0.07 0.15 0.16 0.24 0.45 0.52 0.59 0.55 0.47 0.68 0.82 0.67 0.48 0.35 0.25 0.21
0.00 0.00 0.00 0.00 0.00 0.00 0.00 0.00 0.00 0.00 0.00 0.00 0.00 0.00 0.00 0.00 0.00 0.00 0.00 0.00 0.00 0.00 0.00 0.00 0.00 0.00 0.01 0.08 0.09 0.12 0.21 0.25 0.31 0.30 0.23 0.20 0.31 0.28 0.32 0.32 0.30 0.19 0.21 0.16
0.00 0.00 0.00 0.00 0.00 0.00 0.00 0.00 0.00 0.00 0.00 0.00 0.00 0.00 0.00 0.00 0.00 0.00 0.00 0.00 0.00 0.00 0.00 0.01 0.01 0.01 0.02 0.06 0.05 0.08 0.09 0.15 0.21 0.18 0.11 0.17 0.18 0.18 0.22 0.25 0.20 0.19 0.17 0.13
0.00 0.00 0.00 0.00 0.00 0.00 0.00 0.00 0.00 0.00 0.00 0.00 0.00 0.00 0.00 0.00 0.00 0.00 0.00 0.00 0.00 0.00 0.00 0.00 0.00 0.02 0.02 0.02 0.02 0.06 0.09 0.14 0.12 0.10 0.08 0.13 0.13 0.17 0.24 0.19 0.16 0.12 0.15 0.18
0.02 0.00 0.00 0.00 0.00 0.00 0.00 0.00 0.00 0.00 0.00 0.00 0.00 0.00 0.00 0.00 0.00 0.00 0.00 0.00 0.00 0.00 0.00 0.00 0.00 0.00 0.02 0.03 0.02 0.04 0.07 0.05 0.05 0.05 0.05 0.08 0.09 0.14 0.14 0.19 0.15 0.15 0.22 0.26
0.10 0.02 0.04 0.03 0.01 0.04 0.01 0.00 0.00 0.00 0.00 0.00 0.00 0.00 0.00 0.00 0.00 0.00 0.00 0.00 0.00 0.00 0.00 0.00 0.00 0.01 0.02 0.03 0.00 0.01 0.02 0.03 0.03 0.02 0.04 0.05 0.07 0.10 0.13 0.18 0.14 0.21 0.31 0.36
0.17 0.15 0.14 0.08 0.04 0.02 0.00 0.00 0.00 0.00 0.00 0.00 0.00 0.00 0.00 0.00 0.00 0.00 0.00 0.00 0.00 0.00 0.00 0.00 0.00 0.00 0.00 0.00 0.00 0.01 0.01 0.01 0.02 0.04 0.06 0.06 0.06 0.08 0.16 0.30 0.38 0.35 0.25 0.16
0.05 0.17 0.29 0.18 0.12 0.04 0.00 0.00 0.00 0.00 0.00 0.00 0.00 0.00 0.00 0.00 0.00 0.00 0.00 0.00 0.00 0.00 0.00 0.00 0.00 0.00 0.00 0.00 0.00 0.00 0.00 0.00 0.01 0.02 0.04 0.06 0.15 0.28 0.34 0.30 0.20 0.11 0.06 0.05
0.06 0.16 0.23 0.27 0.21 0.05 0.00 0.00 0.00 0.01 0.01 0.00 0.00 0.00 0.00 0.00 0.00 0.00 0.00 0.00 0.00 0.00 0.00 0.00 0.00 0.00 0.00 0.00 0.00 0.00 0.00 0.01 0.04 0.09 0.16 0.25 0.30 0.25 0.15 0.07 0.03 0.02 0.02 0.03
0.19 0.18 0.21 0.26 0.26 0.09 0.01 0.03 0.04 0.02 0.00 0.00 0.00 0.00 0.00 0.00 0.00 0.00 0.00 0.00 0.00 0.00 0.00 0.00 0.00 0.00 0.00 0.00 0.01 0.03 0.04 0.05 0.09 0.14 0.16 0.13 0.04 0.01 0.00 0.01 0.01 0.02 0.01 0.02
0.08 0.13 0.16 0.15 0.16 0.06 0.04 0.06 0.10 0.08 0.04 0.01 0.01 0.00 0.00 0.00 0.00 0.00 0.00 0.00 0.00 0.00 0.00 0.00 0.00 0.00 0.01 0.04 0.06 0.04 0.02 0.03 0.04 0.02 0.01 0.01 0.00 0.01 0.03 0.03 0.03 0.03 0.02 0.02
0.00 0.01 0.02 0.03 0.01 0.00 0.03 0.04 0.02 0.01 0.01 0.02 0.02 0.02 0.01 0.01 0.00 0.00 0.00 0.00 0.00 0.00 0.00 0.00 0.04 0.08 0.09 0.04 0.01 0.01 0.02 0.03 0.02 0.01 0.00 0.00 0.00 0.01 0.01 0.02 0.03 0.02 0.01 0.01
0.00 0.03 0.03 0.01 0.00 0.00 0.02 0.02 0.02 0.01 0.00 0.00 0.01 0.00 0.01 0.00 0.00 0.01 0.01 0.00 0.00 0.01 0.04 0.08 0.07 0.04 0.02 0.02 0.03 0.02 0.01 0.01 0.00 0.00 0.00 0.00 0.00 0.00 0.00 0.01 0.01 0.00 0.00 0.00
0.02 0.04 0.05 0.01 0.03 0.03 0.00 0.01 0.03 0.01 0.00 0.00 0.00 0.00 0.00 0.01 0.01 0.00 0.00 0.01 0.04 0.11 0.12 0.05 0.02 0.02 0.02 0.02 0.01 0.00 0.00 0.00 0.00 0.00 0.00 0.02 0.03 0.02 0.01 0.00 0.00 0.00 0.00 0.00

GFSCGP_prec_precacc_063.txt.gz
Total_Precipitation_Accumulation
0.00 0.00 0.00 0.00 0.00 0.00 0.00 0.00 0.00 0.00 0.00 0.00 0.00 0.00 0.02 0.14 0.04 0.02 0.03 0.01 0.01 0.00 0.01 0.04 0.07 0.08 0.05 0.08 0.29 0.45 0.69 0.83 0.52 0.31 0.21 0.18 0.13 0.09 0.10 0.13 0.09 0.07 0.07 0.07
0.00 0.00 0.00 0.00 0.00 0.00 0.00 0.00 0.00 0.00 0.00 0.00 0.00 0.00 0.00 0.02 0.00 0.00 0.00 0.00 0.00 0.00 0.00 0.01 0.03 0.05 0.07 0.15 0.36 0.46 0.32 0.25 0.25 0.25 0.12 0.05 0.04 0.03 0.05 0.08 0.04 0.04 0.10 0.09
0.00 0.00 0.00 0.00 0.00 0.00 0.00 0.00 0.00 0.00 0.00 0.00 0.00 0.00 0.00 0.00 0.02 0.07 0.01 0.00 0.00 0.00 0.02 0.02 0.04 0.04 0.06 0.07 0.11 0.23 0.13 0.07 0.05 0.08 0.08 0.04 0.01 0.02 0.06 0.08 0.08 0.05 0.06 0.08
0.00 0.00 0.00 0.00 0.00 0.00 0.00 0.00 0.00 0.00 0.00 0.00 0.00 0.01 0.02 0.01 0.02 0.06 0.01 0.01 0.00 0.00 0.00 0.00 0.00 0.00 0.03 0.03 0.05 0.22 0.13 0.05 0.03 0.04 0.04 0.04 0.07 0.05 0.05 0.04 0.04 0.02 0.04 0.07
0.02 0.00 0.00 0.00 0.00 0.00 0.01 0.00 0.00 0.00 0.00 0.05 0.02 0.01 0.03 0.02 0.00 0.02 0.01 0.00 0.00 0.00 0.01 0.01 0.01 0.00 0.00 0.06 0.08 0.19 0.15 0.15 0.08 0.08 0.13 0.24 0.17 0.12 0.11 0.04 0.07 0.04 0.11 0.15
0.00 0.00 0.01 0.01 0.00 0.00 0.00 0.00 0.00 0.00 0.00 0.01 0.01 0.02 0.04 0.03 0.02 0.05 0.03 0.00 0.00 0.00 0.02 0.02 0.01 0.01 0.01 0.02 0.11 0.18 0.13 0.20 0.22 0.26 0.19 0.20 0.28 0.17 0.15 0.14 0.23 0.24 0.30 0.29
0.00 0.00 0.00 0.00 0.00 0.00 0.00 0.00 0.01 0.06 0.02 0.01 0.03 0.03 0.05 0.01 0.06 0.16 0.09 0.00 0.00 0.00 0.00 0.01 0.00 0.00 0.02 0.02 0.15 0.18 0.15 0.20 0.22 0.28 0.15 0.18 0.29 0.35 0.39 0.36 0.43 0.56 0.74 0.73
0.00 0.01 0.00 0.00 0.00 0.01 0.00 0.00 0.02 0.16 0.05 0.03 0.03 0.02 0.01 0.00 0.00 0.00 0.00 0.00 0.00 0.00 0.00 0.00 0.00 0.02 0.08 0.07 0.12 0.26 0.23 0.30 0.22 0.15 0.19 0.24 0.30 0.37 0.49 0.41 0.46 0.61 0.41 0.29
0.04 0.01 0.01 0.00 0.00 0.00 0.00 0.00 0.00 0.01 0.02 0.03 0.01 0.01 0.00 0.00 0.00 0.00 0.00 0.00 0.00 0.00 0.00 0.01 0.00 0.01 0.07 0.10 0.12 0.16 0.12 0.24 0.23 0.25 0.33 0.24 0.18 0.18 0.25 0.30 0.25 0.22 0.20 0.20
0.06 0.16 0.03 0.00 0.00 0.00 0.00 0.00 0.00 0.00 0.04 0.04 0.00 0.00 0.02 0.01 0.01 0.00 0.00 0.00 0.00 0.00 0.00 0.00 0.00 0.01 0.03 0.04 0.08 0.17 0.08 0.04 0.12 0.21 0.22 0.14 0.17 0.22 0.14 0.15 0.18 0.26 0.33 0.29
0.00 0.02 0.03 0.00 0.00 0.00 0.00 0.00 0.00 0.00 0.00 0.00 0.01 0.00 0.01 0.00 0.00 0.00 0.00 0.00 0.00 0.00 0.00 0.00 0.00 0.01 0.01 0.02 0.06 0.11 0.20 0.30 0.26 0.18 0.09 0.10 0.25 0.51 0.42 0.32 0.28 0.31 0.43 0.47
0.00 0.00 0.00 0.00 0.00 0.00 0.00 0.01 0.03 0.00 0.00 0.00 0.01 0.00 0.00 0.00 0.00 0.00 0.00 0.00 0.00 0.00 0.00 0.00 0.00 0.00 0.00 0.02 0.08 0.17 0.29 0.38 0.48 0.31 0.28 0.49 0.69 0.89 0.80 0.63 0.75 0.53 0.29 0.16
0.00 0.00 0.00 0.00 0.00 0.00 0.00 0.00 0.00 0.00 0.00 0.01 0.03 0.00 0.00 0.00 0.00 0.00 0.00 0.00 0.00 0.00 0.00 0.00 0.00 0.00 0.00 0.01 0.07 0.15 0.16 0.24 0.45 0.53 0.59 0.55 0.47 0.68 0.82 0.67 0.48 0.35 0.25 0.21
0.00 0.00 0.00 0.00 0.00 0.00 0.00 0.00 0.00 0.00 0.00 0.00 0.00 0.00 0.00 0.00 0.00 0.00 0.00 0.00 0.00 0.00 0.00 0.00 0.00 0.00 0.01 0.08 0.09 0.12 0.21 0.25 0.31 0.30 0.23 0.20 0.31 0.28 0.32 0.32 0.31 0.19 0.22 0.16
0.00 0.00 0.00 0.00 0.00 0.00 0.00 0.00 0.00 0.00 0.00 0.00 0.00 0.00 0.00 0.00 0.00 0.00 0.00 0.00 0.00 0.00 0.00 0.01 0.01 0.01 0.02 0.06 0.05 0.08 0.09 0.15 0.21 0.18 0.11 0.17 0.18 0.18 0.22 0.25 0.20 0.20 0.19 0.16
0.00 0.00 0.00 0.00 0.00 0.00 0.00 0.00 0.00 0.00 0.00 0.00 0.00 0.00 0.00 0.00 0.00 0.00 0.00 0.00 0.00 0.00 0.00 0.00 0.00 0.02 0.02 0.02 0.02 0.06 0.09 0.14 0.12 0.10 0.08 0.13 0.13 0.17 0.24 0.19 0.16 0.13 0.17 0.22
0.02 0.00 0.00 0.00 0.00 0.00 0.00 0.00 0.00 0.00 0.00 0.00 0.00 0.00 0.00 0.00 0.00 0.00 0.00 0.00 0.00 0.00 0.00 0.00 0.00 0.00 0.02 0.03 0.02 0.04 0.07 0.05 0.05 0.05 0.05 0.08 0.09 0.14 0.14 0.19 0.15 0.16 0.25 0.33
0.10 0.02 0.04 0.03 0.01 0.04 0.01 0.00 0.00 0.00 0.00 0.00 0.00 0.00 0.00 0.00 0.00 0.00 0.00 0.00 0.00 0.00 0.00 0.00 0.00 0.01 0.02 0.03 0.00 0.01 0.02 0.03 0.03 0.02 0.04 0.05 0.07 0.10 0.13 0.18 0.14 0.21 0.32 0.38
0.17 0.15 0.14 0.08 0.04 0.02 0.00 0.00 0.00 0.00 0.00 0.00 0.00 0.00 0.00 0.00 0.00 0.00 0.00 0.00 0.00 0.00 0.00 0.00 0.00 0.00 0.00 0.00 0.00 0.01 0.01 0.01 0.02 0.04 0.06 0.06 0.06 0.08 0.16 0.30 0.38 0.35 0.26 0.18
0.05 0.18 0.30 0.18 0.12 0.04 0.00 0.00 0.00 0.00 0.00 0.00 0.00 0.00 0.00 0.00 0.00 0.00 0.00 0.00 0.00 0.00 0.00 0.00 0.00 0.00 0.00 0.00 0.00 0.00 0.00 0.00 0.01 0.02 0.04 0.06 0.15 0.28 0.34 0.30 0.20 0.12 0.09 0.08
0.06 0.16 0.25 0.31 0.22 0.05 0.00 0.00 0.00 0.01 0.01 0.00 0.00 0.00 0.00 0.00 0.00 0.00 0.00 0.00 0.00 0.00 0.00 0.00 0.00 0.00 0.00 0.00 0.00 0.00 0.00 0.01 0.04 0.09 0.16 0.25 0.30 0.26 0.16 0.08 0.04 0.03 0.03 0.04
0.19 0.19 0.21 0.27 0.28 0.09 0.01 0.03 0.04 0.02 0.00 0.00 0.00 0.00 0.00 0.00 0.00 0.00 0.00 0.00 0.00 0.00 0.00 0.00 0.00 0.00 0.00 0.00 0.01 0.03 0.04 0.05 0.09 0.14 0.16 0.15 0.06 0.03 0.04 0.04 0.02 0.02 0.02 0.02
0.08 0.13 0.16 0.15 0.16 0.06 0.04 0.06 0.10 0.08 0.04 0.01 0.01 0.00 0.00 0.00 0.00 0.00 0.00 0.00 0.00 0.00 0.00 0.00 0.00 0.00 0.01 0.04 0.06 0.04 0.02 0.03 0.04 0.03 0.03 0.03 0.03 0.04 0.04 0.03 0.05 0.04 0.04 0.05
0.00 0.01 0.02 0.03 0.01 0.00 0.03 0.04 0.02 0.01 0.01 0.02 0.02 0.02 0.01 0.01 0.00 0.00 0.00 0.00 0.00 0.00 0.00 0.00 0.04 0.08 0.09 0.04 0.01 0.01 0.03 0.04 0.05 0.06 0.04 0.04 0.02 0.02 0.02 0.03 0.04 0.05 0.05 0.07
0.00 0.03 0.03 0.01 0.00 0.00 0.02 0.02 0.02 0.01 0.00 0.00 0.01 0.00 0.01 0.00 0.00 0.01 0.01 0.00 0.00 0.01 0.04 0.08 0.07 0.04 0.03 0.02 0.03 0.03 0.03 0.04 0.03 0.01 0.01 0.00 0.00 0.01 0.00 0.01 0.02 0.02 0.03 0.04
0.02 0.04 0.05 0.01 0.03 0.03 0.00 0.01 0.03 0.01 0.00 0.00 0.00 0.00 0.00 0.01 0.01 0.00 0.00 0.01 0.04 0.12 0.13 0.05 0.02 0.02 0.02 0.02 0.02 0.01 0.01 0.01 0.01 0.01 0.00 0.02 0.03 0.02 0.01 0.00 0.01 0.02 0.01 0.02

GFSCGP_prec_precacc_066.txt.gz
Total_Precipitation_Accumulation
0.00 0.00 0.00 0.00 0.00 0.00 0.00 0.00 0.00 0.00 0.00 0.00 0.00 0.00 0.02 0.14 0.04 0.02 0.03 0.01 0.01 0.00 0.01 0.04 0.07 0.08 0.06 0.11 0.35 0.48 0.70 0.86 0.54 0.32 0.24 0.18 0.14 0.12 0.13 0.14 0.09 0.07 0.07 0.07
0.00 0.00 0.00 0.00 0.00 0.00 0.00 0.00 0.00 0.00 0.00 0.00 0.00 0.00 0.00 0.02 0.00 0.00 0.00 0.00 0.00 0.00 0.00 0.01 0.03 0.05 0.08 0.15 0.37 0.47 0.32 0.26 0.26 0.26 0.13 0.06 0.05 0.04 0.07 0.09 0.05 0.04 0.10 0.09
0.00 0.00 0.00 0.00 0.00 0.00 0.00 0.00 0.00 0.00 0.00 0.00 0.00 0.00 0.00 0.00 0.02 0.07 0.01 0.00 0.00 0.00 0.02 0.02 0.04 0.04 0.06 0.07 0.11 0.23 0.13 0.07 0.05 0.09 0.09 0.05 0.01 0.03 0.09 0.09 0.09 0.05 0.06 0.08
0.00 0.00 0.00 0.00 0.00 0.00 0.00 0.00 0.00 0.00 0.00 0.00 0.00 0.01 0.02 0.01 0.02 0.06 0.01 0.01 0.00 0.00 0.00 0.00 0.00 0.00 0.03 0.03 0.05 0.22 0.13 0.05 0.04 0.04 0.05 0.05 0.07 0.05 0.05 0.05 0.04 0.03 0.04 0.07
0.02 0.00 0.00 0.00 0.00 0.00 0.01 0.00 0.00 0.00 0.00 0.05 0.02 0.01 0.03 0.02 0.00 0.02 0.01 0.00 0.00 0.00 0.01 0.01 0.01 0.00 0.00 0.06 0.08 0.19 0.15 0.15 0.08 0.10 0.14 0.25 0.18 0.12 0.11 0.04 0.07 0.05 0.12 0.16
0.00 0.00 0.01 0.01 0.00 0.00 0.00 0.00 0.00 0.00 0.00 0.01 0.01 0.02 0.04 0.03 0.02 0.05 0.03 0.00 0.00 0.00 0.02 0.02 0.01 0.01 0.01 0.02 0.11 0.18 0.14 0.20 0.22 0.26 0.21 0.20 0.28 0.17 0.15 0.15 0.23 0.24 0.30 0.30
0.00 0.00 0.00 0.00 0.00 0.00 0.00 0.00 0.01 0.06 0.02 0.01 0.03 0.03 0.05 0.01 0.06 0.16 0.09 0.00 0.00 0.00 0.00 0.01 0.00 0.00 0.02 0.02 0.15 0.18 0.15 0.20 0.22 0.28 0.15 0.18 0.29 0.35 0.39 0.36 0.43 0.56 0.74 0.73
0.02 0.01 0.00 0.00 0.00 0.01 0.00 0.00 0.02 0.16 0.05 0.03 0.03 0.02 0.01 0.00 0.00 0.00 0.00 0.00 0.00 0.00 0.00 0.00 0.00 0.02 0.08 0.07 0.12 0.26 0.23 0.30 0.22 0.15 0.19 0.24 0.30 0.37 0.49 0.41 0.46 0.61 0.41 0.29
0.05 0.01 0.01 0.00 0.00 0.00 0.00 0.00 0.00 0.01 0.02 0.03 0.01 0.01 0.00 0.00 0.00 0.00 0.00 0.00 0.00 0.00 0.00 0.01 0.00 0.01 0.07 0.10 0.12 0.16 0.12 0.24 0.23 0.25 0.33 0.24 0.18 0.18 0.25 0.30 0.25 0.22 0.20 0.20
0.06 0.16 0.03 0.00 0.00 0.00 0.00 0.00 0.00 0.00 0.04 0.04 0.00 0.00 0.02 0.01 0.01 0.00 0.00 0.00 0.00 0.00 0.00 0.00 0.00 0.01 0.03 0.04 0.08 0.17 0.08 0.04 0.12 0.21 0.22 0.14 0.17 0.22 0.14 0.15 0.18 0.26 0.33 0.29
0.00 0.02 0.03 0.00 0.00 0.00 0.00 0.00 0.00 0.00 0.00 0.00 0.01 0.00 0.01 0.00 0.00 0.00 0.00 0.00 0.00 0.00 0.00 0.00 0.00 0.01 0.01 0.02 0.06 0.11 0.20 0.30 0.26 0.18 0.09 0.10 0.25 0.51 0.42 0.32 0.28 0.31 0.43 0.47
0.00 0.00 0.00 0.00 0.00 0.00 0.00 0.01 0.03 0.00 0.00 0.00 0.01 0.00 0.00 0.00 0.00 0.00 0.00 0.00 0.00 0.00 0.00 0.00 0.00 0.00 0.00 0.02 0.08 0.17 0.29 0.38 0.48 0.31 0.28 0.49 0.69 0.89 0.80 0.63 0.75 0.53 0.29 0.16
0.00 0.00 0.00 0.00 0.00 0.00 0.00 0.00 0.00 0.00 0.00 0.01 0.03 0.00 0.00 0.00 0.00 0.00 0.00 0.00 0.00 0.00 0.00 0.00 0.00 0.00 0.00 0.01 0.07 0.15 0.16 0.24 0.45 0.53 0.59 0.55 0.47 0.68 0.82 0.67 0.48 0.35 0.25 0.21
0.01 0.01 0.00 0.00 0.00 0.00 0.00 0.00 0.00 0.00 0.00 0.00 0.00 0.00 0.00 0.00 0.00 0.00 0.00 0.00 0.00 0.00 0.00 0.00 0.00 0.00 0.01 0.08 0.09 0.12 0.21 0.25 0.31 0.30 0.23 0.20 0.31 0.28 0.32 0.32 0.31 0.19 0.22 0.16
0.00 0.01 0.00 0.00 0.00 0.00 0.00 0.00 0.00 0.00 0.00 0.00 0.00 0.00 0.00 0.00 0.00 0.00 0.00 0.00 0.00 0.00 0.00 0.01 0.01 0.01 0.02 0.06 0.05 0.08 0.09 0.15 0.21 0.18 0.11 0.17 0.18 0.18 0.22 0.25 0.20 0.20 0.19 0.16
0.00 0.01 0.00 0.00 0.00 0.00 0.00 0.00 0.00 0.00 0.00 0.00 0.00 0.00 0.00 0.00 0.00 0.00 0.00 0.00 0.00 0.00 0.00 0.00 0.00 0.02 0.02 0.02 0.02 0.06 0.09 0.14 0.12 0.10 0.08 0.13 0.13 0.17 0.24 0.19 0.16 0.13 0.17 0.22
0.02 0.01 0.00 0.00 0.00 0.00 0.00 0.00 0.00 0.00 0.00 0.00 0.00 0.00 0.00 0.00 0.00 0.00 0.00 0.00 0.00 0.00 0.00 0.00 0.00 0.00 0.02 0.03 0.02 0.04 0.07 0.05 0.05 0.05 0.05 0.08 0.09 0.14 0.14 0.19 0.15 0.16 0.25 0.33
0.10 0.02 0.04 0.03 0.01 0.04 0.01 0.00 0.00 0.00 0.00 0.00 0.00 0.00 0.00 0.00 0.00 0.00 0.00 0.00 0.00 0.00 0.00 0.00 0.00 0.01 0.02 0.03 0.00 0.01 0.02 0.03 0.03 0.02 0.04 0.05 0.07 0.10 0.13 0.18 0.14 0.21 0.32 0.38
0.17 0.15 0.15 0.08 0.04 0.02 0.00 0.00 0.00 0.00 0.00 0.00 0.00 0.00 0.00 0.00 0.00 0.00 0.00 0.00 0.00 0.00 0.00 0.00 0.00 0.00 0.00 0.00 0.00 0.01 0.01 0.01 0.02 0.04 0.06 0.06 0.06 0.08 0.16 0.30 0.38 0.35 0.26 0.18
0.05 0.18 0.31 0.19 0.12 0.04 0.00 0.00 0.00 0.00 0.00 0.00 0.00 0.00 0.00 0.00 0.00 0.00 0.00 0.00 0.00 0.00 0.00 0.00 0.00 0.00 0.00 0.00 0.00 0.00 0.00 0.00 0.01 0.02 0.04 0.06 0.15 0.28 0.34 0.30 0.20 0.12 0.09 0.09
0.06 0.16 0.25 0.32 0.23 0.05 0.00 0.00 0.00 0.01 0.01 0.00 0.00 0.00 0.00 0.00 0.00 0.00 0.00 0.00 0.00 0.00 0.00 0.00 0.00 0.00 0.00 0.00 0.00 0.00 0.00 0.01 0.04 0.09 0.16 0.25 0.30 0.26 0.16 0.08 0.04 0.04 0.05 0.05
0.19 0.19 0.22 0.28 0.29 0.10 0.01 0.03 0.04 0.02 0.00 0.00 0.00 0.00 0.00 0.00 0.00 0.00 0.00 0.00 0.00 0.00 0.00 0.00 0.00 0.00 0.00 0.00 0.01 0.03 0.04 0.05 0.09 0.14 0.16 0.15 0.06 0.04 0.06 0.07 0.07 0.05 0.03 0.03
0.09 0.14 0.17 0.16 0.16 0.07 0.04 0.06 0.10 0.08 0.04 0.01 0.01 0.00 0.00 0.00 0.00 0.00 0.00 0.00 0.00 0.00 0.00 0.00 0.00 0.00 0.01 0.04 0.06 0.04 0.02 0.03 0.04 0.03 0.04 0.04 0.05 0.07 0.07 0.06 0.05 0.05 0.04 0.05
0.00 0.01 0.02 0.03 0.01 0.00 0.03 0.04 0.02 0.01 0.01 0.02 0.02 0.02 0.01 0.01 0.00 0.00 0.00 0.00 0.00 0.00 0.00 0.00 0.04 0.08 0.09 0.04 0.01 0.01 0.03 0.04 0.05 0.06 0.05 0.05 0.04 0.05 0.03 0.03 0.04 0.05 0.06 0.08
0.00 0.03 0.03 0.01 0.00 0.00 0.02 0.02 0.02 0.01 0.00 0.00 0.01 0.00 0.01 0.00 0.00 0.01 0.01 0.00 0.00 0.01 0.04 0.08 0.07 0.04 0.04 0.04 0.03 0.04 0.04 0.05 0.04 0.02 0.01 0.01 0.01 0.01 0.00 0.01 0.03 0.02 0.03 0.06
0.02 0.04 0.05 0.01 0.03 0.03 0.00 0.01 0.03 0.01 0.00 0.00 0.00 0.00 0.00 0.01 0.01 0.00 0.00 0.01 0.04 0.12 0.13 0.05 0.02 0.02 0.02 0.02 0.02 0.01 0.01 0.02 0.03 0.03 0.02 0.04 0.05 0.03 0.02 0.01 0.02 0.05 0.04 0.06

GFSCGP_prec_precacc_069.txt.gz
Total_Precipitation_Accumulation
0.00 0.00 0.00 0.00 0.00 0.00 0.00 0.00 0.00 0.00 0.00 0.00 0.00 0.00 0.02 0.14 0.04 0.02 0.03 0.01 0.01 0.00 0.01 0.04 0.07 0.08 0.06 0.12 0.36 0.48 0.71 0.87 0.57 0.33 0.25 0.20 0.16 0.15 0.17 0.17 0.11 0.07 0.07 0.07
0.00 0.00 0.00 0.00 0.00 0.00 0.00 0.00 0.00 0.00 0.00 0.00 0.00 0.00 0.00 0.02 0.00 0.00 0.00 0.00 0.00 0.00 0.00 0.01 0.03 0.05 0.08 0.15 0.37 0.47 0.32 0.27 0.27 0.26 0.13 0.06 0.06 0.05 0.07 0.10 0.05 0.05 0.10 0.09
0.00 0.00 0.00 0.00 0.00 0.00 0.00 0.00 0.00 0.00 0.00 0.00 0.00 0.00 0.00 0.00 0.02 0.07 0.01 0.00 0.00 0.00 0.02 0.02 0.04 0.04 0.06 0.08 0.12 0.24 0.13 0.07 0.05 0.09 0.09 0.05 0.02 0.04 0.09 0.09 0.09 0.05 0.06 0.08
0.01 0.00 0.00 0.00 0.00 0.00 0.00 0.00 0.00 0.00 0.00 0.00 0.00 0.01 0.02 0.01 0.02 0.06 0.01 0.01 0.00 0.00 0.00 0.00 0.00 0.00 0.03 0.03 0.05 0.23 0.13 0.06 0.04 0.04 0.05 0.05 0.07 0.06 0.05 0.05 0.04 0.03 0.04 0.07
0.06 0.00 0.00 0.00 0.00 0.00 0.01 0.00 0.00 0.00 0.00 0.05 0.02 0.01 0.03 0.02 0.00 0.02 0.01 0.00 0.00 0.00 0.01 0.01 0.01 0.00 0.00 0.06 0.08 0.20 0.15 0.15 0.08 0.10 0.14 0.25 0.18 0.12 0.12 0.05 0.07 0.05 0.12 0.16
0.01 0.00 0.01 0.01 0.00 0.00 0.00 0.00 0.00 0.00 0.00 0.01 0.01 0.02 0.04 0.03 0.02 0.05 0.03 0.00 0.00 0.00 0.02 0.02 0.01 0.01 0.01 0.02 0.11 0.18 0.14 0.21 0.22 0.26 0.21 0.21 0.29 0.17 0.15 0.15 0.23 0.24 0.30 0.30
0.01 0.01 0.00 0.00 0.00 0.00 0.00 0.00 0.01 0.06 0.02 0.01 0.03 0.03 0.05 0.01 0.06 0.16 0.09 0.00 0.00 0.00 0.00 0.01 0.00 0.00 0.02 0.02 0.15 0.18 0.15 0.20 0.22 0.28 0.15 0.18 0.29 0.35 0.39 0.36 0.43 0.56 0.74 0.73
0.07 0.06 0.00 0.00 0.00 0.01 0.00 0.00 0.02 0.16 0.05 0.03 0.03 0.02 0.01 0.00 0.00 0.00 0.00 0.00 0.00 0.00 0.00 0.00 0.00 0.02 0.08 0.07 0.12 0.26 0.23 0.30 0.22 0.15 0.19 0.24 0.30 0.37 0.49 0.41 0.46 0.61 0.41 0.29
0.05 0.02 0.02 0.00 0.00 0.00 0.00 0.00 0.00 0.01 0.02 0.03 0.01 0.01 0.00 0.00 0.00 0.00 0.00 0.00 0.00 0.00 0.00 0.01 0.00 0.01 0.07 0.10 0.12 0.16 0.12 0.24 0.23 0.25 0.33 0.24 0.18 0.18 0.25 0.30 0.25 0.22 0.20 0.20
0.07 0.16 0.04 0.00 0.00 0.00 0.00 0.00 0.00 0.00 0.04 0.04 0.00 0.00 0.02 0.01 0.01 0.00 0.00 0.00 0.00 0.00 0.00 0.00 0.00 0.01 0.03 0.04 0.08 0.17 0.08 0.04 0.12 0.21 0.22 0.14 0.17 0.22 0.14 0.15 0.18 0.26 0.33 0.29
0.00 0.02 0.04 0.00 0.00 0.00 0.00 0.00 0.00 0.00 0.00 0.00 0.01 0.01 0.01 0.00 0.00 0.00 0.00 0.00 0.00 0.00 0.00 0.00 0.00 0.01 0.01 0.02 0.06 0.11 0.20 0.30 0.26 0.18 0.09 0.10 0.25 0.51 0.42 0.32 0.28 0.31 0.43 0.47
0.00 0.00 0.00 0.00 0.00 0.00 0.00 0.01 0.03 0.00 0.00 0.00 0.01 0.00 0.00 0.00 0.00 0.00 0.00 0.00 0.00 0.00 0.00 0.00 0.00 0.00 0.00 0.02 0.08 0.17 0.29 0.38 0.48 0.31 0.28 0.49 0.69 0.89 0.80 0.63 0.75 0.53 0.29 0.16
0.02 0.01 0.00 0.02 0.01 0.00 0.00 0.00 0.00 0.00 0.00 0.01 0.04 0.00 0.00 0.00 0.00 0.00 0.00 0.00 0.00 0.00 0.00 0.00 0.00 0.00 0.00 0.01 0.07 0.15 0.16 0.24 0.45 0.53 0.59 0.55 0.47 0.68 0.82 0.67 0.48 0.35 0.25 0.21
0.02 0.03 0.00 0.01 0.00 0.00 0.00 0.00 0.00 0.00 0.00 0.00 0.00 0.00 0.00 0.00 0.00 0.00 0.00 0.00 0.00 0.00 0.00 0.00 0.00 0.00 0.01 0.08 0.09 0.12 0.21 0.25 0.31 0.30 0.23 0.20 0.31 0.28 0.32 0.32 0.31 0.19 0.22 0.16
0.00 0.06 0.04 0.00 0.00 0.00 0.00 0.00 0.00 0.00 0.00 0.00 0.00 0.00 0.00 0.00 0.00 0.00 0.00 0.00 0.00 0.00 0.00 0.01 0.01 0.01 0.02 0.06 0.05 0.08 0.09 0.15 0.21 0.18 0.11 0.17 0.18 0.18 0.22 0.25 0.20 0.20 0.19 0.16
0.00 0.06 0.08 0.01 0.00 0.00 0.00 0.00 0.00 0.00 0.00 0.00 0.00 0.00 0.00 0.00 0.00 0.00 0.00 0.00 0.00 0.00 0.00 0.00 0.00 0.02 0.02 0.02 0.02 0.06 0.09 0.14 0.12 0.10 0.08 0.13 0.13 0.17 0.24 0.19 0.16 0.13 0.17 0.22
0.02 0.03 0.05 0.04 0.00 0.00 0.01 0.00 0.00 0.00 0.00 0.00 0.00 0.00 0.00 0.00 0.00 0.00 0.00 0.00 0.00 0.00 0.00 0.00 0.00 0.00 0.02 0.03 0.02 0.04 0.07 0.05 0.05 0.05 0.05 0.08 0.09 0.14 0.14 0.19 0.15 0.16 0.25 0.33
0.10 0.04 0.07 0.10 0.02 0.06 0.02 0.00 0.00 0.00 0.00 0.00 0.00 0.00 0.00 0.00 0.00 0.00 0.00 0.00 0.00 0.00 0.00 0.00 0.00 0.01 0.02 0.03 0.00 0.01 0.02 0.03 0.03 0.02 0.04 0.05 0.07 0.10 0.13 0.18 0.14 0.21 0.32 0.38
0.17 0.15 0.16 0.10 0.07 0.05 0.00 0.00 0.00 0.01 0.00 0.00 0.00 0.00 0.00 0.00 0.00 0.00 0.00 0.00 0.00 0.00 0.00 0.00 0.00 0.00 0.00 0.00 0.00 0.01 0.01 0.01 0.02 0.04 0.06 0.06 0.06 0.08 0.16 0.30 0.38 0.35 0.26 0.18
0.05 0.18 0.31 0.20 0.13 0.05 0.00 0.00 0.00 0.00 0.01 0.00 0.00 0.00 0.00 0.00 0.00 0.00 0.00 0.00 0.00 0.00 0.00 0.00 0.00 0.00 0.00 0.00 0.00 0.00 0.00 0.00 0.01 0.02 0.04 0.06 0.15 0.28 0.34 0.30 0.20 0.12 0.09 0.09
0.06 0.16 0.25 0.32 0.24 0.05 0.00 0.00 0.00 0.02 0.03 0.00 0.00 0.00 0.00 0.00 0.00 0.00 0.00 0.00 0.00 0.00 0.00 0.00 0.00 0.00 0.00 0.00 0.00 0.00 0.00 0.01 0.04 0.09 0.16 0.25 0.30 0.26 0.16 0.08 0.04 0.04 0.05 0.06
0.20 0.19 0.22 0.28 0.30 0.11 0.01 0.04 0.06 0.02 0.00 0.00 0.00 0.00 0.00 0.00 0.00 0.00 0.00 0.00 0.00 0.00 0.00 0.00 0.00 0.00 0.00 0.00 0.01 0.03 0.04 0.05 0.09 0.14 0.16 0.15 0.06 0.04 0.06 0.07 0.07 0.06 0.05 0.05
0.11 0.15 0.19 0.16 0.17 0.09 0.05 0.07 0.10 0.08 0.04 0.01 0.01 0.00 0.00 0.00 0.00 0.00 0.00 0.00 0.00 0.00 0.00 0.00 0.00 0.00 0.01 0.04 0.06 0.04 0.02 0.03 0.04 0.03 0.04 0.04 0.05 0.07 0.08 0.08 0.09 0.08 0.07 0.08
0.00 0.01 0.05 0.05 0.02 0.02 0.04 0.04 0.02 0.01 0.01 0.02 0.02 0.02 0.01 0.01 0.00 0.00 0.00 0.00 0.00 0.00 0.00 0.00 0.04 0.08 0.09 0.04 0.01 0.01 0.03 0.05 0.07 0.08 0.07 0.06 0.07 0.11 0.07 0.07 0.08 0.08 0.08 0.10
0.01 0.03 0.03 0.01 0.00 0.01 0.02 0.02 0.02 0.01 0.00 0.00 0.01 0.00 0.01 0.00 0.00 0.01 0.01 0.00 0.00 0.01 0.04 0.08 0.07 0.04 0.04 0.04 0.03 0.04 0.04 0.06 0.07 0.06 0.06 0.05 0.05 0.05 0.05 0.04 0.07 0.05 0.06 0.10
0.04 0.06 0.07 0.04 0.04 0.03 0.02 0.01 0.03 0.01 0.00 0.00 0.00 0.00 0.00 0.01 0.01 0.00 0.00 0.01 0.04 0.12 0.13 0.05 0.02 0.02 0.02 0.02 0.02 0.02 0.04 0.06 0.07 0.09 0.09 0.10 0.08 0.05 0.03 0.02 0.04 0.08 0.08 0.09

GFSCGP_prec_precacc_072.txt.gz
Total_Precipitation_Accumulation
0.00 0.00 0.00 0.00 0.00 0.00 0.00 0.00 0.00 0.00 0.00 0.00 0.00 0.00 0.02 0.14 0.04 0.02 0.03 0.01 0.01 0.00 0.01 0.04 0.07 0.08 0.06 0.12 0.37 0.48 0.71 0.87 0.57 0.34 0.26 0.21 0.18 0.19 0.23 0.20 0.12 0.10 0.10 0.08
0.02 0.01 0.00 0.00 0.00 0.00 0.00 0.00 0.00 0.00 0.00 0.00 0.00 0.00 0.00 0.02 0.00 0.00 0.00 0.00 0.00 0.00 0.00 0.01 0.03 0.05 0.08 0.16 0.37 0.47 0.32 0.27 0.27 0.26 0.14 0.06 0.06 0.06 0.08 0.11 0.06 0.06 0.11 0.09
0.02 0.02 0.00 0.00 0.00 0.00 0.00 0.00 0.00 0.00 0.00 0.00 0.00 0.00 0.00 0.00 0.02 0.07 0.01 0.00 0.00 0.00 0.02 0.02 0.04 0.04 0.06 0.08 0.12 0.24 0.13 0.07 0.06 0.09 0.10 0.05 0.03 0.07 0.10 0.10 0.10 0.06 0.07 0.08
0.09 0.00 0.01 0.01 0.00 0.00 0.00 0.00 0.00 0.00 0.00 0.00 0.00 0.01 0.02 0.01 0.02 0.06 0.01 0.01 0.00 0.00 0.00 0.00 0.00 0.00 0.03 0.03 0.05 0.23 0.13 0.06 0.04 0.04 0.05 0.05 0.07 0.07 0.05 0.05 0.04 0.03 0.06 0.08
0.10 0.01 0.01 0.00 0.00 0.00 0.01 0.00 0.00 0.00 0.00 0.05 0.02 0.01 0.03 0.02 0.00 0.02 0.01 0.00 0.00 0.00 0.01 0.01 0.01 0.00 0.00 0.06 0.08 0.20 0.15 0.16 0.08 0.10 0.14 0.25 0.18 0.13 0.12 0.05 0.07 0.05 0.12 0.16
0.01 0.01 0.04 0.02 0.00 0.00 0.00 0.01 0.00 0.00 0.00 0.01 0.01 0.02 0.04 0.03 0.02 0.05 0.03 0.00 0.00 0.00 0.02 0.02 0.01 0.01 0.01 0.02 0.11 0.19 0.14 0.21 0.23 0.26 0.21 0.21 0.29 0.17 0.15 0.15 0.23 0.24 0.30 0.30
0.02 0.04 0.02 0.00 0.00 0.00 0.00 0.01 0.01 0.06 0.02 0.01 0.03 0.03 0.05 0.01 0.06 0.16 0.09 0.00 0.00 0.00 0.00 0.01 0.00 0.00 0.02 0.02 0.15 0.18 0.15 0.20 0.22 0.28 0.16 0.18 0.29 0.35 0.39 0.36 0.43 0.56 0.74 0.73
0.12 0.09 0.02 0.01 0.00 0.01 0.00 0.00 0.02 0.16 0.05 0.03 0.03 0.02 0.01 0.00 0.00 0.00 0.00 0.00 0.00 0.00 0.00 0.00 0.00 0.02 0.08 0.07 0.12 0.26 0.23 0.30 0.22 0.15 0.20 0.25 0.30 0.37 0.49 0.41 0.46 0.61 0.41 0.29
0.07 0.04 0.02 0.02 0.00 0.01 0.02 0.01 0.00 0.02 0.03 0.03 0.01 0.01 0.00 0.00 0.00 0.00 0.00 0.00 0.00 0.00 0.00 0.01 0.00 0.01 0.07 0.10 0.12 0.16 0.12 0.24 0.23 0.25 0.33 0.24 0.18 0.18 0.25 0.30 0.26 0.22 0.20 0.20
0.07 0.20 0.05 0.01 0.02 0.01 0.00 0.00 0.00 0.00 0.04 0.06 0.01 0.00 0.02 0.01 0.01 0.00 0.00 0.00 0.00 0.00 0.00 0.00 0.00 0.01 0.03 0.04 0.08 0.17 0.08 0.04 0.12 0.21 0.22 0.14 0.18 0.23 0.14 0.15 0.18 0.27 0.33 0.29
0.00 0.05 0.05 0.05 0.05 0.01 0.00 0.00 0.00 0.00 0.00 0.01 0.02 0.01 0.02 0.00 0.00 0.00 0.00 0.00 0.00 0.00 0.00 0.00 0.00 0.01 0.01 0.02 0.06 0.11 0.20 0.30 0.26 0.18 0.09 0.11 0.26 0.51 0.42 0.32 0.28 0.31 0.43 0.47
0.00 0.01 0.01 0.01 0.01 0.00 0.00 0.01 0.03 0.00 0.00 0.00 0.01 0.01 0.00 0.00 0.00 0.00 0.00 0.00 0.00 0.00 0.00 0.00 0.00 0.00 0.00 0.02 0.08 0.17 0.29 0.38 0.48 0.31 0.28 0.49 0.69 0.89 0.80 0.63 0.75 0.53 0.29 0.16
0.03 0.01 0.00 0.04 0.03 0.01 0.02 0.01 0.00 0.00 0.02 0.03 0.05 0.01 0.00 0.00 0.00 0.00 0.00 0.00 0.00 0.00 0.00 0.00 0.00 0.00 0.00 0.01 0.07 0.15 0.16 0.24 0.45 0.53 0.59 0.55 0.47 0.68 0.82 0.67 0.48 0.35 0.25 0.21
0.02 0.03 0.01 0.01 0.07 0.05 0.02 0.00 0.00 0.00 0.04 0.01 0.01 0.00 0.00 0.00 0.00 0.00 0.00 0.00 0.00 0.00 0.00 0.00 0.00 0.00 0.01 0.08 0.09 0.12 0.21 0.25 0.31 0.30 0.23 0.20 0.31 0.28 0.32 0.32 0.31 0.19 0.22 0.16
0.02 0.08 0.08 0.04 0.02 0.03 0.03 0.01 0.01 0.00 0.00 0.00 0.00 0.00 0.00 0.00 0.00 0.00 0.00 0.00 0.00 0.00 0.00 0.01 0.01 0.01 0.02 0.06 0.05 0.08 0.09 0.15 0.21 0.18 0.11 0.17 0.18 0.18 0.22 0.25 0.20 0.20 0.19 0.16
0.01 0.07 0.15 0.04 0.00 0.04 0.04 0.01 0.00 0.01 0.01 0.00 0.00 0.00 0.00 0.00 0.00 0.00 0.00 0.00 0.00 0.00 0.00 0.00 0.00 0.02 0.02 0.02 0.02 0.06 0.09 0.14 0.12 0.10 0.08 0.13 0.13 0.17 0.24 0.19 0.16 0.13 0.17 0.22
0.02 0.07 0.14 0.24 0.04 0.01 0.02 0.00 0.00 0.00 0.00 0.00 0.01 0.00 0.00 0.00 0.00 0.00 0.00 0.00 0.00 0.00 0.00 0.00 0.00 0.00 0.02 0.03 0.02 0.04 0.07 0.05 0.05 0.05 0.05 0.08 0.09 0.14 0.14 0.19 0.15 0.16 0.25 0.33
0.11 0.06 0.17 0.19 0.05 0.09 0.04 0.01 0.00 0.01 0.01 0.01 0.01 0.00 0.00 0.00 0.00 0.00 0.00 0.00 0.00 0.00 0.00 0.00 0.00 0.01 0.02 0.03 0.00 0.01 0.03 0.03 0.03 0.02 0.04 0.05 0.07 0.10 0.13 0.18 0.14 0.21 0.32 0.38
0.17 0.16 0.23 0.15 0.10 0.11 0.02 0.03 0.02 0.04 0.07 0.05 0.02 0.00 0.00 0.00 0.00 0.01 0.00 0.00 0.00 0.00 0.00 0.00 0.00 0.00 0.00 0.00 0.00 0.01 0.01 0.02 0.03 0.04 0.06 0.06 0.06 0.08 0.16 0.30 0.38 0.35 0.26 0.18
0.05 0.18 0.32 0.23 0.18 0.07 0.01 0.01 0.05 0.15 0.24 0.03 0.02 0.00 0.00 0.00 0.00 0.01 0.00 0.00 0.00 0.00 0.00 0.00 0.00 0.00 0.00 0.00 0.00 0.00 0.00 0.00 0.01 0.02 0.04 0.07 0.16 0.28 0.34 0.30 0.20 0.12 0.09 0.09
0.06 0.17 0.26 0.33 0.27 0.05 0.00 0.00 0.01 0.08 0.12 0.01 0.00 0.00 0.00 0.00 0.00 0.00 0.00 0.00 0.00 0.00 0.00 0.00 0.00 0.00 0.00 0.00 0.00 0.00 0.00 0.01 0.04 0.09 0.16 0.25 0.32 0.27 0.16 0.09 0.04 0.04 0.05 0.06
0.20 0.20 0.23 0.28 0.31 0.12 0.02 0.05 0.07 0.04 0.01 0.00 0.00 0.00 0.00 0.00 0.00 0.00 0.00 0.00 0.00 0.00 0.00 0.00 0.00 0.00 0.00 0.00 0.01 0.03 0.04 0.05 0.09 0.14 0.16 0.15 0.06 0.05 0.09 0.11 0.09 0.07 0.05 0.06
0.12 0.15 0.19 0.17 0.17 0.11 0.06 0.08 0.10 0.09 0.05 0.01 0.01 0.00 0.00 0.00 0.00 0.00 0.00 0.00 0.00 0.00 0.00 0.00 0.00 0.00 0.01 0.04 0.06 0.04 0.02 0.03 0.04 0.03 0.04 0.04 0.05 0.07 0.09 0.10 0.12 0.08 0.08 0.10
0.03 0.01 0.08 0.10 0.10 0.09 0.07 0.04 0.02 0.01 0.01 0.02 0.02 0.02 0.01 0.01 0.00 0.00 0.00 0.00 0.00 0.00 0.00 0.00 0.04 0.08 0.09 0.04 0.01 0.01 0.03 0.05 0.07 0.09 0.08 0.08 0.09 0.13 0.08 0.07 0.09 0.10 0.11 0.16
0.03 0.03 0.04 0.05 0.10 0.18 0.07 0.02 0.02 0.01 0.00 0.00 0.01 0.00 0.01 0.00 0.00 0.01 0.01 0.00 0.00 0.01 0.04 0.08 0.07 0.04 0.04 0.04 0.03 0.04 0.04 0.06 0.07 0.07 0.07 0.08 0.08 0.09 0.09 0.10 0.14 0.12 0.14 0.20
0.06 0.09 0.10 0.09 0.07 0.14 0.05 0.01 0.03 0.01 0.00 0.00 0.00 0.00 0.00 0.01 0.01 0.00 0.00 0.01 0.04 0.12 0.13 0.05 0.02 0.02 0.02 0.02 0.02 0.02 0.04 0.06 0.08 0.10 0.10 0.13 0.14 0.13 0.13 0.14 0.19 0.26 0.24 0.24

GFSCGP_prec_precacc_078.txt.gz
Total_Precipitation_Accumulation
0.00 0.00 0.00 0.00 0.00 0.00 0.00 0.00 0.00 0.00 0.00 0.00 0.00 0.00 0.02 0.14 0.04 0.02 0.03 0.01 0.01 0.00 0.01 0.04 0.07 0.08 0.06 0.12 0.37 0.48 0.71 0.87 0.57 0.34 0.28 0.29 0.27 0.33 0.43 0.26 0.15 0.10 0.10 0.08
0.02 0.01 0.00 0.00 0.00 0.00 0.00 0.00 0.00 0.00 0.00 0.00 0.00 0.00 0.00 0.02 0.00 0.00 0.00 0.00 0.00 0.00 0.00 0.01 0.03 0.05 0.08 0.16 0.38 0.47 0.32 0.27 0.28 0.27 0.14 0.08 0.09 0.13 0.19 0.16 0.08 0.07 0.11 0.09
0.02 0.02 0.00 0.00 0.00 0.00 0.00 0.00 0.00 0.00 0.00 0.00 0.00 0.00 0.00 0.00 0.02 0.07 0.01 0.00 0.00 0.00 0.02 0.02 0.04 0.04 0.06 0.08 0.12 0.24 0.13 0.07 0.06 0.09 0.10 0.06 0.05 0.12 0.29 0.24 0.18 0.09 0.08 0.08
0.09 0.00 0.01 0.01 0.00 0.00 0.00 0.00 0.00 0.00 0.00 0.00 0.00 0.01 0.02 0.01 0.02 0.06 0.01 0.01 0.00 0.00 0.00 0.00 0.00 0.00 0.03 0.03 0.05 0.23 0.13 0.06 0.04 0.05 0.05 0.06 0.09 0.09 0.10 0.09 0.08 0.05 0.06 0.08
0.10 0.01 0.01 0.00 0.00 0.00 0.01 0.00 0.00 0.00 0.00 0.05 0.02 0.01 0.03 0.02 0.00 0.02 0.01 0.00 0.00 0.00 0.01 0.01 0.01 0.00 0.00 0.06 0.08 0.20 0.16 0.16 0.08 0.10 0.14 0.25 0.19 0.13 0.12 0.05 0.08 0.06 0.13 0.17
0.01 0.01 0.05 0.02 0.00 0.00 0.00 0.02 0.02 0.00 0.00 0.02 0.01 0.02 0.04 0.03 0.02 0.05 0.03 0.00 0.00 0.00 0.02 0.02 0.01 0.01 0.01 0.02 0.11 0.19 0.14 0.21 0.23 0.27 0.21 0.21 0.29 0.17 0.15 0.15 0.23 0.24 0.30 0.30
0.02 0.04 0.03 0.00 0.00 0.00 0.00 0.07 0.13 0.13 0.04 0.02 0.03 0.03 0.05 0.01 0.06 0.16 0.09 0.00 0.00 0.00 0.00 0.01 0.00 0.00 0.02 0.02 0.15 0.18 0.16 0.20 0.22 0.29 0.16 0.18 0.29 0.35 0.39 0.36 0.43 0.56 0.74 0.73
0.12 0.09 0.02 0.01 0.00 0.02 0.02 0.08 0.11 0.22 0.07 0.03 0.03 0.02 0.01 0.00 0.00 0.00 0.00 0.00 0.00 0.00 0.00 0.00 0.00 0.02 0.08 0.07 0.12 0.26 0.23 0.30 0.23 0.15 0.20 0.25 0.30 0.37 0.49 0.41 0.46 0.61 0.41 0.29
0.07 0.05 0.02 0.02 0.01 0.06 0.10 0.08 0.02 0.12 0.11 0.07 0.01 0.01 0.00 0.00 0.00 0.00 0.00 0.00 0.00 0.00 0.00 0.01 0.00 0.01 0.07 0.10 0.12 0.16 0.12 0.24 0.23 0.26 0.33 0.25 0.18 0.18 0.25 0.30 0.26 0.22 0.20 0.20
0.07 0.21 0.05 0.01 0.07 0.09 0.05 0.07 0.15 0.28 0.19 0.12 0.01 0.01 0.02 0.01 0.01 0.00 0.00 0.00 0.00 0.00 0.00 0.00 0.00 0.01 0.03 0.04 0.08 0.17 0.08 0.04 0.12 0.21 0.22 0.14 0.18 0.23 0.14 0.15 0.18 0.27 0.33 0.29
0.00 0.07 0.05 0.07 0.13 0.08 0.09 0.12 0.16 0.15 0.04 0.04 0.06 0.07 0.03 0.01 0.00 0.00 0.00 0.00 0.00 0.00 0.00 0.00 0.00 0.01 0.01 0.02 0.06 0.11 0.20 0.30 0.26 0.18 0.09 0.11 0.26 0.51 0.42 0.32 0.28 0.31 0.43 0.47
0.01 0.04 0.01 0.01 0.01 0.02 0.09 0.11 0.13 0.14 0.06 0.01 0.05 0.11 0.02 0.02 0.00 0.00 0.00 0.00 0.00 0.00 0.00 0.00 0.00 0.00 0.00 0.02 0.08 0.17 0.29 0.38 0.48 0.31 0.28 0.49 0.69 0.89 0.80 0.63 0.75 0.53 0.29 0.16
0.03 0.03 0.02 0.04 0.04 0.03 0.09 0.04 0.09 0.14 0.12 0.09 0.09 0.07 0.10 0.02 0.01 0.00 0.00 0.00 0.00 0.00 0.00 0.00 0.00 0.00 0.00 0.01 0.07 0.16 0.16 0.24 0.45 0.53 0.59 0.55 0.47 0.68 0.82 0.67 0.48 0.35 0.25 0.21
0.02 0.03 0.02 0.02 0.18 0.47 0.37 0.21 0.16 0.22 0.30 0.07 0.02 0.05 0.27 0.19 0.06 0.00 0.00 0.00 0.00 0.00 0.00 0.02 0.03 0.02 0.01 0.09 0.10 0.13 0.22 0.26 0.31 0.30 0.23 0.20 0.31 0.28 0.32 0.32 0.31 0.19 0.22 0.16
0.02 0.09 0.09 0.04 0.03 0.08 0.17 0.18 0.20 0.30 0.19 0.08 0.02 0.10 0.25 0.39 0.11 0.01 0.00 0.00 0.00 0.00 0.00 0.02 0.04 0.06 0.07 0.10 0.07 0.09 0.09 0.16 0.22 0.19 0.11 0.17 0.18 0.18 0.22 0.25 0.20 0.20 0.19 0.16
0.02 0.07 0.15 0.04 0.01 0.07 0.14 0.15 0.11 0.15 0.10 0.07 0.05 0.16 0.21 0.34 0.21 0.01 0.00 0.00 0.00 0.00 0.00 0.00 0.00 0.03 0.03 0.09 0.16 0.19 0.16 0.18 0.16 0.11 0.11 0.15 0.15 0.19 0.25 0.19 0.16 0.13 0.17 0.22
0.10 0.11 0.16 0.25 0.08 0.08 0.10 0.05 0.14 0.13 0.11 0.07 0.12 0.12 0.22 0.24 0.29 0.09 0.00 0.00 0.00 0.00 0.00 0.00 0.00 0.00 0.02 0.03 0.03 0.06 0.15 0.14 0.13 0.15 0.13 0.13 0.13 0.16 0.16 0.20 0.16 0.17 0.26 0.33
0.11 0.07 0.18 0.23 0.14 0.22 0.08 0.04 0.19 0.28 0.24 0.08 0.14 0.19 0.30 0.21 0.12 0.04 0.01 0.00 0.00 0.00 0.00 0.00 0.00 0.01 0.02 0.03 0.00 0.01 0.04 0.06 0.07 0.09 0.13 0.11 0.12 0.14 0.17 0.20 0.15 0.24 0.34 0.40
0.17 0.16 0.25 0.19 0.19 0.16 0.08 0.20 0.12 0.40 0.40 0.22 0.24 0.40 0.29 0.14 0.02 0.01 0.00 0.00 0.00 0.00 0.00 0.00 0.00 0.00 0.00 0.00 0.00 0.01 0.01 0.02 0.03 0.05 0.11 0.17 0.17 0.17 0.27 0.36 0.40 0.37 0.29 0.20
0.05 0.18 0.33 0.24 0.26 0.17 0.06 0.08 0.10 0.24 0.51 0.30 0.48 0.37 0.24 0.12 0.05 0.02 0.00 0.00 0.00 0.00 0.00 0.00 0.00 0.00 0.00 0.00 0.00 0.00 0.00 0.00 0.01 0.02 0.06 0.11 0.20 0.33 0.45 0.40 0.27 0.18 0.15 0.13
0.07 0.18 0.27 0.34 0.32 0.08 0.03 0.04 0.07 0.45 0.45 0.28 0.21 0.13 0.14 0.10 0.04 0.01 0.00 0.00 0.00 0.00 0.00 0.00 0.00 0.00 0.00 0.00 0.00 0.00 0.00 0.01 0.04 0.09 0.16 0.25 0.32 0.30 0.19 0.16 0.10 0.13 0.21 0.19
0.21 0.22 0.24 0.30 0.32 0.13 0.10 0.19 0.31 0.27 0.22 0.14 0.10 0.06 0.04 0.02 0.01 0.01 0.00 0.00 0.00 0.00 0.00 0.00 0.00 0.00 0.00 0.00 0.01 0.03 0.04 0.05 0.09 0.14 0.16 0.15 0.06 0.05 0.10 0.13 0.14 0.13 0.14 0.16
0.18 0.15 0.20 0.17 0.21 0.20 0.12 0.19 0.26 0.15 0.16 0.04 0.03 0.03 0.01 0.01 0.00 0.00 0.00 0.00 0.00 0.00 0.00 0.00 0.00 0.00 0.01 0.04 0.06 0.04 0.02 0.03 0.04 0.03 0.04 0.04 0.05 0.07 0.09 0.11 0.14 0.12 0.11 0.14
0.17 0.04 0.16 0.19 0.39 0.14 0.08 0.05 0.03 0.03 0.04 0.02 0.02 0.02 0.01 0.01 0.00 0.00 0.00 0.00 0.00 0.00 0.00 0.00 0.04 0.08 0.09 0.04 0.01 0.01 0.03 0.05 0.07 0.09 0.08 0.08 0.09 0.13 0.08 0.07 0.09 0.11 0.13 0.18
0.63 0.14 0.24 0.43 1.17 0.44 0.27 0.15 0.04 0.01 0.00 0.01 0.01 0.00 0.01 0.00 0.00 0.01 0.01 0.00 0.00 0.01 0.04 0.08 0.07 0.04 0.04 0.04 0.03 0.04 0.04 0.06 0.07 0.07 0.07 0.08 0.08 0.09 0.09 0.10 0.16 0.14 0.19 0.27
0.52 0.40 0.49 0.56 0.81 0.66 0.37 0.10 0.04 0.01 0.00 0.00 0.00 0.00 0.00 0.01 0.01 0.00 0.00 0.01 0.04 0.12 0.13 0.05 0.02 0.02 0.03 0.02 0.02 0.02 0.04 0.06 0.08 0.10 0.10 0.14 0.14 0.13 0.13 0.15 0.21 0.31 0.34 0.37

GFSCGP_prec_precacc_081.txt.gz
Total_Precipitation_Accumulation
0.00 0.00 0.00 0.00 0.00 0.00 0.00 0.00 0.00 0.00 0.00 0.00 0.00 0.00 0.02 0.14 0.04 0.02 0.03 0.01 0.01 0.00 0.01 0.04 0.07 0.08 0.06 0.12 0.37 0.48 0.71 0.87 0.58 0.35 0.29 0.32 0.37 0.43 0.67 0.54 0.23 0.27 0.17 0.09
0.02 0.01 0.00 0.00 0.00 0.00 0.00 0.00 0.00 0.00 0.00 0.00 0.00 0.00 0.00 0.02 0.00 0.00 0.00 0.00 0.00 0.00 0.00 0.01 0.03 0.05 0.08 0.16 0.38 0.47 0.32 0.27 0.28 0.27 0.14 0.09 0.11 0.20 0.42 0.37 0.14 0.21 0.18 0.10
0.02 0.02 0.00 0.00 0.00 0.00 0.00 0.00 0.00 0.00 0.00 0.00 0.00 0.00 0.00 0.00 0.02 0.07 0.01 0.00 0.00 0.00 0.02 0.02 0.04 0.04 0.06 0.08 0.12 0.24 0.13 0.07 0.06 0.09 0.10 0.06 0.07 0.17 0.67 0.58 0.25 0.15 0.14 0.11
0.09 0.00 0.01 0.01 0.00 0.00 0.00 0.00 0.00 0.00 0.00 0.00 0.00 0.01 0.02 0.01 0.02 0.06 0.01 0.01 0.00 0.00 0.00 0.00 0.00 0.00 0.03 0.03 0.05 0.23 0.13 0.06 0.04 0.05 0.05 0.06 0.09 0.12 0.28 0.38 0.25 0.14 0.10 0.11
0.10 0.01 0.01 0.00 0.00 0.00 0.01 0.00 0.00 0.00 0.00 0.05 0.02 0.01 0.03 0.02 0.00 0.02 0.01 0.00 0.00 0.00 0.01 0.01 0.01 0.00 0.00 0.06 0.08 0.20 0.16 0.16 0.08 0.10 0.14 0.25 0.19 0.13 0.18 0.28 0.36 0.31 0.24 0.25
0.01 0.01 0.05 0.02 0.00 0.00 0.00 0.02 0.02 0.00 0.01 0.03 0.01 0.02 0.04 0.03 0.02 0.05 0.03 0.00 0.00 0.00 0.02 0.02 0.01 0.01 0.01 0.02 0.11 0.19 0.14 0.21 0.23 0.27 0.21 0.21 0.29 0.17 0.15 0.22 0.39 0.46 0.46 0.44
0.02 0.04 0.03 0.00 0.00 0.00 0.00 0.07 0.14 0.14 0.05 0.03 0.03 0.03 0.05 0.01 0.06 0.16 0.09 0.00 0.00 0.00 0.00 0.01 0.00 0.00 0.02 0.02 0.15 0.18 0.16 0.20 0.22 0.29 0.16 0.18 0.29 0.35 0.39 0.37 0.44 0.60 0.79 0.78
0.12 0.09 0.02 0.01 0.00 0.02 0.02 0.08 0.13 0.24 0.08 0.03 0.03 0.02 0.01 0.00 0.00 0.00 0.00 0.00 0.00 0.00 0.00 0.00 0.00 0.02 0.08 0.07 0.12 0.26 0.23 0.30 0.23 0.15 0.20 0.25 0.30 0.37 0.49 0.41 0.46 0.61 0.41 0.29
0.07 0.05 0.02 0.02 0.01 0.06 0.11 0.10 0.03 0.20 0.12 0.08 0.01 0.01 0.00 0.00 0.00 0.00 0.00 0.00 0.00 0.00 0.00 0.01 0.00 0.01 0.07 0.10 0.12 0.16 0.12 0.24 0.23 0.26 0.33 0.25 0.18 0.18 0.25 0.30 0.26 0.22 0.20 0.20
0.07 0.21 0.05 0.01 0.07 0.09 0.07 0.12 0.21 0.32 0.23 0.14 0.01 0.01 0.03 0.01 0.01 0.00 0.00 0.00 0.00 0.00 0.00 0.00 0.00 0.01 0.03 0.04 0.08 0.17 0.08 0.04 0.12 0.21 0.22 0.14 0.18 0.23 0.14 0.15 0.18 0.27 0.33 0.29
0.00 0.07 0.05 0.07 0.13 0.08 0.10 0.18 0.27 0.19 0.05 0.07 0.09 0.10 0.04 0.01 0.00 0.00 0.00 0.00 0.00 0.00 0.00 0.00 0.00 0.01 0.01 0.02 0.06 0.11 0.20 0.30 0.26 0.18 0.09 0.11 0.26 0.51 0.42 0.32 0.28 0.31 0.43 0.47
0.01 0.04 0.01 0.01 0.01 0.02 0.10 0.13 0.20 0.25 0.09 0.02 0.06 0.12 0.02 0.02 0.00 0.00 0.00 0.00 0.00 0.00 0.00 0.00 0.00 0.00 0.00 0.02 0.08 0.17 0.29 0.38 0.48 0.31 0.28 0.49 0.69 0.89 0.80 0.63 0.75 0.53 0.29 0.16
0.03 0.03 0.02 0.04 0.04 0.05 0.11 0.05 0.14 0.25 0.19 0.10 0.09 0.07 0.16 0.03 0.01 0.00 0.00 0.00 0.00 0.00 0.00 0.00 0.00 0.00 0.00 0.03 0.08 0.16 0.17 0.24 0.45 0.53 0.59 0.55 0.47 0.68 0.82 0.67 0.48 0.35 0.25 0.21
0.02 0.03 0.02 0.02 0.19 0.48 0.40 0.26 0.27 0.39 0.45 0.10 0.03 0.05 0.43 0.31 0.08 0.00 0.00 0.00 0.00 0.00 0.00 0.02 0.04 0.03 0.06 0.13 0.12 0.14 0.23 0.27 0.31 0.30 0.23 0.20 0.31 0.28 0.32 0.32 0.31 0.19 0.22 0.16
0.02 0.09 0.09 0.04 0.03 0.08 0.17 0.18 0.20 0.32 0.23 0.15 0.04 0.10 0.36 0.71 0.30 0.04 0.01 0.00 0.01 0.01 0.01 0.03 0.08 0.14 0.13 0.12 0.09 0.10 0.10 0.17 0.22 0.19 0.12 0.18 0.18 0.18 0.22 0.25 0.20 0.20 0.19 0.16
0.02 0.07 0.15 0.04 0.01 0.07 0.14 0.15 0.11 0.15 0.10 0.09 0.06 0.17 0.30 0.52 0.53 0.21 0.03 0.01 0.02 0.02 0.02 0.02 0.05 0.10 0.08 0.14 0.21 0.24 0.18 0.20 0.18 0.14 0.15 0.17 0.16 0.20 0.25 0.19 0.16 0.13 0.17 0.22
0.10 0.12 0.17 0.25 0.08 0.08 0.10 0.05 0.14 0.13 0.11 0.07 0.12 0.12 0.29 0.51 0.51 0.36 0.09 0.04 0.01 0.01 0.00 0.00 0.00 0.01 0.03 0.04 0.05 0.08 0.15 0.14 0.14 0.15 0.15 0.15 0.15 0.18 0.17 0.22 0.17 0.19 0.28 0.34
0.11 0.07 0.18 0.23 0.14 0.22 0.08 0.05 0.22 0.34 0.27 0.09 0.15 0.20 0.39 0.45 0.24 0.29 0.09 0.04 0.04 0.00 0.00 0.00 0.00 0.01 0.02 0.03 0.00 0.01 0.04 0.06 0.07 0.09 0.13 0.11 0.12 0.14 0.18 0.22 0.20 0.27 0.36 0.42
0.17 0.16 0.25 0.19 0.19 0.16 0.08 0.26 0.33 0.60 0.55 0.28 0.26 0.41 0.38 0.24 0.07 0.24 0.19 0.08 0.03 0.01 0.00 0.00 0.00 0.00 0.00 0.00 0.00 0.01 0.01 0.02 0.03 0.05 0.11 0.17 0.17 0.17 0.28 0.36 0.41 0.39 0.31 0.23
0.05 0.18 0.33 0.24 0.26 0.17 0.06 0.11 0.26 0.45 0.86 0.74 0.60 0.47 0.39 0.24 0.13 0.18 0.17 0.16 0.09 0.02 0.00 0.00 0.00 0.00 0.00 0.00 0.00 0.00 0.00 0.00 0.01 0.02 0.06 0.11 0.20 0.33 0.45 0.40 0.27 0.19 0.16 0.14
0.07 0.18 0.28 0.34 0.32 0.08 0.03 0.04 0.17 0.71 0.67 0.59 0.57 0.31 0.31 0.31 0.24 0.15 0.12 0.08 0.02 0.00 0.00 0.00 0.00 0.00 0.00 0.00 0.00 0.00 0.00 0.01 0.04 0.09 0.16 0.25 0.32 0.30 0.19 0.16 0.10 0.13 0.21 0.20
0.21 0.23 0.25 0.31 0.33 0.13 0.12 0.25 0.52 0.55 0.47 0.33 0.30 0.23 0.24 0.27 0.15 0.08 0.03 0.01 0.00 0.00 0.00 0.00 0.00 0.00 0.00 0.00 0.01 0.03 0.04 0.05 0.09 0.14 0.16 0.15 0.06 0.05 0.10 0.13 0.14 0.13 0.14 0.16
0.23 0.16 0.20 0.18 0.23 0.21 0.13 0.24 0.42 0.38 0.31 0.12 0.15 0.20 0.16 0.08 0.04 0.01 0.00 0.00 0.00 0.00 0.00 0.00 0.00 0.00 0.01 0.04 0.06 0.04 0.02 0.03 0.04 0.03 0.04 0.04 0.05 0.07 0.09 0.11 0.14 0.12 0.11 0.14
0.54 0.13 0.18 0.22 0.49 0.17 0.09 0.14 0.10 0.10 0.08 0.03 0.03 0.02 0.02 0.01 0.01 0.00 0.00 0.00 0.00 0.00 0.00 0.00 0.04 0.08 0.09 0.04 0.01 0.01 0.03 0.05 0.07 0.09 0.08 0.08 0.09 0.13 0.08 0.07 0.09 0.11 0.13 0.18
0.82 0.29 0.31 0.53 1.26 0.58 0.43 0.37 0.21 0.05 0.03 0.01 0.01 0.00 0.01 0.00 0.00 0.01 0.01 0.00 0.00 0.01 0.04 0.08 0.07 0.04 0.04 0.04 0.03 0.04 0.04 0.06 0.07 0.07 0.07 0.08 0.08 0.09 0.09 0.11 0.16 0.15 0.20 0.27
0.62 0.61 0.62 0.78 1.00 0.83 0.57 0.29 0.18 0.05 0.01 0.00 0.00 0.00 0.00 0.01 0.01 0.00 0.00 0.01 0.04 0.12 0.13 0.05 0.02 0.02 0.03 0.02 0.02 0.02 0.04 0.06 0.08 0.10 0.10 0.14 0.14 0.13 0.13 0.15 0.21 0.32 0.35 0.37

GFSCGP_prec_precacc_084.txt.gz
Total_Precipitation_Accumulation
0.00 0.00 0.00 0.00 0.00 0.00 0.00 0.00 0.00 0.00 0.00 0.00 0.00 0.00 0.02 0.14 0.04 0.02 0.03 0.01 0.01 0.00 0.01 0.04 0.07 0.08 0.06 0.12 0.37 0.48 0.71 0.87 0.58 0.35 0.29 0.33 0.39 0.46 0.74 0.73 0.40 0.46 0.54 0.27
0.02 0.01 0.00 0.00 0.00 0.00 0.00 0.00 0.00 0.00 0.00 0.00 0.00 0.00 0.00 0.02 0.00 0.00 0.00 0.00 0.00 0.00 0.00 0.01 0.03 0.05 0.08 0.16 0.38 0.47 0.32 0.27 0.28 0.27 0.14 0.09 0.12 0.23 0.54 0.78 0.44 0.45 0.50 0.22
0.02 0.02 0.00 0.00 0.00 0.00 0.00 0.00 0.00 0.00 0.00 0.00 0.00 0.00 0.00 0.00 0.02 0.07 0.01 0.00 0.00 0.00 0.02 0.02 0.04 0.04 0.06 0.08 0.12 0.24 0.13 0.07 0.06 0.09 0.10 0.07 0.07 0.22 0.87 1.12 0.65 0.36 0.38 0.20
0.09 0.00 0.01 0.01 0.00 0.00 0.00 0.00 0.00 0.00 0.00 0.00 0.00 0.01 0.02 0.01 0.02 0.06 0.01 0.01 0.00 0.00 0.00 0.00 0.00 0.00 0.03 0.03 0.05 0.23 0.13 0.06 0.04 0.05 0.05 0.06 0.10 0.13 0.44 0.80 0.61 0.28 0.27 0.19
0.10 0.01 0.01 0.00 0.00 0.00 0.01 0.00 0.00 0.00 0.00 0.05 0.02 0.01 0.03 0.02 0.00 0.02 0.01 0.00 0.00 0.00 0.01 0.01 0.01 0.00 0.00 0.06 0.08 0.20 0.16 0.16 0.08 0.10 0.14 0.25 0.19 0.13 0.20 0.61 0.71 0.52 0.36 0.32
0.01 0.01 0.05 0.02 0.00 0.00 0.00 0.02 0.02 0.00 0.01 0.03 0.01 0.02 0.04 0.03 0.02 0.05 0.03 0.00 0.00 0.00 0.02 0.02 0.01 0.01 0.01 0.02 0.11 0.19 0.14 0.21 0.23 0.27 0.21 0.21 0.29 0.17 0.17 0.35 0.69 0.75 0.65 0.55
0.02 0.04 0.03 0.00 0.00 0.00 0.00 0.07 0.14 0.14 0.06 0.03 0.03 0.03 0.05 0.01 0.06 0.16 0.09 0.00 0.00 0.00 0.00 0.01 0.00 0.00 0.02 0.02 0.15 0.18 0.16 0.20 0.22 0.29 0.16 0.18 0.29 0.35 0.39 0.38 0.63 0.94 1.10 0.97
0.12 0.09 0.02 0.01 0.00 0.02 0.02 0.08 0.13 0.25 0.08 0.03 0.03 0.02 0.01 0.00 0.00 0.00 0.00 0.00 0.00 0.00 0.00 0.00 0.00 0.02 0.08 0.07 0.12 0.26 0.23 0.30 0.23 0.15 0.20 0.25 0.30 0.37 0.49 0.41 0.49 0.75 0.69 0.45
0.07 0.05 0.02 0.02 0.01 0.06 0.11 0.11 0.03 0.22 0.14 0.10 0.01 0.01 0.00 0.00 0.00 0.00 0.00 0.00 0.00 0.00 0.00 0.01 0.00 0.01 0.07 0.10 0.12 0.16 0.12 0.24 0.23 0.26 0.34 0.25 0.19 0.18 0.25 0.30 0.26 0.22 0.26 0.26
0.07 0.21 0.05 0.01 0.07 0.09 0.07 0.14 0.25 0.36 0.24 0.15 0.01 0.01 0.03 0.01 0.01 0.00 0.00 0.00 0.00 0.00 0.00 0.00 0.00 0.01 0.03 0.04 0.08 0.17 0.08 0.04 0.12 0.21 0.22 0.15 0.18 0.23 0.14 0.15 0.18 0.27 0.33 0.29
0.00 0.07 0.05 0.07 0.13 0.08 0.11 0.19 0.29 0.26 0.09 0.08 0.10 0.11 0.04 0.01 0.00 0.00 0.00 0.00 0.00 0.00 0.00 0.00 0.00 0.01 0.01 0.02 0.06 0.11 0.20 0.30 0.26 0.18 0.09 0.11 0.26 0.51 0.42 0.32 0.28 0.31 0.43 0.47
0.01 0.04 0.01 0.01 0.01 0.02 0.10 0.13 0.21 0.31 0.14 0.04 0.07 0.12 0.03 0.02 0.00 0.00 0.00 0.00 0.00 0.00 0.00 0.00 0.00 0.00 0.00 0.03 0.09 0.17 0.29 0.38 0.48 0.31 0.29 0.49 0.69 0.89 0.80 0.63 0.75 0.53 0.29 0.16
0.03 0.03 0.02 0.04 0.04 0.06 0.14 0.07 0.17 0.31 0.30 0.20 0.12 0.07 0.16 0.03 0.01 0.00 0.00 0.00 0.00 0.00 0.00 0.00 0.00 0.00 0.00 0.04 0.11 0.16 0.17 0.24 0.45 0.53 0.59 0.55 0.47 0.68 0.82 0.67 0.48 0.35 0.25 0.21
0.02 0.03 0.02 0.02 0.19 0.48 0.40 0.26 0.27 0.40 0.48 0.12 0.05 0.05 0.43 0.32 0.08 0.00 0.00 0.00 0.00 0.00 0.00 0.02 0.04 0.03 0.07 0.18 0.17 0.14 0.23 0.27 0.31 0.30 0.23 0.20 0.31 0.28 0.32 0.32 0.31 0.19 0.22 0.16
0.02 0.09 0.09 0.04 0.03 0.08 0.17 0.18 0.20 0.32 0.23 0.15 0.04 0.11 0.37 0.72 0.32 0.06 0.02 0.01 0.02 0.01 0.02 0.04 0.08 0.14 0.16 0.16 0.11 0.12 0.10 0.17 0.23 0.19 0.12 0.18 0.18 0.18 0.22 0.25 0.20 0.20 0.19 0.16
0.02 0.07 0.15 0.04 0.01 0.07 0.14 0.15 0.11 0.15 0.10 0.09 0.06 0.17 0.30 0.56 0.55 0.29 0.15 0.03 0.05 0.04 0.04 0.04 0.07 0.14 0.18 0.23 0.27 0.31 0.25 0.23 0.19 0.15 0.16 0.18 0.17 0.20 0.25 0.19 0.16 0.13 0.17 0.22
0.10 0.12 0.17 0.25 0.08 0.08 0.10 0.05 0.14 0.14 0.11 0.07 0.12 0.12 0.30 0.57 0.63 0.47 0.33 0.12 0.04 0.03 0.02 0.03 0.05 0.06 0.08 0.07 0.06 0.10 0.17 0.17 0.16 0.17 0.15 0.15 0.15 0.18 0.17 0.22 0.17 0.20 0.28 0.34
0.11 0.07 0.18 0.23 0.14 0.22 0.08 0.05 0.22 0.36 0.28 0.11 0.16 0.20 0.39 0.46 0.29 0.41 0.37 0.34 0.10 0.04 0.02 0.01 0.01 0.03 0.03 0.03 0.01 0.01 0.04 0.06 0.07 0.09 0.13 0.11 0.13 0.16 0.20 0.25 0.22 0.29 0.37 0.44
0.17 0.16 0.25 0.19 0.19 0.16 0.08 0.26 0.33 0.66 0.58 0.31 0.28 0.42 0.38 0.25 0.07 0.35 0.38 0.27 0.28 0.05 0.02 0.00 0.00 0.00 0.01 0.00 0.00 0.01 0.01 0.02 0.03 0.05 0.11 0.17 0.17 0.17 0.28 0.36 0.42 0.40 0.32 0.25
0.05 0.18 0.33 0.24 0.26 0.17 0.06 0.11 0.26 0.46 0.88 0.89 0.70 0.48 0.39 0.24 0.16 0.35 0.37 0.27 0.25 0.19 0.05 0.01 0.00 0.01 0.00 0.00 0.00 0.00 0.00 0.00 0.01 0.02 0.06 0.11 0.20 0.33 0.45 0.40 0.27 0.19 0.16 0.15
0.07 0.18 0.28 0.34 0.33 0.09 0.03 0.06 0.19 0.80 0.80 0.89 1.11 0.55 0.39 0.34 0.31 0.36 0.36 0.25 0.13 0.16 0.15 0.06 0.01 0.00 0.00 0.00 0.00 0.00 0.00 0.01 0.04 0.09 0.16 0.25 0.32 0.30 0.19 0.16 0.10 0.13 0.21 0.20
0.21 0.23 0.25 0.31 0.35 0.14 0.12 0.26 0.57 0.70 0.69 0.71 0.79 0.68 0.64 0.63 0.47 0.36 0.18 0.07 0.02 0.02 0.04 0.06 0.04 0.02 0.00 0.00 0.01 0.03 0.04 0.05 0.09 0.14 0.16 0.15 0.06 0.05 0.10 0.13 0.14 0.13 0.14 0.16
0.24 0.17 0.22 0.19 0.24 0.24 0.14 0.24 0.46 0.56 0.49 0.38 0.46 0.47 0.43 0.37 0.29 0.17 0.05 0.01 0.01 0.01 0.01 0.00 0.01 0.01 0.02 0.05 0.06 0.04 0.02 0.03 0.04 0.03 0.04 0.04 0.05 0.07 0.09 0.11 0.14 0.12 0.11 0.14
0.58 0.24 0.32 0.28 0.52 0.18 0.10 0.17 0.18 0.21 0.22 0.12 0.12 0.11 0.11 0.11 0.09 0.06 0.02 0.01 0.00 0.00 0.00 0.01 0.04 0.09 0.09 0.05 0.01 0.01 0.03 0.05 0.07 0.09 0.08 0.08 0.09 0.13 0.08 0.07 0.09 0.11 0.13 0.18
0.90 0.46 0.46 0.62 1.29 0.61 0.55 0.57 0.44 0.18 0.15 0.08 0.07 0.06 0.05 0.03 0.02 0.02 0.01 0.00 0.01 0.01 0.04 0.08 0.07 0.04 0.04 0.04 0.03 0.04 0.04 0.06 0.07 0.07 0.07 0.08 0.08 0.09 0.09 0.11 0.17 0.15 0.22 0.27
0.66 0.81 0.73 0.86 1.10 0.93 0.74 0.47 0.33 0.15 0.07 0.04 0.03 0.01 0.00 0.01 0.01 0.00 0.01 0.01 0.04 0.12 0.13 0.06 0.03 0.02 0.03 0.03 0.02 0.02 0.04 0.06 0.08 0.10 0.10 0.14 0.14 0.13 0.13 0.15 0.22 0.33 0.36 0.38

GFSCGP_prec_precacc_087.txt.gz
Total_Precipitation_Accumulation
0.00 0.00 0.00 0.00 0.00 0.00 0.00 0.00 0.00 0.00 0.00 0.00 0.00 0.00 0.02 0.14 0.04 0.02 0.03 0.01 0.01 0.00 0.01 0.04 0.07 0.08 0.06 0.12 0.37 0.48 0.71 0.87 0.58 0.35 0.30 0.34 0.40 0.46 0.75 0.74 0.44 0.50 0.64 0.45
0.02 0.01 0.00 0.00 0.00 0.00 0.00 0.00 0.00 0.00 0.00 0.00 0.00 0.00 0.00 0.02 0.00 0.00 0.00 0.00 0.00 0.00 0.00 0.01 0.03 0.05 0.08 0.16 0.38 0.47 0.32 0.27 0.28 0.27 0.14 0.09 0.13 0.23 0.55 0.83 0.51 0.57 0.64 0.48
0.02 0.02 0.00 0.00 0.00 0.00 0.00 0.00 0.00 0.00 0.00 0.00 0.00 0.00 0.00 0.00 0.02 0.07 0.01 0.00 0.00 0.00 0.02 0.02 0.04 0.04 0.06 0.08 0.12 0.24 0.13 0.07 0.06 0.09 0.10 0.07 0.08 0.23 0.90 1.25 0.90 0.61 0.60 0.44
0.09 0.00 0.01 0.01 0.00 0.00 0.00 0.00 0.00 0.00 0.00 0.00 0.00 0.01 0.02 0.01 0.02 0.06 0.01 0.01 0.00 0.00 0.00 0.00 0.00 0.00 0.03 0.03 0.05 0.23 0.13 0.06 0.04 0.05 0.05 0.06 0.10 0.14 0.49 1.00 0.88 0.52 0.49 0.43
0.10 0.01 0.01 0.00 0.00 0.00 0.01 0.00 0.00 0.00 0.00 0.05 0.02 0.01 0.03 0.02 0.00 0.02 0.01 0.00 0.00 0.00 0.01 0.01 0.01 0.00 0.00 0.06 0.08 0.20 0.16 0.16 0.08 0.11 0.15 0.25 0.19 0.13 0.21 0.84 1.10 0.79 0.56 0.47
0.01 0.01 0.05 0.02 0.00 0.00 0.00 0.02 0.02 0.00 0.01 0.03 0.01 0.02 0.04 0.03 0.02 0.05 0.03 0.00 0.00 0.00 0.02 0.02 0.01 0.01 0.01 0.02 0.11 0.19 0.15 0.21 0.23 0.27 0.22 0.21 0.29 0.17 0.17 0.48 0.97 1.12 0.86 0.71
0.02 0.04 0.03 0.00 0.00 0.00 0.00 0.07 0.14 0.14 0.06 0.03 0.03 0.03 0.05 0.01 0.06 0.16 0.09 0.00 0.00 0.00 0.00 0.01 0.00 0.00 0.02 0.02 0.16 0.18 0.16 0.20 0.23 0.29 0.16 0.18 0.30 0.35 0.39 0.42 0.75 1.17 1.31 1.13
0.12 0.09 0.02 0.01 0.00 0.02 0.02 0.08 0.13 0.25 0.08 0.03 0.03 0.02 0.01 0.00 0.00 0.00 0.00 0.00 0.00 0.00 0.00 0.00 0.00 0.02 0.08 0.07 0.12 0.26 0.23 0.30 0.23 0.15 0.20 0.25 0.30 0.37 0.49 0.42 0.59 1.01 0.89 0.66
0.07 0.05 0.02 0.02 0.01 0.06 0.11 0.11 0.03 0.22 0.14 0.10 0.01 0.01 0.00 0.00 0.00 0.00 0.00 0.00 0.00 0.00 0.00 0.01 0.00 0.01 0.07 0.10 0.13 0.16 0.12 0.24 0.24 0.26 0.34 0.25 0.19 0.18 0.25 0.30 0.27 0.37 0.49 0.57
0.07 0.21 0.05 0.02 0.07 0.09 0.07 0.15 0.27 0.37 0.24 0.15 0.01 0.01 0.03 0.01 0.01 0.00 0.00 0.00 0.00 0.00 0.00 0.00 0.00 0.01 0.03 0.04 0.09 0.17 0.09 0.04 0.13 0.22 0.22 0.15 0.18 0.23 0.14 0.15 0.18 0.28 0.41 0.44
0.00 0.07 0.05 0.08 0.13 0.08 0.11 0.19 0.29 0.27 0.10 0.09 0.10 0.11 0.07 0.01 0.00 0.00 0.00 0.00 0.00 0.00 0.00 0.00 0.00 0.01 0.01 0.02 0.06 0.12 0.21 0.31 0.27 0.19 0.09 0.11 0.26 0.52 0.42 0.32 0.28 0.31 0.45 0.50
0.01 0.04 0.01 0.01 0.01 0.02 0.11 0.14 0.22 0.31 0.17 0.08 0.09 0.13 0.05 0.02 0.00 0.00 0.00 0.00 0.00 0.00 0.00 0.00 0.00 0.00 0.01 0.03 0.10 0.20 0.29 0.38 0.48 0.31 0.29 0.49 0.69 0.89 0.80 0.63 0.75 0.53 0.29 0.17
0.03 0.03 0.02 0.04 0.04 0.06 0.14 0.10 0.19 0.35 0.32 0.23 0.17 0.08 0.16 0.03 0.01 0.00 0.00 0.00 0.00 0.00 0.00 0.00 0.00 0.00 0.02 0.05 0.12 0.17 0.17 0.24 0.45 0.53 0.59 0.55 0.47 0.68 0.82 0.67 0.48 0.35 0.25 0.21
0.02 0.03 0.02 0.02 0.19 0.48 0.40 0.26 0.27 0.40 0.49 0.12 0.05 0.05 0.43 0.32 0.08 0.00 0.00 0.00 0.01 0.01 0.02 0.04 0.05 0.04 0.08 0.20 0.20 0.17 0.23 0.27 0.31 0.30 0.23 0.20 0.31 0.28 0.32 0.32 0.31 0.19 0.22 0.16
0.02 0.09 0.09 0.04 0.03 0.08 0.17 0.18 0.20 0.32 0.23 0.15 0.04 0.11 0.37 0.72 0.32 0.06 0.02 0.01 0.05 0.04 0.05 0.09 0.13 0.18 0.18 0.19 0.13 0.12 0.10 0.17 0.23 0.19 0.12 0.18 0.18 0.18 0.22 0.25 0.20 0.20 0.19 0.16
0.02 0.07 0.15 0.04 0.01 0.07 0.14 0.15 0.11 0.15 0.10 0.09 0.06 0.17 0.30 0.56 0.56 0.29 0.15 0.04 0.09 0.09 0.06 0.08 0.12 0.18 0.22 0.30 0.33 0.36 0.27 0.24 0.20 0.15 0.16 0.18 0.17 0.20 0.25 0.19 0.16 0.13 0.17 0.22
0.10 0.12 0.17 0.25 0.08 0.08 0.10 0.05 0.14 0.14 0.11 0.07 0.12 0.12 0.30 0.57 0.65 0.50 0.33 0.14 0.11 0.11 0.06 0.06 0.10 0.10 0.14 0.14 0.09 0.13 0.20 0.18 0.17 0.18 0.16 0.15 0.16 0.18 0.18 0.22 0.18 0.20 0.28 0.34
0.11 0.07 0.18 0.23 0.14 0.22 0.08 0.05 0.22 0.36 0.28 0.11 0.16 0.20 0.39 0.46 0.30 0.43 0.43 0.43 0.25 0.16 0.09 0.05 0.04 0.06 0.06 0.07 0.02 0.03 0.06 0.08 0.08 0.10 0.14 0.13 0.14 0.17 0.21 0.26 0.23 0.31 0.39 0.46
0.17 0.16 0.25 0.19 0.19 0.16 0.08 0.26 0.33 0.66 0.58 0.31 0.28 0.42 0.39 0.26 0.07 0.37 0.45 0.40 0.57 0.26 0.14 0.09 0.07 0.02 0.03 0.04 0.06 0.06 0.04 0.04 0.04 0.06 0.12 0.17 0.17 0.18 0.28 0.37 0.42 0.40 0.33 0.26
0.05 0.18 0.33 0.24 0.26 0.17 0.06 0.11 0.26 0.47 0.89 0.90 0.71 0.49 0.40 0.25 0.19 0.43 0.43 0.29 0.39 0.57 0.22 0.10 0.06 0.03 0.02 0.04 0.07 0.08 0.04 0.01 0.01 0.02 0.06 0.11 0.20 0.33 0.45 0.40 0.27 0.19 0.16 0.16
0.07 0.18 0.28 0.34 0.33 0.09 0.03 0.06 0.19 0.83 0.87 0.96 1.25 0.77 0.62 0.47 0.40 0.50 0.52 0.34 0.25 0.45 0.54 0.20 0.06 0.02 0.02 0.03 0.05 0.07 0.02 0.02 0.05 0.09 0.16 0.25 0.32 0.30 0.19 0.16 0.10 0.13 0.21 0.20
0.21 0.23 0.25 0.31 0.35 0.14 0.12 0.26 0.58 0.76 0.84 0.88 1.07 1.13 1.18 1.00 0.82 0.67 0.43 0.23 0.13 0.12 0.25 0.37 0.21 0.06 0.01 0.02 0.03 0.04 0.05 0.05 0.09 0.14 0.16 0.15 0.06 0.05 0.10 0.13 0.14 0.13 0.14 0.16
0.28 0.22 0.25 0.21 0.25 0.27 0.16 0.26 0.51 0.60 0.61 0.57 0.69 0.73 0.78 0.72 0.58 0.42 0.19 0.09 0.07 0.08 0.07 0.07 0.12 0.16 0.13 0.09 0.07 0.05 0.02 0.04 0.04 0.03 0.04 0.05 0.05 0.07 0.09 0.11 0.14 0.12 0.11 0.14
0.59 0.26 0.38 0.43 0.61 0.22 0.13 0.20 0.26 0.32 0.39 0.31 0.32 0.31 0.28 0.27 0.27 0.23 0.12 0.04 0.02 0.01 0.01 0.02 0.07 0.12 0.14 0.10 0.07 0.05 0.04 0.06 0.07 0.09 0.08 0.08 0.09 0.13 0.08 0.07 0.09 0.11 0.13 0.18
0.91 0.48 0.51 0.73 1.36 0.65 0.58 0.63 0.55 0.34 0.31 0.23 0.22 0.17 0.13 0.09 0.08 0.10 0.08 0.05 0.03 0.03 0.06 0.10 0.08 0.05 0.05 0.04 0.03 0.05 0.05 0.06 0.07 0.07 0.07 0.08 0.08 0.09 0.09 0.12 0.17 0.16 0.23 0.28
0.67 0.86 0.78 0.91 1.18 1.00 0.82 0.57 0.43 0.25 0.17 0.11 0.06 0.03 0.01 0.02 0.02 0.02 0.02 0.02 0.04 0.12 0.14 0.06 0.03 0.03 0.04 0.03 0.03 0.03 0.04 0.06 0.08 0.10 0.10 0.14 0.14 0.13 0.13 0.15 0.23 0.34 0.37 0.38

GFSCGP_prec_precacc_090.txt.gz
Total_Precipitation_Accumulation
0.00 0.00 0.00 0.00 0.00 0.00 0.00 0.00 0.00 0.00 0.00 0.00 0.00 0.00 0.02 0.14 0.04 0.02 0.03 0.01 0.01 0.00 0.01 0.04 0.07 0.08 0.06 0.12 0.37 0.48 0.71 0.87 0.58 0.36 0.31 0.35 0.40 0.47 0.76 0.75 0.44 0.52 0.67 0.48
0.02 0.01 0.00 0.00 0.00 0.00 0.00 0.00 0.00 0.00 0.00 0.00 0.00 0.00 0.00 0.02 0.00 0.00 0.00 0.00 0.00 0.00 0.00 0.01 0.03 0.05 0.08 0.16 0.38 0.47 0.32 0.27 0.28 0.27 0.15 0.10 0.13 0.23 0.55 0.83 0.52 0.58 0.67 0.57
0.03 0.02 0.00 0.00 0.00 0.00 0.00 0.00 0.00 0.00 0.00 0.00 0.00 0.00 0.00 0.00 0.02 0.07 0.01 0.00 0.00 0.00 0.02 0.02 0.04 0.04 0.06 0.08 0.12 0.24 0.13 0.07 0.06 0.09 0.10 0.07 0.09 0.23 0.91 1.26 0.93 0.66 0.65 0.54
0.09 0.00 0.01 0.01 0.00 0.00 0.00 0.00 0.00 0.00 0.00 0.00 0.00 0.01 0.02 0.01 0.02 0.06 0.01 0.01 0.00 0.00 0.00 0.00 0.00 0.00 0.03 0.03 0.05 0.23 0.13 0.06 0.04 0.05 0.05 0.06 0.11 0.15 0.49 1.01 0.92 0.67 0.80 0.67
0.10 0.01 0.01 0.00 0.00 0.00 0.01 0.00 0.00 0.00 0.00 0.05 0.02 0.01 0.03 0.02 0.00 0.02 0.01 0.00 0.00 0.00 0.01 0.01 0.01 0.00 0.00 0.06 0.08 0.20 0.16 0.16 0.08 0.11 0.15 0.25 0.19 0.14 0.22 0.86 1.17 0.92 0.87 0.80
0.01 0.01 0.05 0.02 0.00 0.00 0.00 0.02 0.02 0.00 0.01 0.03 0.01 0.02 0.04 0.03 0.02 0.05 0.03 0.00 0.00 0.00 0.02 0.02 0.01 0.01 0.01 0.02 0.11 0.19 0.15 0.21 0.23 0.27 0.22 0.21 0.29 0.17 0.18 0.50 1.02 1.29 1.09 0.95
0.02 0.04 0.03 0.00 0.00 0.00 0.00 0.07 0.14 0.14 0.06 0.03 0.03 0.03 0.05 0.01 0.06 0.16 0.09 0.00 0.00 0.00 0.00 0.01 0.00 0.00 0.02 0.02 0.16 0.18 0.16 0.20 0.23 0.29 0.16 0.18 0.30 0.36 0.40 0.42 0.77 1.25 1.51 1.27
0.12 0.09 0.02 0.01 0.00 0.02 0.02 0.08 0.13 0.25 0.08 0.03 0.03 0.02 0.01 0.00 0.00 0.00 0.00 0.00 0.00 0.00 0.00 0.00 0.00 0.02 0.08 0.07 0.12 0.27 0.23 0.30 0.23 0.15 0.20 0.25 0.31 0.38 0.50 0.43 0.64 1.16 1.03 0.80
0.07 0.05 0.02 0.02 0.01 0.06 0.12 0.11 0.03 0.23 0.14 0.11 0.01 0.01 0.00 0.00 0.00 0.00 0.00 0.00 0.00 0.00 0.00 0.01 0.00 0.01 0.07 0.10 0.13 0.16 0.12 0.25 0.24 0.26 0.34 0.25 0.19 0.19 0.25 0.30 0.28 0.52 0.66 0.68
0.09 0.22 0.06 0.02 0.07 0.10 0.07 0.15 0.28 0.38 0.24 0.15 0.01 0.01 0.03 0.01 0.01 0.00 0.00 0.00 0.00 0.00 0.00 0.00 0.00 0.01 0.03 0.04 0.09 0.18 0.09 0.04 0.13 0.22 0.23 0.15 0.18 0.23 0.14 0.16 0.18 0.34 0.58 0.59
0.03 0.11 0.10 0.13 0.16 0.09 0.11 0.19 0.30 0.28 0.11 0.10 0.11 0.11 0.10 0.02 0.00 0.00 0.00 0.00 0.00 0.00 0.00 0.00 0.00 0.01 0.01 0.02 0.07 0.13 0.21 0.31 0.27 0.19 0.09 0.11 0.26 0.52 0.42 0.32 0.28 0.32 0.50 0.67
0.04 0.08 0.06 0.04 0.03 0.02 0.12 0.15 0.22 0.32 0.18 0.08 0.10 0.13 0.05 0.02 0.00 0.00 0.00 0.00 0.00 0.00 0.00 0.00 0.00 0.00 0.01 0.04 0.11 0.20 0.30 0.39 0.48 0.31 0.29 0.49 0.69 0.89 0.80 0.63 0.76 0.53 0.30 0.19
0.07 0.07 0.04 0.07 0.05 0.06 0.15 0.11 0.19 0.35 0.32 0.23 0.18 0.09 0.16 0.03 0.01 0.00 0.00 0.00 0.00 0.00 0.01 0.01 0.01 0.01 0.02 0.06 0.13 0.18 0.19 0.25 0.45 0.53 0.60 0.55 0.47 0.68 0.82 0.67 0.48 0.35 0.25 0.22
0.04 0.05 0.02 0.02 0.19 0.49 0.40 0.26 0.27 0.40 0.49 0.13 0.05 0.05 0.43 0.32 0.08 0.00 0.00 0.00 0.01 0.02 0.02 0.05 0.08 0.06 0.10 0.21 0.22 0.20 0.25 0.27 0.32 0.31 0.24 0.21 0.32 0.29 0.32 0.32 0.31 0.19 0.22 0.16
0.03 0.09 0.09 0.04 0.03 0.08 0.17 0.18 0.20 0.32 0.23 0.15 0.04 0.11 0.37 0.72 0.32 0.07 0.02 0.01 0.05 0.04 0.05 0.10 0.16 0.22 0.22 0.22 0.16 0.15 0.11 0.18 0.23 0.20 0.12 0.18 0.19 0.19 0.22 0.25 0.20 0.20 0.19 0.16
0.02 0.07 0.15 0.04 0.01 0.07 0.14 0.15 0.11 0.15 0.10 0.09 0.06 0.17 0.30 0.56 0.56 0.30 0.15 0.04 0.09 0.09 0.08 0.10 0.15 0.21 0.27 0.35 0.42 0.42 0.28 0.24 0.20 0.15 0.16 0.19 0.18 0.21 0.27 0.21 0.17 0.13 0.18 0.22
0.12 0.12 0.17 0.25 0.08 0.08 0.10 0.05 0.14 0.14 0.11 0.07 0.12 0.12 0.30 0.57 0.65 0.50 0.33 0.14 0.11 0.12 0.12 0.10 0.14 0.15 0.19 0.20 0.14 0.15 0.20 0.19 0.17 0.18 0.16 0.16 0.16 0.19 0.18 0.24 0.19 0.21 0.29 0.35
0.13 0.07 0.18 0.23 0.14 0.22 0.08 0.05 0.22 0.36 0.28 0.11 0.16 0.20 0.40 0.47 0.30 0.44 0.44 0.44 0.26 0.21 0.19 0.11 0.07 0.10 0.11 0.11 0.06 0.04 0.07 0.09 0.09 0.10 0.14 0.14 0.15 0.18 0.22 0.27 0.25 0.32 0.40 0.47
0.17 0.17 0.25 0.19 0.19 0.16 0.09 0.26 0.33 0.66 0.58 0.31 0.28 0.42 0.39 0.28 0.08 0.40 0.48 0.43 0.64 0.46 0.28 0.18 0.14 0.07 0.08 0.10 0.09 0.07 0.06 0.06 0.06 0.07 0.12 0.18 0.18 0.19 0.30 0.38 0.45 0.43 0.36 0.29
0.05 0.18 0.34 0.25 0.26 0.17 0.06 0.11 0.26 0.48 0.91 0.90 0.71 0.49 0.40 0.28 0.22 0.49 0.50 0.39 0.48 0.77 0.58 0.29 0.18 0.15 0.12 0.11 0.12 0.15 0.11 0.07 0.05 0.06 0.08 0.12 0.22 0.34 0.46 0.41 0.29 0.20 0.17 0.17
0.07 0.18 0.28 0.34 0.33 0.09 0.03 0.06 0.19 0.87 0.90 0.99 1.26 0.82 0.71 0.57 0.49 0.60 0.61 0.47 0.38 0.59 0.92 0.54 0.37 0.23 0.19 0.12 0.11 0.17 0.22 0.24 0.18 0.20 0.21 0.27 0.33 0.31 0.20 0.17 0.10 0.13 0.22 0.21
0.22 0.24 0.26 0.32 0.36 0.15 0.13 0.27 0.59 0.83 0.90 0.96 1.11 1.22 1.38 1.29 1.11 0.90 0.65 0.43 0.30 0.27 0.49 0.78 0.49 0.38 0.29 0.21 0.11 0.13 0.21 0.26 0.31 0.25 0.20 0.15 0.07 0.05 0.10 0.13 0.14 0.13 0.14 0.16
0.30 0.24 0.28 0.26 0.28 0.29 0.17 0.27 0.53 0.66 0.71 0.68 0.76 0.83 0.96 0.95 0.83 0.64 0.35 0.21 0.20 0.22 0.21 0.27 0.47 0.43 0.31 0.25 0.18 0.12 0.09 0.10 0.12 0.09 0.06 0.06 0.05 0.07 0.09 0.11 0.14 0.12 0.11 0.14
0.59 0.26 0.40 0.48 0.65 0.25 0.15 0.22 0.29 0.37 0.50 0.42 0.42 0.41 0.40 0.40 0.42 0.38 0.23 0.12 0.07 0.05 0.04 0.06 0.14 0.27 0.35 0.31 0.20 0.14 0.11 0.11 0.12 0.11 0.09 0.08 0.09 0.13 0.08 0.07 0.09 0.11 0.13 0.18
0.91 0.48 0.53 0.78 1.40 0.68 0.59 0.66 0.60 0.40 0.38 0.31 0.31 0.27 0.23 0.18 0.18 0.19 0.18 0.14 0.11 0.09 0.10 0.12 0.09 0.05 0.05 0.07 0.12 0.14 0.13 0.12 0.12 0.10 0.09 0.09 0.09 0.09 0.09 0.12 0.18 0.16 0.23 0.28
0.68 0.88 0.80 0.93 1.21 1.03 0.85 0.61 0.47 0.31 0.24 0.16 0.11 0.06 0.05 0.05 0.06 0.05 0.05 0.05 0.07 0.15 0.15 0.08 0.05 0.04 0.05 0.04 0.03 0.03 0.04 0.06 0.08 0.11 0.12 0.15 0.15 0.14 0.13 0.15 0.23 0.35 0.38 0.38

GFSCGP_prec_precacc_093.txt.gz
Total_Precipitation_Accumulation
0.00 0.00 0.00 0.00 0.00 0.00 0.00 0.00 0.00 0.00 0.00 0.00 0.00 0.00 0.02 0.14 0.04 0.02 0.03 0.01 0.01 0.00 0.01 0.04 0.07 0.08 0.06 0.12 0.37 0.48 0.71 0.87 0.58 0.36 0.31 0.35 0.40 0.47 0.76 0.75 0.45 0.52 0.68 0.50
0.02 0.01 0.00 0.00 0.00 0.00 0.00 0.00 0.00 0.00 0.00 0.00 0.00 0.00 0.00 0.02 0.00 0.00 0.00 0.00 0.00 0.00 0.00 0.01 0.03 0.05 0.08 0.16 0.38 0.47 0.32 0.27 0.28 0.27 0.15 0.10 0.13 0.23 0.55 0.84 0.53 0.58 0.68 0.58
0.03 0.02 0.00 0.00 0.00 0.00 0.00 0.00 0.00 0.00 0.00 0.00 0.00 0.00 0.00 0.00 0.02 0.07 0.01 0.00 0.00 0.00 0.02 0.02 0.04 0.04 0.06 0.08 0.12 0.24 0.13 0.07 0.06 0.10 0.10 0.07 0.09 0.24 0.92 1.27 0.94 0.67 0.66 0.55
0.09 0.00 0.01 0.01 0.00 0.00 0.00 0.00 0.00 0.00 0.00 0.00 0.00 0.01 0.02 0.01 0.02 0.06 0.01 0.01 0.00 0.00 0.00 0.00 0.00 0.00 0.03 0.03 0.05 0.23 0.13 0.06 0.04 0.05 0.05 0.06 0.11 0.15 0.50 1.02 0.92 0.68 0.81 0.71
0.10 0.01 0.01 0.00 0.00 0.00 0.01 0.00 0.00 0.00 0.00 0.05 0.02 0.01 0.03 0.02 0.00 0.02 0.01 0.00 0.00 0.00 0.01 0.01 0.01 0.00 0.00 0.06 0.08 0.20 0.16 0.16 0.08 0.11 0.15 0.25 0.19 0.14 0.22 0.87 1.19 0.94 0.91 0.95
0.01 0.01 0.05 0.02 0.00 0.00 0.00 0.02 0.02 0.00 0.01 0.03 0.01 0.02 0.04 0.03 0.02 0.05 0.03 0.00 0.00 0.00 0.02 0.02 0.01 0.01 0.01 0.02 0.11 0.19 0.15 0.21 0.23 0.27 0.22 0.21 0.29 0.17 0.18 0.51 1.04 1.31 1.13 1.06
0.02 0.04 0.03 0.00 0.00 0.00 0.00 0.08 0.15 0.15 0.06 0.03 0.03 0.03 0.05 0.01 0.06 0.16 0.09 0.00 0.00 0.00 0.00 0.01 0.00 0.00 0.02 0.02 0.16 0.18 0.16 0.20 0.23 0.29 0.16 0.18 0.30 0.36 0.40 0.42 0.77 1.25 1.51 1.33
0.13 0.10 0.03 0.01 0.01 0.02 0.02 0.08 0.13 0.26 0.09 0.03 0.03 0.02 0.01 0.00 0.00 0.00 0.00 0.00 0.00 0.00 0.00 0.00 0.00 0.02 0.08 0.07 0.12 0.27 0.23 0.30 0.23 0.15 0.20 0.25 0.31 0.38 0.50 0.43 0.64 1.16 1.04 0.84
0.08 0.06 0.03 0.02 0.01 0.06 0.12 0.11 0.03 0.24 0.15 0.11 0.02 0.01 0.00 0.00 0.00 0.00 0.00 0.00 0.00 0.00 0.00 0.01 0.00 0.01 0.07 0.10 0.13 0.16 0.12 0.25 0.24 0.26 0.34 0.25 0.19 0.19 0.26 0.30 0.28 0.53 0.71 0.76
0.13 0.25 0.07 0.02 0.07 0.10 0.08 0.16 0.30 0.38 0.24 0.16 0.01 0.01 0.07 0.03 0.01 0.00 0.00 0.00 0.00 0.00 0.00 0.00 0.00 0.01 0.03 0.04 0.09 0.18 0.09 0.04 0.13 0.22 0.23 0.15 0.18 0.23 0.15 0.16 0.19 0.35 0.64 0.72
0.08 0.18 0.14 0.15 0.17 0.09 0.12 0.23 0.32 0.31 0.12 0.11 0.12 0.17 0.14 0.02 0.00 0.00 0.00 0.00 0.00 0.00 0.00 0.00 0.00 0.01 0.01 0.02 0.07 0.13 0.21 0.31 0.27 0.19 0.09 0.11 0.26 0.52 0.42 0.33 0.29 0.33 0.54 0.80
0.07 0.20 0.14 0.08 0.05 0.03 0.13 0.15 0.24 0.34 0.21 0.09 0.12 0.18 0.07 0.02 0.00 0.00 0.00 0.00 0.00 0.00 0.00 0.00 0.00 0.00 0.01 0.04 0.11 0.21 0.30 0.39 0.48 0.31 0.29 0.49 0.69 0.89 0.80 0.63 0.76 0.53 0.31 0.29
0.26 0.29 0.19 0.22 0.12 0.12 0.21 0.15 0.22 0.36 0.33 0.25 0.19 0.11 0.16 0.03 0.01 0.00 0.00 0.00 0.00 0.00 0.01 0.01 0.02 0.03 0.03 0.06 0.13 0.19 0.20 0.27 0.46 0.53 0.60 0.55 0.47 0.68 0.82 0.67 0.49 0.36 0.26 0.24
0.24 0.18 0.08 0.07 0.21 0.50 0.43 0.29 0.29 0.41 0.50 0.14 0.06 0.05 0.43 0.32 0.08 0.00 0.00 0.00 0.01 0.02 0.02 0.06 0.09 0.07 0.11 0.23 0.23 0.21 0.26 0.31 0.33 0.31 0.24 0.21 0.32 0.29 0.33 0.33 0.31 0.20 0.23 0.17
0.16 0.14 0.09 0.05 0.04 0.08 0.18 0.19 0.21 0.33 0.24 0.15 0.04 0.11 0.37 0.72 0.32 0.07 0.03 0.01 0.05 0.04 0.05 0.12 0.18 0.23 0.24 0.25 0.18 0.17 0.14 0.22 0.24 0.20 0.13 0.19 0.19 0.19 0.23 0.26 0.21 0.21 0.20 0.17
0.13 0.09 0.15 0.04 0.01 0.07 0.14 0.15 0.11 0.15 0.10 0.09 0.06 0.17 0.30 0.56 0.56 0.30 0.15 0.04 0.09 0.09 0.08 0.11 0.17 0.23 0.28 0.37 0.47 0.49 0.34 0.28 0.21 0.16 0.17 0.19 0.18 0.22 0.27 0.21 0.18 0.14 0.18 0.23
0.15 0.12 0.17 0.25 0.08 0.08 0.10 0.05 0.14 0.14 0.11 0.07 0.12 0.12 0.30 0.57 0.65 0.50 0.34 0.14 0.11 0.12 0.12 0.11 0.15 0.17 0.21 0.25 0.20 0.22 0.25 0.21 0.18 0.19 0.17 0.16 0.17 0.20 0.19 0.24 0.20 0.22 0.30 0.36
0.16 0.07 0.18 0.23 0.14 0.23 0.09 0.05 0.22 0.36 0.29 0.11 0.16 0.20 0.40 0.47 0.31 0.45 0.45 0.45 0.27 0.22 0.20 0.14 0.11 0.16 0.17 0.17 0.14 0.10 0.09 0.10 0.10 0.11 0.15 0.14 0.15 0.18 0.22 0.28 0.25 0.33 0.40 0.47
0.18 0.18 0.25 0.19 0.19 0.16 0.10 0.26 0.33 0.67 0.59 0.31 0.28 0.42 0.39 0.28 0.09 0.41 0.51 0.46 0.66 0.49 0.33 0.35 0.24 0.19 0.22 0.18 0.24 0.18 0.09 0.07 0.07 0.07 0.13 0.18 0.19 0.20 0.30 0.39 0.45 0.44 0.37 0.30
0.05 0.19 0.34 0.25 0.26 0.18 0.08 0.11 0.26 0.49 1.02 0.91 0.71 0.49 0.41 0.30 0.25 0.53 0.55 0.43 0.53 0.85 0.66 0.46 0.44 0.26 0.29 0.21 0.25 0.41 0.21 0.11 0.09 0.10 0.11 0.13 0.24 0.37 0.49 0.44 0.31 0.22 0.20 0.19
0.07 0.18 0.29 0.35 0.34 0.10 0.03 0.06 0.19 0.91 0.95 1.00 1.27 0.83 0.73 0.62 0.57 0.68 0.68 0.55 0.49 0.71 1.06 0.76 0.67 0.44 0.41 0.35 0.26 0.34 0.43 0.39 0.30 0.27 0.33 0.38 0.38 0.36 0.27 0.25 0.16 0.19 0.27 0.25
0.25 0.29 0.30 0.33 0.37 0.16 0.13 0.27 0.60 0.85 0.93 0.99 1.14 1.24 1.40 1.33 1.18 0.99 0.75 0.54 0.43 0.40 0.63 1.05 0.82 0.66 0.55 0.52 0.44 0.46 0.47 0.46 0.49 0.43 0.36 0.35 0.23 0.15 0.14 0.20 0.26 0.21 0.21 0.22
0.32 0.25 0.29 0.27 0.30 0.31 0.18 0.28 0.55 0.67 0.73 0.73 0.80 0.87 1.00 1.00 0.90 0.72 0.44 0.28 0.27 0.33 0.34 0.42 0.78 0.75 0.56 0.51 0.55 0.49 0.50 0.49 0.44 0.36 0.31 0.28 0.25 0.25 0.18 0.14 0.18 0.17 0.12 0.15
0.59 0.26 0.42 0.51 0.67 0.26 0.16 0.22 0.29 0.38 0.54 0.47 0.46 0.46 0.46 0.46 0.49 0.47 0.32 0.21 0.15 0.14 0.14 0.16 0.26 0.50 0.62 0.59 0.44 0.38 0.35 0.36 0.37 0.36 0.29 0.27 0.24 0.22 0.12 0.09 0.10 0.12 0.14 0.18
0.91 0.48 0.54 0.80 1.42 0.69 0.59 0.67 0.61 0.42 0.42 0.34 0.35 0.33 0.28 0.25 0.25 0.27 0.26 0.23 0.21 0.20 0.21 0.23 0.19 0.15 0.17 0.20 0.30 0.35 0.33 0.29 0.23 0.20 0.21 0.19 0.14 0.13 0.10 0.13 0.19 0.17 0.25 0.29
0.68 0.89 0.83 0.96 1.23 1.04 0.87 0.62 0.48 0.33 0.28 0.20 0.14 0.10 0.08 0.08 0.10 0.09 0.09 0.08 0.10 0.18 0.19 0.11 0.08 0.08 0.09 0.10 0.09 0.09 0.13 0.16 0.19 0.20 0.18 0.22 0.22 0.20 0.18 0.19 0.26 0.37 0.39 0.39

GFSCGP_prec_precacc_096.txt.gz
Total_Precipitation_Accumulation
0.00 0.00 0.00 0.00 0.00 0.00 0.00 0.00 0.00 0.00 0.00 0.00 0.00 0.00 0.02 0.14 0.04 0.02 0.03 0.01 0.01 0.00 0.01 0.04 0.07 0.08 0.06 0.12 0.37 0.48 0.71 0.88 0.58 0.36 0.31 0.36 0.41 0.47 0.77 0.75 0.45 0.53 0.68 0.50
0.02 0.01 0.00 0.00 0.00 0.00 0.00 0.00 0.00 0.00 0.00 0.00 0.00 0.00 0.00 0.02 0.00 0.00 0.00 0.00 0.00 0.00 0.00 0.01 0.03 0.05 0.08 0.16 0.38 0.47 0.32 0.27 0.28 0.27 0.15 0.10 0.14 0.24 0.56 0.84 0.53 0.59 0.68 0.58
0.03 0.02 0.00 0.00 0.00 0.00 0.00 0.00 0.00 0.00 0.00 0.00 0.00 0.00 0.00 0.00 0.02 0.07 0.01 0.00 0.00 0.00 0.02 0.02 0.04 0.04 0.06 0.08 0.12 0.24 0.13 0.07 0.06 0.10 0.11 0.08 0.09 0.24 0.92 1.27 0.94 0.67 0.67 0.56
0.09 0.00 0.01 0.01 0.00 0.00 0.00 0.00 0.00 0.00 0.00 0.00 0.00 0.01 0.02 0.01 0.02 0.06 0.01 0.01 0.00 0.00 0.00 0.00 0.00 0.00 0.03 0.03 0.05 0.23 0.13 0.06 0.05 0.05 0.05 0.06 0.11 0.15 0.50 1.02 0.92 0.68 0.82 0.72
0.10 0.01 0.01 0.00 0.00 0.00 0.01 0.00 0.00 0.00 0.00 0.05 0.02 0.01 0.03 0.02 0.00 0.02 0.01 0.00 0.00 0.00 0.01 0.01 0.01 0.00 0.00 0.06 0.08 0.20 0.16 0.16 0.08 0.11 0.15 0.25 0.19 0.14 0.22 0.87 1.20 0.94 0.91 0.95
0.01 0.01 0.05 0.02 0.00 0.00 0.00 0.02 0.02 0.00 0.01 0.03 0.01 0.02 0.04 0.03 0.02 0.05 0.03 0.00 0.00 0.00 0.02 0.02 0.01 0.01 0.01 0.02 0.11 0.19 0.15 0.21 0.23 0.27 0.22 0.21 0.29 0.18 0.18 0.51 1.05 1.32 1.13 1.06
0.03 0.04 0.03 0.00 0.01 0.01 0.01 0.10 0.19 0.19 0.07 0.03 0.03 0.04 0.05 0.02 0.06 0.16 0.09 0.00 0.00 0.00 0.00 0.01 0.00 0.00 0.02 0.02 0.16 0.18 0.16 0.20 0.23 0.29 0.16 0.18 0.30 0.36 0.40 0.43 0.78 1.25 1.52 1.34
0.16 0.12 0.03 0.05 0.03 0.04 0.03 0.11 0.18 0.29 0.10 0.05 0.03 0.02 0.01 0.00 0.00 0.00 0.00 0.00 0.00 0.00 0.00 0.00 0.00 0.02 0.08 0.07 0.12 0.27 0.23 0.30 0.23 0.15 0.21 0.26 0.32 0.38 0.50 0.43 0.65 1.16 1.04 0.85
0.14 0.08 0.03 0.03 0.03 0.08 0.15 0.12 0.04 0.26 0.17 0.17 0.06 0.02 0.02 0.00 0.00 0.00 0.00 0.00 0.00 0.00 0.00 0.01 0.00 0.01 0.07 0.10 0.13 0.16 0.12 0.25 0.24 0.26 0.34 0.26 0.19 0.19 0.26 0.31 0.28 0.53 0.71 0.76
0.22 0.41 0.09 0.03 0.08 0.11 0.09 0.16 0.30 0.40 0.28 0.19 0.04 0.03 0.16 0.11 0.01 0.00 0.00 0.00 0.00 0.00 0.00 0.00 0.00 0.01 0.05 0.04 0.09 0.18 0.09 0.05 0.13 0.23 0.24 0.16 0.19 0.23 0.15 0.16 0.19 0.35 0.64 0.72
0.10 0.27 0.19 0.20 0.21 0.10 0.12 0.25 0.33 0.33 0.12 0.13 0.13 0.27 0.27 0.13 0.02 0.00 0.00 0.00 0.00 0.00 0.00 0.00 0.00 0.01 0.02 0.03 0.07 0.13 0.21 0.32 0.29 0.20 0.10 0.11 0.26 0.52 0.43 0.33 0.29 0.33 0.54 0.81
0.09 0.37 0.23 0.15 0.06 0.03 0.13 0.15 0.26 0.36 0.23 0.10 0.15 0.37 0.34 0.04 0.00 0.00 0.00 0.00 0.00 0.00 0.00 0.00 0.01 0.00 0.02 0.06 0.11 0.21 0.31 0.40 0.51 0.32 0.29 0.49 0.69 0.89 0.81 0.63 0.76 0.53 0.31 0.30
0.32 0.36 0.41 0.36 0.22 0.14 0.22 0.15 0.22 0.39 0.37 0.29 0.20 0.23 0.45 0.04 0.01 0.00 0.00 0.00 0.00 0.00 0.01 0.01 0.03 0.04 0.04 0.07 0.13 0.19 0.20 0.29 0.48 0.55 0.62 0.56 0.48 0.68 0.83 0.68 0.49 0.36 0.26 0.25
0.46 0.31 0.53 0.29 0.29 0.53 0.47 0.32 0.34 0.46 0.52 0.15 0.06 0.08 0.47 0.32 0.08 0.00 0.00 0.00 0.01 0.02 0.02 0.06 0.10 0.10 0.14 0.25 0.24 0.22 0.28 0.34 0.39 0.35 0.26 0.21 0.32 0.30 0.33 0.34 0.32 0.20 0.23 0.17
0.30 0.26 0.55 0.33 0.12 0.10 0.22 0.23 0.27 0.38 0.25 0.16 0.04 0.11 0.37 0.72 0.32 0.07 0.03 0.01 0.05 0.04 0.05 0.12 0.18 0.25 0.27 0.27 0.21 0.20 0.16 0.27 0.32 0.25 0.14 0.19 0.20 0.20 0.24 0.27 0.22 0.22 0.20 0.18
0.35 0.26 0.22 0.09 0.08 0.08 0.15 0.19 0.13 0.15 0.11 0.09 0.06 0.17 0.30 0.56 0.56 0.30 0.15 0.04 0.09 0.09 0.08 0.11 0.17 0.25 0.31 0.41 0.49 0.52 0.39 0.34 0.25 0.18 0.18 0.20 0.20 0.23 0.29 0.22 0.18 0.15 0.20 0.24
0.33 0.30 0.19 0.26 0.08 0.08 0.10 0.05 0.14 0.14 0.11 0.07 0.12 0.12 0.30 0.57 0.65 0.50 0.34 0.14 0.11 0.12 0.12 0.11 0.15 0.18 0.24 0.29 0.24 0.26 0.32 0.28 0.22 0.20 0.18 0.17 0.18 0.20 0.19 0.25 0.20 0.22 0.31 0.37
0.25 0.12 0.19 0.23 0.14 0.27 0.12 0.05 0.22 0.36 0.29 0.11 0.16 0.20 0.40 0.47 0.31 0.45 0.46 0.46 0.27 0.22 0.21 0.14 0.12 0.17 0.20 0.22 0.19 0.16 0.17 0.18 0.14 0.13 0.16 0.16 0.16 0.19 0.23 0.29 0.27 0.34 0.41 0.47
0.20 0.18 0.25 0.19 0.20 0.20 0.12 0.26 0.33 0.67 0.61 0.31 0.28 0.42 0.39 0.29 0.09 0.41 0.52 0.48 0.68 0.51 0.34 0.36 0.26 0.23 0.29 0.28 0.33 0.27 0.19 0.15 0.11 0.09 0.15 0.19 0.20 0.21 0.32 0.40 0.47 0.46 0.40 0.32
0.05 0.19 0.34 0.25 0.26 0.22 0.14 0.11 0.26 0.50 1.08 0.92 0.71 0.49 0.41 0.31 0.27 0.56 0.58 0.47 0.57 0.88 0.68 0.47 0.47 0.33 0.44 0.47 0.44 0.60 0.36 0.24 0.15 0.12 0.14 0.16 0.26 0.38 0.50 0.45 0.32 0.23 0.22 0.21
0.08 0.18 0.29 0.35 0.36 0.11 0.03 0.06 0.19 0.94 1.02 1.01 1.27 0.83 0.73 0.63 0.60 0.72 0.72 0.59 0.53 0.74 1.09 0.79 0.72 0.57 0.57 0.76 0.58 0.62 0.92 0.67 0.44 0.34 0.38 0.44 0.43 0.41 0.30 0.27 0.18 0.20 0.29 0.28
0.25 0.38 0.32 0.34 0.41 0.18 0.13 0.27 0.61 0.87 0.95 1.00 1.15 1.24 1.41 1.35 1.21 1.02 0.78 0.57 0.47 0.44 0.67 1.11 0.94 0.87 0.74 0.83 0.89 0.72 0.81 1.09 0.97 0.63 0.51 0.48 0.39 0.28 0.24 0.27 0.32 0.28 0.26 0.29
0.32 0.25 0.30 0.28 0.32 0.33 0.18 0.29 0.56 0.68 0.74 0.75 0.81 0.88 1.01 1.01 0.92 0.75 0.48 0.32 0.31 0.38 0.41 0.51 0.88 0.94 0.79 0.67 0.83 0.83 0.86 0.93 0.94 0.93 0.73 0.61 0.50 0.51 0.48 0.40 0.35 0.31 0.32 0.32
0.59 0.26 0.43 0.53 0.68 0.26 0.16 0.23 0.30 0.39 0.55 0.49 0.48 0.47 0.47 0.48 0.52 0.50 0.36 0.25 0.19 0.19 0.21 0.24 0.35 0.60 0.77 0.77 0.60 0.58 0.60 0.63 0.77 0.73 0.69 0.70 0.66 0.60 0.51 0.47 0.41 0.33 0.33 0.41
0.91 0.48 0.55 0.82 1.44 0.71 0.60 0.68 0.63 0.44 0.45 0.37 0.38 0.35 0.31 0.28 0.29 0.31 0.31 0.28 0.25 0.24 0.26 0.28 0.25 0.22 0.27 0.35 0.46 0.51 0.51 0.46 0.41 0.41 0.44 0.42 0.38 0.36 0.31 0.32 0.35 0.29 0.36 0.36
0.68 0.90 0.85 1.00 1.25 1.06 0.89 0.64 0.49 0.34 0.30 0.23 0.16 0.13 0.11 0.12 0.12 0.11 0.11 0.10 0.11 0.19 0.19 0.11 0.09 0.09 0.11 0.13 0.15 0.14 0.19 0.27 0.32 0.36 0.37 0.42 0.40 0.36 0.34 0.35 0.42 0.50 0.48 0.43

GFSCGP_prec_precacc_099.txt.gz
Total_Precipitation_Accumulation
0.00 0.00 0.00 0.00 0.00 0.00 0.00 0.00 0.00 0.00 0.00 0.00 0.00 0.00 0.02 0.14 0.04 0.02 0.03 0.01 0.01 0.00 0.01 0.04 0.07 0.08 0.06 0.12 0.37 0.48 0.71 0.88 0.58 0.36 0.31 0.36 0.41 0.48 0.77 0.76 0.45 0.53 0.68 0.50
0.02 0.01 0.00 0.00 0.00 0.00 0.00 0.00 0.00 0.00 0.00 0.00 0.00 0.00 0.00 0.02 0.00 0.00 0.00 0.00 0.00 0.00 0.00 0.01 0.03 0.05 0.08 0.16 0.38 0.47 0.32 0.27 0.28 0.27 0.15 0.10 0.14 0.25 0.57 0.85 0.54 0.59 0.68 0.59
0.03 0.02 0.00 0.00 0.00 0.00 0.00 0.00 0.00 0.00 0.00 0.00 0.00 0.00 0.00 0.00 0.02 0.07 0.01 0.00 0.00 0.00 0.02 0.02 0.04 0.04 0.06 0.08 0.12 0.24 0.13 0.07 0.07 0.10 0.11 0.08 0.09 0.25 0.94 1.28 0.96 0.68 0.67 0.57
0.09 0.00 0.01 0.01 0.00 0.00 0.00 0.00 0.00 0.00 0.00 0.00 0.00 0.01 0.02 0.01 0.02 0.06 0.01 0.01 0.00 0.00 0.00 0.00 0.00 0.00 0.03 0.03 0.05 0.23 0.13 0.06 0.05 0.05 0.05 0.06 0.11 0.15 0.50 1.02 0.93 0.70 0.82 0.72
0.10 0.01 0.01 0.00 0.00 0.00 0.01 0.00 0.00 0.00 0.00 0.05 0.02 0.01 0.03 0.02 0.00 0.02 0.01 0.00 0.00 0.00 0.01 0.01 0.01 0.00 0.00 0.06 0.08 0.20 0.16 0.16 0.08 0.11 0.15 0.25 0.19 0.14 0.22 0.87 1.20 0.95 0.92 0.96
0.01 0.01 0.05 0.02 0.00 0.00 0.00 0.02 0.04 0.01 0.01 0.03 0.01 0.02 0.04 0.03 0.02 0.05 0.03 0.00 0.01 0.00 0.02 0.02 0.01 0.01 0.01 0.02 0.11 0.19 0.15 0.21 0.23 0.27 0.22 0.21 0.29 0.18 0.18 0.51 1.05 1.32 1.13 1.06
0.03 0.04 0.03 0.00 0.01 0.01 0.01 0.12 0.23 0.23 0.08 0.03 0.03 0.04 0.05 0.02 0.09 0.21 0.13 0.01 0.01 0.00 0.00 0.01 0.00 0.00 0.02 0.02 0.16 0.18 0.16 0.20 0.23 0.29 0.16 0.18 0.31 0.38 0.40 0.43 0.78 1.25 1.52 1.34
0.17 0.12 0.03 0.06 0.03 0.05 0.04 0.16 0.24 0.32 0.15 0.06 0.03 0.03 0.01 0.00 0.01 0.18 0.14 0.04 0.01 0.02 0.00 0.00 0.00 0.02 0.08 0.07 0.12 0.27 0.23 0.30 0.23 0.16 0.22 0.26 0.33 0.40 0.51 0.43 0.65 1.16 1.04 0.85
0.15 0.09 0.03 0.04 0.04 0.10 0.20 0.16 0.08 0.34 0.24 0.19 0.08 0.03 0.04 0.02 0.08 0.08 0.05 0.01 0.01 0.00 0.00 0.01 0.00 0.01 0.07 0.11 0.13 0.17 0.13 0.26 0.27 0.29 0.35 0.27 0.21 0.21 0.29 0.32 0.28 0.53 0.71 0.76
0.23 0.41 0.09 0.05 0.13 0.13 0.17 0.19 0.37 0.49 0.39 0.21 0.15 0.06 0.44 0.36 0.26 0.39 0.04 0.00 0.00 0.00 0.00 0.00 0.00 0.02 0.06 0.07 0.14 0.23 0.12 0.06 0.15 0.26 0.26 0.17 0.23 0.26 0.17 0.17 0.19 0.35 0.64 0.72
0.10 0.28 0.20 0.22 0.25 0.12 0.16 0.34 0.38 0.35 0.14 0.17 0.24 0.52 0.64 0.79 0.17 0.15 0.01 0.00 0.00 0.00 0.00 0.00 0.01 0.05 0.06 0.06 0.10 0.15 0.22 0.34 0.32 0.24 0.12 0.15 0.30 0.55 0.46 0.35 0.29 0.33 0.54 0.81
0.11 0.42 0.23 0.16 0.08 0.04 0.15 0.19 0.29 0.40 0.24 0.10 0.21 0.82 0.55 0.28 0.19 0.10 0.00 0.00 0.00 0.00 0.00 0.00 0.01 0.03 0.06 0.09 0.12 0.21 0.31 0.41 0.53 0.41 0.34 0.55 0.76 0.92 0.81 0.64 0.76 0.53 0.31 0.30
0.35 0.40 0.43 0.38 0.23 0.14 0.22 0.16 0.23 0.40 0.40 0.30 0.30 0.61 0.69 0.21 0.04 0.00 0.00 0.00 0.00 0.00 0.01 0.01 0.03 0.05 0.06 0.09 0.14 0.19 0.21 0.33 0.52 0.61 0.67 0.62 0.55 0.71 0.84 0.68 0.49 0.36 0.26 0.25
0.62 0.38 0.53 0.31 0.32 0.55 0.48 0.32 0.36 0.49 0.56 0.18 0.21 0.50 0.61 0.34 0.08 0.00 0.00 0.00 0.01 0.02 0.02 0.06 0.10 0.11 0.15 0.27 0.26 0.23 0.31 0.41 0.46 0.41 0.32 0.26 0.40 0.33 0.34 0.34 0.32 0.20 0.23 0.17
0.45 0.31 0.65 0.50 0.16 0.18 0.26 0.28 0.34 0.51 0.42 0.28 0.23 0.20 0.38 0.72 0.32 0.07 0.03 0.01 0.05 0.04 0.05 0.12 0.18 0.25 0.28 0.29 0.23 0.22 0.20 0.34 0.39 0.30 0.18 0.25 0.22 0.21 0.25 0.28 0.22 0.22 0.20 0.18
0.48 0.34 0.50 0.70 0.31 0.24 0.31 0.34 0.28 0.35 0.19 0.15 0.07 0.17 0.30 0.56 0.56 0.30 0.15 0.04 0.09 0.09 0.08 0.11 0.17 0.25 0.32 0.42 0.51 0.53 0.40 0.40 0.30 0.22 0.22 0.23 0.21 0.25 0.31 0.25 0.19 0.16 0.20 0.24
0.44 0.54 0.29 0.46 0.17 0.14 0.22 0.11 0.16 0.15 0.11 0.07 0.13 0.12 0.30 0.57 0.66 0.51 0.34 0.15 0.12 0.13 0.12 0.11 0.16 0.19 0.25 0.29 0.25 0.29 0.35 0.32 0.29 0.26 0.21 0.18 0.19 0.23 0.22 0.26 0.22 0.24 0.36 0.39
0.34 0.30 0.23 0.24 0.14 0.34 0.24 0.05 0.22 0.36 0.29 0.11 0.16 0.20 0.40 0.47 0.32 0.46 0.46 0.46 0.28 0.23 0.21 0.15 0.12 0.17 0.20 0.23 0.20 0.19 0.20 0.22 0.22 0.21 0.21 0.18 0.19 0.22 0.26 0.31 0.29 0.36 0.45 0.51
0.21 0.19 0.26 0.20 0.21 0.24 0.12 0.26 0.33 0.68 0.62 0.32 0.28 0.42 0.39 0.29 0.09 0.42 0.53 0.49 0.71 0.53 0.36 0.38 0.27 0.23 0.30 0.28 0.35 0.31 0.24 0.22 0.20 0.17 0.20 0.23 0.24 0.24 0.34 0.43 0.50 0.49 0.43 0.34
0.06 0.19 0.34 0.25 0.27 0.24 0.15 0.11 0.26 0.50 1.09 0.92 0.71 0.49 0.42 0.32 0.28 0.58 0.61 0.50 0.60 0.91 0.70 0.49 0.48 0.34 0.44 0.49 0.47 0.69 0.47 0.33 0.30 0.27 0.22 0.20 0.31 0.43 0.54 0.48 0.36 0.28 0.26 0.25
0.08 0.18 0.29 0.35 0.36 0.11 0.03 0.06 0.19 0.94 1.06 1.02 1.27 0.83 0.74 0.64 0.63 0.76 0.75 0.62 0.57 0.78 1.12 0.81 0.72 0.58 0.59 0.79 0.61 0.72 1.16 0.89 0.68 0.61 0.57 0.56 0.50 0.47 0.35 0.32 0.23 0.25 0.34 0.32
0.25 0.39 0.32 0.34 0.42 0.19 0.13 0.27 0.62 0.93 0.98 1.01 1.15 1.25 1.41 1.35 1.22 1.04 0.81 0.61 0.50 0.47 0.70 1.14 0.95 0.89 0.77 0.89 0.99 0.84 1.01 1.55 1.36 1.05 0.93 0.79 0.59 0.40 0.32 0.34 0.38 0.33 0.30 0.31
0.32 0.27 0.30 0.29 0.34 0.36 0.18 0.31 0.58 0.69 0.76 0.76 0.82 0.89 1.01 1.02 0.93 0.77 0.50 0.35 0.34 0.41 0.44 0.54 0.91 0.97 0.83 0.72 0.91 0.99 1.07 1.22 1.33 1.33 1.22 1.11 0.88 0.79 0.69 0.56 0.49 0.44 0.43 0.40
0.59 0.27 0.45 0.55 0.70 0.27 0.17 0.23 0.31 0.40 0.57 0.51 0.49 0.48 0.47 0.49 0.54 0.52 0.38 0.27 0.22 0.21 0.24 0.27 0.36 0.61 0.79 0.82 0.65 0.68 0.78 0.84 0.96 0.97 1.00 1.09 1.04 0.93 0.78 0.70 0.72 0.69 0.66 0.71
0.91 0.48 0.56 0.84 1.46 0.72 0.60 0.69 0.64 0.45 0.46 0.39 0.40 0.37 0.32 0.29 0.31 0.33 0.32 0.29 0.27 0.26 0.28 0.30 0.26 0.23 0.29 0.37 0.49 0.57 0.57 0.54 0.53 0.56 0.61 0.60 0.61 0.61 0.55 0.50 0.51 0.46 0.57 0.58
0.69 0.90 0.87 1.02 1.26 1.07 0.90 0.65 0.51 0.36 0.32 0.25 0.17 0.14 0.13 0.13 0.14 0.12 0.11 0.10 0.11 0.19 0.19 0.11 0.09 0.09 0.11 0.13 0.15 0.15 0.20 0.27 0.34 0.40 0.44 0.52 0.53 0.52 0.50 0.52 0.59 0.64 0.62 0.56

GFSCGP_prec_precacc_102.txt.gz
Total_Precipitation_Accumulation
0.00 0.00 0.00 0.00 0.00 0.00 0.00 0.00 0.00 0.00 0.00 0.00 0.00 0.00 0.02 0.14 0.04 0.02 0.03 0.01 0.01 0.00 0.01 0.04 0.07 0.08 0.06 0.12 0.37 0.48 0.71 0.88 0.60 0.37 0.32 0.37 0.42 0.49 0.77 0.76 0.45 0.53 0.68 0.50
0.02 0.01 0.00 0.00 0.00 0.00 0.00 0.00 0.00 0.00 0.00 0.00 0.00 0.00 0.00 0.02 0.00 0.00 0.00 0.00 0.00 0.00 0.00 0.01 0.03 0.05 0.08 0.16 0.38 0.47 0.32 0.27 0.28 0.28 0.16 0.12 0.17 0.29 0.59 0.85 0.54 0.60 0.69 0.59
0.03 0.02 0.00 0.00 0.00 0.00 0.00 0.00 0.00 0.00 0.00 0.00 0.00 0.00 0.00 0.00 0.02 0.07 0.01 0.00 0.00 0.00 0.02 0.02 0.04 0.04 0.06 0.08 0.12 0.24 0.13 0.07 0.07 0.10 0.13 0.09 0.13 0.27 0.94 1.29 0.96 0.69 0.68 0.58
0.09 0.00 0.01 0.01 0.00 0.00 0.00 0.00 0.00 0.00 0.00 0.00 0.00 0.01 0.02 0.01 0.02 0.06 0.01 0.01 0.00 0.00 0.00 0.00 0.00 0.00 0.03 0.03 0.05 0.23 0.13 0.06 0.05 0.05 0.05 0.07 0.11 0.15 0.50 1.02 0.93 0.71 0.84 0.73
0.10 0.01 0.01 0.00 0.00 0.00 0.01 0.00 0.00 0.00 0.00 0.05 0.02 0.01 0.03 0.02 0.00 0.02 0.01 0.00 0.00 0.00 0.01 0.01 0.01 0.00 0.00 0.06 0.08 0.20 0.16 0.16 0.08 0.11 0.15 0.26 0.20 0.14 0.23 0.88 1.20 0.96 0.93 0.99
0.01 0.01 0.05 0.02 0.00 0.00 0.00 0.02 0.04 0.03 0.04 0.07 0.01 0.02 0.04 0.03 0.02 0.05 0.07 0.04 0.01 0.00 0.02 0.02 0.01 0.01 0.01 0.02 0.11 0.19 0.15 0.21 0.23 0.27 0.22 0.22 0.29 0.18 0.18 0.51 1.05 1.32 1.14 1.08
0.03 0.04 0.03 0.00 0.01 0.01 0.01 0.12 0.25 0.27 0.11 0.05 0.03 0.04 0.05 0.02 0.09 0.22 0.25 0.22 0.09 0.07 0.03 0.02 0.00 0.00 0.02 0.02 0.16 0.18 0.16 0.20 0.23 0.29 0.16 0.18 0.31 0.38 0.40 0.43 0.78 1.25 1.52 1.34
0.17 0.12 0.03 0.06 0.04 0.05 0.05 0.18 0.27 0.35 0.15 0.07 0.04 0.03 0.01 0.01 0.01 0.26 0.52 0.38 0.10 0.08 0.05 0.03 0.02 0.03 0.09 0.07 0.12 0.27 0.24 0.31 0.25 0.17 0.22 0.27 0.33 0.40 0.51 0.43 0.65 1.17 1.06 0.86
0.16 0.09 0.03 0.04 0.04 0.12 0.22 0.18 0.09 0.36 0.26 0.26 0.09 0.03 0.05 0.04 0.15 0.18 0.35 0.28 0.13 0.02 0.03 0.02 0.01 0.02 0.09 0.12 0.14 0.17 0.14 0.32 0.32 0.32 0.40 0.33 0.24 0.22 0.29 0.32 0.29 0.54 0.73 0.78
0.24 0.42 0.09 0.05 0.13 0.15 0.22 0.22 0.41 0.53 0.50 0.31 0.18 0.14 0.62 0.58 0.41 0.67 0.49 0.19 0.07 0.01 0.00 0.00 0.01 0.02 0.08 0.11 0.17 0.25 0.13 0.07 0.18 0.34 0.33 0.21 0.26 0.29 0.18 0.19 0.23 0.38 0.66 0.73
0.11 0.28 0.20 0.22 0.25 0.16 0.20 0.36 0.40 0.41 0.16 0.25 0.44 0.89 1.01 1.28 0.66 0.46 0.15 0.07 0.02 0.00 0.00 0.00 0.01 0.07 0.10 0.09 0.14 0.18 0.24 0.37 0.39 0.36 0.20 0.19 0.32 0.56 0.48 0.38 0.32 0.35 0.54 0.81
0.11 0.43 0.24 0.16 0.08 0.04 0.18 0.23 0.30 0.44 0.27 0.15 0.34 1.09 1.06 0.78 0.63 0.31 0.05 0.01 0.00 0.00 0.00 0.00 0.01 0.04 0.09 0.11 0.13 0.24 0.32 0.44 0.58 0.50 0.42 0.60 0.79 0.95 0.87 0.72 0.81 0.55 0.31 0.30
0.36 0.40 0.45 0.38 0.24 0.16 0.29 0.28 0.26 0.47 0.50 0.39 0.48 1.01 1.07 0.46 0.18 0.03 0.00 0.00 0.00 0.00 0.01 0.01 0.03 0.05 0.06 0.10 0.15 0.20 0.23 0.36 0.56 0.66 0.72 0.67 0.62 0.77 0.95 0.79 0.54 0.37 0.26 0.25
0.64 0.41 0.55 0.31 0.32 0.55 0.49 0.38 0.40 0.53 0.59 0.30 0.48 0.64 0.66 0.35 0.08 0.00 0.00 0.00 0.01 0.02 0.02 0.06 0.10 0.11 0.15 0.27 0.27 0.24 0.33 0.47 0.53 0.49 0.38 0.31 0.46 0.40 0.41 0.40 0.32 0.21 0.23 0.17
0.56 0.36 0.68 0.51 0.16 0.18 0.26 0.31 0.41 0.58 0.53 0.46 0.46 0.24 0.38 0.72 0.32 0.07 0.03 0.01 0.05 0.04 0.05 0.12 0.18 0.25 0.28 0.30 0.24 0.23 0.21 0.40 0.47 0.37 0.24 0.30 0.25 0.25 0.26 0.28 0.22 0.22 0.20 0.18
0.52 0.43 0.70 0.90 0.32 0.26 0.37 0.55 0.32 0.39 0.38 0.31 0.15 0.19 0.31 0.56 0.56 0.30 0.16 0.04 0.09 0.09 0.08 0.11 0.17 0.25 0.32 0.42 0.52 0.54 0.42 0.43 0.36 0.28 0.27 0.28 0.25 0.27 0.31 0.25 0.19 0.16 0.21 0.25
0.49 0.71 0.54 0.75 0.26 0.28 0.59 0.42 0.20 0.18 0.16 0.08 0.13 0.14 0.30 0.58 0.67 0.53 0.35 0.15 0.12 0.13 0.12 0.11 0.16 0.19 0.25 0.29 0.25 0.30 0.36 0.33 0.34 0.33 0.25 0.23 0.24 0.25 0.23 0.26 0.22 0.25 0.39 0.41
0.49 0.40 0.28 0.40 0.24 0.44 0.53 0.17 0.23 0.36 0.30 0.11 0.17 0.22 0.41 0.49 0.34 0.47 0.47 0.47 0.28 0.24 0.22 0.16 0.13 0.18 0.21 0.23 0.20 0.19 0.20 0.23 0.23 0.25 0.27 0.24 0.25 0.25 0.31 0.33 0.30 0.37 0.48 0.57
0.25 0.22 0.27 0.24 0.25 0.33 0.16 0.26 0.34 0.69 0.64 0.33 0.29 0.43 0.41 0.31 0.10 0.42 0.54 0.51 0.73 0.55 0.38 0.40 0.29 0.25 0.30 0.29 0.35 0.31 0.24 0.22 0.22 0.22 0.28 0.33 0.34 0.31 0.40 0.48 0.52 0.51 0.44 0.36
0.08 0.20 0.37 0.27 0.28 0.24 0.15 0.11 0.26 0.50 1.10 0.94 0.72 0.49 0.42 0.32 0.28 0.60 0.62 0.51 0.61 0.92 0.72 0.51 0.49 0.34 0.45 0.50 0.47 0.70 0.49 0.36 0.34 0.33 0.32 0.31 0.44 0.52 0.60 0.53 0.39 0.30 0.28 0.27
0.08 0.18 0.29 0.35 0.36 0.11 0.03 0.06 0.19 0.95 1.09 1.04 1.28 0.84 0.74 0.65 0.64 0.78 0.76 0.63 0.58 0.79 1.14 0.82 0.73 0.58 0.61 0.81 0.62 0.72 1.18 1.00 0.84 0.78 0.70 0.71 0.69 0.63 0.43 0.36 0.27 0.28 0.35 0.34
0.26 0.40 0.33 0.35 0.42 0.20 0.13 0.27 0.64 0.97 1.00 1.03 1.16 1.25 1.41 1.36 1.23 1.04 0.82 0.62 0.51 0.49 0.71 1.15 0.96 0.90 0.79 0.90 0.99 0.84 1.05 1.66 1.57 1.27 1.17 1.03 0.83 0.69 0.62 0.56 0.51 0.41 0.36 0.35
0.34 0.28 0.31 0.30 0.36 0.39 0.19 0.32 0.61 0.71 0.77 0.78 0.83 0.89 1.02 1.02 0.94 0.77 0.50 0.35 0.35 0.42 0.45 0.55 0.92 0.97 0.84 0.73 0.91 1.00 1.12 1.27 1.42 1.47 1.40 1.38 1.22 1.10 0.98 0.85 0.75 0.62 0.55 0.51
0.60 0.27 0.45 0.56 0.72 0.29 0.19 0.25 0.32 0.41 0.58 0.51 0.50 0.49 0.48 0.49 0.54 0.53 0.39 0.28 0.22 0.22 0.24 0.28 0.37 0.61 0.80 0.83 0.66 0.70 0.80 0.88 1.00 1.01 1.08 1.22 1.25 1.20 1.08 0.98 0.96 0.90 0.83 0.85
0.91 0.48 0.56 0.84 1.48 0.73 0.61 0.71 0.66 0.47 0.47 0.39 0.41 0.38 0.34 0.30 0.32 0.33 0.33 0.29 0.27 0.26 0.28 0.30 0.26 0.23 0.29 0.37 0.50 0.57 0.58 0.55 0.54 0.58 0.65 0.66 0.69 0.74 0.75 0.73 0.73 0.65 0.76 0.75
0.69 0.91 0.87 1.02 1.27 1.08 0.91 0.67 0.51 0.36 0.32 0.26 0.18 0.15 0.15 0.15 0.16 0.13 0.11 0.10 0.11 0.19 0.19 0.11 0.09 0.09 0.12 0.13 0.15 0.16 0.20 0.27 0.34 0.40 0.45 0.54 0.57 0.57 0.58 0.64 0.74 0.80 0.78 0.70

GFSCGP_prec_precacc_105.txt.gz
Total_Precipitation_Accumulation
0.00 0.00 0.00 0.00 0.00 0.00 0.00 0.00 0.00 0.00 0.00 0.00 0.00 0.00 0.02 0.14 0.04 0.02 0.03 0.01 0.01 0.00 0.01 0.04 0.07 0.08 0.06 0.12 0.37 0.48 0.71 0.88 0.60 0.38 0.32 0.37 0.42 0.49 0.78 0.76 0.48 0.53 0.68 0.50
0.02 0.01 0.00 0.00 0.00 0.00 0.00 0.00 0.00 0.00 0.00 0.00 0.00 0.00 0.00 0.02 0.00 0.00 0.00 0.00 0.00 0.00 0.00 0.01 0.03 0.05 0.08 0.16 0.38 0.47 0.32 0.27 0.28 0.28 0.16 0.12 0.17 0.29 0.62 0.91 0.59 0.62 0.69 0.59
0.03 0.02 0.00 0.00 0.00 0.00 0.00 0.00 0.00 0.00 0.00 0.00 0.00 0.00 0.00 0.00 0.02 0.07 0.01 0.00 0.00 0.00 0.02 0.02 0.04 0.04 0.06 0.08 0.12 0.24 0.13 0.07 0.07 0.10 0.13 0.10 0.14 0.30 0.99 1.31 0.98 0.70 0.69 0.59
0.09 0.00 0.01 0.01 0.00 0.00 0.00 0.00 0.00 0.00 0.00 0.00 0.00 0.01 0.02 0.01 0.02 0.06 0.01 0.01 0.00 0.00 0.00 0.00 0.00 0.00 0.03 0.03 0.05 0.23 0.13 0.06 0.05 0.05 0.05 0.07 0.11 0.15 0.50 1.03 0.94 0.72 0.89 0.75
0.10 0.01 0.01 0.00 0.00 0.00 0.01 0.00 0.00 0.00 0.00 0.05 0.02 0.01 0.03 0.02 0.00 0.02 0.01 0.00 0.00 0.00 0.01 0.01 0.01 0.00 0.00 0.06 0.08 0.20 0.16 0.16 0.08 0.11 0.15 0.26 0.20 0.14 0.23 0.89 1.22 0.96 0.95 1.00
0.01 0.01 0.05 0.02 0.00 0.00 0.00 0.02 0.04 0.03 0.04 0.07 0.01 0.02 0.04 0.03 0.02 0.05 0.07 0.04 0.01 0.01 0.03 0.03 0.02 0.01 0.01 0.02 0.11 0.19 0.15 0.21 0.23 0.27 0.22 0.22 0.29 0.18 0.18 0.51 1.06 1.33 1.14 1.08
0.03 0.04 0.03 0.00 0.01 0.01 0.01 0.12 0.26 0.27 0.11 0.05 0.03 0.04 0.06 0.04 0.12 0.24 0.25 0.22 0.12 0.09 0.09 0.07 0.05 0.04 0.04 0.02 0.16 0.18 0.16 0.20 0.23 0.29 0.16 0.19 0.31 0.38 0.40 0.43 0.78 1.26 1.52 1.34
0.17 0.12 0.03 0.06 0.04 0.05 0.05 0.18 0.28 0.35 0.16 0.07 0.04 0.03 0.03 0.07 0.09 0.28 0.53 0.42 0.36 0.23 0.10 0.13 0.10 0.09 0.12 0.08 0.12 0.27 0.24 0.32 0.26 0.18 0.24 0.30 0.36 0.44 0.54 0.45 0.65 1.17 1.06 0.86
0.16 0.09 0.03 0.04 0.04 0.12 0.22 0.18 0.09 0.37 0.27 0.27 0.10 0.04 0.10 0.15 0.26 0.20 0.36 0.36 0.31 0.26 0.16 0.11 0.11 0.13 0.14 0.16 0.15 0.17 0.14 0.33 0.35 0.35 0.42 0.36 0.29 0.27 0.32 0.36 0.31 0.54 0.73 0.78
0.25 0.42 0.09 0.05 0.13 0.15 0.22 0.22 0.43 0.56 0.52 0.33 0.21 0.28 0.93 0.91 0.60 0.86 0.73 0.36 0.22 0.15 0.15 0.11 0.07 0.08 0.13 0.16 0.20 0.26 0.13 0.08 0.22 0.38 0.38 0.29 0.34 0.35 0.24 0.24 0.25 0.38 0.66 0.74
0.11 0.28 0.20 0.22 0.25 0.16 0.22 0.40 0.45 0.42 0.17 0.26 0.53 1.30 1.30 1.60 0.97 0.72 0.38 0.21 0.16 0.07 0.06 0.02 0.02 0.07 0.11 0.12 0.18 0.24 0.28 0.41 0.45 0.43 0.27 0.25 0.40 0.65 0.57 0.46 0.40 0.38 0.55 0.82
0.11 0.43 0.24 0.16 0.08 0.04 0.18 0.27 0.40 0.50 0.28 0.17 0.41 1.28 1.26 1.09 0.95 0.49 0.08 0.01 0.03 0.06 0.01 0.00 0.01 0.05 0.10 0.11 0.16 0.28 0.37 0.49 0.64 0.57 0.48 0.65 0.86 1.03 0.94 0.79 0.87 0.58 0.33 0.31
0.36 0.40 0.45 0.38 0.25 0.17 0.35 0.41 0.34 0.52 0.59 0.54 0.78 1.28 1.27 0.68 0.26 0.04 0.01 0.00 0.00 0.02 0.01 0.01 0.03 0.05 0.07 0.11 0.16 0.21 0.26 0.41 0.65 0.80 0.83 0.81 0.77 0.87 1.03 0.86 0.59 0.41 0.28 0.26
0.65 0.41 0.55 0.32 0.32 0.57 0.56 0.49 0.56 0.63 0.77 0.42 0.60 0.79 0.82 0.41 0.09 0.01 0.01 0.01 0.01 0.02 0.02 0.06 0.10 0.11 0.15 0.27 0.27 0.24 0.33 0.47 0.58 0.59 0.47 0.44 0.59 0.51 0.48 0.47 0.36 0.23 0.24 0.17
0.61 0.40 0.71 0.52 0.16 0.19 0.33 0.48 0.49 0.64 0.55 0.47 0.53 0.36 0.47 0.74 0.33 0.08 0.03 0.01 0.05 0.04 0.05 0.12 0.18 0.25 0.28 0.30 0.24 0.23 0.21 0.41 0.55 0.51 0.36 0.44 0.35 0.33 0.31 0.31 0.24 0.22 0.20 0.18
0.60 0.52 0.80 0.98 0.33 0.34 0.52 0.65 0.38 0.46 0.41 0.35 0.20 0.23 0.33 0.56 0.56 0.30 0.16 0.04 0.09 0.10 0.09 0.11 0.18 0.25 0.32 0.42 0.52 0.54 0.42 0.43 0.50 0.50 0.42 0.35 0.29 0.31 0.35 0.27 0.20 0.16 0.21 0.25
0.63 0.89 0.83 0.88 0.29 0.31 0.62 0.60 0.41 0.24 0.17 0.09 0.14 0.16 0.31 0.58 0.68 0.55 0.37 0.16 0.13 0.14 0.13 0.12 0.17 0.20 0.26 0.30 0.26 0.30 0.36 0.33 0.36 0.41 0.35 0.30 0.29 0.28 0.25 0.27 0.22 0.26 0.39 0.41
0.64 0.55 0.50 0.54 0.27 0.45 0.62 0.29 0.35 0.41 0.31 0.12 0.18 0.23 0.41 0.50 0.36 0.49 0.50 0.49 0.30 0.25 0.23 0.16 0.14 0.20 0.23 0.23 0.20 0.19 0.20 0.23 0.24 0.27 0.31 0.31 0.31 0.30 0.35 0.38 0.31 0.39 0.49 0.57
0.35 0.33 0.44 0.36 0.28 0.38 0.21 0.27 0.35 0.70 0.65 0.34 0.30 0.44 0.42 0.32 0.11 0.43 0.55 0.53 0.75 0.57 0.41 0.42 0.32 0.27 0.31 0.29 0.35 0.31 0.24 0.22 0.22 0.22 0.30 0.37 0.41 0.39 0.45 0.54 0.59 0.57 0.47 0.37
0.10 0.26 0.48 0.33 0.29 0.26 0.15 0.11 0.26 0.50 1.11 0.96 0.73 0.50 0.42 0.32 0.29 0.61 0.64 0.53 0.62 0.93 0.74 0.53 0.51 0.34 0.45 0.51 0.47 0.70 0.49 0.36 0.35 0.36 0.34 0.34 0.49 0.68 0.81 0.69 0.48 0.38 0.35 0.30
0.09 0.20 0.30 0.35 0.36 0.11 0.04 0.06 0.19 0.95 1.10 1.06 1.29 0.84 0.74 0.65 0.65 0.80 0.79 0.65 0.60 0.80 1.17 0.84 0.73 0.59 0.62 0.81 0.62 0.72 1.18 1.01 0.86 0.81 0.76 0.76 0.76 0.74 0.66 0.69 0.57 0.44 0.46 0.40
0.27 0.40 0.33 0.35 0.42 0.20 0.13 0.28 0.65 0.98 1.02 1.04 1.17 1.26 1.41 1.37 1.24 1.06 0.83 0.63 0.52 0.49 0.72 1.15 0.96 0.91 0.79 0.90 0.99 0.84 1.07 1.67 1.57 1.28 1.20 1.11 0.92 0.83 0.80 0.79 0.81 0.71 0.58 0.46
0.34 0.28 0.31 0.31 0.37 0.40 0.20 0.33 0.63 0.71 0.77 0.79 0.84 0.90 1.02 1.03 0.95 0.79 0.52 0.36 0.35 0.42 0.46 0.55 0.92 0.98 0.84 0.73 0.92 1.01 1.14 1.27 1.42 1.47 1.41 1.42 1.32 1.23 1.14 1.06 1.02 0.89 0.78 0.71
0.60 0.28 0.45 0.56 0.72 0.30 0.20 0.25 0.33 0.42 0.59 0.53 0.51 0.49 0.48 0.50 0.55 0.53 0.39 0.28 0.22 0.22 0.24 0.28 0.37 0.62 0.80 0.83 0.66 0.71 0.80 0.88 1.00 1.02 1.08 1.23 1.28 1.28 1.19 1.10 1.11 1.07 1.03 1.05
0.91 0.48 0.56 0.85 1.49 0.74 0.62 0.72 0.67 0.47 0.47 0.40 0.42 0.38 0.34 0.30 0.32 0.33 0.33 0.29 0.27 0.26 0.28 0.30 0.26 0.23 0.29 0.37 0.50 0.57 0.58 0.55 0.54 0.58 0.65 0.66 0.69 0.76 0.78 0.80 0.84 0.78 0.92 0.90
0.69 0.91 0.87 1.02 1.27 1.08 0.92 0.68 0.52 0.37 0.33 0.26 0.19 0.16 0.15 0.15 0.16 0.13 0.11 0.10 0.11 0.19 0.19 0.11 0.09 0.09 0.12 0.13 0.15 0.16 0.20 0.27 0.34 0.40 0.45 0.55 0.58 0.57 0.59 0.64 0.76 0.86 0.87 0.79

GFSCGP_prec_precacc_108.txt.gz
Total_Precipitation_Accumulation
0.00 0.00 0.00 0.00 0.00 0.00 0.00 0.00 0.00 0.00 0.00 0.00 0.00 0.00 0.02 0.14 0.04 0.02 0.03 0.01 0.01 0.00 0.01 0.04 0.07 0.08 0.06 0.12 0.37 0.48 0.71 0.88 0.60 0.38 0.33 0.37 0.42 0.50 0.78 0.77 0.49 0.53 0.68 0.50
0.02 0.01 0.00 0.00 0.00 0.00 0.00 0.00 0.00 0.00 0.00 0.00 0.00 0.00 0.00 0.02 0.00 0.00 0.00 0.00 0.00 0.00 0.00 0.01 0.03 0.05 0.08 0.16 0.38 0.47 0.32 0.27 0.28 0.28 0.16 0.12 0.17 0.29 0.63 0.92 0.60 0.62 0.69 0.59
0.03 0.02 0.00 0.00 0.00 0.00 0.00 0.00 0.00 0.00 0.00 0.00 0.00 0.00 0.00 0.00 0.02 0.07 0.01 0.00 0.00 0.00 0.02 0.02 0.04 0.04 0.06 0.08 0.12 0.24 0.13 0.07 0.07 0.10 0.13 0.11 0.15 0.32 1.01 1.32 0.98 0.70 0.69 0.61
0.09 0.00 0.01 0.01 0.00 0.00 0.00 0.00 0.00 0.00 0.00 0.00 0.00 0.01 0.02 0.01 0.02 0.06 0.01 0.01 0.00 0.00 0.00 0.00 0.00 0.00 0.03 0.03 0.05 0.23 0.13 0.06 0.05 0.05 0.05 0.07 0.11 0.15 0.50 1.03 0.94 0.73 0.90 0.76
0.10 0.01 0.01 0.00 0.00 0.00 0.01 0.00 0.00 0.00 0.00 0.05 0.02 0.01 0.03 0.02 0.00 0.02 0.01 0.00 0.00 0.00 0.01 0.01 0.01 0.00 0.00 0.06 0.08 0.20 0.16 0.16 0.08 0.11 0.15 0.26 0.20 0.14 0.23 0.89 1.22 0.96 0.96 1.01
0.01 0.01 0.05 0.02 0.00 0.00 0.00 0.02 0.04 0.03 0.04 0.07 0.01 0.02 0.04 0.03 0.02 0.06 0.07 0.04 0.02 0.02 0.03 0.04 0.02 0.01 0.01 0.02 0.11 0.19 0.15 0.21 0.23 0.27 0.22 0.22 0.29 0.18 0.18 0.51 1.06 1.33 1.15 1.12
0.03 0.04 0.03 0.00 0.01 0.01 0.01 0.12 0.26 0.27 0.11 0.05 0.03 0.04 0.06 0.06 0.17 0.31 0.30 0.24 0.13 0.10 0.09 0.08 0.06 0.06 0.06 0.03 0.16 0.18 0.16 0.20 0.23 0.30 0.16 0.19 0.31 0.38 0.40 0.43 0.78 1.26 1.54 1.35
0.17 0.12 0.03 0.06 0.04 0.05 0.05 0.18 0.28 0.35 0.16 0.07 0.04 0.04 0.05 0.12 0.20 0.37 0.60 0.45 0.36 0.23 0.11 0.15 0.15 0.13 0.15 0.13 0.16 0.28 0.25 0.33 0.27 0.19 0.24 0.31 0.37 0.44 0.54 0.46 0.66 1.18 1.07 0.88
0.16 0.09 0.03 0.04 0.04 0.12 0.22 0.18 0.09 0.37 0.27 0.27 0.10 0.04 0.12 0.23 0.33 0.29 0.42 0.40 0.33 0.28 0.18 0.18 0.19 0.19 0.20 0.21 0.20 0.22 0.17 0.35 0.38 0.37 0.44 0.38 0.31 0.28 0.33 0.39 0.35 0.60 0.78 0.81
0.25 0.42 0.09 0.05 0.13 0.15 0.22 0.22 0.44 0.58 0.54 0.33 0.21 0.30 0.98 0.98 0.66 0.94 0.82 0.47 0.32 0.24 0.21 0.19 0.22 0.27 0.24 0.26 0.28 0.34 0.17 0.10 0.25 0.41 0.42 0.31 0.37 0.42 0.28 0.27 0.28 0.41 0.68 0.74
0.11 0.29 0.20 0.22 0.25 0.16 0.22 0.41 0.50 0.46 0.18 0.27 0.53 1.33 1.39 1.72 1.11 0.82 0.45 0.33 0.34 0.21 0.21 0.31 0.28 0.27 0.29 0.19 0.27 0.36 0.36 0.43 0.50 0.47 0.31 0.29 0.43 0.66 0.57 0.47 0.43 0.42 0.59 0.83
0.11 0.43 0.24 0.16 0.08 0.04 0.18 0.27 0.46 0.69 0.34 0.19 0.41 1.33 1.32 1.20 1.09 0.55 0.09 0.01 0.05 0.13 0.11 0.20 0.23 0.11 0.15 0.15 0.19 0.34 0.51 0.61 0.68 0.62 0.55 0.73 0.88 1.03 0.94 0.79 0.91 0.64 0.37 0.34
0.36 0.41 0.45 0.38 0.30 0.18 0.35 0.45 0.39 0.67 0.70 0.59 0.80 1.38 1.38 0.84 0.29 0.04 0.02 0.01 0.01 0.07 0.05 0.04 0.05 0.06 0.08 0.12 0.17 0.24 0.33 0.49 0.74 0.88 0.93 0.90 0.87 0.95 1.09 0.93 0.68 0.50 0.35 0.31
0.65 0.41 0.55 0.32 0.32 0.57 0.58 0.53 0.62 0.70 0.82 0.47 0.66 0.88 0.94 0.51 0.10 0.02 0.01 0.02 0.03 0.02 0.04 0.07 0.10 0.11 0.15 0.27 0.30 0.26 0.34 0.50 0.62 0.66 0.59 0.53 0.71 0.62 0.60 0.61 0.51 0.35 0.31 0.21
0.61 0.41 0.71 0.52 0.16 0.24 0.47 0.58 0.56 0.82 0.61 0.52 0.59 0.44 0.56 0.79 0.34 0.10 0.06 0.03 0.07 0.04 0.06 0.12 0.19 0.26 0.28 0.30 0.24 0.23 0.21 0.42 0.56 0.56 0.42 0.55 0.47 0.55 0.53 0.51 0.35 0.30 0.24 0.19
0.63 0.55 0.84 1.01 0.35 0.44 0.58 0.72 0.40 0.55 0.49 0.43 0.27 0.27 0.35 0.58 0.58 0.31 0.17 0.05 0.10 0.11 0.09 0.11 0.18 0.26 0.33 0.43 0.52 0.55 0.42 0.44 0.50 0.59 0.61 0.48 0.53 0.42 0.45 0.38 0.25 0.23 0.22 0.26
0.70 1.03 0.94 1.00 0.30 0.32 0.63 0.64 0.47 0.28 0.20 0.12 0.16 0.17 0.32 0.58 0.68 0.57 0.38 0.17 0.16 0.17 0.15 0.13 0.18 0.22 0.29 0.31 0.26 0.31 0.36 0.34 0.36 0.69 0.82 0.62 0.72 0.53 0.31 0.30 0.24 0.27 0.40 0.43
0.82 0.72 0.63 0.65 0.30 0.46 0.63 0.32 0.37 0.43 0.31 0.13 0.18 0.24 0.42 0.51 0.38 0.52 0.52 0.52 0.32 0.27 0.25 0.18 0.16 0.22 0.25 0.24 0.21 0.19 0.20 0.24 0.24 0.28 0.41 0.59 0.65 0.54 0.44 0.40 0.33 0.40 0.51 0.60
0.52 0.49 0.59 0.49 0.32 0.40 0.23 0.28 0.35 0.72 0.66 0.35 0.30 0.45 0.43 0.32 0.13 0.44 0.57 0.56 0.79 0.61 0.45 0.47 0.35 0.30 0.32 0.30 0.36 0.31 0.24 0.22 0.22 0.22 0.30 0.40 0.49 0.55 0.55 0.59 0.62 0.62 0.51 0.40
0.14 0.37 0.58 0.35 0.30 0.26 0.16 0.11 0.26 0.51 1.12 0.96 0.73 0.50 0.42 0.33 0.31 0.62 0.66 0.56 0.65 0.95 0.77 0.56 0.53 0.35 0.46 0.52 0.48 0.70 0.49 0.36 0.36 0.37 0.36 0.35 0.50 0.69 0.84 0.75 0.56 0.45 0.41 0.38
0.16 0.34 0.34 0.36 0.36 0.12 0.04 0.06 0.20 0.96 1.10 1.06 1.29 0.84 0.74 0.66 0.66 0.81 0.81 0.66 0.62 0.82 1.19 0.85 0.74 0.60 0.62 0.82 0.62 0.72 1.18 1.03 0.87 0.81 0.77 0.77 0.77 0.75 0.68 0.72 0.66 0.65 0.69 0.61
0.29 0.47 0.36 0.35 0.42 0.20 0.13 0.28 0.65 0.98 1.02 1.04 1.17 1.26 1.41 1.38 1.25 1.07 0.85 0.64 0.53 0.50 0.73 1.15 0.97 0.91 0.80 0.91 1.00 0.84 1.08 1.69 1.57 1.28 1.20 1.12 0.93 0.83 0.81 0.81 0.85 0.78 0.75 0.74
0.35 0.29 0.31 0.31 0.37 0.41 0.20 0.35 0.64 0.71 0.78 0.79 0.84 0.90 1.02 1.03 0.95 0.79 0.53 0.37 0.35 0.43 0.46 0.55 0.92 0.98 0.84 0.74 0.92 1.02 1.14 1.27 1.42 1.47 1.41 1.42 1.32 1.23 1.14 1.06 1.04 0.93 0.84 0.79
0.61 0.28 0.46 0.57 0.74 0.31 0.20 0.26 0.33 0.42 0.59 0.53 0.51 0.49 0.48 0.50 0.55 0.54 0.40 0.28 0.23 0.22 0.24 0.28 0.37 0.62 0.80 0.83 0.66 0.71 0.80 0.88 1.00 1.02 1.08 1.23 1.28 1.28 1.19 1.10 1.11 1.08 1.06 1.10
0.92 0.48 0.56 0.86 1.50 0.75 0.63 0.72 0.67 0.48 0.48 0.40 0.42 0.39 0.35 0.31 0.33 0.33 0.33 0.29 0.27 0.26 0.28 0.30 0.26 0.23 0.29 0.37 0.50 0.57 0.58 0.55 0.54 0.58 0.65 0.66 0.69 0.76 0.79 0.80 0.85 0.79 0.96 0.93
0.69 0.91 0.88 1.03 1.27 1.08 0.93 0.68 0.52 0.37 0.33 0.26 0.19 0.17 0.16 0.16 0.16 0.13 0.11 0.10 0.11 0.19 0.19 0.11 0.09 0.09 0.12 0.13 0.15 0.16 0.20 0.27 0.34 0.40 0.45 0.55 0.58 0.57 0.59 0.64 0.76 0.86 0.88 0.81

GFSCGP_prec_precacc_111.txt.gz
Total_Precipitation_Accumulation
0.00 0.00 0.00 0.00 0.00 0.00 0.00 0.00 0.00 0.00 0.00 0.00 0.00 0.00 0.02 0.14 0.04 0.02 0.03 0.01 0.01 0.00 0.01 0.04 0.07 0.08 0.06 0.12 0.37 0.48 0.71 0.88 0.60 0.38 0.33 0.37 0.42 0.50 0.78 0.77 0.49 0.53 0.68 0.50
0.02 0.01 0.00 0.00 0.00 0.00 0.00 0.00 0.00 0.00 0.00 0.00 0.00 0.00 0.00 0.02 0.00 0.00 0.00 0.00 0.00 0.00 0.00 0.01 0.03 0.05 0.08 0.16 0.38 0.47 0.32 0.27 0.28 0.28 0.16 0.12 0.17 0.29 0.63 0.92 0.60 0.63 0.69 0.59
0.03 0.02 0.00 0.00 0.00 0.00 0.00 0.00 0.00 0.00 0.00 0.00 0.00 0.00 0.00 0.00 0.02 0.07 0.01 0.00 0.00 0.00 0.02 0.02 0.04 0.04 0.06 0.08 0.12 0.24 0.13 0.07 0.07 0.10 0.13 0.11 0.16 0.32 1.03 1.32 0.98 0.70 0.69 0.61
0.09 0.00 0.01 0.01 0.00 0.00 0.00 0.00 0.00 0.00 0.00 0.00 0.00 0.01 0.02 0.01 0.02 0.06 0.01 0.01 0.00 0.00 0.00 0.00 0.00 0.00 0.03 0.03 0.05 0.23 0.13 0.06 0.05 0.05 0.05 0.07 0.11 0.16 0.50 1.03 0.94 0.73 0.92 0.77
0.10 0.01 0.01 0.00 0.00 0.00 0.01 0.00 0.00 0.00 0.00 0.05 0.02 0.01 0.03 0.02 0.00 0.02 0.01 0.00 0.00 0.00 0.01 0.01 0.01 0.00 0.00 0.06 0.08 0.20 0.16 0.16 0.08 0.11 0.15 0.26 0.20 0.14 0.23 0.89 1.22 0.97 0.96 1.03
0.01 0.01 0.05 0.02 0.00 0.00 0.00 0.02 0.04 0.03 0.04 0.07 0.01 0.02 0.04 0.03 0.02 0.06 0.08 0.05 0.02 0.02 0.03 0.04 0.02 0.02 0.02 0.02 0.11 0.19 0.15 0.21 0.23 0.27 0.22 0.22 0.29 0.18 0.18 0.51 1.06 1.34 1.17 1.18
0.03 0.04 0.03 0.00 0.01 0.01 0.01 0.12 0.26 0.27 0.11 0.05 0.03 0.04 0.06 0.07 0.18 0.31 0.31 0.26 0.14 0.11 0.10 0.09 0.06 0.06 0.07 0.05 0.17 0.19 0.16 0.20 0.23 0.30 0.16 0.19 0.31 0.39 0.40 0.43 0.78 1.26 1.55 1.37
0.17 0.12 0.03 0.06 0.04 0.05 0.05 0.18 0.28 0.35 0.16 0.07 0.04 0.04 0.05 0.13 0.20 0.37 0.61 0.47 0.38 0.24 0.11 0.16 0.16 0.18 0.21 0.19 0.21 0.32 0.28 0.35 0.27 0.19 0.25 0.31 0.37 0.44 0.54 0.46 0.66 1.18 1.08 0.91
0.16 0.09 0.03 0.04 0.04 0.12 0.22 0.18 0.09 0.37 0.27 0.27 0.10 0.04 0.12 0.23 0.33 0.30 0.43 0.43 0.38 0.32 0.20 0.19 0.20 0.24 0.28 0.29 0.27 0.28 0.24 0.44 0.44 0.41 0.46 0.40 0.32 0.29 0.34 0.40 0.36 0.60 0.78 0.85
0.25 0.42 0.09 0.05 0.13 0.15 0.22 0.22 0.44 0.59 0.54 0.34 0.21 0.30 0.98 0.98 0.66 0.94 0.83 0.49 0.35 0.31 0.30 0.26 0.25 0.29 0.30 0.32 0.31 0.40 0.25 0.19 0.31 0.50 0.50 0.35 0.40 0.47 0.32 0.28 0.28 0.41 0.68 0.75
0.11 0.29 0.20 0.22 0.25 0.16 0.22 0.41 0.51 0.48 0.18 0.28 0.53 1.33 1.40 1.72 1.11 0.84 0.47 0.37 0.40 0.30 0.36 0.49 0.52 0.40 0.47 0.42 0.40 0.38 0.39 0.50 0.61 0.58 0.41 0.37 0.48 0.71 0.62 0.50 0.44 0.43 0.61 0.85
0.11 0.43 0.24 0.16 0.08 0.04 0.18 0.27 0.49 0.73 0.38 0.24 0.45 1.35 1.32 1.21 1.12 0.56 0.10 0.03 0.08 0.23 0.24 0.35 0.75 0.62 0.54 0.43 0.43 0.43 0.56 0.67 0.76 0.73 0.63 0.80 0.93 1.08 1.01 0.86 0.96 0.67 0.41 0.38
0.36 0.41 0.45 0.39 0.31 0.18 0.35 0.45 0.43 0.74 0.77 0.63 0.87 1.41 1.38 0.86 0.31 0.05 0.02 0.02 0.01 0.08 0.09 0.10 0.20 0.25 0.29 0.20 0.22 0.28 0.36 0.56 0.83 1.03 1.10 1.06 1.02 1.08 1.15 0.99 0.76 0.58 0.45 0.42
0.65 0.41 0.55 0.32 0.32 0.57 0.58 0.53 0.64 0.74 0.86 0.48 0.69 0.90 0.96 0.54 0.11 0.02 0.03 0.03 0.05 0.04 0.08 0.11 0.11 0.12 0.16 0.28 0.38 0.53 0.35 0.55 0.67 0.74 0.70 0.70 0.85 0.81 0.76 0.72 0.58 0.43 0.42 0.34
0.61 0.41 0.71 0.52 0.16 0.25 0.51 0.62 0.60 0.90 0.63 0.55 0.64 0.46 0.59 0.84 0.37 0.11 0.08 0.04 0.08 0.06 0.08 0.15 0.21 0.27 0.29 0.30 0.24 0.25 0.22 0.45 0.68 0.59 0.46 0.62 0.59 0.63 0.62 0.57 0.42 0.37 0.32 0.27
0.64 0.56 0.85 1.01 0.36 0.47 0.62 0.79 0.48 0.68 0.55 0.47 0.33 0.29 0.36 0.59 0.59 0.33 0.18 0.06 0.11 0.14 0.13 0.14 0.20 0.27 0.34 0.44 0.55 0.56 0.42 0.45 0.57 0.65 0.64 0.51 0.66 0.60 0.56 0.53 0.48 0.37 0.40 0.35
0.72 1.07 0.98 1.04 0.31 0.34 0.66 0.69 0.54 0.40 0.23 0.14 0.17 0.18 0.32 0.59 0.70 0.59 0.40 0.19 0.18 0.20 0.19 0.16 0.21 0.24 0.31 0.34 0.29 0.33 0.37 0.38 0.38 0.73 1.03 0.91 0.89 0.99 0.76 0.46 0.44 0.43 0.59 0.56
0.91 0.80 0.68 0.73 0.39 0.51 0.66 0.34 0.38 0.44 0.32 0.13 0.19 0.24 0.42 0.52 0.40 0.55 0.55 0.55 0.35 0.30 0.27 0.20 0.18 0.24 0.28 0.25 0.22 0.20 0.20 0.25 0.27 0.29 0.53 0.89 0.95 1.15 1.18 0.86 0.57 0.66 0.63 0.72
0.67 0.62 0.63 0.58 0.37 0.42 0.25 0.28 0.36 0.72 0.66 0.35 0.31 0.45 0.43 0.33 0.14 0.45 0.58 0.58 0.82 0.64 0.48 0.51 0.39 0.32 0.33 0.31 0.37 0.31 0.24 0.22 0.23 0.23 0.32 0.46 0.74 0.82 0.95 1.09 0.96 0.72 0.57 0.43
0.19 0.49 0.62 0.38 0.31 0.27 0.16 0.11 0.26 0.51 1.12 0.97 0.73 0.50 0.42 0.33 0.32 0.63 0.67 0.58 0.67 0.98 0.78 0.58 0.54 0.35 0.46 0.53 0.48 0.70 0.49 0.36 0.38 0.39 0.37 0.36 0.51 0.74 0.96 1.00 0.86 0.63 0.48 0.45
0.21 0.44 0.39 0.37 0.36 0.12 0.04 0.06 0.20 0.96 1.11 1.07 1.29 0.84 0.74 0.66 0.66 0.82 0.82 0.68 0.63 0.83 1.20 0.85 0.74 0.60 0.63 0.82 0.62 0.72 1.19 1.05 0.89 0.82 0.77 0.77 0.77 0.76 0.70 0.73 0.69 0.70 0.74 0.69
0.36 0.58 0.45 0.37 0.42 0.20 0.14 0.28 0.66 0.98 1.02 1.04 1.17 1.26 1.42 1.38 1.25 1.08 0.86 0.66 0.54 0.50 0.73 1.15 0.97 0.91 0.80 0.91 1.00 0.85 1.09 1.69 1.57 1.28 1.20 1.12 0.93 0.83 0.81 0.81 0.85 0.78 0.75 0.75
0.37 0.35 0.34 0.32 0.37 0.42 0.22 0.35 0.65 0.71 0.78 0.79 0.84 0.90 1.02 1.03 0.96 0.80 0.53 0.37 0.35 0.43 0.46 0.55 0.92 0.98 0.84 0.74 0.92 1.03 1.15 1.27 1.42 1.47 1.41 1.42 1.32 1.23 1.14 1.06 1.04 0.93 0.84 0.79
0.61 0.29 0.46 0.57 0.74 0.31 0.21 0.27 0.33 0.42 0.59 0.53 0.51 0.49 0.48 0.51 0.55 0.54 0.40 0.28 0.23 0.22 0.24 0.28 0.37 0.62 0.80 0.83 0.66 0.71 0.80 0.88 1.00 1.02 1.08 1.23 1.28 1.28 1.20 1.10 1.11 1.08 1.06 1.10
0.92 0.48 0.56 0.86 1.51 0.75 0.63 0.73 0.67 0.48 0.48 0.40 0.42 0.39 0.35 0.31 0.33 0.33 0.33 0.29 0.27 0.26 0.28 0.30 0.26 0.23 0.29 0.37 0.50 0.57 0.58 0.55 0.54 0.58 0.65 0.66 0.69 0.76 0.79 0.80 0.86 0.80 0.98 0.94
0.69 0.91 0.88 1.03 1.27 1.08 0.93 0.69 0.52 0.37 0.33 0.26 0.19 0.17 0.16 0.16 0.16 0.13 0.11 0.10 0.11 0.19 0.19 0.11 0.09 0.09 0.12 0.13 0.15 0.16 0.20 0.27 0.34 0.40 0.45 0.55 0.58 0.57 0.59 0.64 0.76 0.86 0.88 0.81

GFSCGP_prec_precacc_114.txt.gz
Total_Precipitation_Accumulation
0.00 0.00 0.00 0.00 0.00 0.00 0.00 0.00 0.00 0.00 0.00 0.00 0.00 0.00 0.02 0.14 0.04 0.02 0.03 0.01 0.01 0.00 0.01 0.04 0.07 0.08 0.06 0.12 0.37 0.48 0.71 0.88 0.60 0.38 0.33 0.37 0.42 0.50 0.78 0.77 0.49 0.53 0.68 0.50
0.02 0.01 0.00 0.00 0.00 0.00 0.00 0.00 0.00 0.00 0.00 0.00 0.00 0.00 0.00 0.02 0.00 0.00 0.00 0.00 0.00 0.00 0.00 0.01 0.03 0.05 0.08 0.16 0.38 0.47 0.32 0.27 0.28 0.28 0.16 0.12 0.17 0.29 0.63 0.92 0.60 0.63 0.69 0.59
0.03 0.02 0.00 0.00 0.00 0.00 0.00 0.00 0.00 0.00 0.00 0.00 0.00 0.00 0.00 0.00 0.02 0.07 0.01 0.00 0.00 0.00 0.02 0.02 0.04 0.04 0.06 0.08 0.12 0.24 0.13 0.07 0.07 0.10 0.13 0.11 0.16 0.32 1.03 1.33 0.98 0.70 0.69 0.61
0.09 0.00 0.01 0.01 0.00 0.00 0.00 0.00 0.00 0.00 0.00 0.00 0.00 0.01 0.02 0.01 0.02 0.06 0.01 0.01 0.00 0.00 0.00 0.00 0.00 0.00 0.03 0.03 0.05 0.23 0.13 0.06 0.05 0.05 0.05 0.07 0.11 0.16 0.50 1.03 0.94 0.73 0.92 0.77
0.10 0.01 0.01 0.00 0.00 0.00 0.01 0.00 0.00 0.00 0.00 0.05 0.02 0.01 0.03 0.02 0.00 0.02 0.01 0.00 0.00 0.00 0.01 0.01 0.01 0.00 0.00 0.06 0.08 0.20 0.16 0.16 0.08 0.11 0.15 0.26 0.20 0.14 0.23 0.89 1.22 0.97 0.96 1.03
0.01 0.01 0.05 0.02 0.00 0.00 0.00 0.02 0.04 0.03 0.04 0.07 0.01 0.02 0.04 0.03 0.02 0.06 0.08 0.05 0.02 0.02 0.03 0.04 0.02 0.02 0.02 0.02 0.11 0.19 0.15 0.21 0.23 0.27 0.22 0.22 0.29 0.18 0.18 0.51 1.06 1.34 1.17 1.18
0.03 0.04 0.03 0.00 0.01 0.01 0.01 0.12 0.26 0.27 0.11 0.05 0.03 0.04 0.06 0.07 0.18 0.31 0.31 0.26 0.14 0.11 0.10 0.09 0.06 0.06 0.07 0.05 0.17 0.19 0.16 0.20 0.23 0.30 0.16 0.19 0.31 0.39 0.41 0.43 0.79 1.27 1.56 1.37
0.17 0.12 0.03 0.06 0.04 0.05 0.05 0.18 0.28 0.35 0.16 0.07 0.04 0.04 0.05 0.13 0.20 0.37 0.61 0.47 0.38 0.24 0.11 0.16 0.16 0.18 0.21 0.20 0.22 0.34 0.30 0.36 0.28 0.19 0.25 0.31 0.37 0.44 0.54 0.46 0.67 1.18 1.08 0.91
0.16 0.09 0.03 0.04 0.04 0.12 0.22 0.18 0.09 0.37 0.27 0.27 0.10 0.04 0.12 0.23 0.33 0.30 0.43 0.43 0.38 0.32 0.20 0.19 0.20 0.24 0.28 0.30 0.29 0.31 0.28 0.48 0.47 0.42 0.47 0.40 0.33 0.30 0.35 0.40 0.37 0.61 0.79 0.86
0.25 0.42 0.09 0.05 0.13 0.15 0.22 0.22 0.45 0.59 0.54 0.34 0.21 0.30 0.98 0.98 0.66 0.94 0.83 0.49 0.36 0.31 0.30 0.27 0.27 0.31 0.31 0.32 0.34 0.47 0.31 0.24 0.38 0.56 0.55 0.36 0.40 0.49 0.34 0.31 0.30 0.43 0.70 0.76
0.11 0.29 0.20 0.22 0.25 0.16 0.22 0.41 0.51 0.49 0.19 0.29 0.54 1.35 1.41 1.72 1.12 0.85 0.47 0.37 0.40 0.31 0.37 0.52 0.60 0.50 0.54 0.52 0.48 0.47 0.46 0.56 0.68 0.68 0.52 0.44 0.51 0.77 0.67 0.54 0.46 0.46 0.67 0.90
0.11 0.43 0.24 0.16 0.08 0.04 0.18 0.27 0.50 0.75 0.40 0.26 0.47 1.38 1.33 1.21 1.12 0.57 0.10 0.03 0.08 0.24 0.27 0.39 0.89 1.01 0.87 0.82 0.87 0.61 0.68 0.73 0.80 0.80 0.75 0.92 1.04 1.17 1.09 0.93 1.02 0.73 0.50 0.43
0.36 0.41 0.45 0.40 0.34 0.19 0.37 0.46 0.44 0.77 0.80 0.65 0.90 1.43 1.40 0.87 0.33 0.07 0.03 0.02 0.01 0.08 0.11 0.16 0.34 0.52 0.91 0.43 0.63 0.46 0.44 0.65 0.85 1.07 1.22 1.22 1.16 1.17 1.26 1.06 0.81 0.68 0.61 0.54
0.65 0.41 0.55 0.32 0.33 0.57 0.58 0.53 0.65 0.77 0.89 0.49 0.72 0.92 0.98 0.56 0.13 0.03 0.03 0.03 0.05 0.06 0.10 0.15 0.18 0.19 0.24 0.40 0.80 1.29 0.47 0.62 0.71 0.77 0.77 0.84 1.04 0.98 0.90 0.85 0.74 0.57 0.57 0.50
0.62 0.41 0.71 0.52 0.16 0.25 0.52 0.62 0.61 0.90 0.64 0.58 0.66 0.49 0.64 0.88 0.42 0.12 0.09 0.05 0.09 0.07 0.09 0.16 0.25 0.32 0.34 0.34 0.27 0.36 0.28 0.62 1.11 0.66 0.54 0.68 0.70 0.76 0.78 0.75 0.54 0.47 0.40 0.34
0.64 0.56 0.85 1.01 0.36 0.47 0.64 0.79 0.51 0.71 0.60 0.52 0.36 0.33 0.40 0.59 0.60 0.33 0.19 0.08 0.12 0.15 0.15 0.17 0.24 0.30 0.37 0.48 0.60 0.59 0.45 0.51 0.76 0.97 0.86 0.57 0.82 0.82 0.66 0.67 0.58 0.44 0.46 0.41
0.75 1.09 0.99 1.05 0.32 0.35 0.68 0.71 0.59 0.46 0.27 0.18 0.20 0.20 0.33 0.60 0.70 0.61 0.42 0.21 0.20 0.22 0.21 0.18 0.24 0.27 0.34 0.37 0.32 0.36 0.42 0.46 0.44 0.80 1.37 1.11 1.04 1.42 1.04 0.70 0.73 0.58 0.68 0.66
0.94 0.83 0.70 0.74 0.43 0.55 0.68 0.36 0.39 0.46 0.34 0.15 0.19 0.24 0.42 0.52 0.41 0.57 0.56 0.56 0.36 0.32 0.29 0.21 0.20 0.26 0.29 0.26 0.22 0.20 0.20 0.28 0.35 0.32 0.67 1.18 1.19 1.40 1.61 1.39 0.99 1.02 0.92 0.95
0.73 0.67 0.65 0.61 0.40 0.44 0.28 0.30 0.37 0.74 0.67 0.36 0.31 0.46 0.43 0.33 0.15 0.46 0.59 0.60 0.84 0.66 0.50 0.53 0.41 0.33 0.33 0.31 0.37 0.31 0.24 0.22 0.23 0.24 0.37 0.54 0.93 1.12 1.26 1.50 1.54 1.17 1.00 0.77
0.25 0.53 0.66 0.40 0.31 0.28 0.16 0.11 0.26 0.51 1.13 0.97 0.73 0.50 0.43 0.34 0.33 0.65 0.69 0.59 0.68 0.98 0.79 0.59 0.55 0.35 0.46 0.53 0.48 0.70 0.49 0.37 0.38 0.40 0.38 0.36 0.51 0.76 1.05 1.25 1.23 1.14 0.88 0.74
0.24 0.49 0.43 0.41 0.38 0.12 0.04 0.06 0.20 0.97 1.11 1.07 1.29 0.85 0.74 0.67 0.67 0.83 0.83 0.68 0.63 0.84 1.20 0.85 0.74 0.60 0.63 0.83 0.62 0.73 1.19 1.06 0.89 0.82 0.77 0.77 0.77 0.76 0.70 0.74 0.70 0.73 0.83 0.79
0.38 0.60 0.46 0.39 0.43 0.20 0.14 0.28 0.66 0.99 1.03 1.04 1.17 1.26 1.42 1.38 1.25 1.08 0.86 0.66 0.54 0.51 0.73 1.15 0.97 0.91 0.80 0.91 1.00 0.85 1.09 1.69 1.57 1.28 1.20 1.12 0.93 0.83 0.81 0.81 0.85 0.78 0.76 0.75
0.41 0.39 0.36 0.33 0.38 0.42 0.22 0.36 0.65 0.71 0.78 0.79 0.84 0.90 1.02 1.03 0.96 0.80 0.53 0.37 0.35 0.43 0.46 0.55 0.92 0.98 0.84 0.74 0.93 1.03 1.15 1.27 1.42 1.47 1.41 1.42 1.32 1.23 1.14 1.06 1.04 0.93 0.84 0.79
0.63 0.32 0.48 0.58 0.75 0.32 0.21 0.27 0.33 0.42 0.59 0.53 0.51 0.49 0.48 0.51 0.55 0.54 0.40 0.28 0.23 0.22 0.24 0.28 0.37 0.62 0.80 0.83 0.66 0.71 0.81 0.88 1.00 1.02 1.08 1.23 1.28 1.28 1.20 1.11 1.12 1.08 1.07 1.10
0.92 0.49 0.57 0.87 1.51 0.76 0.64 0.73 0.67 0.48 0.48 0.40 0.42 0.39 0.35 0.31 0.33 0.33 0.33 0.29 0.27 0.26 0.28 0.30 0.26 0.23 0.29 0.37 0.50 0.57 0.58 0.55 0.54 0.58 0.65 0.66 0.69 0.76 0.79 0.80 0.86 0.81 0.99 0.95
0.70 0.91 0.88 1.03 1.27 1.08 0.93 0.69 0.53 0.38 0.34 0.26 0.19 0.17 0.16 0.16 0.16 0.13 0.11 0.10 0.11 0.19 0.19 0.11 0.09 0.09 0.12 0.13 0.15 0.16 0.20 0.27 0.34 0.40 0.45 0.55 0.58 0.57 0.59 0.64 0.76 0.86 0.88 0.81

GFSCGP_prec_precacc_120.txt.gz
Total_Precipitation_Accumulation
0.00 0.00 0.00 0.00 0.00 0.00 0.00 0.00 0.00 0.00 0.00 0.00 0.00 0.00 0.02 0.14 0.04 0.02 0.03 0.01 0.01 0.00 0.01 0.04 0.07 0.08 0.06 0.12 0.37 0.48 0.71 0.88 0.60 0.38 0.33 0.37 0.42 0.50 0.78 0.77 0.49 0.55 0.68 0.50
0.02 0.01 0.00 0.00 0.00 0.00 0.00 0.00 0.00 0.00 0.00 0.00 0.00 0.00 0.00 0.02 0.00 0.00 0.00 0.00 0.00 0.00 0.00 0.01 0.03 0.05 0.08 0.16 0.38 0.47 0.32 0.27 0.28 0.28 0.16 0.12 0.17 0.29 0.63 0.92 0.61 0.63 0.70 0.60
0.03 0.02 0.00 0.00 0.00 0.00 0.00 0.00 0.00 0.00 0.00 0.00 0.00 0.00 0.00 0.00 0.02 0.07 0.01 0.00 0.00 0.00 0.02 0.02 0.04 0.04 0.06 0.08 0.12 0.24 0.13 0.07 0.07 0.10 0.13 0.11 0.16 0.32 1.03 1.33 0.99 0.70 0.70 0.65
0.09 0.00 0.01 0.01 0.00 0.00 0.00 0.00 0.00 0.00 0.00 0.00 0.00 0.01 0.02 0.01 0.02 0.06 0.01 0.01 0.00 0.00 0.00 0.00 0.00 0.00 0.03 0.03 0.05 0.23 0.13 0.06 0.05 0.05 0.05 0.07 0.11 0.16 0.50 1.03 0.94 0.73 0.93 0.80
0.10 0.01 0.01 0.00 0.00 0.00 0.01 0.00 0.00 0.00 0.00 0.05 0.02 0.01 0.03 0.02 0.00 0.02 0.01 0.00 0.00 0.00 0.01 0.01 0.01 0.00 0.00 0.06 0.08 0.20 0.16 0.16 0.08 0.11 0.15 0.26 0.20 0.14 0.23 0.89 1.22 0.98 0.98 1.10
0.01 0.01 0.05 0.02 0.00 0.00 0.00 0.02 0.04 0.03 0.04 0.07 0.01 0.02 0.04 0.03 0.02 0.06 0.08 0.05 0.02 0.02 0.03 0.04 0.02 0.02 0.02 0.02 0.11 0.19 0.15 0.21 0.23 0.27 0.22 0.22 0.29 0.18 0.18 0.51 1.07 1.37 1.22 1.23
0.03 0.04 0.03 0.00 0.01 0.01 0.01 0.12 0.26 0.27 0.11 0.05 0.03 0.04 0.06 0.07 0.18 0.31 0.31 0.26 0.14 0.11 0.10 0.09 0.06 0.06 0.07 0.05 0.17 0.19 0.16 0.20 0.23 0.30 0.16 0.19 0.31 0.39 0.41 0.43 0.79 1.30 1.62 1.44
0.17 0.12 0.03 0.06 0.04 0.05 0.05 0.18 0.28 0.35 0.16 0.07 0.04 0.04 0.05 0.13 0.20 0.37 0.61 0.47 0.38 0.24 0.11 0.16 0.16 0.18 0.21 0.20 0.22 0.34 0.30 0.36 0.28 0.19 0.25 0.31 0.37 0.45 0.54 0.46 0.67 1.19 1.12 0.95
0.16 0.09 0.03 0.04 0.04 0.12 0.22 0.18 0.09 0.37 0.27 0.27 0.10 0.04 0.12 0.23 0.33 0.30 0.43 0.43 0.38 0.32 0.20 0.19 0.21 0.24 0.28 0.30 0.29 0.31 0.29 0.48 0.47 0.42 0.47 0.40 0.33 0.30 0.35 0.40 0.39 0.62 0.81 0.94
0.25 0.42 0.09 0.05 0.13 0.15 0.22 0.22 0.45 0.60 0.55 0.34 0.21 0.31 0.99 0.98 0.66 0.94 0.83 0.49 0.36 0.31 0.30 0.27 0.27 0.31 0.32 0.33 0.35 0.47 0.32 0.26 0.39 0.57 0.56 0.36 0.41 0.49 0.34 0.32 0.33 0.48 0.76 0.88
0.11 0.29 0.20 0.22 0.25 0.16 0.22 0.41 0.51 0.50 0.20 0.31 0.56 1.40 1.44 1.74 1.12 0.85 0.47 0.37 0.40 0.31 0.37 0.53 0.61 0.51 0.57 0.55 0.50 0.48 0.51 0.61 0.70 0.69 0.54 0.47 0.53 0.79 0.72 0.62 0.53 0.54 0.86 1.12
0.11 0.43 0.24 0.16 0.08 0.04 0.18 0.27 0.50 0.77 0.43 0.32 0.53 1.43 1.34 1.21 1.12 0.57 0.10 0.03 0.08 0.24 0.27 0.40 0.94 1.07 0.99 0.96 0.98 0.70 0.80 0.94 1.04 0.91 0.80 1.00 1.16 1.25 1.20 1.16 1.28 1.04 0.81 0.80
0.36 0.41 0.45 0.40 0.37 0.22 0.40 0.47 0.44 0.78 0.85 0.69 0.99 1.51 1.41 0.87 0.33 0.07 0.03 0.02 0.02 0.09 0.12 0.18 0.39 0.65 1.14 0.62 0.90 0.78 0.82 1.07 1.31 1.34 1.33 1.37 1.33 1.35 1.40 1.35 1.20 1.06 1.11 1.18
0.66 0.41 0.55 0.33 0.40 0.63 0.64 0.57 0.67 0.79 0.92 0.52 0.78 1.04 1.01 0.58 0.15 0.05 0.05 0.05 0.07 0.09 0.15 0.19 0.24 0.28 0.35 0.54 1.11 1.85 0.86 1.06 1.33 1.34 1.00 0.97 1.20 1.15 1.14 1.06 0.95 0.88 0.94 0.93
0.62 0.42 0.71 0.52 0.16 0.25 0.52 0.63 0.62 0.92 0.66 0.63 0.68 0.52 0.67 0.92 0.46 0.17 0.14 0.09 0.13 0.14 0.15 0.23 0.32 0.40 0.42 0.44 0.43 0.58 0.54 1.08 1.62 1.47 1.20 1.01 0.89 0.89 1.00 1.00 0.80 0.70 0.83 0.85
0.65 0.57 0.86 1.01 0.36 0.47 0.65 0.80 0.52 0.73 0.61 0.56 0.39 0.37 0.43 0.62 0.63 0.37 0.24 0.15 0.19 0.21 0.22 0.22 0.29 0.34 0.41 0.53 0.68 0.67 0.58 0.78 1.05 1.38 1.61 1.10 1.36 1.05 0.74 0.79 0.78 0.70 0.74 0.72
0.77 1.10 1.02 1.09 0.34 0.37 0.71 0.72 0.61 0.50 0.29 0.22 0.29 0.24 0.37 0.63 0.73 0.65 0.46 0.26 0.27 0.26 0.24 0.20 0.26 0.30 0.37 0.40 0.33 0.39 0.49 0.60 0.62 0.98 1.83 1.81 1.80 2.46 1.55 0.90 1.01 0.79 0.88 0.86
0.96 0.87 0.76 0.79 0.46 0.61 0.71 0.37 0.41 0.49 0.36 0.16 0.21 0.27 0.44 0.53 0.43 0.60 0.59 0.60 0.39 0.33 0.29 0.22 0.20 0.26 0.30 0.26 0.22 0.20 0.20 0.29 0.38 0.36 0.76 1.39 1.42 2.01 2.73 2.01 1.69 1.70 1.41 1.28
0.74 0.71 0.73 0.66 0.46 0.49 0.29 0.31 0.38 0.77 0.70 0.36 0.31 0.46 0.44 0.34 0.16 0.47 0.60 0.60 0.85 0.66 0.50 0.54 0.41 0.33 0.33 0.32 0.37 0.31 0.24 0.22 0.23 0.24 0.37 0.55 0.96 1.26 1.65 2.20 2.43 2.29 2.12 1.81
0.27 0.57 0.77 0.45 0.42 0.41 0.19 0.11 0.26 0.51 1.16 0.97 0.73 0.50 0.43 0.34 0.38 0.67 0.69 0.60 0.69 0.99 0.79 0.59 0.55 0.35 0.47 0.54 0.48 0.70 0.49 0.37 0.39 0.40 0.38 0.36 0.51 0.76 1.06 1.32 1.45 1.49 1.44 1.50
0.31 0.57 0.51 0.42 0.45 0.19 0.04 0.06 0.20 1.00 1.17 1.07 1.29 0.85 0.74 0.67 0.69 0.83 0.83 0.69 0.63 0.84 1.20 0.85 0.74 0.60 0.64 0.83 0.62 0.73 1.19 1.06 0.89 0.82 0.77 0.77 0.77 0.76 0.71 0.74 0.71 0.74 0.85 0.84
0.42 0.66 0.53 0.43 0.50 0.26 0.14 0.28 0.67 1.00 1.03 1.04 1.18 1.26 1.42 1.38 1.26 1.08 0.86 0.66 0.54 0.51 0.73 1.15 0.97 0.91 0.80 0.91 1.00 0.85 1.09 1.69 1.57 1.28 1.20 1.12 0.93 0.84 0.82 0.81 0.86 0.78 0.76 0.75
0.43 0.41 0.45 0.38 0.42 0.42 0.23 0.36 0.65 0.71 0.78 0.79 0.84 0.90 1.02 1.03 0.96 0.80 0.53 0.37 0.35 0.43 0.46 0.55 0.92 0.98 0.84 0.74 0.93 1.03 1.15 1.27 1.42 1.47 1.41 1.42 1.32 1.23 1.14 1.06 1.04 0.93 0.84 0.80
0.63 0.33 0.49 0.59 0.76 0.32 0.22 0.27 0.33 0.42 0.59 0.53 0.51 0.49 0.48 0.51 0.56 0.54 0.40 0.28 0.23 0.22 0.24 0.28 0.37 0.62 0.80 0.83 0.66 0.71 0.81 0.88 1.00 1.02 1.08 1.23 1.28 1.28 1.20 1.11 1.12 1.08 1.07 1.11
0.92 0.50 0.59 0.89 1.52 0.76 0.65 0.74 0.68 0.48 0.48 0.40 0.42 0.39 0.35 0.31 0.33 0.33 0.33 0.29 0.27 0.26 0.28 0.30 0.26 0.23 0.29 0.37 0.50 0.57 0.58 0.55 0.54 0.58 0.65 0.66 0.69 0.76 0.79 0.81 0.86 0.81 0.99 0.95
0.70 0.92 0.88 1.04 1.27 1.09 0.94 0.70 0.53 0.38 0.34 0.26 0.19 0.17 0.16 0.16 0.16 0.13 0.11 0.10 0.11 0.19 0.19 0.11 0.09 0.09 0.12 0.13 0.15 0.16 0.20 0.27 0.34 0.40 0.45 0.55 0.58 0.57 0.59 0.64 0.76 0.86 0.88 0.81

GFSCGP_prec_precacc_123.txt.gz
Total_Precipitation_Accumulation
0.00 0.00 0.00 0.00 0.00 0.00 0.00 0.00 0.00 0.00 0.00 0.00 0.00 0.00 0.02 0.14 0.04 0.02 0.03 0.01 0.01 0.00 0.01 0.04 0.07 0.08 0.06 0.12 0.37 0.48 0.71 0.88 0.60 0.38 0.33 0.37 0.42 0.50 0.83 0.84 0.54 0.74 0.88 0.73
0.02 0.01 0.00 0.00 0.00 0.00 0.00 0.00 0.00 0.00 0.00 0.00 0.00 0.00 0.00 0.02 0.00 0.00 0.00 0.00 0.00 0.00 0.00 0.01 0.03 0.05 0.08 0.16 0.38 0.47 0.32 0.27 0.28 0.28 0.16 0.12 0.17 0.29 0.63 0.95 0.69 0.72 0.78 0.70
0.03 0.02 0.00 0.00 0.00 0.00 0.00 0.00 0.00 0.00 0.00 0.00 0.00 0.00 0.00 0.00 0.02 0.07 0.01 0.00 0.00 0.00 0.02 0.02 0.04 0.04 0.06 0.08 0.12 0.24 0.13 0.07 0.07 0.10 0.13 0.11 0.16 0.32 1.03 1.33 1.00 0.74 0.78 0.75
0.09 0.00 0.01 0.01 0.00 0.00 0.00 0.00 0.00 0.00 0.00 0.00 0.00 0.01 0.02 0.01 0.02 0.06 0.01 0.01 0.00 0.00 0.00 0.00 0.00 0.00 0.03 0.03 0.05 0.23 0.13 0.06 0.05 0.05 0.05 0.07 0.11 0.16 0.50 1.03 0.94 0.74 1.02 0.95
0.10 0.01 0.01 0.00 0.00 0.00 0.01 0.00 0.00 0.00 0.00 0.05 0.02 0.01 0.03 0.02 0.00 0.02 0.01 0.00 0.00 0.00 0.01 0.01 0.01 0.00 0.00 0.06 0.08 0.20 0.16 0.16 0.08 0.11 0.15 0.26 0.20 0.14 0.23 0.89 1.22 0.98 0.99 1.17
0.01 0.01 0.05 0.02 0.00 0.00 0.00 0.02 0.04 0.03 0.04 0.07 0.01 0.02 0.04 0.03 0.02 0.06 0.08 0.05 0.02 0.02 0.03 0.04 0.02 0.02 0.02 0.02 0.11 0.19 0.15 0.21 0.23 0.27 0.22 0.22 0.29 0.18 0.18 0.51 1.07 1.37 1.22 1.23
0.03 0.04 0.03 0.00 0.01 0.01 0.01 0.12 0.26 0.27 0.11 0.05 0.03 0.04 0.06 0.07 0.18 0.31 0.31 0.26 0.14 0.11 0.10 0.09 0.06 0.06 0.07 0.05 0.17 0.19 0.16 0.20 0.23 0.30 0.16 0.19 0.31 0.39 0.41 0.43 0.79 1.30 1.62 1.44
0.17 0.12 0.03 0.06 0.04 0.05 0.05 0.18 0.28 0.36 0.16 0.07 0.04 0.04 0.05 0.13 0.20 0.37 0.61 0.47 0.38 0.24 0.11 0.16 0.16 0.18 0.21 0.20 0.22 0.34 0.30 0.36 0.28 0.19 0.25 0.31 0.37 0.45 0.54 0.46 0.67 1.19 1.12 0.95
0.16 0.09 0.03 0.04 0.04 0.12 0.22 0.18 0.09 0.38 0.27 0.27 0.10 0.04 0.12 0.23 0.33 0.30 0.43 0.43 0.38 0.32 0.20 0.19 0.21 0.24 0.28 0.30 0.29 0.32 0.29 0.48 0.47 0.42 0.47 0.40 0.33 0.30 0.35 0.40 0.39 0.62 0.81 0.94
0.25 0.42 0.09 0.05 0.13 0.15 0.22 0.22 0.45 0.60 0.55 0.34 0.21 0.31 0.99 0.98 0.66 0.95 0.83 0.49 0.36 0.31 0.30 0.27 0.27 0.31 0.32 0.33 0.35 0.47 0.32 0.26 0.39 0.57 0.56 0.36 0.41 0.49 0.35 0.32 0.33 0.48 0.76 0.88
0.11 0.29 0.20 0.22 0.25 0.16 0.22 0.41 0.51 0.50 0.20 0.31 0.56 1.40 1.44 1.74 1.12 0.85 0.47 0.37 0.40 0.31 0.37 0.53 0.61 0.51 0.57 0.56 0.51 0.50 0.52 0.62 0.71 0.71 0.56 0.48 0.54 0.79 0.73 0.62 0.54 0.55 0.86 1.12
0.11 0.43 0.24 0.16 0.08 0.04 0.18 0.27 0.50 0.77 0.43 0.32 0.53 1.43 1.34 1.22 1.12 0.57 0.10 0.03 0.08 0.24 0.27 0.41 0.95 1.10 1.04 1.01 1.05 0.78 0.83 0.96 1.07 0.93 0.81 1.01 1.17 1.26 1.21 1.17 1.30 1.06 0.83 0.82
0.36 0.41 0.45 0.40 0.37 0.22 0.40 0.47 0.44 0.79 0.85 0.70 1.00 1.52 1.41 0.88 0.33 0.07 0.03 0.02 0.02 0.09 0.12 0.20 0.43 0.70 1.21 0.71 1.03 0.88 0.88 1.14 1.38 1.42 1.41 1.43 1.37 1.38 1.43 1.38 1.24 1.11 1.17 1.21
0.66 0.41 0.55 0.33 0.40 0.63 0.64 0.57 0.68 0.80 0.94 0.52 0.79 1.05 1.01 0.58 0.15 0.05 0.05 0.05 0.07 0.09 0.17 0.23 0.28 0.34 0.43 0.64 1.19 1.92 0.92 1.12 1.41 1.43 1.13 1.09 1.30 1.22 1.20 1.12 0.99 0.91 0.97 0.97
0.62 0.42 0.71 0.52 0.16 0.25 0.52 0.63 0.62 0.92 0.66 0.65 0.69 0.54 0.67 0.92 0.46 0.17 0.14 0.09 0.13 0.15 0.18 0.28 0.37 0.45 0.47 0.47 0.44 0.60 0.58 1.12 1.67 1.51 1.30 1.35 1.14 1.02 1.09 1.06 0.82 0.71 0.84 0.88
0.65 0.57 0.86 1.01 0.36 0.47 0.65 0.80 0.52 0.73 0.61 0.56 0.39 0.37 0.43 0.62 0.63 0.38 0.24 0.15 0.20 0.24 0.24 0.25 0.31 0.34 0.41 0.53 0.68 0.67 0.60 0.84 1.09 1.45 1.73 1.28 1.60 1.48 0.98 0.89 0.83 0.80 0.83 0.90
0.77 1.10 1.02 1.09 0.34 0.37 0.71 0.72 0.61 0.50 0.29 0.22 0.29 0.24 0.37 0.64 0.74 0.66 0.47 0.28 0.29 0.27 0.25 0.20 0.26 0.30 0.37 0.40 0.33 0.39 0.49 0.60 0.62 0.99 1.85 1.87 1.91 2.66 1.81 1.04 1.08 0.98 1.19 1.12
0.96 0.87 0.76 0.79 0.47 0.62 0.71 0.37 0.41 0.49 0.36 0.16 0.21 0.27 0.44 0.53 0.44 0.61 0.61 0.61 0.39 0.33 0.30 0.22 0.20 0.26 0.30 0.26 0.22 0.20 0.20 0.29 0.38 0.36 0.76 1.39 1.44 2.05 2.85 2.19 1.84 1.88 1.55 1.44
0.74 0.71 0.74 0.67 0.46 0.50 0.29 0.31 0.38 0.77 0.70 0.36 0.31 0.46 0.44 0.34 0.16 0.49 0.61 0.60 0.85 0.66 0.50 0.54 0.41 0.33 0.33 0.32 0.37 0.31 0.24 0.22 0.23 0.24 0.37 0.55 0.96 1.26 1.65 2.22 2.49 2.39 2.28 1.93
0.28 0.58 0.78 0.46 0.45 0.45 0.22 0.12 0.26 0.51 1.17 0.97 0.73 0.50 0.43 0.34 0.39 0.68 0.69 0.60 0.69 0.99 0.79 0.59 0.55 0.35 0.47 0.54 0.48 0.70 0.49 0.37 0.39 0.40 0.38 0.36 0.51 0.76 1.07 1.33 1.45 1.49 1.45 1.51
0.32 0.60 0.52 0.43 0.46 0.19 0.04 0.06 0.20 1.01 1.17 1.07 1.29 0.85 0.74 0.67 0.69 0.83 0.83 0.69 0.63 0.84 1.20 0.85 0.74 0.60 0.64 0.83 0.62 0.73 1.19 1.06 0.89 0.82 0.77 0.77 0.77 0.76 0.71 0.74 0.71 0.74 0.85 0.84
0.42 0.67 0.54 0.44 0.53 0.27 0.14 0.28 0.67 1.00 1.03 1.04 1.18 1.26 1.42 1.38 1.26 1.08 0.86 0.66 0.54 0.51 0.73 1.15 0.97 0.91 0.80 0.91 1.00 0.85 1.09 1.69 1.57 1.28 1.20 1.12 0.93 0.84 0.82 0.81 0.86 0.78 0.76 0.75
0.43 0.42 0.48 0.41 0.43 0.43 0.23 0.36 0.65 0.71 0.78 0.79 0.84 0.90 1.02 1.03 0.96 0.80 0.53 0.37 0.35 0.43 0.46 0.55 0.92 0.98 0.84 0.74 0.93 1.03 1.15 1.27 1.42 1.47 1.41 1.42 1.32 1.23 1.14 1.06 1.04 0.93 0.84 0.80
0.63 0.33 0.49 0.59 0.76 0.32 0.22 0.27 0.33 0.42 0.59 0.53 0.51 0.49 0.48 0.51 0.56 0.54 0.40 0.28 0.23 0.22 0.24 0.28 0.37 0.62 0.80 0.83 0.66 0.71 0.81 0.88 1.00 1.02 1.08 1.23 1.28 1.28 1.20 1.11 1.12 1.08 1.07 1.11
0.92 0.50 0.59 0.89 1.52 0.76 0.65 0.74 0.68 0.48 0.48 0.40 0.42 0.39 0.35 0.31 0.33 0.33 0.33 0.29 0.27 0.26 0.28 0.30 0.26 0.23 0.29 0.37 0.50 0.57 0.58 0.55 0.54 0.58 0.65 0.66 0.69 0.76 0.79 0.81 0.87 0.81 0.99 0.95
0.70 0.92 0.88 1.04 1.27 1.09 0.94 0.70 0.53 0.38 0.34 0.26 0.19 0.17 0.16 0.16 0.16 0.13 0.11 0.10 0.11 0.19 0.19 0.11 0.09 0.09 0.12 0.13 0.15 0.16 0.20 0.27 0.34 0.40 0.45 0.55 0.58 0.57 0.59 0.64 0.77 0.87 0.88 0.81

GFSCGP_prec_precacc_126.txt.gz
Total_Precipitation_Accumulation
0.00 0.00 0.00 0.00 0.00 0.00 0.00 0.00 0.00 0.00 0.00 0.00 0.00 0.00 0.02 0.14 0.04 0.02 0.03 0.01 0.01 0.00 0.01 0.04 0.07 0.08 0.06 0.12 0.37 0.48 0.71 0.88 0.60 0.38 0.33 0.37 0.42 0.50 0.83 0.84 0.55 0.77 0.98 0.93
0.02 0.01 0.00 0.00 0.00 0.00 0.00 0.00 0.00 0.00 0.00 0.00 0.00 0.00 0.00 0.02 0.00 0.00 0.00 0.00 0.00 0.00 0.00 0.01 0.03 0.05 0.08 0.16 0.38 0.47 0.32 0.27 0.28 0.28 0.16 0.12 0.17 0.29 0.63 0.95 0.69 0.72 0.81 0.76
0.03 0.02 0.00 0.00 0.00 0.00 0.00 0.00 0.00 0.00 0.00 0.00 0.00 0.00 0.00 0.00 0.02 0.07 0.01 0.00 0.00 0.00 0.02 0.02 0.04 0.04 0.06 0.08 0.12 0.24 0.13 0.07 0.07 0.10 0.13 0.11 0.16 0.32 1.03 1.33 1.00 0.74 0.78 0.75
0.09 0.00 0.01 0.01 0.00 0.00 0.00 0.00 0.00 0.00 0.00 0.00 0.00 0.01 0.02 0.01 0.02 0.06 0.01 0.01 0.00 0.00 0.00 0.00 0.00 0.00 0.03 0.03 0.05 0.23 0.13 0.06 0.05 0.05 0.05 0.07 0.11 0.16 0.50 1.03 0.94 0.74 1.02 0.95
0.10 0.01 0.01 0.00 0.00 0.00 0.01 0.00 0.00 0.00 0.00 0.05 0.02 0.01 0.03 0.02 0.00 0.02 0.01 0.00 0.00 0.00 0.01 0.01 0.01 0.00 0.00 0.06 0.08 0.20 0.16 0.16 0.08 0.11 0.15 0.26 0.20 0.14 0.23 0.89 1.22 0.98 0.99 1.17
0.01 0.01 0.05 0.02 0.00 0.00 0.00 0.02 0.04 0.03 0.04 0.07 0.01 0.02 0.04 0.03 0.02 0.06 0.08 0.05 0.02 0.02 0.03 0.04 0.02 0.02 0.02 0.02 0.11 0.19 0.15 0.21 0.23 0.27 0.22 0.22 0.29 0.18 0.18 0.51 1.07 1.37 1.22 1.23
0.03 0.04 0.03 0.00 0.01 0.01 0.01 0.12 0.26 0.27 0.11 0.05 0.03 0.04 0.06 0.07 0.18 0.31 0.31 0.26 0.14 0.11 0.10 0.09 0.06 0.06 0.07 0.05 0.17 0.19 0.16 0.20 0.23 0.30 0.16 0.19 0.31 0.39 0.41 0.43 0.79 1.30 1.62 1.44
0.17 0.12 0.03 0.06 0.04 0.05 0.05 0.18 0.28 0.36 0.16 0.07 0.04 0.04 0.05 0.13 0.20 0.37 0.61 0.47 0.38 0.24 0.11 0.16 0.16 0.18 0.21 0.20 0.22 0.34 0.30 0.37 0.28 0.19 0.25 0.31 0.37 0.45 0.54 0.46 0.67 1.19 1.12 0.95
0.16 0.09 0.03 0.04 0.04 0.12 0.22 0.18 0.09 0.38 0.27 0.27 0.10 0.04 0.12 0.23 0.33 0.30 0.43 0.43 0.38 0.32 0.20 0.19 0.21 0.24 0.28 0.30 0.29 0.32 0.29 0.48 0.47 0.42 0.47 0.41 0.33 0.30 0.35 0.40 0.39 0.62 0.81 0.94
0.25 0.42 0.09 0.05 0.13 0.15 0.22 0.22 0.45 0.60 0.55 0.34 0.21 0.31 0.99 0.98 0.67 0.95 0.83 0.49 0.36 0.31 0.30 0.27 0.27 0.31 0.32 0.34 0.35 0.48 0.33 0.26 0.40 0.57 0.57 0.38 0.42 0.50 0.36 0.33 0.34 0.48 0.77 0.88
0.11 0.29 0.20 0.22 0.25 0.16 0.22 0.41 0.51 0.50 0.20 0.31 0.56 1.40 1.44 1.74 1.12 0.85 0.47 0.37 0.40 0.31 0.37 0.53 0.61 0.51 0.57 0.56 0.54 0.58 0.62 0.72 0.76 0.72 0.57 0.49 0.57 0.82 0.74 0.62 0.55 0.56 0.87 1.12
0.11 0.43 0.24 0.16 0.08 0.04 0.18 0.27 0.50 0.77 0.43 0.32 0.53 1.43 1.34 1.22 1.12 0.57 0.10 0.03 0.08 0.24 0.27 0.41 0.95 1.10 1.05 1.04 1.14 0.93 0.88 1.01 1.09 0.94 0.83 1.04 1.20 1.28 1.22 1.19 1.32 1.07 0.84 0.82
0.36 0.41 0.45 0.40 0.37 0.22 0.40 0.47 0.44 0.79 0.85 0.70 1.00 1.52 1.41 0.88 0.33 0.07 0.03 0.02 0.02 0.09 0.13 0.21 0.43 0.71 1.25 0.78 1.09 0.91 0.92 1.17 1.40 1.43 1.45 1.47 1.44 1.42 1.48 1.41 1.26 1.13 1.18 1.22
0.66 0.41 0.55 0.33 0.40 0.63 0.64 0.57 0.68 0.80 0.94 0.52 0.79 1.05 1.01 0.58 0.15 0.05 0.05 0.05 0.07 0.10 0.19 0.24 0.29 0.36 0.46 0.68 1.23 1.98 1.00 1.20 1.44 1.48 1.18 1.16 1.45 1.36 1.28 1.17 1.03 0.95 1.00 1.00
0.62 0.42 0.71 0.52 0.16 0.25 0.52 0.63 0.62 0.92 0.67 0.66 0.69 0.54 0.67 0.92 0.46 0.17 0.14 0.10 0.15 0.17 0.19 0.29 0.39 0.47 0.48 0.48 0.47 0.63 0.62 1.18 1.72 1.57 1.37 1.48 1.30 1.20 1.21 1.14 0.90 0.79 0.92 0.94
0.65 0.57 0.86 1.01 0.36 0.47 0.65 0.80 0.52 0.73 0.61 0.56 0.39 0.37 0.43 0.62 0.63 0.38 0.26 0.17 0.22 0.25 0.24 0.25 0.31 0.35 0.41 0.53 0.68 0.67 0.60 0.84 1.10 1.47 1.78 1.34 1.68 1.64 1.18 1.09 0.96 0.94 0.96 1.02
0.77 1.10 1.02 1.09 0.34 0.37 0.71 0.72 0.61 0.50 0.29 0.22 0.29 0.24 0.37 0.64 0.74 0.67 0.48 0.29 0.29 0.27 0.25 0.20 0.26 0.30 0.37 0.40 0.33 0.39 0.49 0.60 0.62 0.99 1.86 1.87 1.92 2.69 1.89 1.15 1.16 1.08 1.43 1.39
0.96 0.87 0.76 0.79 0.47 0.62 0.71 0.37 0.41 0.49 0.36 0.16 0.21 0.27 0.45 0.54 0.44 0.62 0.61 0.61 0.39 0.33 0.30 0.22 0.20 0.26 0.30 0.26 0.22 0.20 0.20 0.29 0.38 0.36 0.76 1.39 1.44 2.05 2.85 2.20 1.85 1.90 1.57 1.48
0.74 0.71 0.74 0.67 0.47 0.50 0.29 0.31 0.38 0.77 0.70 0.36 0.31 0.46 0.44 0.34 0.16 0.50 0.61 0.60 0.85 0.66 0.50 0.54 0.41 0.33 0.33 0.32 0.37 0.31 0.24 0.22 0.23 0.24 0.37 0.55 0.96 1.26 1.65 2.23 2.49 2.40 2.29 1.94
0.28 0.58 0.78 0.47 0.47 0.45 0.22 0.12 0.26 0.51 1.17 0.97 0.73 0.50 0.43 0.34 0.39 0.68 0.70 0.60 0.69 0.99 0.79 0.59 0.55 0.35 0.47 0.54 0.48 0.70 0.49 0.37 0.39 0.40 0.38 0.36 0.51 0.76 1.07 1.33 1.45 1.49 1.45 1.52
0.33 0.61 0.52 0.43 0.47 0.19 0.04 0.06 0.20 1.01 1.17 1.07 1.29 0.85 0.74 0.67 0.69 0.83 0.83 0.69 0.63 0.84 1.20 0.85 0.74 0.60 0.64 0.83 0.62 0.73 1.19 1.06 0.89 0.82 0.77 0.77 0.77 0.76 0.71 0.74 0.71 0.74 0.85 0.84
0.43 0.68 0.54 0.45 0.54 0.27 0.14 0.28 0.67 1.00 1.03 1.04 1.18 1.26 1.42 1.38 1.26 1.08 0.86 0.66 0.54 0.51 0.73 1.15 0.97 0.91 0.80 0.91 1.00 0.85 1.09 1.69 1.57 1.28 1.20 1.12 0.93 0.84 0.82 0.81 0.86 0.78 0.76 0.75
0.45 0.42 0.48 0.41 0.44 0.43 0.23 0.36 0.65 0.71 0.78 0.79 0.84 0.90 1.02 1.03 0.96 0.80 0.53 0.37 0.35 0.43 0.46 0.55 0.92 0.98 0.84 0.74 0.93 1.03 1.15 1.27 1.42 1.47 1.41 1.42 1.32 1.23 1.14 1.06 1.04 0.93 0.84 0.80
0.64 0.33 0.49 0.59 0.76 0.32 0.22 0.27 0.33 0.42 0.59 0.53 0.51 0.49 0.48 0.51 0.56 0.54 0.40 0.28 0.23 0.22 0.24 0.28 0.37 0.62 0.80 0.83 0.66 0.71 0.81 0.88 1.00 1.02 1.08 1.23 1.28 1.28 1.20 1.11 1.12 1.08 1.07 1.11
0.93 0.50 0.59 0.89 1.52 0.76 0.65 0.74 0.68 0.48 0.48 0.40 0.42 0.39 0.35 0.31 0.33 0.33 0.33 0.29 0.27 0.26 0.28 0.30 0.26 0.23 0.29 0.37 0.50 0.57 0.58 0.55 0.54 0.58 0.65 0.66 0.69 0.76 0.79 0.82 0.88 0.81 0.99 0.95
0.70 0.92 0.88 1.04 1.27 1.09 0.94 0.70 0.53 0.38 0.34 0.26 0.19 0.17 0.16 0.16 0.16 0.13 0.11 0.10 0.11 0.19 0.19 0.11 0.09 0.09 0.12 0.13 0.15 0.16 0.20 0.27 0.34 0.40 0.45 0.55 0.58 0.57 0.59 0.64 0.77 0.87 0.89 0.81

GFSCGP_prec_precacc_132.txt.gz
Total_Precipitation_Accumulation
0.00 0.00 0.00 0.00 0.00 0.00 0.00 0.00 0.00 0.00 0.00 0.00 0.00 0.00 0.02 0.14 0.04 0.02 0.03 0.01 0.01 0.00 0.01 0.04 0.07 0.08 0.06 0.12 0.37 0.48 0.71 0.88 0.60 0.38 0.33 0.37 0.42 0.50 0.83 0.84 0.55 0.77 0.98 0.94
0.02 0.01 0.00 0.00 0.00 0.00 0.00 0.00 0.00 0.00 0.00 0.00 0.00 0.00 0.00 0.02 0.00 0.00 0.00 0.00 0.00 0.00 0.00 0.01 0.03 0.05 0.08 0.16 0.38 0.47 0.32 0.27 0.28 0.28 0.16 0.12 0.17 0.29 0.63 0.95 0.69 0.72 0.81 0.76
0.03 0.02 0.00 0.00 0.00 0.00 0.00 0.00 0.00 0.00 0.00 0.00 0.00 0.00 0.00 0.00 0.02 0.07 0.01 0.00 0.00 0.00 0.02 0.02 0.04 0.04 0.06 0.08 0.12 0.24 0.13 0.07 0.07 0.10 0.13 0.11 0.16 0.32 1.03 1.33 1.00 0.74 0.78 0.75
0.09 0.00 0.01 0.01 0.00 0.00 0.00 0.00 0.00 0.00 0.00 0.00 0.00 0.01 0.02 0.01 0.02 0.06 0.01 0.01 0.00 0.00 0.00 0.00 0.00 0.00 0.03 0.03 0.05 0.23 0.13 0.06 0.05 0.05 0.05 0.07 0.11 0.16 0.50 1.03 0.94 0.74 1.02 0.95
0.10 0.01 0.01 0.00 0.00 0.00 0.01 0.00 0.00 0.00 0.00 0.05 0.02 0.01 0.03 0.02 0.00 0.02 0.01 0.00 0.00 0.00 0.01 0.01 0.01 0.00 0.00 0.06 0.08 0.20 0.16 0.16 0.08 0.11 0.15 0.26 0.20 0.14 0.23 0.89 1.22 0.98 0.99 1.17
0.01 0.01 0.05 0.02 0.00 0.00 0.00 0.02 0.04 0.03 0.04 0.07 0.01 0.02 0.04 0.03 0.02 0.06 0.08 0.05 0.02 0.02 0.03 0.04 0.02 0.02 0.02 0.02 0.11 0.19 0.15 0.21 0.23 0.27 0.22 0.22 0.29 0.18 0.18 0.51 1.07 1.37 1.22 1.23
0.03 0.04 0.03 0.00 0.01 0.01 0.01 0.12 0.26 0.27 0.11 0.05 0.03 0.04 0.06 0.07 0.18 0.31 0.31 0.26 0.14 0.11 0.10 0.09 0.06 0.06 0.07 0.05 0.17 0.19 0.16 0.20 0.23 0.30 0.16 0.19 0.31 0.39 0.41 0.43 0.79 1.30 1.62 1.44
0.17 0.12 0.03 0.06 0.04 0.05 0.05 0.18 0.28 0.36 0.16 0.07 0.04 0.04 0.05 0.13 0.20 0.37 0.61 0.47 0.38 0.24 0.11 0.16 0.16 0.18 0.21 0.20 0.22 0.34 0.30 0.37 0.28 0.19 0.25 0.31 0.37 0.46 0.55 0.47 0.68 1.20 1.12 0.96
0.16 0.09 0.03 0.04 0.04 0.12 0.22 0.18 0.09 0.38 0.27 0.27 0.10 0.04 0.12 0.23 0.33 0.30 0.43 0.43 0.38 0.32 0.20 0.19 0.21 0.24 0.28 0.30 0.29 0.33 0.30 0.49 0.48 0.43 0.47 0.41 0.34 0.32 0.37 0.42 0.40 0.63 0.83 0.95
0.25 0.42 0.09 0.05 0.13 0.15 0.22 0.22 0.45 0.60 0.55 0.34 0.21 0.31 0.99 0.98 0.67 0.95 0.83 0.49 0.36 0.31 0.30 0.27 0.27 0.31 0.32 0.34 0.35 0.49 0.34 0.29 0.45 0.60 0.58 0.39 0.44 0.53 0.39 0.36 0.37 0.52 0.80 0.92
0.11 0.29 0.20 0.22 0.25 0.16 0.22 0.41 0.51 0.50 0.20 0.31 0.56 1.40 1.44 1.74 1.12 0.85 0.47 0.37 0.40 0.31 0.37 0.53 0.61 0.51 0.57 0.56 0.54 0.64 0.72 0.79 0.79 0.72 0.57 0.51 0.61 0.90 0.82 0.71 0.63 0.64 0.94 1.19
0.11 0.43 0.24 0.16 0.08 0.04 0.18 0.27 0.50 0.77 0.43 0.32 0.53 1.43 1.34 1.22 1.12 0.57 0.10 0.03 0.08 0.24 0.27 0.41 0.95 1.10 1.05 1.05 1.18 1.01 0.92 1.01 1.09 0.96 0.86 1.11 1.32 1.44 1.35 1.34 1.44 1.16 0.93 0.91
0.36 0.41 0.45 0.40 0.37 0.22 0.40 0.47 0.44 0.79 0.85 0.70 1.00 1.52 1.41 0.88 0.33 0.07 0.03 0.02 0.02 0.09 0.13 0.21 0.43 0.71 1.25 0.78 1.11 0.93 0.93 1.18 1.40 1.47 1.56 1.63 1.62 1.60 1.65 1.56 1.40 1.22 1.25 1.29
0.66 0.41 0.55 0.33 0.40 0.63 0.64 0.57 0.68 0.80 0.94 0.52 0.79 1.05 1.01 0.58 0.15 0.05 0.05 0.05 0.07 0.10 0.19 0.25 0.29 0.36 0.46 0.68 1.23 1.99 1.00 1.21 1.45 1.52 1.29 1.32 1.66 1.65 1.59 1.41 1.20 1.00 1.03 1.02
0.62 0.42 0.71 0.52 0.16 0.25 0.52 0.63 0.62 0.92 0.67 0.66 0.69 0.54 0.67 0.92 0.46 0.17 0.14 0.10 0.15 0.17 0.19 0.29 0.39 0.47 0.49 0.50 0.48 0.63 0.62 1.19 1.73 1.58 1.41 1.60 1.47 1.39 1.40 1.32 1.00 0.82 0.95 0.99
0.65 0.57 0.86 1.01 0.36 0.47 0.65 0.80 0.52 0.73 0.61 0.56 0.39 0.37 0.43 0.62 0.63 0.38 0.26 0.17 0.22 0.25 0.24 0.25 0.31 0.36 0.42 0.53 0.68 0.67 0.60 0.84 1.10 1.47 1.79 1.35 1.69 1.65 1.20 1.13 0.99 0.95 0.97 1.04
0.78 1.12 1.03 1.09 0.34 0.37 0.71 0.72 0.61 0.50 0.29 0.22 0.29 0.24 0.37 0.64 0.74 0.67 0.48 0.29 0.29 0.27 0.25 0.20 0.26 0.30 0.37 0.40 0.33 0.39 0.49 0.60 0.62 0.99 1.86 1.87 1.92 2.69 1.89 1.15 1.16 1.09 1.43 1.40
0.96 0.87 0.76 0.79 0.47 0.62 0.71 0.37 0.41 0.49 0.36 0.16 0.21 0.27 0.45 0.55 0.46 0.63 0.61 0.61 0.39 0.33 0.30 0.22 0.20 0.26 0.30 0.26 0.22 0.20 0.20 0.29 0.38 0.36 0.76 1.39 1.44 2.05 2.85 2.20 1.85 1.90 1.58 1.49
0.74 0.71 0.74 0.67 0.47 0.50 0.29 0.31 0.38 0.77 0.70 0.36 0.31 0.46 0.45 0.36 0.18 0.52 0.61 0.60 0.85 0.66 0.50 0.54 0.41 0.33 0.33 0.32 0.37 0.31 0.24 0.22 0.23 0.24 0.37 0.55 0.96 1.26 1.65 2.23 2.49 2.40 2.29 1.94
0.28 0.58 0.78 0.47 0.47 0.45 0.22 0.12 0.26 0.51 1.17 0.97 0.73 0.50 0.43 0.34 0.40 0.68 0.70 0.60 0.69 0.99 0.79 0.59 0.55 0.35 0.47 0.54 0.48 0.70 0.49 0.37 0.39 0.40 0.38 0.36 0.51 0.76 1.07 1.33 1.45 1.49 1.45 1.52
0.33 0.61 0.52 0.43 0.47 0.19 0.04 0.06 0.20 1.01 1.17 1.07 1.29 0.85 0.74 0.67 0.69 0.83 0.83 0.69 0.63 0.84 1.20 0.85 0.74 0.60 0.64 0.83 0.62 0.73 1.19 1.06 0.89 0.82 0.77 0.77 0.77 0.76 0.71 0.74 0.71 0.74 0.85 0.84
0.43 0.69 0.55 0.47 0.58 0.28 0.14 0.28 0.67 1.00 1.03 1.04 1.18 1.26 1.42 1.38 1.26 1.08 0.86 0.66 0.54 0.51 0.73 1.15 0.97 0.91 0.80 0.91 1.00 0.85 1.09 1.69 1.57 1.28 1.20 1.12 0.93 0.84 0.82 0.81 0.86 0.78 0.76 0.75
0.45 0.42 0.48 0.41 0.44 0.43 0.23 0.36 0.65 0.71 0.78 0.79 0.84 0.90 1.02 1.03 0.96 0.80 0.53 0.37 0.35 0.43 0.46 0.55 0.92 0.98 0.84 0.74 0.93 1.03 1.15 1.27 1.42 1.47 1.41 1.42 1.32 1.23 1.14 1.06 1.04 0.93 0.84 0.80
0.65 0.33 0.49 0.59 0.76 0.32 0.22 0.27 0.33 0.42 0.59 0.53 0.51 0.49 0.48 0.51 0.56 0.54 0.40 0.28 0.23 0.22 0.24 0.28 0.37 0.62 0.80 0.83 0.66 0.71 0.81 0.88 1.00 1.02 1.08 1.23 1.28 1.28 1.20 1.11 1.12 1.08 1.07 1.11
0.93 0.51 0.60 0.90 1.52 0.76 0.65 0.74 0.68 0.48 0.48 0.40 0.42 0.39 0.35 0.31 0.33 0.33 0.33 0.29 0.27 0.26 0.28 0.30 0.26 0.23 0.29 0.37 0.50 0.57 0.58 0.55 0.54 0.58 0.65 0.66 0.69 0.76 0.79 0.83 0.89 0.81 0.99 0.95
0.71 0.92 0.89 1.05 1.27 1.09 0.94 0.70 0.53 0.38 0.34 0.26 0.19 0.17 0.16 0.16 0.16 0.13 0.11 0.10 0.11 0.19 0.19 0.11 0.09 0.09 0.12 0.13 0.15 0.16 0.20 0.27 0.34 0.40 0.45 0.55 0.58 0.57 0.59 0.64 0.77 0.87 0.89 0.81

GFSCGP_prec_precacc_135.txt.gz
Total_Precipitation_Accumulation
0.00 0.00 0.00 0.00 0.00 0.00 0.00 0.00 0.00 0.00 0.00 0.00 0.00 0.00 0.02 0.14 0.04 0.02 0.03 0.01 0.01 0.00 0.01 0.04 0.07 0.08 0.06 0.12 0.37 0.48 0.71 0.88 0.60 0.38 0.33 0.37 0.42 0.50 0.83 0.84 0.55 0.77 0.98 0.94
0.02 0.01 0.00 0.00 0.00 0.00 0.00 0.00 0.00 0.00 0.00 0.00 0.00 0.00 0.00 0.02 0.00 0.00 0.00 0.00 0.00 0.00 0.00 0.01 0.03 0.05 0.08 0.16 0.38 0.47 0.32 0.27 0.28 0.28 0.16 0.12 0.17 0.29 0.63 0.95 0.69 0.72 0.81 0.76
0.03 0.02 0.00 0.00 0.00 0.00 0.00 0.00 0.00 0.00 0.00 0.00 0.00 0.00 0.00 0.00 0.02 0.07 0.01 0.00 0.00 0.00 0.02 0.02 0.04 0.04 0.06 0.08 0.12 0.24 0.13 0.07 0.07 0.10 0.13 0.11 0.16 0.32 1.03 1.33 1.00 0.74 0.78 0.75
0.09 0.00 0.01 0.01 0.00 0.00 0.00 0.00 0.00 0.00 0.00 0.00 0.00 0.01 0.02 0.01 0.02 0.06 0.01 0.01 0.00 0.00 0.00 0.00 0.00 0.00 0.03 0.03 0.05 0.23 0.13 0.06 0.05 0.05 0.05 0.07 0.11 0.16 0.50 1.03 0.94 0.74 1.02 0.95
0.10 0.01 0.01 0.00 0.00 0.00 0.01 0.00 0.00 0.00 0.00 0.05 0.02 0.01 0.03 0.02 0.00 0.02 0.01 0.00 0.00 0.00 0.01 0.01 0.01 0.00 0.00 0.06 0.08 0.20 0.16 0.16 0.08 0.11 0.15 0.26 0.20 0.14 0.23 0.89 1.22 0.98 0.99 1.17
0.01 0.01 0.05 0.02 0.00 0.00 0.00 0.02 0.04 0.03 0.04 0.07 0.01 0.02 0.04 0.03 0.02 0.06 0.08 0.05 0.02 0.02 0.03 0.04 0.02 0.02 0.02 0.02 0.11 0.19 0.15 0.21 0.23 0.27 0.22 0.22 0.29 0.18 0.19 0.51 1.07 1.37 1.22 1.23
0.03 0.04 0.03 0.00 0.01 0.01 0.01 0.12 0.26 0.27 0.11 0.05 0.03 0.04 0.06 0.07 0.18 0.31 0.31 0.26 0.14 0.11 0.10 0.09 0.06 0.06 0.07 0.05 0.17 0.19 0.16 0.20 0.23 0.30 0.16 0.19 0.31 0.39 0.42 0.44 0.80 1.31 1.62 1.44
0.17 0.12 0.03 0.06 0.04 0.05 0.05 0.18 0.28 0.36 0.16 0.07 0.04 0.04 0.05 0.13 0.20 0.37 0.61 0.47 0.38 0.24 0.11 0.16 0.16 0.18 0.21 0.20 0.22 0.34 0.30 0.37 0.28 0.19 0.25 0.31 0.37 0.46 0.56 0.48 0.69 1.21 1.13 0.96
0.16 0.09 0.03 0.04 0.04 0.12 0.22 0.18 0.09 0.38 0.27 0.27 0.10 0.04 0.12 0.23 0.33 0.30 0.43 0.43 0.38 0.32 0.20 0.19 0.21 0.24 0.28 0.30 0.29 0.33 0.30 0.49 0.48 0.43 0.47 0.41 0.34 0.33 0.38 0.43 0.41 0.64 0.84 0.97
0.25 0.42 0.09 0.05 0.13 0.15 0.22 0.22 0.45 0.60 0.55 0.34 0.21 0.31 0.99 0.98 0.67 0.95 0.83 0.49 0.36 0.31 0.30 0.27 0.27 0.31 0.32 0.34 0.35 0.49 0.34 0.29 0.45 0.60 0.58 0.39 0.44 0.55 0.42 0.40 0.42 0.56 0.84 0.95
0.11 0.29 0.20 0.22 0.25 0.16 0.22 0.41 0.51 0.50 0.20 0.31 0.56 1.40 1.44 1.74 1.12 0.85 0.47 0.37 0.40 0.31 0.37 0.53 0.61 0.51 0.57 0.56 0.54 0.64 0.72 0.79 0.79 0.72 0.58 0.53 0.66 0.97 0.89 0.79 0.71 0.70 0.99 1.24
0.11 0.43 0.24 0.16 0.08 0.04 0.18 0.27 0.50 0.77 0.43 0.32 0.53 1.43 1.34 1.22 1.12 0.57 0.10 0.03 0.08 0.24 0.27 0.41 0.95 1.10 1.05 1.05 1.18 1.01 0.92 1.01 1.09 0.96 0.89 1.21 1.43 1.51 1.41 1.41 1.52 1.23 0.98 0.94
0.36 0.41 0.45 0.40 0.37 0.22 0.40 0.47 0.44 0.79 0.85 0.70 1.00 1.52 1.41 0.88 0.33 0.07 0.03 0.02 0.02 0.09 0.13 0.21 0.43 0.71 1.25 0.78 1.11 0.94 0.93 1.18 1.40 1.47 1.58 1.70 1.69 1.68 1.74 1.68 1.51 1.33 1.34 1.35
0.66 0.41 0.55 0.33 0.40 0.63 0.64 0.57 0.68 0.80 0.94 0.52 0.79 1.05 1.01 0.58 0.15 0.05 0.05 0.05 0.07 0.10 0.19 0.25 0.29 0.36 0.46 0.68 1.24 2.00 1.00 1.21 1.45 1.52 1.29 1.32 1.68 1.69 1.65 1.48 1.28 1.07 1.07 1.07
0.62 0.42 0.71 0.52 0.16 0.25 0.52 0.63 0.62 0.92 0.67 0.66 0.69 0.54 0.67 0.92 0.46 0.17 0.14 0.10 0.15 0.17 0.19 0.29 0.39 0.47 0.49 0.50 0.48 0.64 0.62 1.19 1.73 1.58 1.41 1.60 1.47 1.39 1.40 1.33 1.02 0.82 0.96 1.00
0.65 0.57 0.86 1.01 0.36 0.47 0.65 0.80 0.52 0.73 0.61 0.56 0.39 0.37 0.43 0.62 0.63 0.38 0.26 0.17 0.22 0.25 0.24 0.25 0.31 0.36 0.42 0.53 0.68 0.67 0.60 0.84 1.10 1.47 1.79 1.35 1.69 1.65 1.20 1.13 0.99 0.95 0.97 1.04
0.78 1.12 1.05 1.10 0.34 0.37 0.71 0.72 0.61 0.50 0.29 0.22 0.29 0.24 0.37 0.64 0.74 0.67 0.48 0.29 0.29 0.27 0.25 0.20 0.26 0.30 0.37 0.40 0.33 0.39 0.49 0.60 0.62 0.99 1.86 1.87 1.92 2.69 1.89 1.15 1.16 1.09 1.44 1.40
0.96 0.87 0.77 0.79 0.47 0.62 0.71 0.37 0.41 0.49 0.36 0.16 0.21 0.27 0.45 0.55 0.46 0.63 0.61 0.61 0.39 0.33 0.30 0.22 0.20 0.26 0.30 0.26 0.22 0.20 0.20 0.29 0.38 0.36 0.76 1.39 1.44 2.05 2.85 2.20 1.85 1.90 1.58 1.49
0.74 0.71 0.74 0.67 0.47 0.50 0.29 0.31 0.38 0.77 0.70 0.36 0.31 0.46 0.45 0.36 0.18 0.52 0.61 0.60 0.85 0.66 0.50 0.54 0.41 0.33 0.33 0.32 0.37 0.31 0.24 0.22 0.23 0.24 0.37 0.55 0.96 1.26 1.65 2.23 2.49 2.40 2.29 1.94
0.28 0.58 0.78 0.47 0.47 0.45 0.22 0.12 0.26 0.51 1.17 0.97 0.73 0.50 0.43 0.34 0.40 0.68 0.70 0.60 0.69 0.99 0.79 0.59 0.55 0.35 0.47 0.54 0.48 0.70 0.49 0.37 0.39 0.40 0.38 0.36 0.51 0.76 1.07 1.33 1.45 1.49 1.45 1.52
0.33 0.61 0.52 0.43 0.48 0.19 0.04 0.06 0.20 1.01 1.17 1.07 1.29 0.85 0.74 0.67 0.69 0.83 0.83 0.69 0.63 0.84 1.20 0.85 0.74 0.60 0.64 0.83 0.62 0.73 1.19 1.06 0.89 0.82 0.77 0.77 0.77 0.76 0.71 0.74 0.71 0.74 0.85 0.84
0.43 0.69 0.55 0.47 0.59 0.28 0.14 0.28 0.67 1.00 1.03 1.04 1.18 1.26 1.42 1.38 1.26 1.08 0.86 0.66 0.54 0.51 0.73 1.15 0.97 0.91 0.80 0.91 1.00 0.85 1.09 1.69 1.57 1.28 1.20 1.12 0.93 0.84 0.82 0.81 0.86 0.78 0.76 0.75
0.45 0.42 0.48 0.41 0.44 0.43 0.23 0.36 0.65 0.71 0.78 0.79 0.84 0.90 1.02 1.03 0.96 0.80 0.53 0.37 0.35 0.43 0.46 0.55 0.92 0.98 0.84 0.74 0.93 1.03 1.15 1.27 1.42 1.47 1.41 1.42 1.32 1.23 1.14 1.06 1.04 0.93 0.84 0.80
0.65 0.33 0.49 0.59 0.76 0.32 0.22 0.27 0.33 0.42 0.59 0.53 0.51 0.49 0.48 0.51 0.56 0.54 0.40 0.28 0.23 0.22 0.24 0.28 0.37 0.62 0.80 0.83 0.66 0.71 0.81 0.88 1.00 1.02 1.08 1.23 1.28 1.28 1.20 1.11 1.12 1.08 1.07 1.11
0.93 0.51 0.60 0.90 1.52 0.76 0.65 0.74 0.68 0.48 0.48 0.40 0.42 0.39 0.35 0.31 0.33 0.33 0.33 0.29 0.27 0.26 0.28 0.30 0.26 0.23 0.29 0.37 0.50 0.57 0.58 0.55 0.54 0.58 0.65 0.66 0.69 0.76 0.79 0.83 0.89 0.81 0.99 0.95
0.71 0.92 0.89 1.05 1.27 1.09 0.94 0.70 0.53 0.38 0.34 0.26 0.19 0.17 0.16 0.16 0.16 0.13 0.11 0.10 0.11 0.19 0.19 0.11 0.09 0.09 0.12 0.13 0.15 0.16 0.20 0.27 0.34 0.40 0.45 0.55 0.58 0.57 0.59 0.64 0.77 0.87 0.89 0.81

GFSCGP_prec_precacc_138.txt.gz
Total_Precipitation_Accumulation
0.00 0.00 0.00 0.00 0.00 0.00 0.00 0.00 0.00 0.00 0.00 0.00 0.00 0.00 0.02 0.14 0.04 0.02 0.03 0.01 0.01 0.00 0.01 0.04 0.07 0.08 0.06 0.12 0.37 0.48 0.71 0.88 0.60 0.38 0.33 0.37 0.42 0.50 0.83 0.84 0.55 0.77 0.98 0.94
0.02 0.01 0.00 0.00 0.00 0.00 0.00 0.00 0.00 0.00 0.00 0.00 0.00 0.00 0.00 0.02 0.00 0.00 0.00 0.00 0.00 0.00 0.00 0.01 0.03 0.05 0.08 0.16 0.38 0.47 0.32 0.27 0.28 0.28 0.16 0.12 0.17 0.29 0.63 0.95 0.69 0.72 0.81 0.76
0.03 0.02 0.00 0.00 0.00 0.00 0.00 0.00 0.00 0.00 0.00 0.00 0.00 0.00 0.00 0.00 0.02 0.07 0.01 0.00 0.00 0.00 0.02 0.02 0.04 0.04 0.06 0.08 0.12 0.24 0.13 0.07 0.07 0.10 0.13 0.11 0.16 0.32 1.03 1.33 1.00 0.74 0.78 0.75
0.09 0.00 0.01 0.01 0.00 0.00 0.00 0.00 0.00 0.00 0.00 0.00 0.00 0.01 0.02 0.01 0.02 0.06 0.01 0.01 0.00 0.00 0.00 0.00 0.00 0.00 0.03 0.03 0.05 0.23 0.13 0.06 0.05 0.05 0.05 0.07 0.11 0.16 0.50 1.03 0.94 0.74 1.02 0.95
0.10 0.01 0.01 0.00 0.00 0.00 0.01 0.00 0.00 0.00 0.00 0.05 0.02 0.01 0.03 0.02 0.00 0.02 0.01 0.00 0.00 0.00 0.01 0.01 0.01 0.00 0.00 0.06 0.08 0.20 0.16 0.16 0.08 0.11 0.15 0.26 0.20 0.14 0.23 0.89 1.22 0.98 0.99 1.17
0.01 0.01 0.05 0.02 0.00 0.00 0.00 0.02 0.04 0.03 0.04 0.07 0.01 0.02 0.04 0.03 0.02 0.06 0.08 0.05 0.02 0.02 0.03 0.04 0.02 0.02 0.02 0.02 0.11 0.19 0.15 0.21 0.23 0.27 0.22 0.22 0.29 0.18 0.19 0.51 1.07 1.37 1.22 1.23
0.03 0.04 0.03 0.00 0.01 0.01 0.01 0.12 0.26 0.27 0.11 0.05 0.03 0.04 0.06 0.07 0.18 0.31 0.31 0.26 0.14 0.11 0.10 0.09 0.06 0.06 0.07 0.05 0.17 0.19 0.16 0.20 0.23 0.30 0.16 0.19 0.32 0.39 0.42 0.44 0.80 1.31 1.63 1.44
0.17 0.12 0.03 0.06 0.04 0.05 0.05 0.18 0.28 0.36 0.16 0.07 0.04 0.04 0.05 0.13 0.20 0.37 0.61 0.47 0.38 0.24 0.11 0.16 0.16 0.18 0.21 0.20 0.22 0.34 0.30 0.37 0.28 0.19 0.25 0.31 0.38 0.46 0.57 0.48 0.70 1.22 1.14 0.97
0.16 0.09 0.03 0.04 0.04 0.12 0.22 0.18 0.09 0.38 0.27 0.27 0.10 0.04 0.12 0.23 0.33 0.30 0.43 0.43 0.38 0.32 0.20 0.19 0.21 0.24 0.28 0.30 0.29 0.33 0.30 0.49 0.48 0.43 0.47 0.41 0.34 0.33 0.39 0.44 0.42 0.65 0.85 0.98
0.25 0.42 0.09 0.05 0.13 0.15 0.22 0.22 0.45 0.60 0.55 0.34 0.21 0.31 0.99 0.98 0.67 0.95 0.83 0.49 0.36 0.31 0.30 0.27 0.27 0.31 0.32 0.34 0.35 0.49 0.34 0.29 0.45 0.60 0.58 0.39 0.45 0.56 0.44 0.42 0.44 0.58 0.86 0.97
0.11 0.29 0.20 0.22 0.25 0.16 0.22 0.41 0.51 0.50 0.20 0.31 0.56 1.40 1.44 1.74 1.12 0.85 0.47 0.37 0.40 0.31 0.37 0.53 0.61 0.51 0.57 0.56 0.54 0.64 0.72 0.79 0.79 0.72 0.58 0.54 0.68 1.02 0.94 0.83 0.73 0.72 1.01 1.27
0.11 0.43 0.24 0.16 0.08 0.04 0.18 0.27 0.50 0.77 0.43 0.32 0.53 1.43 1.34 1.22 1.12 0.57 0.10 0.03 0.08 0.24 0.27 0.41 0.95 1.10 1.05 1.05 1.18 1.01 0.92 1.01 1.09 0.96 0.89 1.22 1.46 1.55 1.44 1.44 1.55 1.26 1.04 1.00
0.36 0.41 0.45 0.40 0.37 0.22 0.40 0.47 0.44 0.79 0.85 0.70 1.01 1.52 1.41 0.88 0.33 0.07 0.03 0.02 0.02 0.09 0.13 0.21 0.43 0.71 1.25 0.78 1.11 0.94 0.93 1.18 1.40 1.47 1.58 1.70 1.70 1.69 1.75 1.70 1.53 1.38 1.43 1.45
0.66 0.41 0.55 0.33 0.40 0.63 0.64 0.57 0.68 0.80 0.94 0.52 0.79 1.05 1.01 0.58 0.15 0.05 0.05 0.05 0.07 0.10 0.19 0.25 0.29 0.36 0.46 0.68 1.25 2.01 1.01 1.21 1.45 1.52 1.29 1.33 1.68 1.70 1.65 1.48 1.28 1.07 1.08 1.09
0.62 0.42 0.71 0.52 0.16 0.25 0.52 0.63 0.62 0.92 0.67 0.66 0.69 0.54 0.67 0.92 0.46 0.17 0.14 0.10 0.15 0.17 0.19 0.29 0.39 0.47 0.49 0.50 0.48 0.64 0.62 1.19 1.73 1.58 1.41 1.60 1.47 1.39 1.40 1.33 1.02 0.82 0.96 1.01
0.65 0.57 0.86 1.01 0.36 0.47 0.65 0.80 0.52 0.73 0.61 0.56 0.39 0.37 0.43 0.62 0.63 0.38 0.26 0.17 0.22 0.25 0.24 0.25 0.31 0.36 0.42 0.53 0.68 0.67 0.60 0.84 1.10 1.47 1.79 1.35 1.69 1.65 1.20 1.13 0.99 0.95 0.98 1.04
0.78 1.12 1.05 1.11 0.34 0.37 0.71 0.72 0.61 0.50 0.29 0.22 0.29 0.24 0.37 0.64 0.74 0.67 0.48 0.29 0.29 0.27 0.25 0.20 0.26 0.30 0.37 0.40 0.33 0.39 0.49 0.60 0.62 0.99 1.86 1.87 1.92 2.69 1.89 1.15 1.16 1.09 1.44 1.40
0.96 0.87 0.78 0.81 0.47 0.62 0.71 0.37 0.41 0.49 0.36 0.16 0.21 0.27 0.45 0.55 0.46 0.63 0.61 0.61 0.39 0.33 0.30 0.22 0.20 0.26 0.30 0.26 0.22 0.20 0.20 0.29 0.38 0.36 0.76 1.39 1.44 2.05 2.85 2.20 1.85 1.90 1.58 1.49
0.74 0.72 0.75 0.67 0.47 0.50 0.29 0.31 0.38 0.77 0.70 0.36 0.31 0.46 0.45 0.36 0.18 0.52 0.61 0.60 0.85 0.66 0.50 0.54 0.41 0.33 0.33 0.32 0.37 0.31 0.24 0.22 0.23 0.24 0.37 0.55 0.96 1.26 1.65 2.23 2.49 2.40 2.29 1.94
0.28 0.58 0.79 0.47 0.48 0.45 0.22 0.12 0.26 0.51 1.17 0.97 0.73 0.50 0.43 0.34 0.40 0.68 0.70 0.60 0.69 0.99 0.79 0.59 0.55 0.35 0.47 0.54 0.48 0.70 0.49 0.37 0.39 0.40 0.38 0.36 0.51 0.76 1.07 1.33 1.45 1.49 1.45 1.52
0.33 0.62 0.54 0.46 0.52 0.20 0.04 0.06 0.20 1.01 1.17 1.07 1.29 0.85 0.74 0.67 0.69 0.83 0.83 0.69 0.63 0.84 1.20 0.85 0.74 0.60 0.64 0.83 0.62 0.73 1.19 1.06 0.89 0.82 0.77 0.77 0.77 0.76 0.71 0.74 0.71 0.74 0.85 0.84
0.43 0.69 0.56 0.47 0.61 0.28 0.14 0.28 0.67 1.00 1.03 1.04 1.18 1.26 1.42 1.38 1.26 1.08 0.86 0.66 0.54 0.51 0.73 1.15 0.97 0.91 0.80 0.91 1.00 0.85 1.09 1.69 1.57 1.28 1.20 1.12 0.93 0.84 0.82 0.81 0.86 0.78 0.76 0.75
0.45 0.42 0.48 0.41 0.44 0.43 0.23 0.36 0.65 0.71 0.78 0.79 0.84 0.90 1.02 1.03 0.96 0.80 0.53 0.37 0.35 0.43 0.46 0.55 0.92 0.98 0.84 0.74 0.93 1.03 1.15 1.27 1.42 1.47 1.41 1.42 1.32 1.23 1.14 1.06 1.04 0.93 0.84 0.80
0.65 0.33 0.49 0.59 0.76 0.32 0.22 0.27 0.33 0.42 0.59 0.53 0.51 0.49 0.48 0.51 0.56 0.54 0.40 0.28 0.23 0.22 0.24 0.28 0.37 0.62 0.80 0.83 0.66 0.71 0.81 0.88 1.00 1.02 1.08 1.23 1.28 1.28 1.20 1.11 1.12 1.08 1.07 1.11
0.93 0.51 0.60 0.90 1.52 0.76 0.65 0.74 0.68 0.48 0.48 0.40 0.42 0.39 0.35 0.31 0.33 0.33 0.33 0.29 0.27 0.26 0.28 0.30 0.26 0.23 0.29 0.37 0.50 0.57 0.58 0.55 0.54 0.58 0.65 0.66 0.69 0.76 0.79 0.83 0.89 0.81 0.99 0.95
0.71 0.92 0.89 1.05 1.27 1.09 0.94 0.70 0.53 0.38 0.34 0.26 0.19 0.17 0.16 0.16 0.16 0.13 0.11 0.10 0.11 0.19 0.19 0.11 0.09 0.09 0.12 0.13 0.15 0.16 0.20 0.27 0.34 0.40 0.45 0.55 0.58 0.57 0.59 0.64 0.77 0.87 0.89 0.81

GFSCGP_prec_precacc_141.txt.gz
Total_Precipitation_Accumulation
0.00 0.00 0.00 0.00 0.00 0.00 0.00 0.00 0.00 0.00 0.00 0.00 0.00 0.00 0.02 0.14 0.04 0.02 0.03 0.01 0.01 0.00 0.01 0.04 0.07 0.08 0.06 0.12 0.37 0.48 0.71 0.88 0.60 0.38 0.33 0.37 0.42 0.50 0.83 0.84 0.55 0.77 0.98 0.94
0.02 0.01 0.00 0.00 0.00 0.00 0.00 0.00 0.00 0.00 0.00 0.00 0.00 0.00 0.00 0.02 0.00 0.00 0.00 0.00 0.00 0.00 0.00 0.01 0.03 0.05 0.08 0.16 0.38 0.47 0.32 0.27 0.28 0.28 0.16 0.12 0.17 0.29 0.63 0.95 0.69 0.72 0.81 0.76
0.03 0.02 0.00 0.00 0.00 0.00 0.00 0.00 0.00 0.00 0.00 0.00 0.00 0.00 0.00 0.00 0.02 0.07 0.01 0.00 0.00 0.00 0.02 0.02 0.04 0.04 0.06 0.08 0.12 0.24 0.13 0.07 0.07 0.10 0.13 0.11 0.16 0.32 1.03 1.33 1.00 0.74 0.78 0.75
0.09 0.00 0.01 0.01 0.00 0.00 0.00 0.00 0.00 0.00 0.00 0.00 0.00 0.01 0.02 0.01 0.02 0.06 0.01 0.01 0.00 0.00 0.00 0.00 0.00 0.00 0.03 0.03 0.05 0.23 0.13 0.06 0.05 0.05 0.05 0.07 0.11 0.16 0.50 1.03 0.94 0.74 1.02 0.95
0.10 0.01 0.01 0.00 0.00 0.00 0.01 0.00 0.00 0.00 0.00 0.05 0.02 0.01 0.03 0.02 0.00 0.02 0.01 0.00 0.00 0.00 0.01 0.01 0.01 0.00 0.00 0.06 0.08 0.20 0.16 0.16 0.08 0.11 0.15 0.26 0.20 0.14 0.23 0.89 1.22 0.98 0.99 1.17
0.01 0.01 0.05 0.02 0.00 0.00 0.00 0.02 0.04 0.03 0.04 0.07 0.01 0.02 0.04 0.03 0.02 0.06 0.08 0.05 0.02 0.02 0.03 0.04 0.02 0.02 0.02 0.02 0.11 0.19 0.15 0.21 0.23 0.27 0.22 0.22 0.29 0.18 0.19 0.51 1.07 1.37 1.22 1.23
0.03 0.04 0.03 0.00 0.01 0.01 0.01 0.12 0.26 0.27 0.11 0.05 0.03 0.04 0.06 0.07 0.18 0.31 0.31 0.26 0.14 0.11 0.10 0.09 0.06 0.06 0.07 0.05 0.17 0.19 0.16 0.20 0.23 0.30 0.16 0.19 0.32 0.39 0.42 0.44 0.80 1.32 1.63 1.45
0.17 0.12 0.03 0.06 0.04 0.05 0.05 0.18 0.28 0.36 0.16 0.07 0.04 0.04 0.05 0.13 0.20 0.37 0.61 0.47 0.38 0.24 0.11 0.16 0.16 0.18 0.21 0.20 0.22 0.34 0.30 0.37 0.28 0.19 0.25 0.31 0.38 0.46 0.57 0.49 0.70 1.22 1.15 0.99
0.16 0.09 0.03 0.04 0.04 0.12 0.22 0.18 0.09 0.38 0.27 0.27 0.10 0.04 0.12 0.23 0.33 0.30 0.43 0.43 0.38 0.32 0.20 0.19 0.21 0.24 0.28 0.30 0.29 0.33 0.30 0.49 0.48 0.43 0.47 0.41 0.34 0.34 0.39 0.44 0.43 0.66 0.86 0.99
0.25 0.42 0.09 0.05 0.13 0.15 0.22 0.22 0.45 0.60 0.55 0.34 0.21 0.31 0.99 0.98 0.67 0.95 0.83 0.49 0.36 0.31 0.30 0.27 0.27 0.31 0.32 0.34 0.35 0.49 0.34 0.29 0.45 0.60 0.58 0.39 0.45 0.57 0.46 0.44 0.46 0.60 0.87 0.99
0.11 0.29 0.20 0.22 0.25 0.16 0.22 0.41 0.51 0.50 0.20 0.31 0.56 1.40 1.44 1.74 1.12 0.85 0.47 0.37 0.40 0.31 0.37 0.53 0.61 0.51 0.57 0.56 0.54 0.64 0.72 0.79 0.79 0.72 0.58 0.54 0.69 1.02 0.95 0.85 0.75 0.74 1.03 1.29
0.11 0.43 0.24 0.16 0.08 0.04 0.18 0.27 0.50 0.77 0.43 0.32 0.53 1.44 1.34 1.22 1.12 0.57 0.10 0.03 0.08 0.24 0.27 0.41 0.95 1.10 1.05 1.05 1.18 1.01 0.92 1.01 1.09 0.96 0.89 1.22 1.47 1.56 1.45 1.45 1.58 1.31 1.09 1.05
0.36 0.41 0.45 0.40 0.37 0.22 0.40 0.47 0.44 0.79 0.85 0.70 1.02 1.53 1.41 0.88 0.33 0.07 0.03 0.02 0.02 0.09 0.13 0.21 0.43 0.71 1.25 0.78 1.11 0.94 0.93 1.18 1.40 1.47 1.58 1.70 1.70 1.70 1.76 1.70 1.54 1.39 1.46 1.50
0.66 0.41 0.55 0.33 0.40 0.63 0.64 0.57 0.68 0.80 0.94 0.53 0.79 1.06 1.01 0.58 0.15 0.05 0.05 0.05 0.07 0.10 0.19 0.25 0.29 0.36 0.46 0.68 1.25 2.01 1.01 1.21 1.45 1.52 1.29 1.33 1.68 1.70 1.65 1.48 1.28 1.07 1.08 1.09
0.62 0.42 0.71 0.52 0.16 0.25 0.52 0.63 0.62 0.92 0.67 0.66 0.69 0.54 0.67 0.92 0.46 0.17 0.14 0.10 0.15 0.17 0.19 0.29 0.39 0.47 0.49 0.50 0.48 0.64 0.62 1.19 1.73 1.58 1.41 1.60 1.47 1.39 1.40 1.33 1.02 0.82 0.96 1.01
0.65 0.57 0.86 1.01 0.36 0.47 0.65 0.80 0.52 0.73 0.61 0.56 0.39 0.37 0.43 0.62 0.63 0.38 0.26 0.17 0.22 0.25 0.24 0.25 0.31 0.36 0.42 0.53 0.68 0.67 0.60 0.84 1.10 1.47 1.79 1.35 1.69 1.65 1.20 1.13 0.99 0.95 0.98 1.04
0.78 1.12 1.05 1.11 0.34 0.37 0.71 0.72 0.61 0.50 0.29 0.22 0.29 0.24 0.37 0.64 0.74 0.67 0.48 0.29 0.29 0.27 0.25 0.20 0.26 0.30 0.37 0.40 0.33 0.39 0.49 0.60 0.62 0.99 1.86 1.87 1.92 2.69 1.89 1.15 1.16 1.09 1.44 1.40
0.96 0.87 0.80 0.83 0.48 0.64 0.71 0.37 0.41 0.49 0.36 0.16 0.21 0.27 0.45 0.55 0.46 0.63 0.61 0.61 0.39 0.33 0.30 0.22 0.20 0.26 0.30 0.26 0.22 0.20 0.20 0.29 0.38 0.36 0.76 1.39 1.44 2.05 2.85 2.20 1.85 1.90 1.58 1.49
0.76 0.73 0.78 0.69 0.48 0.50 0.29 0.31 0.38 0.77 0.70 0.36 0.31 0.46 0.45 0.36 0.18 0.52 0.61 0.60 0.85 0.66 0.50 0.54 0.41 0.33 0.33 0.32 0.37 0.31 0.24 0.22 0.23 0.24 0.37 0.55 0.96 1.26 1.65 2.23 2.49 2.40 2.29 1.94
0.29 0.60 0.83 0.49 0.49 0.45 0.22 0.12 0.26 0.51 1.17 0.97 0.73 0.50 0.43 0.34 0.40 0.69 0.70 0.60 0.69 0.99 0.79 0.59 0.55 0.35 0.47 0.54 0.48 0.70 0.49 0.37 0.39 0.40 0.38 0.36 0.51 0.76 1.07 1.33 1.45 1.49 1.45 1.52
0.33 0.62 0.55 0.47 0.53 0.20 0.04 0.06 0.20 1.01 1.17 1.07 1.29 0.85 0.74 0.67 0.69 0.83 0.83 0.69 0.63 0.84 1.20 0.85 0.74 0.60 0.64 0.83 0.62 0.73 1.19 1.06 0.89 0.82 0.77 0.77 0.77 0.76 0.71 0.74 0.71 0.74 0.85 0.84
0.44 0.69 0.56 0.48 0.63 0.29 0.14 0.28 0.67 1.00 1.03 1.04 1.18 1.26 1.42 1.38 1.26 1.08 0.86 0.66 0.54 0.51 0.73 1.15 0.97 0.91 0.80 0.91 1.00 0.85 1.09 1.69 1.57 1.28 1.20 1.12 0.93 0.84 0.82 0.81 0.86 0.78 0.76 0.75
0.45 0.42 0.49 0.41 0.44 0.43 0.23 0.36 0.65 0.71 0.78 0.79 0.84 0.90 1.02 1.03 0.96 0.80 0.53 0.37 0.35 0.43 0.46 0.55 0.92 0.98 0.84 0.74 0.93 1.03 1.15 1.27 1.42 1.47 1.41 1.42 1.32 1.23 1.14 1.07 1.04 0.93 0.84 0.80
0.65 0.33 0.49 0.59 0.76 0.32 0.22 0.27 0.33 0.42 0.59 0.53 0.51 0.49 0.48 0.51 0.56 0.54 0.40 0.28 0.23 0.22 0.24 0.28 0.37 0.62 0.80 0.83 0.66 0.71 0.81 0.88 1.00 1.02 1.08 1.23 1.28 1.28 1.20 1.11 1.12 1.08 1.07 1.11
0.94 0.51 0.60 0.90 1.52 0.76 0.65 0.74 0.68 0.48 0.48 0.40 0.42 0.39 0.35 0.31 0.33 0.33 0.33 0.29 0.27 0.26 0.28 0.30 0.26 0.23 0.29 0.37 0.50 0.57 0.58 0.55 0.54 0.58 0.65 0.66 0.69 0.76 0.79 0.83 0.89 0.81 0.99 0.95
0.71 0.92 0.89 1.05 1.27 1.09 0.94 0.70 0.53 0.38 0.34 0.26 0.19 0.17 0.16 0.16 0.16 0.13 0.11 0.10 0.11 0.19 0.19 0.11 0.09 0.09 0.12 0.13 0.15 0.16 0.20 0.27 0.34 0.40 0.45 0.55 0.58 0.57 0.59 0.64 0.77 0.87 0.89 0.81

GFSCGP_prec_precacc_144.txt.gz
Total_Precipitation_Accumulation
0.00 0.00 0.00 0.00 0.00 0.00 0.00 0.00 0.00 0.00 0.00 0.00 0.00 0.00 0.02 0.14 0.04 0.02 0.03 0.01 0.01 0.00 0.01 0.04 0.07 0.08 0.06 0.12 0.37 0.48 0.71 0.88 0.60 0.38 0.33 0.37 0.42 0.50 0.83 0.84 0.55 0.77 0.98 0.94
0.02 0.01 0.00 0.00 0.00 0.00 0.00 0.00 0.00 0.00 0.00 0.00 0.00 0.00 0.00 0.02 0.00 0.00 0.00 0.00 0.00 0.00 0.00 0.01 0.03 0.05 0.08 0.16 0.38 0.47 0.32 0.27 0.28 0.28 0.16 0.12 0.17 0.29 0.63 0.95 0.69 0.72 0.81 0.76
0.03 0.02 0.00 0.00 0.00 0.00 0.00 0.00 0.00 0.00 0.00 0.00 0.00 0.00 0.00 0.00 0.02 0.07 0.01 0.00 0.00 0.00 0.02 0.02 0.04 0.04 0.06 0.08 0.12 0.24 0.13 0.07 0.07 0.10 0.13 0.11 0.16 0.32 1.03 1.33 1.00 0.74 0.78 0.75
0.09 0.00 0.01 0.01 0.00 0.00 0.00 0.00 0.00 0.00 0.00 0.00 0.00 0.01 0.02 0.01 0.02 0.06 0.01 0.01 0.00 0.00 0.00 0.00 0.00 0.00 0.03 0.03 0.05 0.23 0.13 0.06 0.05 0.05 0.05 0.07 0.11 0.16 0.50 1.03 0.94 0.74 1.02 0.95
0.10 0.01 0.01 0.00 0.00 0.00 0.01 0.00 0.00 0.00 0.00 0.05 0.02 0.01 0.03 0.02 0.00 0.02 0.01 0.00 0.00 0.00 0.01 0.01 0.01 0.00 0.00 0.06 0.08 0.20 0.16 0.16 0.08 0.11 0.15 0.26 0.20 0.14 0.23 0.89 1.22 0.98 0.99 1.17
0.01 0.01 0.05 0.02 0.00 0.00 0.00 0.02 0.04 0.03 0.04 0.07 0.01 0.02 0.04 0.03 0.02 0.06 0.08 0.05 0.02 0.02 0.03 0.04 0.02 0.02 0.02 0.02 0.11 0.19 0.15 0.21 0.23 0.27 0.22 0.22 0.29 0.18 0.19 0.51 1.07 1.37 1.23 1.24
0.03 0.04 0.03 0.00 0.01 0.01 0.01 0.12 0.26 0.27 0.11 0.05 0.03 0.04 0.06 0.07 0.18 0.31 0.31 0.26 0.14 0.11 0.10 0.09 0.06 0.06 0.07 0.05 0.17 0.19 0.16 0.20 0.23 0.30 0.16 0.19 0.32 0.39 0.42 0.44 0.81 1.32 1.64 1.45
0.17 0.12 0.03 0.06 0.04 0.05 0.05 0.18 0.28 0.36 0.16 0.07 0.04 0.04 0.05 0.13 0.20 0.37 0.61 0.47 0.38 0.24 0.11 0.16 0.16 0.18 0.21 0.20 0.22 0.34 0.30 0.37 0.28 0.19 0.25 0.31 0.38 0.46 0.57 0.49 0.71 1.23 1.16 1.00
0.16 0.09 0.03 0.04 0.04 0.12 0.22 0.18 0.09 0.38 0.27 0.27 0.10 0.04 0.12 0.23 0.33 0.30 0.43 0.43 0.38 0.32 0.20 0.19 0.21 0.24 0.28 0.30 0.29 0.33 0.30 0.49 0.48 0.43 0.47 0.41 0.34 0.34 0.39 0.45 0.43 0.68 0.88 1.01
0.25 0.42 0.09 0.05 0.13 0.15 0.22 0.22 0.45 0.60 0.55 0.34 0.21 0.31 0.99 0.99 0.67 0.95 0.83 0.49 0.36 0.31 0.30 0.27 0.27 0.31 0.32 0.34 0.35 0.49 0.34 0.29 0.45 0.60 0.58 0.39 0.45 0.57 0.46 0.45 0.47 0.62 0.90 1.02
0.11 0.29 0.20 0.22 0.25 0.16 0.22 0.41 0.51 0.50 0.20 0.31 0.56 1.40 1.44 1.74 1.12 0.85 0.47 0.37 0.40 0.31 0.37 0.53 0.61 0.51 0.57 0.56 0.54 0.64 0.72 0.79 0.79 0.72 0.58 0.54 0.69 1.02 0.95 0.85 0.77 0.79 1.09 1.34
0.11 0.43 0.24 0.16 0.08 0.04 0.18 0.27 0.50 0.77 0.43 0.32 0.53 1.44 1.34 1.22 1.12 0.57 0.10 0.03 0.08 0.24 0.27 0.41 0.95 1.10 1.05 1.05 1.18 1.01 0.92 1.01 1.09 0.96 0.89 1.22 1.47 1.56 1.45 1.46 1.58 1.32 1.12 1.09
0.36 0.41 0.45 0.40 0.37 0.22 0.40 0.47 0.44 0.79 0.85 0.70 1.03 1.53 1.41 0.88 0.33 0.07 0.03 0.02 0.02 0.09 0.13 0.21 0.43 0.71 1.25 0.78 1.11 0.94 0.93 1.18 1.40 1.47 1.58 1.70 1.70 1.70 1.76 1.70 1.54 1.39 1.46 1.51
0.66 0.41 0.55 0.33 0.40 0.63 0.64 0.57 0.68 0.80 0.94 0.53 0.79 1.06 1.01 0.58 0.15 0.05 0.05 0.05 0.07 0.10 0.19 0.25 0.29 0.36 0.46 0.68 1.25 2.01 1.01 1.21 1.45 1.52 1.29 1.33 1.68 1.70 1.65 1.49 1.28 1.07 1.08 1.09
0.62 0.42 0.71 0.52 0.17 0.25 0.52 0.63 0.62 0.92 0.67 0.66 0.69 0.54 0.67 0.92 0.46 0.17 0.14 0.10 0.15 0.17 0.19 0.29 0.39 0.47 0.49 0.50 0.48 0.64 0.62 1.19 1.73 1.58 1.41 1.60 1.47 1.39 1.40 1.33 1.02 0.82 0.96 1.01
0.65 0.57 0.86 1.01 0.36 0.47 0.65 0.80 0.52 0.73 0.61 0.56 0.39 0.37 0.43 0.62 0.63 0.38 0.26 0.17 0.22 0.25 0.24 0.25 0.31 0.36 0.42 0.53 0.68 0.67 0.60 0.84 1.10 1.47 1.79 1.35 1.69 1.65 1.20 1.13 0.99 0.95 0.98 1.04
0.80 1.13 1.05 1.12 0.34 0.38 0.73 0.72 0.61 0.50 0.29 0.22 0.29 0.24 0.37 0.64 0.74 0.67 0.48 0.29 0.29 0.27 0.25 0.20 0.26 0.30 0.37 0.40 0.33 0.39 0.49 0.60 0.62 0.99 1.86 1.87 1.92 2.69 1.89 1.15 1.16 1.09 1.44 1.40
1.00 0.89 0.81 0.84 0.49 0.67 0.72 0.37 0.41 0.49 0.36 0.16 0.21 0.27 0.45 0.55 0.46 0.63 0.61 0.61 0.39 0.33 0.30 0.22 0.20 0.26 0.30 0.26 0.22 0.20 0.20 0.29 0.38 0.36 0.76 1.39 1.44 2.05 2.85 2.20 1.85 1.90 1.58 1.49
0.77 0.74 0.79 0.71 0.50 0.51 0.29 0.31 0.38 0.77 0.70 0.36 0.31 0.46 0.45 0.36 0.18 0.52 0.61 0.60 0.85 0.66 0.50 0.54 0.41 0.33 0.33 0.32 0.37 0.31 0.24 0.22 0.23 0.24 0.37 0.55 0.96 1.26 1.65 2.23 2.49 2.40 2.29 1.94
0.31 0.63 0.88 0.51 0.51 0.46 0.22 0.12 0.26 0.51 1.17 0.97 0.73 0.50 0.43 0.34 0.40 0.69 0.70 0.60 0.69 0.99 0.79 0.59 0.55 0.35 0.47 0.54 0.48 0.70 0.49 0.37 0.39 0.40 0.38 0.36 0.51 0.76 1.07 1.33 1.45 1.49 1.45 1.52
0.37 0.66 0.59 0.49 0.55 0.20 0.04 0.06 0.20 1.01 1.17 1.07 1.29 0.85 0.74 0.67 0.69 0.84 0.83 0.69 0.63 0.84 1.20 0.85 0.74 0.60 0.64 0.83 0.62 0.73 1.19 1.06 0.89 0.82 0.77 0.77 0.77 0.76 0.71 0.74 0.71 0.74 0.85 0.84
0.44 0.70 0.56 0.48 0.63 0.29 0.14 0.28 0.67 1.00 1.03 1.04 1.18 1.26 1.42 1.38 1.26 1.08 0.86 0.66 0.54 0.51 0.73 1.15 0.97 0.91 0.80 0.91 1.00 0.85 1.09 1.69 1.57 1.28 1.20 1.12 0.93 0.84 0.82 0.82 0.86 0.78 0.76 0.75
0.46 0.43 0.49 0.41 0.44 0.43 0.23 0.36 0.65 0.71 0.78 0.79 0.84 0.90 1.02 1.03 0.96 0.80 0.53 0.37 0.35 0.43 0.46 0.55 0.92 0.98 0.84 0.74 0.93 1.03 1.15 1.27 1.42 1.47 1.41 1.42 1.32 1.23 1.15 1.07 1.04 0.93 0.84 0.80
0.65 0.33 0.49 0.60 0.76 0.32 0.22 0.27 0.33 0.42 0.59 0.53 0.51 0.49 0.48 0.51 0.56 0.54 0.40 0.28 0.23 0.22 0.24 0.28 0.37 0.62 0.80 0.83 0.66 0.71 0.81 0.88 1.00 1.02 1.08 1.23 1.28 1.28 1.20 1.11 1.12 1.08 1.07 1.11
0.94 0.51 0.61 0.90 1.52 0.76 0.65 0.74 0.68 0.48 0.48 0.40 0.42 0.39 0.35 0.31 0.33 0.33 0.33 0.29 0.27 0.26 0.28 0.30 0.26 0.23 0.29 0.37 0.50 0.57 0.58 0.55 0.54 0.58 0.65 0.66 0.69 0.76 0.79 0.83 0.89 0.81 0.99 0.95
0.71 0.93 0.91 1.06 1.27 1.09 0.94 0.70 0.53 0.38 0.34 0.26 0.19 0.17 0.16 0.16 0.16 0.13 0.11 0.10 0.11 0.19 0.19 0.11 0.09 0.09 0.12 0.13 0.15 0.16 0.20 0.27 0.34 0.40 0.45 0.55 0.58 0.57 0.59 0.64 0.77 0.87 0.89 0.81

GFSCGP_prec_precacc_147.txt.gz
Total_Precipitation_Accumulation
0.00 0.00 0.00 0.00 0.00 0.00 0.00 0.00 0.00 0.00 0.00 0.00 0.00 0.00 0.02 0.14 0.04 0.02 0.03 0.01 0.01 0.00 0.01 0.04 0.07 0.08 0.06 0.12 0.37 0.48 0.71 0.88 0.60 0.38 0.33 0.37 0.42 0.50 0.83 0.84 0.55 0.77 0.98 0.94
0.02 0.01 0.00 0.00 0.00 0.00 0.00 0.00 0.00 0.00 0.00 0.00 0.00 0.00 0.00 0.02 0.00 0.00 0.00 0.00 0.00 0.00 0.00 0.01 0.03 0.05 0.08 0.16 0.38 0.47 0.32 0.27 0.28 0.28 0.16 0.12 0.17 0.29 0.63 0.95 0.69 0.72 0.81 0.76
0.03 0.02 0.00 0.00 0.00 0.00 0.00 0.00 0.00 0.00 0.00 0.00 0.00 0.00 0.00 0.00 0.02 0.07 0.01 0.00 0.00 0.00 0.02 0.02 0.04 0.04 0.06 0.08 0.12 0.24 0.13 0.07 0.07 0.10 0.13 0.11 0.16 0.32 1.03 1.33 1.00 0.74 0.78 0.75
0.09 0.00 0.01 0.01 0.00 0.00 0.00 0.00 0.00 0.00 0.00 0.00 0.00 0.01 0.02 0.01 0.02 0.06 0.01 0.01 0.00 0.00 0.00 0.00 0.00 0.00 0.03 0.03 0.05 0.23 0.13 0.06 0.05 0.05 0.05 0.07 0.11 0.16 0.50 1.03 0.94 0.74 1.02 0.95
0.10 0.01 0.01 0.00 0.00 0.00 0.01 0.00 0.00 0.00 0.00 0.05 0.02 0.01 0.03 0.02 0.00 0.02 0.01 0.00 0.00 0.00 0.01 0.01 0.01 0.00 0.00 0.06 0.08 0.20 0.16 0.16 0.08 0.11 0.15 0.26 0.20 0.14 0.23 0.89 1.22 0.98 0.99 1.17
0.01 0.01 0.05 0.02 0.00 0.00 0.00 0.02 0.04 0.03 0.04 0.07 0.01 0.02 0.04 0.03 0.02 0.06 0.08 0.05 0.02 0.02 0.03 0.04 0.02 0.02 0.02 0.02 0.11 0.19 0.15 0.21 0.23 0.27 0.22 0.22 0.29 0.18 0.19 0.51 1.07 1.37 1.23 1.24
0.03 0.04 0.03 0.00 0.01 0.01 0.01 0.12 0.26 0.27 0.11 0.05 0.03 0.04 0.06 0.07 0.18 0.31 0.31 0.26 0.14 0.11 0.10 0.09 0.06 0.06 0.07 0.05 0.17 0.19 0.16 0.20 0.23 0.30 0.16 0.19 0.32 0.39 0.42 0.44 0.81 1.32 1.64 1.46
0.18 0.12 0.03 0.06 0.04 0.05 0.05 0.18 0.28 0.36 0.16 0.07 0.04 0.04 0.05 0.13 0.20 0.37 0.61 0.47 0.38 0.24 0.11 0.16 0.16 0.18 0.21 0.20 0.22 0.34 0.30 0.37 0.28 0.19 0.25 0.31 0.38 0.46 0.57 0.49 0.71 1.24 1.17 1.01
0.16 0.09 0.03 0.04 0.04 0.12 0.22 0.18 0.09 0.38 0.27 0.27 0.10 0.04 0.12 0.23 0.33 0.30 0.43 0.43 0.38 0.32 0.20 0.19 0.21 0.24 0.28 0.30 0.29 0.33 0.30 0.49 0.48 0.43 0.47 0.41 0.34 0.34 0.39 0.45 0.44 0.68 0.89 1.03
0.25 0.43 0.09 0.05 0.13 0.15 0.22 0.22 0.45 0.60 0.55 0.34 0.21 0.31 0.99 0.99 0.67 0.95 0.83 0.49 0.36 0.31 0.30 0.27 0.27 0.31 0.32 0.34 0.35 0.49 0.34 0.29 0.45 0.60 0.58 0.39 0.45 0.57 0.46 0.45 0.48 0.62 0.93 1.08
0.11 0.29 0.20 0.22 0.25 0.16 0.22 0.41 0.51 0.50 0.20 0.31 0.56 1.40 1.44 1.74 1.12 0.85 0.47 0.37 0.40 0.31 0.37 0.53 0.61 0.51 0.57 0.56 0.54 0.64 0.72 0.79 0.79 0.72 0.58 0.54 0.69 1.02 0.95 0.85 0.77 0.79 1.11 1.38
0.11 0.43 0.24 0.16 0.08 0.04 0.18 0.27 0.50 0.77 0.43 0.32 0.53 1.44 1.34 1.22 1.12 0.57 0.10 0.03 0.08 0.24 0.27 0.41 0.95 1.10 1.05 1.05 1.18 1.01 0.92 1.01 1.09 0.96 0.89 1.22 1.47 1.56 1.45 1.46 1.58 1.32 1.12 1.09
0.36 0.42 0.45 0.41 0.37 0.22 0.40 0.47 0.44 0.79 0.85 0.70 1.03 1.53 1.41 0.88 0.33 0.07 0.03 0.02 0.02 0.09 0.13 0.21 0.43 0.71 1.25 0.78 1.11 0.94 0.93 1.18 1.40 1.47 1.58 1.70 1.70 1.70 1.76 1.70 1.54 1.39 1.46 1.51
0.66 0.41 0.55 0.33 0.40 0.63 0.64 0.57 0.68 0.80 0.94 0.53 0.79 1.06 1.01 0.58 0.15 0.05 0.05 0.05 0.07 0.10 0.19 0.25 0.29 0.36 0.46 0.68 1.25 2.01 1.01 1.21 1.45 1.52 1.29 1.33 1.68 1.70 1.65 1.49 1.28 1.07 1.08 1.09
0.62 0.42 0.71 0.52 0.17 0.25 0.52 0.63 0.62 0.92 0.67 0.66 0.69 0.54 0.67 0.92 0.46 0.17 0.14 0.10 0.15 0.17 0.19 0.29 0.39 0.47 0.49 0.50 0.48 0.64 0.62 1.19 1.73 1.58 1.41 1.60 1.47 1.39 1.40 1.33 1.02 0.82 0.96 1.01
0.65 0.57 0.86 1.01 0.36 0.47 0.65 0.80 0.52 0.73 0.61 0.56 0.39 0.37 0.43 0.62 0.63 0.38 0.26 0.17 0.22 0.25 0.24 0.25 0.31 0.36 0.42 0.53 0.68 0.67 0.60 0.84 1.10 1.47 1.79 1.35 1.69 1.65 1.20 1.13 0.99 0.95 0.98 1.04
0.80 1.13 1.05 1.12 0.34 0.39 0.76 0.72 0.61 0.50 0.29 0.22 0.29 0.24 0.37 0.64 0.74 0.67 0.48 0.29 0.29 0.27 0.25 0.20 0.26 0.30 0.37 0.40 0.33 0.39 0.49 0.60 0.62 0.99 1.86 1.87 1.92 2.69 1.89 1.15 1.16 1.09 1.44 1.40
1.00 0.89 0.83 0.84 0.50 0.71 0.73 0.37 0.41 0.49 0.36 0.16 0.21 0.27 0.45 0.55 0.46 0.63 0.61 0.61 0.39 0.33 0.30 0.22 0.20 0.26 0.30 0.26 0.22 0.20 0.20 0.29 0.38 0.36 0.76 1.39 1.44 2.05 2.85 2.20 1.85 1.90 1.58 1.49
0.77 0.75 0.81 0.75 0.53 0.52 0.29 0.31 0.38 0.77 0.70 0.36 0.31 0.46 0.45 0.36 0.18 0.52 0.61 0.60 0.85 0.66 0.50 0.54 0.41 0.33 0.33 0.32 0.37 0.31 0.24 0.22 0.23 0.24 0.37 0.55 0.96 1.26 1.65 2.23 2.49 2.40 2.29 1.94
0.32 0.65 0.91 0.55 0.55 0.48 0.22 0.12 0.26 0.51 1.17 0.97 0.73 0.50 0.43 0.34 0.40 0.69 0.70 0.60 0.69 0.99 0.79 0.59 0.55 0.35 0.47 0.54 0.48 0.70 0.49 0.37 0.39 0.40 0.38 0.36 0.51 0.76 1.07 1.33 1.45 1.49 1.45 1.52
0.39 0.72 0.66 0.52 0.58 0.21 0.04 0.06 0.20 1.01 1.17 1.07 1.29 0.85 0.74 0.67 0.69 0.84 0.83 0.69 0.63 0.84 1.20 0.85 0.74 0.60 0.64 0.83 0.62 0.73 1.19 1.06 0.89 0.82 0.77 0.77 0.77 0.76 0.71 0.74 0.71 0.74 0.85 0.84
0.45 0.76 0.65 0.55 0.69 0.30 0.14 0.28 0.67 1.00 1.03 1.04 1.18 1.26 1.42 1.38 1.26 1.08 0.86 0.66 0.54 0.51 0.73 1.15 0.97 0.91 0.80 0.91 1.00 0.85 1.09 1.69 1.57 1.28 1.20 1.12 0.93 0.84 0.82 0.82 0.86 0.78 0.76 0.75
0.47 0.43 0.49 0.43 0.45 0.43 0.23 0.36 0.65 0.71 0.78 0.79 0.84 0.90 1.02 1.03 0.96 0.80 0.53 0.37 0.35 0.43 0.46 0.55 0.92 0.98 0.84 0.74 0.93 1.03 1.15 1.27 1.42 1.47 1.41 1.42 1.32 1.23 1.15 1.07 1.04 0.93 0.84 0.80
0.66 0.33 0.49 0.60 0.76 0.32 0.22 0.27 0.35 0.43 0.59 0.53 0.51 0.49 0.48 0.51 0.56 0.54 0.40 0.28 0.23 0.22 0.24 0.28 0.37 0.62 0.80 0.83 0.66 0.71 0.81 0.88 1.00 1.02 1.08 1.23 1.28 1.28 1.20 1.11 1.12 1.08 1.07 1.11
0.94 0.52 0.61 0.91 1.52 0.76 0.65 0.74 0.69 0.49 0.48 0.40 0.42 0.39 0.35 0.31 0.33 0.33 0.33 0.29 0.27 0.26 0.28 0.30 0.26 0.23 0.29 0.37 0.50 0.57 0.58 0.55 0.54 0.58 0.65 0.66 0.69 0.76 0.79 0.83 0.89 0.81 0.99 0.95
0.71 0.93 0.91 1.06 1.27 1.09 0.94 0.70 0.53 0.38 0.34 0.26 0.19 0.17 0.16 0.16 0.16 0.13 0.11 0.10 0.11 0.19 0.19 0.11 0.09 0.09 0.12 0.13 0.15 0.16 0.20 0.27 0.34 0.40 0.45 0.55 0.58 0.57 0.59 0.64 0.77 0.87 0.89 0.81

GFSCGP_prec_precacc_150.txt.gz
Total_Precipitation_Accumulation
0.00 0.00 0.00 0.00 0.00 0.00 0.00 0.00 0.00 0.00 0.00 0.00 0.00 0.00 0.02 0.14 0.04 0.02 0.03 0.01 0.01 0.00 0.01 0.04 0.07 0.08 0.06 0.12 0.37 0.48 0.71 0.88 0.60 0.38 0.33 0.37 0.42 0.50 0.83 0.84 0.55 0.77 0.98 0.94
0.02 0.01 0.00 0.00 0.00 0.00 0.00 0.00 0.00 0.00 0.00 0.00 0.00 0.00 0.00 0.02 0.00 0.00 0.00 0.00 0.00 0.00 0.00 0.01 0.03 0.05 0.08 0.16 0.38 0.47 0.32 0.27 0.28 0.28 0.16 0.12 0.17 0.29 0.63 0.95 0.69 0.72 0.81 0.76
0.03 0.02 0.00 0.00 0.00 0.00 0.00 0.00 0.00 0.00 0.00 0.00 0.00 0.00 0.00 0.00 0.02 0.07 0.01 0.00 0.00 0.00 0.02 0.02 0.04 0.04 0.06 0.08 0.12 0.24 0.13 0.07 0.07 0.10 0.13 0.11 0.16 0.32 1.03 1.33 1.00 0.74 0.78 0.75
0.09 0.00 0.01 0.01 0.00 0.00 0.00 0.00 0.00 0.00 0.00 0.00 0.00 0.01 0.02 0.01 0.02 0.06 0.01 0.01 0.00 0.00 0.00 0.00 0.00 0.00 0.03 0.03 0.05 0.23 0.13 0.06 0.05 0.05 0.05 0.07 0.11 0.16 0.50 1.03 0.94 0.74 1.02 0.95
0.10 0.01 0.01 0.00 0.00 0.00 0.01 0.00 0.00 0.00 0.00 0.05 0.02 0.01 0.03 0.02 0.00 0.02 0.01 0.00 0.00 0.00 0.01 0.01 0.01 0.00 0.00 0.06 0.08 0.20 0.16 0.16 0.08 0.11 0.15 0.26 0.20 0.14 0.23 0.89 1.22 0.98 0.99 1.17
0.01 0.01 0.05 0.02 0.00 0.00 0.00 0.02 0.04 0.03 0.04 0.07 0.01 0.02 0.04 0.03 0.02 0.06 0.08 0.05 0.02 0.02 0.03 0.04 0.02 0.02 0.02 0.02 0.11 0.19 0.15 0.21 0.23 0.27 0.22 0.22 0.29 0.18 0.19 0.51 1.07 1.37 1.23 1.24
0.03 0.04 0.03 0.00 0.01 0.01 0.01 0.12 0.26 0.27 0.11 0.05 0.03 0.04 0.06 0.07 0.18 0.31 0.31 0.26 0.14 0.11 0.10 0.09 0.06 0.06 0.07 0.05 0.17 0.19 0.16 0.20 0.23 0.30 0.16 0.19 0.32 0.39 0.42 0.44 0.81 1.32 1.64 1.46
0.19 0.13 0.03 0.06 0.04 0.05 0.05 0.18 0.28 0.36 0.16 0.07 0.04 0.04 0.05 0.13 0.20 0.37 0.61 0.47 0.38 0.24 0.11 0.16 0.16 0.18 0.21 0.20 0.22 0.34 0.30 0.37 0.28 0.19 0.25 0.31 0.38 0.46 0.57 0.49 0.71 1.24 1.17 1.02
0.21 0.11 0.03 0.04 0.04 0.12 0.22 0.18 0.09 0.38 0.27 0.27 0.10 0.04 0.12 0.23 0.33 0.30 0.43 0.43 0.38 0.32 0.20 0.19 0.21 0.24 0.28 0.30 0.29 0.33 0.30 0.49 0.48 0.43 0.47 0.41 0.34 0.34 0.39 0.45 0.44 0.68 0.89 1.05
0.26 0.46 0.10 0.05 0.13 0.15 0.22 0.22 0.45 0.61 0.55 0.34 0.21 0.31 0.99 0.99 0.67 0.95 0.83 0.49 0.36 0.31 0.30 0.27 0.27 0.31 0.32 0.34 0.35 0.49 0.34 0.29 0.45 0.60 0.58 0.39 0.45 0.57 0.46 0.45 0.48 0.62 0.94 1.09
0.11 0.32 0.21 0.22 0.25 0.16 0.22 0.41 0.51 0.51 0.21 0.31 0.56 1.40 1.44 1.74 1.12 0.85 0.47 0.37 0.40 0.31 0.37 0.53 0.61 0.51 0.57 0.56 0.54 0.64 0.72 0.79 0.79 0.72 0.58 0.54 0.69 1.02 0.95 0.85 0.77 0.79 1.11 1.38
0.11 0.43 0.24 0.16 0.08 0.04 0.18 0.27 0.50 0.78 0.44 0.32 0.53 1.44 1.34 1.22 1.12 0.57 0.10 0.03 0.08 0.24 0.27 0.41 0.95 1.10 1.05 1.05 1.18 1.01 0.92 1.01 1.09 0.96 0.89 1.22 1.47 1.56 1.45 1.46 1.58 1.32 1.12 1.09
0.36 0.47 0.49 0.41 0.37 0.22 0.40 0.47 0.44 0.79 0.85 0.70 1.03 1.53 1.41 0.88 0.33 0.07 0.03 0.02 0.02 0.09 0.13 0.21 0.43 0.71 1.25 0.78 1.11 0.94 0.93 1.18 1.40 1.47 1.58 1.70 1.70 1.70 1.76 1.70 1.54 1.39 1.46 1.51
0.66 0.42 0.61 0.36 0.41 0.63 0.64 0.57 0.68 0.80 0.95 0.53 0.79 1.06 1.01 0.58 0.15 0.05 0.05 0.05 0.07 0.10 0.19 0.25 0.29 0.36 0.46 0.68 1.25 2.01 1.01 1.21 1.45 1.52 1.29 1.33 1.68 1.70 1.65 1.49 1.28 1.07 1.08 1.09
0.62 0.42 0.72 0.53 0.18 0.25 0.52 0.63 0.62 0.92 0.67 0.66 0.69 0.54 0.67 0.92 0.46 0.17 0.14 0.10 0.15 0.17 0.19 0.29 0.39 0.47 0.49 0.50 0.48 0.64 0.62 1.19 1.73 1.58 1.41 1.60 1.47 1.39 1.40 1.33 1.02 0.82 0.96 1.01
0.65 0.57 0.86 1.02 0.36 0.47 0.65 0.80 0.52 0.73 0.61 0.56 0.39 0.37 0.43 0.62 0.63 0.38 0.26 0.17 0.22 0.25 0.24 0.25 0.31 0.36 0.42 0.53 0.68 0.67 0.60 0.84 1.10 1.47 1.79 1.35 1.69 1.65 1.20 1.13 0.99 0.95 0.98 1.04
0.80 1.13 1.06 1.13 0.34 0.40 0.78 0.72 0.61 0.50 0.29 0.22 0.29 0.24 0.37 0.64 0.74 0.67 0.48 0.29 0.29 0.27 0.25 0.20 0.26 0.30 0.37 0.40 0.33 0.39 0.49 0.60 0.62 0.99 1.86 1.87 1.92 2.69 1.89 1.15 1.16 1.09 1.44 1.40
1.00 0.89 0.83 0.84 0.50 0.76 0.75 0.37 0.41 0.49 0.36 0.16 0.21 0.27 0.45 0.55 0.46 0.63 0.61 0.61 0.39 0.33 0.30 0.22 0.20 0.26 0.30 0.26 0.22 0.20 0.20 0.29 0.38 0.36 0.76 1.39 1.44 2.05 2.85 2.20 1.85 1.90 1.58 1.49
0.77 0.76 0.85 0.80 0.56 0.53 0.29 0.31 0.38 0.77 0.70 0.36 0.31 0.46 0.45 0.36 0.18 0.52 0.61 0.60 0.85 0.66 0.50 0.54 0.41 0.33 0.33 0.32 0.37 0.31 0.24 0.22 0.23 0.24 0.37 0.55 0.96 1.26 1.65 2.23 2.49 2.40 2.29 1.94
0.33 0.65 0.92 0.59 0.58 0.50 0.22 0.12 0.26 0.51 1.17 0.97 0.73 0.50 0.43 0.34 0.40 0.69 0.70 0.60 0.69 0.99 0.79 0.59 0.55 0.35 0.47 0.54 0.48 0.70 0.49 0.37 0.39 0.40 0.38 0.36 0.51 0.76 1.07 1.33 1.45 1.49 1.45 1.52
0.41 0.76 0.70 0.55 0.61 0.21 0.04 0.06 0.20 1.01 1.17 1.07 1.29 0.85 0.74 0.67 0.69 0.84 0.83 0.69 0.63 0.84 1.20 0.85 0.74 0.60 0.64 0.83 0.62 0.73 1.19 1.06 0.89 0.82 0.77 0.77 0.77 0.76 0.71 0.74 0.71 0.74 0.85 0.84
0.46 0.79 0.69 0.61 0.78 0.31 0.14 0.28 0.67 1.00 1.03 1.04 1.18 1.26 1.42 1.38 1.26 1.08 0.86 0.66 0.54 0.51 0.73 1.15 0.97 0.91 0.80 0.91 1.00 0.85 1.09 1.69 1.57 1.28 1.20 1.12 0.93 0.84 0.82 0.82 0.86 0.78 0.76 0.75
0.48 0.44 0.50 0.44 0.48 0.43 0.23 0.36 0.65 0.71 0.78 0.79 0.84 0.90 1.02 1.03 0.96 0.80 0.53 0.37 0.35 0.43 0.46 0.55 0.92 0.98 0.84 0.74 0.93 1.03 1.15 1.27 1.42 1.47 1.41 1.42 1.32 1.23 1.15 1.07 1.04 0.93 0.84 0.80
0.67 0.36 0.50 0.60 0.76 0.32 0.22 0.27 0.35 0.43 0.59 0.53 0.51 0.49 0.48 0.51 0.56 0.54 0.40 0.28 0.23 0.22 0.24 0.28 0.37 0.62 0.80 0.83 0.66 0.71 0.81 0.88 1.00 1.02 1.08 1.23 1.28 1.29 1.20 1.11 1.12 1.08 1.07 1.11
0.95 0.52 0.62 0.91 1.52 0.76 0.65 0.74 0.69 0.49 0.48 0.41 0.42 0.39 0.35 0.31 0.33 0.33 0.33 0.29 0.27 0.26 0.28 0.30 0.26 0.23 0.29 0.37 0.50 0.57 0.58 0.55 0.54 0.58 0.65 0.67 0.69 0.76 0.79 0.83 0.89 0.81 0.99 0.95
0.71 0.93 0.91 1.06 1.28 1.09 0.94 0.70 0.53 0.38 0.34 0.26 0.19 0.17 0.16 0.16 0.16 0.13 0.11 0.10 0.11 0.19 0.19 0.11 0.09 0.09 0.12 0.13 0.15 0.16 0.20 0.27 0.34 0.40 0.45 0.55 0.58 0.57 0.59 0.64 0.77 0.87 0.89 0.81

GFSCGP_prec_precacc_153.txt.gz
Total_Precipitation_Accumulation
0.00 0.00 0.00 0.00 0.00 0.00 0.00 0.00 0.00 0.00 0.00 0.00 0.00 0.00 0.02 0.14 0.04 0.02 0.03 0.01 0.01 0.00 0.01 0.04 0.07 0.08 0.06 0.12 0.37 0.48 0.71 0.88 0.60 0.38 0.33 0.37 0.42 0.50 0.83 0.84 0.55 0.77 0.98 0.94
0.02 0.01 0.00 0.00 0.00 0.00 0.00 0.00 0.00 0.00 0.00 0.00 0.00 0.00 0.00 0.02 0.00 0.00 0.00 0.00 0.00 0.00 0.00 0.01 0.03 0.05 0.08 0.16 0.38 0.47 0.32 0.27 0.28 0.28 0.16 0.12 0.17 0.29 0.63 0.95 0.69 0.72 0.81 0.76
0.03 0.02 0.00 0.00 0.00 0.00 0.00 0.00 0.00 0.00 0.00 0.00 0.00 0.00 0.00 0.00 0.02 0.07 0.01 0.00 0.00 0.00 0.02 0.02 0.04 0.04 0.06 0.08 0.12 0.24 0.13 0.07 0.07 0.10 0.13 0.11 0.16 0.32 1.03 1.33 1.00 0.74 0.78 0.75
0.09 0.00 0.01 0.01 0.00 0.00 0.00 0.00 0.00 0.00 0.00 0.00 0.00 0.01 0.02 0.01 0.02 0.06 0.01 0.01 0.00 0.00 0.00 0.00 0.00 0.00 0.03 0.03 0.05 0.23 0.13 0.06 0.05 0.05 0.05 0.07 0.11 0.16 0.50 1.03 0.94 0.74 1.02 0.95
0.10 0.01 0.01 0.00 0.00 0.00 0.01 0.00 0.00 0.00 0.00 0.05 0.02 0.01 0.03 0.02 0.00 0.02 0.01 0.00 0.00 0.00 0.01 0.01 0.01 0.00 0.00 0.06 0.08 0.20 0.16 0.16 0.08 0.11 0.15 0.26 0.20 0.14 0.23 0.89 1.22 0.98 0.99 1.17
0.01 0.01 0.05 0.02 0.00 0.00 0.00 0.02 0.04 0.03 0.04 0.07 0.01 0.02 0.04 0.03 0.02 0.06 0.08 0.05 0.02 0.02 0.03 0.04 0.02 0.02 0.02 0.02 0.11 0.19 0.15 0.21 0.23 0.27 0.22 0.22 0.29 0.18 0.19 0.51 1.07 1.37 1.23 1.24
0.03 0.04 0.03 0.00 0.01 0.01 0.01 0.12 0.26 0.27 0.11 0.05 0.03 0.04 0.06 0.07 0.18 0.31 0.31 0.26 0.14 0.11 0.10 0.09 0.06 0.06 0.07 0.05 0.17 0.19 0.16 0.20 0.23 0.30 0.16 0.19 0.32 0.39 0.42 0.44 0.81 1.32 1.64 1.46
0.19 0.13 0.03 0.06 0.04 0.05 0.05 0.18 0.28 0.37 0.16 0.07 0.04 0.04 0.05 0.13 0.20 0.37 0.61 0.47 0.38 0.24 0.11 0.16 0.16 0.18 0.21 0.20 0.22 0.34 0.30 0.37 0.28 0.19 0.25 0.31 0.38 0.46 0.57 0.49 0.71 1.24 1.18 1.02
0.27 0.12 0.03 0.04 0.04 0.12 0.23 0.18 0.09 0.40 0.32 0.29 0.10 0.04 0.12 0.23 0.33 0.30 0.43 0.43 0.38 0.32 0.20 0.19 0.21 0.24 0.28 0.30 0.29 0.33 0.30 0.49 0.48 0.43 0.47 0.41 0.34 0.34 0.39 0.45 0.44 0.68 0.89 1.05
0.28 0.47 0.10 0.05 0.13 0.15 0.24 0.23 0.48 0.72 0.63 0.37 0.21 0.31 0.99 0.99 0.67 0.95 0.83 0.49 0.36 0.31 0.30 0.27 0.27 0.31 0.32 0.34 0.35 0.49 0.34 0.29 0.45 0.60 0.58 0.39 0.45 0.57 0.46 0.45 0.48 0.62 0.94 1.09
0.15 0.34 0.22 0.22 0.25 0.16 0.22 0.42 0.60 0.65 0.27 0.34 0.57 1.40 1.44 1.74 1.12 0.85 0.47 0.37 0.40 0.31 0.37 0.53 0.61 0.51 0.57 0.56 0.54 0.64 0.72 0.79 0.79 0.72 0.58 0.54 0.69 1.02 0.95 0.85 0.77 0.79 1.11 1.38
0.13 0.47 0.25 0.16 0.08 0.04 0.18 0.27 0.51 0.81 0.47 0.33 0.53 1.44 1.34 1.22 1.12 0.57 0.10 0.03 0.08 0.24 0.27 0.41 0.95 1.10 1.05 1.05 1.18 1.01 0.92 1.01 1.09 0.96 0.89 1.22 1.47 1.56 1.45 1.46 1.58 1.32 1.12 1.09
0.36 0.49 0.50 0.41 0.37 0.22 0.40 0.47 0.45 0.79 0.88 0.77 1.05 1.54 1.41 0.88 0.33 0.07 0.03 0.02 0.02 0.09 0.13 0.21 0.43 0.71 1.25 0.78 1.11 0.94 0.93 1.18 1.40 1.47 1.58 1.70 1.70 1.70 1.76 1.70 1.54 1.39 1.46 1.51
0.66 0.42 0.61 0.36 0.41 0.63 0.64 0.57 0.68 0.82 1.00 0.56 0.81 1.06 1.01 0.58 0.15 0.05 0.05 0.05 0.07 0.10 0.19 0.25 0.29 0.36 0.46 0.68 1.25 2.01 1.01 1.21 1.45 1.52 1.29 1.33 1.68 1.70 1.65 1.49 1.28 1.07 1.08 1.09
0.63 0.43 0.72 0.53 0.18 0.26 0.53 0.63 0.62 0.93 0.67 0.67 0.70 0.54 0.67 0.92 0.46 0.17 0.14 0.10 0.15 0.17 0.19 0.29 0.39 0.47 0.49 0.50 0.48 0.64 0.62 1.19 1.73 1.58 1.41 1.60 1.47 1.39 1.40 1.33 1.02 0.82 0.96 1.01
0.65 0.58 0.87 1.02 0.36 0.48 0.68 0.81 0.52 0.73 0.61 0.56 0.39 0.37 0.43 0.62 0.63 0.38 0.26 0.17 0.22 0.25 0.24 0.25 0.31 0.36 0.42 0.53 0.68 0.67 0.60 0.84 1.10 1.47 1.79 1.35 1.69 1.65 1.20 1.13 0.99 0.95 0.98 1.04
0.80 1.13 1.06 1.14 0.34 0.44 0.86 0.72 0.61 0.50 0.29 0.22 0.29 0.24 0.37 0.64 0.74 0.67 0.48 0.29 0.29 0.27 0.25 0.20 0.26 0.30 0.37 0.40 0.33 0.39 0.49 0.60 0.62 0.99 1.86 1.87 1.92 2.69 1.89 1.15 1.16 1.09 1.44 1.40
1.00 0.89 0.83 0.84 0.51 0.87 0.78 0.37 0.41 0.49 0.36 0.16 0.21 0.27 0.45 0.55 0.46 0.63 0.61 0.61 0.39 0.33 0.30 0.22 0.20 0.26 0.30 0.26 0.22 0.20 0.20 0.29 0.38 0.36 0.76 1.39 1.44 2.05 2.85 2.20 1.85 1.90 1.58 1.49
0.78 0.76 0.86 0.82 0.58 0.54 0.29 0.31 0.38 0.77 0.70 0.36 0.31 0.46 0.45 0.36 0.18 0.52 0.61 0.60 0.85 0.66 0.50 0.54 0.41 0.33 0.33 0.32 0.37 0.31 0.24 0.22 0.23 0.24 0.37 0.55 0.96 1.26 1.65 2.23 2.49 2.40 2.29 1.94
0.33 0.65 0.94 0.63 0.62 0.52 0.22 0.12 0.26 0.51 1.17 0.97 0.73 0.50 0.43 0.34 0.40 0.69 0.70 0.60 0.69 0.99 0.79 0.59 0.55 0.35 0.47 0.54 0.48 0.70 0.49 0.37 0.39 0.40 0.38 0.36 0.51 0.76 1.07 1.33 1.45 1.49 1.45 1.52
0.45 0.80 0.72 0.56 0.62 0.21 0.04 0.06 0.20 1.01 1.17 1.07 1.29 0.85 0.74 0.67 0.69 0.84 0.83 0.69 0.63 0.84 1.20 0.85 0.74 0.60 0.64 0.83 0.62 0.73 1.19 1.06 0.89 0.82 0.77 0.77 0.77 0.76 0.71 0.74 0.71 0.74 0.85 0.84
0.50 0.87 0.75 0.64 0.83 0.32 0.14 0.28 0.67 1.00 1.03 1.04 1.18 1.26 1.42 1.38 1.26 1.08 0.86 0.66 0.54 0.51 0.73 1.15 0.97 0.91 0.80 0.91 1.00 0.85 1.09 1.69 1.57 1.28 1.20 1.12 0.93 0.84 0.82 0.82 0.86 0.78 0.76 0.75
0.49 0.45 0.51 0.44 0.49 0.43 0.23 0.36 0.65 0.71 0.78 0.79 0.84 0.90 1.02 1.03 0.96 0.80 0.53 0.37 0.35 0.43 0.46 0.55 0.92 0.98 0.84 0.74 0.93 1.03 1.15 1.27 1.42 1.47 1.41 1.42 1.32 1.23 1.15 1.07 1.04 0.94 0.85 0.80
0.72 0.38 0.52 0.61 0.77 0.33 0.22 0.27 0.35 0.43 0.59 0.53 0.51 0.49 0.48 0.51 0.56 0.54 0.40 0.28 0.23 0.22 0.24 0.28 0.37 0.62 0.80 0.83 0.66 0.71 0.81 0.88 1.00 1.02 1.08 1.23 1.28 1.29 1.20 1.11 1.12 1.08 1.08 1.11
0.95 0.53 0.62 0.91 1.52 0.77 0.65 0.74 0.69 0.49 0.48 0.41 0.42 0.39 0.35 0.31 0.33 0.33 0.33 0.29 0.27 0.26 0.28 0.30 0.26 0.23 0.29 0.37 0.50 0.57 0.58 0.55 0.54 0.58 0.65 0.67 0.69 0.76 0.79 0.83 0.89 0.81 0.99 0.95
0.71 0.93 0.91 1.06 1.28 1.09 0.94 0.70 0.53 0.38 0.34 0.26 0.19 0.17 0.16 0.16 0.16 0.13 0.11 0.10 0.11 0.19 0.19 0.11 0.09 0.09 0.12 0.13 0.15 0.16 0.20 0.27 0.34 0.40 0.45 0.55 0.58 0.57 0.59 0.64 0.77 0.87 0.89 0.81

GFSCGP_prec_precacc_156.txt.gz
Total_Precipitation_Accumulation
0.00 0.00 0.00 0.00 0.00 0.00 0.00 0.00 0.00 0.00 0.00 0.00 0.00 0.00 0.02 0.14 0.04 0.02 0.03 0.01 0.01 0.00 0.01 0.04 0.07 0.08 0.06 0.12 0.37 0.48 0.71 0.88 0.60 0.38 0.33 0.37 0.42 0.50 0.83 0.84 0.55 0.77 0.98 0.94
0.02 0.01 0.00 0.00 0.00 0.00 0.00 0.00 0.00 0.00 0.00 0.00 0.00 0.00 0.00 0.02 0.00 0.00 0.00 0.00 0.00 0.00 0.00 0.01 0.03 0.05 0.08 0.16 0.38 0.47 0.32 0.27 0.28 0.28 0.16 0.12 0.17 0.29 0.63 0.95 0.69 0.72 0.81 0.76
0.03 0.02 0.00 0.00 0.00 0.00 0.00 0.00 0.00 0.00 0.00 0.00 0.00 0.00 0.00 0.00 0.02 0.07 0.01 0.00 0.00 0.00 0.02 0.02 0.04 0.04 0.06 0.08 0.12 0.24 0.13 0.07 0.07 0.10 0.13 0.11 0.16 0.32 1.03 1.33 1.00 0.74 0.78 0.75
0.09 0.00 0.01 0.01 0.00 0.00 0.00 0.00 0.00 0.00 0.00 0.00 0.00 0.01 0.02 0.01 0.02 0.06 0.01 0.01 0.00 0.00 0.00 0.00 0.00 0.00 0.03 0.03 0.05 0.23 0.13 0.06 0.05 0.05 0.05 0.07 0.11 0.16 0.50 1.03 0.94 0.74 1.02 0.95
0.10 0.01 0.01 0.00 0.00 0.00 0.01 0.00 0.00 0.00 0.00 0.05 0.02 0.01 0.03 0.02 0.00 0.02 0.01 0.00 0.00 0.00 0.01 0.01 0.01 0.00 0.00 0.06 0.08 0.20 0.16 0.16 0.08 0.11 0.15 0.26 0.20 0.14 0.23 0.89 1.22 0.98 0.99 1.17
0.01 0.01 0.05 0.02 0.00 0.00 0.00 0.02 0.04 0.03 0.04 0.07 0.01 0.02 0.04 0.03 0.02 0.06 0.08 0.05 0.02 0.02 0.03 0.04 0.02 0.02 0.02 0.02 0.11 0.19 0.15 0.21 0.23 0.27 0.22 0.22 0.29 0.18 0.19 0.51 1.07 1.37 1.23 1.24
0.03 0.04 0.03 0.00 0.01 0.01 0.01 0.12 0.26 0.27 0.11 0.05 0.03 0.04 0.06 0.07 0.18 0.31 0.31 0.26 0.14 0.11 0.10 0.09 0.06 0.06 0.07 0.05 0.17 0.19 0.16 0.20 0.23 0.30 0.16 0.19 0.32 0.39 0.42 0.44 0.81 1.32 1.64 1.46
0.19 0.13 0.03 0.06 0.04 0.05 0.05 0.18 0.28 0.37 0.16 0.07 0.04 0.04 0.05 0.13 0.20 0.37 0.61 0.47 0.38 0.24 0.11 0.16 0.16 0.18 0.21 0.20 0.22 0.34 0.30 0.37 0.28 0.19 0.25 0.31 0.38 0.46 0.57 0.49 0.71 1.24 1.18 1.02
0.29 0.13 0.03 0.04 0.04 0.12 0.23 0.18 0.09 0.41 0.34 0.30 0.10 0.04 0.12 0.23 0.33 0.30 0.43 0.43 0.38 0.32 0.20 0.19 0.21 0.24 0.28 0.30 0.29 0.33 0.30 0.49 0.48 0.43 0.47 0.41 0.34 0.34 0.39 0.45 0.44 0.68 0.89 1.05
0.34 0.49 0.10 0.05 0.14 0.15 0.24 0.23 0.52 0.90 0.74 0.39 0.21 0.31 0.99 0.99 0.67 0.95 0.83 0.49 0.36 0.31 0.30 0.27 0.27 0.31 0.32 0.34 0.35 0.49 0.34 0.29 0.45 0.60 0.58 0.39 0.45 0.57 0.46 0.45 0.48 0.62 0.94 1.09
0.25 0.42 0.24 0.24 0.30 0.18 0.26 0.46 0.79 0.81 0.40 0.42 0.62 1.41 1.44 1.74 1.12 0.85 0.47 0.37 0.40 0.31 0.37 0.53 0.61 0.51 0.57 0.56 0.54 0.64 0.72 0.79 0.79 0.72 0.58 0.54 0.69 1.02 0.95 0.85 0.77 0.79 1.11 1.38
0.19 0.57 0.33 0.18 0.08 0.04 0.20 0.34 0.68 1.03 0.64 0.42 0.60 1.46 1.34 1.22 1.12 0.57 0.10 0.03 0.08 0.24 0.27 0.41 0.95 1.10 1.05 1.05 1.18 1.01 0.92 1.01 1.09 0.96 0.89 1.22 1.47 1.56 1.45 1.46 1.58 1.32 1.12 1.09
0.38 0.56 0.59 0.46 0.40 0.24 0.41 0.47 0.46 0.83 0.98 0.88 1.11 1.56 1.41 0.88 0.33 0.07 0.03 0.02 0.02 0.09 0.13 0.21 0.43 0.71 1.25 0.78 1.11 0.94 0.93 1.18 1.40 1.47 1.58 1.70 1.70 1.70 1.76 1.70 1.54 1.39 1.46 1.51
0.70 0.45 0.61 0.36 0.41 0.64 0.67 0.60 0.70 0.90 1.15 0.61 0.84 1.06 1.01 0.58 0.15 0.05 0.05 0.05 0.07 0.10 0.19 0.25 0.29 0.36 0.46 0.68 1.25 2.01 1.01 1.21 1.45 1.52 1.29 1.33 1.68 1.70 1.65 1.49 1.28 1.07 1.08 1.09
0.68 0.55 0.77 0.56 0.19 0.26 0.53 0.63 0.62 0.94 0.69 0.69 0.71 0.54 0.67 0.92 0.46 0.17 0.14 0.10 0.15 0.17 0.19 0.29 0.39 0.47 0.49 0.50 0.48 0.64 0.62 1.19 1.73 1.58 1.41 1.60 1.47 1.39 1.40 1.33 1.02 0.82 0.96 1.01
0.65 0.60 0.89 1.08 0.37 0.49 0.69 0.81 0.52 0.73 0.61 0.56 0.39 0.37 0.43 0.62 0.63 0.38 0.26 0.17 0.22 0.25 0.24 0.25 0.31 0.36 0.42 0.53 0.68 0.67 0.60 0.84 1.10 1.47 1.79 1.35 1.69 1.65 1.20 1.13 0.99 0.95 0.98 1.04
0.82 1.14 1.08 1.17 0.34 0.46 0.90 0.72 0.61 0.50 0.29 0.22 0.29 0.24 0.37 0.64 0.74 0.67 0.48 0.29 0.29 0.27 0.25 0.20 0.26 0.30 0.37 0.40 0.33 0.39 0.49 0.60 0.62 0.99 1.86 1.87 1.92 2.69 1.89 1.15 1.16 1.09 1.44 1.40
1.04 0.92 0.86 0.87 0.53 0.94 0.79 0.37 0.41 0.49 0.36 0.16 0.21 0.27 0.45 0.55 0.46 0.63 0.61 0.61 0.39 0.33 0.30 0.22 0.20 0.26 0.30 0.26 0.22 0.20 0.20 0.29 0.38 0.36 0.76 1.39 1.44 2.05 2.85 2.20 1.85 1.90 1.58 1.49
0.78 0.77 0.89 0.86 0.60 0.55 0.29 0.31 0.38 0.77 0.70 0.36 0.31 0.46 0.45 0.36 0.18 0.52 0.61 0.60 0.85 0.66 0.50 0.54 0.41 0.33 0.33 0.32 0.37 0.31 0.24 0.22 0.23 0.24 0.37 0.55 0.96 1.26 1.65 2.23 2.49 2.40 2.29 1.94
0.34 0.67 0.98 0.72 0.68 0.53 0.22 0.12 0.26 0.51 1.17 0.97 0.73 0.50 0.43 0.34 0.40 0.69 0.70 0.60 0.69 0.99 0.79 0.59 0.55 0.35 0.47 0.54 0.48 0.70 0.49 0.37 0.39 0.40 0.38 0.36 0.51 0.76 1.07 1.33 1.45 1.49 1.45 1.52
0.47 0.84 0.78 0.62 0.66 0.22 0.04 0.06 0.20 1.01 1.17 1.07 1.29 0.85 0.74 0.67 0.69 0.84 0.83 0.69 0.63 0.84 1.20 0.85 0.74 0.60 0.64 0.83 0.62 0.73 1.19 1.06 0.89 0.82 0.77 0.77 0.77 0.76 0.71 0.74 0.71 0.74 0.85 0.84
0.51 0.91 0.79 0.67 0.88 0.35 0.14 0.28 0.67 1.00 1.03 1.04 1.18 1.26 1.42 1.38 1.26 1.08 0.86 0.66 0.54 0.51 0.73 1.15 0.97 0.91 0.80 0.91 1.00 0.85 1.09 1.69 1.57 1.28 1.20 1.12 0.93 0.84 0.82 0.82 0.86 0.78 0.76 0.75
0.56 0.47 0.54 0.47 0.51 0.43 0.23 0.36 0.65 0.71 0.78 0.79 0.84 0.90 1.02 1.03 0.96 0.80 0.53 0.37 0.35 0.43 0.46 0.55 0.92 0.98 0.84 0.74 0.93 1.03 1.15 1.27 1.42 1.47 1.41 1.42 1.32 1.23 1.15 1.07 1.05 0.94 0.85 0.80
0.82 0.47 0.62 0.63 0.77 0.33 0.22 0.27 0.35 0.43 0.59 0.53 0.51 0.49 0.48 0.51 0.56 0.54 0.40 0.28 0.23 0.22 0.24 0.28 0.37 0.62 0.80 0.83 0.66 0.71 0.81 0.88 1.00 1.02 1.08 1.23 1.28 1.29 1.20 1.11 1.12 1.09 1.08 1.11
0.96 0.59 0.77 0.97 1.53 0.77 0.65 0.74 0.69 0.49 0.48 0.41 0.42 0.39 0.35 0.31 0.33 0.33 0.33 0.29 0.27 0.26 0.28 0.30 0.26 0.23 0.29 0.37 0.50 0.57 0.58 0.55 0.54 0.58 0.65 0.67 0.69 0.76 0.79 0.83 0.90 0.82 0.99 0.95
0.71 0.93 0.91 1.06 1.28 1.09 0.94 0.70 0.53 0.38 0.34 0.26 0.19 0.17 0.16 0.16 0.16 0.13 0.11 0.10 0.11 0.19 0.19 0.11 0.09 0.09 0.12 0.13 0.15 0.16 0.20 0.27 0.34 0.40 0.45 0.55 0.58 0.57 0.59 0.65 0.78 0.88 0.89 0.81